<?xml version="1.0" encoding="UTF-8" standalone="no" ?>
<gpx xmlns="http://www.topografix.com/GPX/1/1" xmlns:xsi="http://www.w3.org/2001/XMLSchema-instance" xsi:schemaLocation="http://www.topografix.com/GPX/1/1 http://www.topografix.com/GPX/1/1/gpx.xsd" version="1.1" creator="VisuGPX - https://www.visugpx.com">
  <metadata>
    <name>Tête des Chaudières</name>
    <desc><![CDATA[Tête des Chaudières, remontée vers les pistes de Corrençon]]></desc>
  </metadata>
  <trk>
    <name><![CDATA[2017-12-03 09-21]]></name>
    <trkseg>
      <trkpt lat="45.0204" lon="5.52842">
        <ele>1233.2</ele>
        <time>2017-12-03T08:26:41Z</time>
      </trkpt>
      <trkpt lat="45.02038" lon="5.52847">
        <ele>1231.8</ele>
        <time>2017-12-03T08:26:46Z</time>
      </trkpt>
      <trkpt lat="45.02038" lon="5.52849">
        <ele>1232</ele>
        <time>2017-12-03T08:26:51Z</time>
      </trkpt>
      <trkpt lat="45.02038" lon="5.52855">
        <ele>1230.6</ele>
        <time>2017-12-03T08:26:56Z</time>
      </trkpt>
      <trkpt lat="45.02039" lon="5.52862">
        <ele>1234</ele>
        <time>2017-12-03T08:27:01Z</time>
      </trkpt>
      <trkpt lat="45.02041" lon="5.52868">
        <ele>1235.6</ele>
        <time>2017-12-03T08:27:06Z</time>
      </trkpt>
      <trkpt lat="45.02042" lon="5.52875">
        <ele>1235.6</ele>
        <time>2017-12-03T08:27:11Z</time>
      </trkpt>
      <trkpt lat="45.02041" lon="5.52881">
        <ele>1234.2</ele>
        <time>2017-12-03T08:27:16Z</time>
      </trkpt>
      <trkpt lat="45.02041" lon="5.52886">
        <ele>1236.2</ele>
        <time>2017-12-03T08:27:21Z</time>
      </trkpt>
      <trkpt lat="45.02042" lon="5.52892">
        <ele>1237.6</ele>
        <time>2017-12-03T08:27:26Z</time>
      </trkpt>
      <trkpt lat="45.02043" lon="5.529">
        <ele>1235.8</ele>
        <time>2017-12-03T08:27:31Z</time>
      </trkpt>
      <trkpt lat="45.02042" lon="5.52906">
        <ele>1238</ele>
        <time>2017-12-03T08:27:36Z</time>
      </trkpt>
      <trkpt lat="45.02041" lon="5.52912">
        <ele>1237.8</ele>
        <time>2017-12-03T08:27:41Z</time>
      </trkpt>
      <trkpt lat="45.02039" lon="5.52921">
        <ele>1238.8</ele>
        <time>2017-12-03T08:27:46Z</time>
      </trkpt>
      <trkpt lat="45.02036" lon="5.52928">
        <ele>1239</ele>
        <time>2017-12-03T08:27:51Z</time>
      </trkpt>
      <trkpt lat="45.02031" lon="5.52933">
        <ele>1238</ele>
        <time>2017-12-03T08:27:56Z</time>
      </trkpt>
      <trkpt lat="45.02027" lon="5.52937">
        <ele>1237.4</ele>
        <time>2017-12-03T08:28:01Z</time>
      </trkpt>
      <trkpt lat="45.02022" lon="5.5294">
        <ele>1234.6</ele>
        <time>2017-12-03T08:28:06Z</time>
      </trkpt>
      <trkpt lat="45.02017" lon="5.52944">
        <ele>1236.8</ele>
        <time>2017-12-03T08:28:11Z</time>
      </trkpt>
      <trkpt lat="45.02012" lon="5.52946">
        <ele>1236</ele>
        <time>2017-12-03T08:28:16Z</time>
      </trkpt>
      <trkpt lat="45.02007" lon="5.52947">
        <ele>1235.2</ele>
        <time>2017-12-03T08:28:21Z</time>
      </trkpt>
      <trkpt lat="45.02002" lon="5.52948">
        <ele>1236.4</ele>
        <time>2017-12-03T08:28:26Z</time>
      </trkpt>
      <trkpt lat="45.01997" lon="5.5295">
        <ele>1237.6</ele>
        <time>2017-12-03T08:28:31Z</time>
      </trkpt>
      <trkpt lat="45.01993" lon="5.5295">
        <ele>1239.4</ele>
        <time>2017-12-03T08:28:36Z</time>
      </trkpt>
      <trkpt lat="45.01988" lon="5.5295">
        <ele>1241</ele>
        <time>2017-12-03T08:28:41Z</time>
      </trkpt>
      <trkpt lat="45.01983" lon="5.52951">
        <ele>1241</ele>
        <time>2017-12-03T08:28:46Z</time>
      </trkpt>
      <trkpt lat="45.01978" lon="5.52951">
        <ele>1238.6</ele>
        <time>2017-12-03T08:28:51Z</time>
      </trkpt>
      <trkpt lat="45.01972" lon="5.52952">
        <ele>1240</ele>
        <time>2017-12-03T08:28:57Z</time>
      </trkpt>
      <trkpt lat="45.01966" lon="5.52952">
        <ele>1240.2</ele>
        <time>2017-12-03T08:29:02Z</time>
      </trkpt>
      <trkpt lat="45.01961" lon="5.52952">
        <ele>1236.2</ele>
        <time>2017-12-03T08:29:07Z</time>
      </trkpt>
      <trkpt lat="45.01955" lon="5.52952">
        <ele>1239</ele>
        <time>2017-12-03T08:29:12Z</time>
      </trkpt>
      <trkpt lat="45.01949" lon="5.52952">
        <ele>1240.2</ele>
        <time>2017-12-03T08:29:17Z</time>
      </trkpt>
      <trkpt lat="45.01944" lon="5.52949">
        <ele>1241.4</ele>
        <time>2017-12-03T08:29:22Z</time>
      </trkpt>
      <trkpt lat="45.01938" lon="5.52948">
        <ele>1239.6</ele>
        <time>2017-12-03T08:29:27Z</time>
      </trkpt>
      <trkpt lat="45.01932" lon="5.52948">
        <ele>1238.6</ele>
        <time>2017-12-03T08:29:32Z</time>
      </trkpt>
      <trkpt lat="45.01926" lon="5.52946">
        <ele>1239.6</ele>
        <time>2017-12-03T08:29:37Z</time>
      </trkpt>
      <trkpt lat="45.01921" lon="5.52945">
        <ele>1242.6</ele>
        <time>2017-12-03T08:29:42Z</time>
      </trkpt>
      <trkpt lat="45.0192" lon="5.52945">
        <ele>1242.2</ele>
        <time>2017-12-03T08:29:47Z</time>
      </trkpt>
      <trkpt lat="45.01917" lon="5.52943">
        <ele>1241</ele>
        <time>2017-12-03T08:29:52Z</time>
      </trkpt>
      <trkpt lat="45.01912" lon="5.52942">
        <ele>1240.4</ele>
        <time>2017-12-03T08:29:57Z</time>
      </trkpt>
      <trkpt lat="45.01907" lon="5.52941">
        <ele>1240.6</ele>
        <time>2017-12-03T08:30:02Z</time>
      </trkpt>
      <trkpt lat="45.01901" lon="5.5294">
        <ele>1240.8</ele>
        <time>2017-12-03T08:30:07Z</time>
      </trkpt>
      <trkpt lat="45.01895" lon="5.52938">
        <ele>1243</ele>
        <time>2017-12-03T08:30:12Z</time>
      </trkpt>
      <trkpt lat="45.01888" lon="5.52936">
        <ele>1241.2</ele>
        <time>2017-12-03T08:30:17Z</time>
      </trkpt>
      <trkpt lat="45.0188" lon="5.52933">
        <ele>1243.4</ele>
        <time>2017-12-03T08:30:22Z</time>
      </trkpt>
      <trkpt lat="45.01872" lon="5.5293">
        <ele>1242.4</ele>
        <time>2017-12-03T08:30:27Z</time>
      </trkpt>
      <trkpt lat="45.01865" lon="5.52927">
        <ele>1241.2</ele>
        <time>2017-12-03T08:30:32Z</time>
      </trkpt>
      <trkpt lat="45.01857" lon="5.52926">
        <ele>1241</ele>
        <time>2017-12-03T08:30:37Z</time>
      </trkpt>
      <trkpt lat="45.0185" lon="5.52927">
        <ele>1242</ele>
        <time>2017-12-03T08:30:42Z</time>
      </trkpt>
      <trkpt lat="45.01843" lon="5.52932">
        <ele>1240.4</ele>
        <time>2017-12-03T08:30:47Z</time>
      </trkpt>
      <trkpt lat="45.01836" lon="5.52937">
        <ele>1243.4</ele>
        <time>2017-12-03T08:30:52Z</time>
      </trkpt>
      <trkpt lat="45.0183" lon="5.52944">
        <ele>1244</ele>
        <time>2017-12-03T08:30:57Z</time>
      </trkpt>
      <trkpt lat="45.01824" lon="5.52951">
        <ele>1241.2</ele>
        <time>2017-12-03T08:31:02Z</time>
      </trkpt>
      <trkpt lat="45.01817" lon="5.52956">
        <ele>1243.4</ele>
        <time>2017-12-03T08:31:07Z</time>
      </trkpt>
      <trkpt lat="45.01812" lon="5.52961">
        <ele>1245.4</ele>
        <time>2017-12-03T08:31:12Z</time>
      </trkpt>
      <trkpt lat="45.01807" lon="5.52966">
        <ele>1241.2</ele>
        <time>2017-12-03T08:31:17Z</time>
      </trkpt>
      <trkpt lat="45.01802" lon="5.52972">
        <ele>1241.8</ele>
        <time>2017-12-03T08:31:22Z</time>
      </trkpt>
      <trkpt lat="45.01796" lon="5.52978">
        <ele>1242.4</ele>
        <time>2017-12-03T08:31:27Z</time>
      </trkpt>
      <trkpt lat="45.01791" lon="5.52983">
        <ele>1242.6</ele>
        <time>2017-12-03T08:31:32Z</time>
      </trkpt>
      <trkpt lat="45.01786" lon="5.52989">
        <ele>1241.8</ele>
        <time>2017-12-03T08:31:37Z</time>
      </trkpt>
      <trkpt lat="45.01781" lon="5.52993">
        <ele>1241.8</ele>
        <time>2017-12-03T08:31:42Z</time>
      </trkpt>
      <trkpt lat="45.01777" lon="5.52997">
        <ele>1242.2</ele>
        <time>2017-12-03T08:31:47Z</time>
      </trkpt>
      <trkpt lat="45.01773" lon="5.53">
        <ele>1243.6</ele>
        <time>2017-12-03T08:31:52Z</time>
      </trkpt>
      <trkpt lat="45.01772" lon="5.53">
        <ele>1243.6</ele>
        <time>2017-12-03T08:31:57Z</time>
      </trkpt>
      <trkpt lat="45.01772" lon="5.53">
        <ele>1243.6</ele>
        <time>2017-12-03T08:32:02Z</time>
      </trkpt>
      <trkpt lat="45.01772" lon="5.53">
        <ele>1243.6</ele>
        <time>2017-12-03T08:32:07Z</time>
      </trkpt>
      <trkpt lat="45.01772" lon="5.53">
        <ele>1243.6</ele>
        <time>2017-12-03T08:32:12Z</time>
      </trkpt>
      <trkpt lat="45.0177" lon="5.53002">
        <ele>1244.4</ele>
        <time>2017-12-03T08:32:17Z</time>
      </trkpt>
      <trkpt lat="45.01765" lon="5.53005">
        <ele>1246</ele>
        <time>2017-12-03T08:32:22Z</time>
      </trkpt>
      <trkpt lat="45.01762" lon="5.53007">
        <ele>1245</ele>
        <time>2017-12-03T08:32:27Z</time>
      </trkpt>
      <trkpt lat="45.01762" lon="5.53007">
        <ele>1245</ele>
        <time>2017-12-03T08:32:32Z</time>
      </trkpt>
      <trkpt lat="45.01762" lon="5.53007">
        <ele>1244.8</ele>
        <time>2017-12-03T08:32:37Z</time>
      </trkpt>
      <trkpt lat="45.01758" lon="5.53009">
        <ele>1243.4</ele>
        <time>2017-12-03T08:32:42Z</time>
      </trkpt>
      <trkpt lat="45.01755" lon="5.5301">
        <ele>1245.6</ele>
        <time>2017-12-03T08:32:47Z</time>
      </trkpt>
      <trkpt lat="45.01752" lon="5.53011">
        <ele>1244.4</ele>
        <time>2017-12-03T08:32:52Z</time>
      </trkpt>
      <trkpt lat="45.01747" lon="5.53013">
        <ele>1243</ele>
        <time>2017-12-03T08:32:57Z</time>
      </trkpt>
      <trkpt lat="45.01741" lon="5.53013">
        <ele>1246.6</ele>
        <time>2017-12-03T08:33:02Z</time>
      </trkpt>
      <trkpt lat="45.01735" lon="5.53011">
        <ele>1246.4</ele>
        <time>2017-12-03T08:33:07Z</time>
      </trkpt>
      <trkpt lat="45.01729" lon="5.53011">
        <ele>1246.8</ele>
        <time>2017-12-03T08:33:12Z</time>
      </trkpt>
      <trkpt lat="45.01726" lon="5.5301">
        <ele>1250.4</ele>
        <time>2017-12-03T08:33:17Z</time>
      </trkpt>
      <trkpt lat="45.01725" lon="5.53011">
        <ele>1250</ele>
        <time>2017-12-03T08:33:22Z</time>
      </trkpt>
      <trkpt lat="45.01725" lon="5.53011">
        <ele>1249.8</ele>
        <time>2017-12-03T08:33:27Z</time>
      </trkpt>
      <trkpt lat="45.01725" lon="5.5301">
        <ele>1249.6</ele>
        <time>2017-12-03T08:33:32Z</time>
      </trkpt>
      <trkpt lat="45.01725" lon="5.5301">
        <ele>1249.6</ele>
        <time>2017-12-03T08:33:37Z</time>
      </trkpt>
      <trkpt lat="45.01725" lon="5.5301">
        <ele>1249.6</ele>
        <time>2017-12-03T08:33:42Z</time>
      </trkpt>
      <trkpt lat="45.01725" lon="5.5301">
        <ele>1249.4</ele>
        <time>2017-12-03T08:33:47Z</time>
      </trkpt>
      <trkpt lat="45.01725" lon="5.5301">
        <ele>1249.4</ele>
        <time>2017-12-03T08:33:52Z</time>
      </trkpt>
      <trkpt lat="45.01724" lon="5.53011">
        <ele>1248.8</ele>
        <time>2017-12-03T08:33:57Z</time>
      </trkpt>
      <trkpt lat="45.01724" lon="5.53011">
        <ele>1249</ele>
        <time>2017-12-03T08:34:02Z</time>
      </trkpt>
      <trkpt lat="45.01721" lon="5.53012">
        <ele>1247.2</ele>
        <time>2017-12-03T08:34:07Z</time>
      </trkpt>
      <trkpt lat="45.01717" lon="5.53015">
        <ele>1250.6</ele>
        <time>2017-12-03T08:34:12Z</time>
      </trkpt>
      <trkpt lat="45.01713" lon="5.53017">
        <ele>1252.4</ele>
        <time>2017-12-03T08:34:17Z</time>
      </trkpt>
      <trkpt lat="45.01708" lon="5.53021">
        <ele>1257</ele>
        <time>2017-12-03T08:34:23Z</time>
      </trkpt>
      <trkpt lat="45.01704" lon="5.53023">
        <ele>1254</ele>
        <time>2017-12-03T08:34:28Z</time>
      </trkpt>
      <trkpt lat="45.017" lon="5.53026">
        <ele>1255.8</ele>
        <time>2017-12-03T08:34:33Z</time>
      </trkpt>
      <trkpt lat="45.01696" lon="5.53028">
        <ele>1258.2</ele>
        <time>2017-12-03T08:34:38Z</time>
      </trkpt>
      <trkpt lat="45.01693" lon="5.5303">
        <ele>1256.4</ele>
        <time>2017-12-03T08:34:43Z</time>
      </trkpt>
      <trkpt lat="45.01689" lon="5.53033">
        <ele>1261.4</ele>
        <time>2017-12-03T08:34:48Z</time>
      </trkpt>
      <trkpt lat="45.01686" lon="5.53035">
        <ele>1259.2</ele>
        <time>2017-12-03T08:34:53Z</time>
      </trkpt>
      <trkpt lat="45.01683" lon="5.53035">
        <ele>1262.4</ele>
        <time>2017-12-03T08:34:58Z</time>
      </trkpt>
      <trkpt lat="45.01679" lon="5.53033">
        <ele>1260.6</ele>
        <time>2017-12-03T08:35:03Z</time>
      </trkpt>
      <trkpt lat="45.01676" lon="5.53033">
        <ele>1261.8</ele>
        <time>2017-12-03T08:35:08Z</time>
      </trkpt>
      <trkpt lat="45.01671" lon="5.53033">
        <ele>1263.6</ele>
        <time>2017-12-03T08:35:13Z</time>
      </trkpt>
      <trkpt lat="45.01667" lon="5.53034">
        <ele>1263.6</ele>
        <time>2017-12-03T08:35:18Z</time>
      </trkpt>
      <trkpt lat="45.01661" lon="5.53035">
        <ele>1262.8</ele>
        <time>2017-12-03T08:35:23Z</time>
      </trkpt>
      <trkpt lat="45.01656" lon="5.53036">
        <ele>1264.4</ele>
        <time>2017-12-03T08:35:28Z</time>
      </trkpt>
      <trkpt lat="45.0165" lon="5.53038">
        <ele>1266.2</ele>
        <time>2017-12-03T08:35:33Z</time>
      </trkpt>
      <trkpt lat="45.01645" lon="5.53039">
        <ele>1265.8</ele>
        <time>2017-12-03T08:35:38Z</time>
      </trkpt>
      <trkpt lat="45.01641" lon="5.5304">
        <ele>1265.4</ele>
        <time>2017-12-03T08:35:43Z</time>
      </trkpt>
      <trkpt lat="45.01637" lon="5.53041">
        <ele>1266.4</ele>
        <time>2017-12-03T08:35:48Z</time>
      </trkpt>
      <trkpt lat="45.01633" lon="5.53041">
        <ele>1265.2</ele>
        <time>2017-12-03T08:35:53Z</time>
      </trkpt>
      <trkpt lat="45.01629" lon="5.53042">
        <ele>1267.4</ele>
        <time>2017-12-03T08:35:58Z</time>
      </trkpt>
      <trkpt lat="45.01625" lon="5.53042">
        <ele>1270.2</ele>
        <time>2017-12-03T08:36:03Z</time>
      </trkpt>
      <trkpt lat="45.01621" lon="5.53041">
        <ele>1271.6</ele>
        <time>2017-12-03T08:36:08Z</time>
      </trkpt>
      <trkpt lat="45.01617" lon="5.53041">
        <ele>1272.2</ele>
        <time>2017-12-03T08:36:13Z</time>
      </trkpt>
      <trkpt lat="45.01614" lon="5.53041">
        <ele>1273.4</ele>
        <time>2017-12-03T08:36:18Z</time>
      </trkpt>
      <trkpt lat="45.0161" lon="5.5304">
        <ele>1273.6</ele>
        <time>2017-12-03T08:36:23Z</time>
      </trkpt>
      <trkpt lat="45.01607" lon="5.53039">
        <ele>1275.6</ele>
        <time>2017-12-03T08:36:28Z</time>
      </trkpt>
      <trkpt lat="45.01603" lon="5.53039">
        <ele>1274.4</ele>
        <time>2017-12-03T08:36:33Z</time>
      </trkpt>
      <trkpt lat="45.01599" lon="5.53038">
        <ele>1276</ele>
        <time>2017-12-03T08:36:38Z</time>
      </trkpt>
      <trkpt lat="45.01595" lon="5.53038">
        <ele>1275.8</ele>
        <time>2017-12-03T08:36:43Z</time>
      </trkpt>
      <trkpt lat="45.01592" lon="5.53038">
        <ele>1275.6</ele>
        <time>2017-12-03T08:36:48Z</time>
      </trkpt>
      <trkpt lat="45.01588" lon="5.53039">
        <ele>1277.2</ele>
        <time>2017-12-03T08:36:53Z</time>
      </trkpt>
      <trkpt lat="45.01584" lon="5.53039">
        <ele>1277.6</ele>
        <time>2017-12-03T08:36:58Z</time>
      </trkpt>
      <trkpt lat="45.01581" lon="5.53041">
        <ele>1281.2</ele>
        <time>2017-12-03T08:37:03Z</time>
      </trkpt>
      <trkpt lat="45.01577" lon="5.53042">
        <ele>1276.8</ele>
        <time>2017-12-03T08:37:08Z</time>
      </trkpt>
      <trkpt lat="45.01573" lon="5.53044">
        <ele>1280.4</ele>
        <time>2017-12-03T08:37:13Z</time>
      </trkpt>
      <trkpt lat="45.0157" lon="5.53046">
        <ele>1281.4</ele>
        <time>2017-12-03T08:37:18Z</time>
      </trkpt>
      <trkpt lat="45.01566" lon="5.53047">
        <ele>1283.4</ele>
        <time>2017-12-03T08:37:23Z</time>
      </trkpt>
      <trkpt lat="45.01563" lon="5.53048">
        <ele>1285</ele>
        <time>2017-12-03T08:37:28Z</time>
      </trkpt>
      <trkpt lat="45.0156" lon="5.53049">
        <ele>1285</ele>
        <time>2017-12-03T08:37:33Z</time>
      </trkpt>
      <trkpt lat="45.01557" lon="5.5305">
        <ele>1285</ele>
        <time>2017-12-03T08:37:38Z</time>
      </trkpt>
      <trkpt lat="45.01553" lon="5.53052">
        <ele>1288</ele>
        <time>2017-12-03T08:37:43Z</time>
      </trkpt>
      <trkpt lat="45.01551" lon="5.53053">
        <ele>1289.6</ele>
        <time>2017-12-03T08:37:48Z</time>
      </trkpt>
      <trkpt lat="45.0155" lon="5.53053">
        <ele>1288.4</ele>
        <time>2017-12-03T08:37:53Z</time>
      </trkpt>
      <trkpt lat="45.01547" lon="5.53054">
        <ele>1291</ele>
        <time>2017-12-03T08:37:58Z</time>
      </trkpt>
      <trkpt lat="45.01544" lon="5.53056">
        <ele>1292.6</ele>
        <time>2017-12-03T08:38:03Z</time>
      </trkpt>
      <trkpt lat="45.01542" lon="5.53057">
        <ele>1294.2</ele>
        <time>2017-12-03T08:38:08Z</time>
      </trkpt>
      <trkpt lat="45.01539" lon="5.53059">
        <ele>1293.8</ele>
        <time>2017-12-03T08:38:13Z</time>
      </trkpt>
      <trkpt lat="45.01537" lon="5.53061">
        <ele>1292.8</ele>
        <time>2017-12-03T08:38:18Z</time>
      </trkpt>
      <trkpt lat="45.01534" lon="5.53062">
        <ele>1297.8</ele>
        <time>2017-12-03T08:38:23Z</time>
      </trkpt>
      <trkpt lat="45.01532" lon="5.53064">
        <ele>1294.4</ele>
        <time>2017-12-03T08:38:28Z</time>
      </trkpt>
      <trkpt lat="45.01529" lon="5.53066">
        <ele>1294.4</ele>
        <time>2017-12-03T08:38:33Z</time>
      </trkpt>
      <trkpt lat="45.01526" lon="5.53068">
        <ele>1296.4</ele>
        <time>2017-12-03T08:38:38Z</time>
      </trkpt>
      <trkpt lat="45.01523" lon="5.53071">
        <ele>1296.4</ele>
        <time>2017-12-03T08:38:43Z</time>
      </trkpt>
      <trkpt lat="45.0152" lon="5.53073">
        <ele>1299.6</ele>
        <time>2017-12-03T08:38:48Z</time>
      </trkpt>
      <trkpt lat="45.01516" lon="5.53075">
        <ele>1298.8</ele>
        <time>2017-12-03T08:38:53Z</time>
      </trkpt>
      <trkpt lat="45.01513" lon="5.53078">
        <ele>1299.4</ele>
        <time>2017-12-03T08:38:58Z</time>
      </trkpt>
      <trkpt lat="45.01511" lon="5.53081">
        <ele>1298.6</ele>
        <time>2017-12-03T08:39:03Z</time>
      </trkpt>
      <trkpt lat="45.01508" lon="5.53083">
        <ele>1303</ele>
        <time>2017-12-03T08:39:08Z</time>
      </trkpt>
      <trkpt lat="45.01505" lon="5.53086">
        <ele>1301</ele>
        <time>2017-12-03T08:39:13Z</time>
      </trkpt>
      <trkpt lat="45.01503" lon="5.53087">
        <ele>1301.4</ele>
        <time>2017-12-03T08:39:18Z</time>
      </trkpt>
      <trkpt lat="45.015" lon="5.53089">
        <ele>1302.4</ele>
        <time>2017-12-03T08:39:23Z</time>
      </trkpt>
      <trkpt lat="45.01498" lon="5.53091">
        <ele>1306.4</ele>
        <time>2017-12-03T08:39:28Z</time>
      </trkpt>
      <trkpt lat="45.01494" lon="5.53094">
        <ele>1305.6</ele>
        <time>2017-12-03T08:39:33Z</time>
      </trkpt>
      <trkpt lat="45.0149" lon="5.53097">
        <ele>1305.2</ele>
        <time>2017-12-03T08:39:39Z</time>
      </trkpt>
      <trkpt lat="45.01488" lon="5.53099">
        <ele>1306.8</ele>
        <time>2017-12-03T08:39:44Z</time>
      </trkpt>
      <trkpt lat="45.01485" lon="5.53101">
        <ele>1307</ele>
        <time>2017-12-03T08:39:49Z</time>
      </trkpt>
      <trkpt lat="45.01482" lon="5.53104">
        <ele>1308.2</ele>
        <time>2017-12-03T08:39:54Z</time>
      </trkpt>
      <trkpt lat="45.01479" lon="5.53107">
        <ele>1311.2</ele>
        <time>2017-12-03T08:39:59Z</time>
      </trkpt>
      <trkpt lat="45.01476" lon="5.5311">
        <ele>1310.2</ele>
        <time>2017-12-03T08:40:04Z</time>
      </trkpt>
      <trkpt lat="45.01473" lon="5.53113">
        <ele>1310.2</ele>
        <time>2017-12-03T08:40:09Z</time>
      </trkpt>
      <trkpt lat="45.01471" lon="5.53116">
        <ele>1310.4</ele>
        <time>2017-12-03T08:40:14Z</time>
      </trkpt>
      <trkpt lat="45.01469" lon="5.53119">
        <ele>1311.6</ele>
        <time>2017-12-03T08:40:19Z</time>
      </trkpt>
      <trkpt lat="45.01466" lon="5.53122">
        <ele>1312.4</ele>
        <time>2017-12-03T08:40:24Z</time>
      </trkpt>
      <trkpt lat="45.01463" lon="5.53125">
        <ele>1312.4</ele>
        <time>2017-12-03T08:40:29Z</time>
      </trkpt>
      <trkpt lat="45.0146" lon="5.53126">
        <ele>1312.8</ele>
        <time>2017-12-03T08:40:34Z</time>
      </trkpt>
      <trkpt lat="45.01457" lon="5.53128">
        <ele>1319.2</ele>
        <time>2017-12-03T08:40:39Z</time>
      </trkpt>
      <trkpt lat="45.01453" lon="5.53129">
        <ele>1316.8</ele>
        <time>2017-12-03T08:40:44Z</time>
      </trkpt>
      <trkpt lat="45.0145" lon="5.5313">
        <ele>1316.2</ele>
        <time>2017-12-03T08:40:49Z</time>
      </trkpt>
      <trkpt lat="45.01447" lon="5.53132">
        <ele>1316.4</ele>
        <time>2017-12-03T08:40:54Z</time>
      </trkpt>
      <trkpt lat="45.01444" lon="5.53133">
        <ele>1317.8</ele>
        <time>2017-12-03T08:40:59Z</time>
      </trkpt>
      <trkpt lat="45.0144" lon="5.53135">
        <ele>1318.4</ele>
        <time>2017-12-03T08:41:04Z</time>
      </trkpt>
      <trkpt lat="45.01436" lon="5.53136">
        <ele>1317.2</ele>
        <time>2017-12-03T08:41:09Z</time>
      </trkpt>
      <trkpt lat="45.01432" lon="5.53138">
        <ele>1321</ele>
        <time>2017-12-03T08:41:14Z</time>
      </trkpt>
      <trkpt lat="45.01429" lon="5.5314">
        <ele>1321.4</ele>
        <time>2017-12-03T08:41:19Z</time>
      </trkpt>
      <trkpt lat="45.01426" lon="5.53141">
        <ele>1321.6</ele>
        <time>2017-12-03T08:41:24Z</time>
      </trkpt>
      <trkpt lat="45.01423" lon="5.53143">
        <ele>1319.8</ele>
        <time>2017-12-03T08:41:29Z</time>
      </trkpt>
      <trkpt lat="45.01419" lon="5.53145">
        <ele>1322.6</ele>
        <time>2017-12-03T08:41:34Z</time>
      </trkpt>
      <trkpt lat="45.01415" lon="5.53146">
        <ele>1321.8</ele>
        <time>2017-12-03T08:41:39Z</time>
      </trkpt>
      <trkpt lat="45.01412" lon="5.53147">
        <ele>1323</ele>
        <time>2017-12-03T08:41:44Z</time>
      </trkpt>
      <trkpt lat="45.01408" lon="5.53148">
        <ele>1325</ele>
        <time>2017-12-03T08:41:49Z</time>
      </trkpt>
      <trkpt lat="45.01404" lon="5.53149">
        <ele>1326</ele>
        <time>2017-12-03T08:41:54Z</time>
      </trkpt>
      <trkpt lat="45.014" lon="5.5315">
        <ele>1325.8</ele>
        <time>2017-12-03T08:41:59Z</time>
      </trkpt>
      <trkpt lat="45.01395" lon="5.53152">
        <ele>1327</ele>
        <time>2017-12-03T08:42:04Z</time>
      </trkpt>
      <trkpt lat="45.01391" lon="5.53153">
        <ele>1326.6</ele>
        <time>2017-12-03T08:42:09Z</time>
      </trkpt>
      <trkpt lat="45.01387" lon="5.53154">
        <ele>1330.2</ele>
        <time>2017-12-03T08:42:14Z</time>
      </trkpt>
      <trkpt lat="45.01382" lon="5.53155">
        <ele>1325.6</ele>
        <time>2017-12-03T08:42:19Z</time>
      </trkpt>
      <trkpt lat="45.01378" lon="5.53156">
        <ele>1327.4</ele>
        <time>2017-12-03T08:42:24Z</time>
      </trkpt>
      <trkpt lat="45.01373" lon="5.53157">
        <ele>1328.8</ele>
        <time>2017-12-03T08:42:29Z</time>
      </trkpt>
      <trkpt lat="45.01368" lon="5.53158">
        <ele>1328</ele>
        <time>2017-12-03T08:42:34Z</time>
      </trkpt>
      <trkpt lat="45.01363" lon="5.53158">
        <ele>1331</ele>
        <time>2017-12-03T08:42:39Z</time>
      </trkpt>
      <trkpt lat="45.0136" lon="5.53158">
        <ele>1329.6</ele>
        <time>2017-12-03T08:42:44Z</time>
      </trkpt>
      <trkpt lat="45.01356" lon="5.53158">
        <ele>1331</ele>
        <time>2017-12-03T08:42:49Z</time>
      </trkpt>
      <trkpt lat="45.01352" lon="5.53158">
        <ele>1331.8</ele>
        <time>2017-12-03T08:42:54Z</time>
      </trkpt>
      <trkpt lat="45.01348" lon="5.53158">
        <ele>1331</ele>
        <time>2017-12-03T08:42:59Z</time>
      </trkpt>
      <trkpt lat="45.01344" lon="5.53158">
        <ele>1334.2</ele>
        <time>2017-12-03T08:43:04Z</time>
      </trkpt>
      <trkpt lat="45.01339" lon="5.53159">
        <ele>1332.4</ele>
        <time>2017-12-03T08:43:09Z</time>
      </trkpt>
      <trkpt lat="45.01335" lon="5.53159">
        <ele>1333.8</ele>
        <time>2017-12-03T08:43:14Z</time>
      </trkpt>
      <trkpt lat="45.01331" lon="5.53159">
        <ele>1336</ele>
        <time>2017-12-03T08:43:19Z</time>
      </trkpt>
      <trkpt lat="45.01326" lon="5.53159">
        <ele>1335.8</ele>
        <time>2017-12-03T08:43:24Z</time>
      </trkpt>
      <trkpt lat="45.01322" lon="5.53159">
        <ele>1334</ele>
        <time>2017-12-03T08:43:29Z</time>
      </trkpt>
      <trkpt lat="45.01318" lon="5.53159">
        <ele>1335.2</ele>
        <time>2017-12-03T08:43:34Z</time>
      </trkpt>
      <trkpt lat="45.01314" lon="5.53159">
        <ele>1337.4</ele>
        <time>2017-12-03T08:43:39Z</time>
      </trkpt>
      <trkpt lat="45.0131" lon="5.5316">
        <ele>1335.6</ele>
        <time>2017-12-03T08:43:44Z</time>
      </trkpt>
      <trkpt lat="45.01306" lon="5.5316">
        <ele>1337.2</ele>
        <time>2017-12-03T08:43:49Z</time>
      </trkpt>
      <trkpt lat="45.01302" lon="5.5316">
        <ele>1336.6</ele>
        <time>2017-12-03T08:43:54Z</time>
      </trkpt>
      <trkpt lat="45.01299" lon="5.53159">
        <ele>1337.8</ele>
        <time>2017-12-03T08:43:59Z</time>
      </trkpt>
      <trkpt lat="45.01296" lon="5.53159">
        <ele>1340.6</ele>
        <time>2017-12-03T08:44:04Z</time>
      </trkpt>
      <trkpt lat="45.01293" lon="5.53158">
        <ele>1339.6</ele>
        <time>2017-12-03T08:44:09Z</time>
      </trkpt>
      <trkpt lat="45.0129" lon="5.53157">
        <ele>1339.4</ele>
        <time>2017-12-03T08:44:14Z</time>
      </trkpt>
      <trkpt lat="45.01288" lon="5.53157">
        <ele>1340.6</ele>
        <time>2017-12-03T08:44:19Z</time>
      </trkpt>
      <trkpt lat="45.01286" lon="5.53156">
        <ele>1342.4</ele>
        <time>2017-12-03T08:44:24Z</time>
      </trkpt>
      <trkpt lat="45.01282" lon="5.53155">
        <ele>1343.6</ele>
        <time>2017-12-03T08:44:29Z</time>
      </trkpt>
      <trkpt lat="45.01279" lon="5.53154">
        <ele>1346</ele>
        <time>2017-12-03T08:44:34Z</time>
      </trkpt>
      <trkpt lat="45.01276" lon="5.53152">
        <ele>1342.8</ele>
        <time>2017-12-03T08:44:39Z</time>
      </trkpt>
      <trkpt lat="45.01273" lon="5.5315">
        <ele>1347.8</ele>
        <time>2017-12-03T08:44:44Z</time>
      </trkpt>
      <trkpt lat="45.0127" lon="5.53148">
        <ele>1346.8</ele>
        <time>2017-12-03T08:44:49Z</time>
      </trkpt>
      <trkpt lat="45.01267" lon="5.53147">
        <ele>1345.2</ele>
        <time>2017-12-03T08:44:54Z</time>
      </trkpt>
      <trkpt lat="45.01264" lon="5.53145">
        <ele>1350.2</ele>
        <time>2017-12-03T08:44:59Z</time>
      </trkpt>
      <trkpt lat="45.01261" lon="5.53143">
        <ele>1347.4</ele>
        <time>2017-12-03T08:45:04Z</time>
      </trkpt>
      <trkpt lat="45.01258" lon="5.53141">
        <ele>1350.8</ele>
        <time>2017-12-03T08:45:09Z</time>
      </trkpt>
      <trkpt lat="45.01255" lon="5.5314">
        <ele>1352.2</ele>
        <time>2017-12-03T08:45:14Z</time>
      </trkpt>
      <trkpt lat="45.01252" lon="5.53139">
        <ele>1352</ele>
        <time>2017-12-03T08:45:19Z</time>
      </trkpt>
      <trkpt lat="45.01248" lon="5.5314">
        <ele>1352.2</ele>
        <time>2017-12-03T08:45:24Z</time>
      </trkpt>
      <trkpt lat="45.01246" lon="5.5314">
        <ele>1353</ele>
        <time>2017-12-03T08:45:29Z</time>
      </trkpt>
      <trkpt lat="45.01243" lon="5.53142">
        <ele>1353.8</ele>
        <time>2017-12-03T08:45:34Z</time>
      </trkpt>
      <trkpt lat="45.0124" lon="5.53145">
        <ele>1356.2</ele>
        <time>2017-12-03T08:45:39Z</time>
      </trkpt>
      <trkpt lat="45.01238" lon="5.53148">
        <ele>1356.4</ele>
        <time>2017-12-03T08:45:44Z</time>
      </trkpt>
      <trkpt lat="45.01235" lon="5.53153">
        <ele>1357</ele>
        <time>2017-12-03T08:45:49Z</time>
      </trkpt>
      <trkpt lat="45.01233" lon="5.53156">
        <ele>1355.2</ele>
        <time>2017-12-03T08:45:54Z</time>
      </trkpt>
      <trkpt lat="45.01231" lon="5.53159">
        <ele>1356</ele>
        <time>2017-12-03T08:45:59Z</time>
      </trkpt>
      <trkpt lat="45.0123" lon="5.53163">
        <ele>1358.6</ele>
        <time>2017-12-03T08:46:04Z</time>
      </trkpt>
      <trkpt lat="45.01228" lon="5.53166">
        <ele>1358.8</ele>
        <time>2017-12-03T08:46:09Z</time>
      </trkpt>
      <trkpt lat="45.01226" lon="5.5317">
        <ele>1358.6</ele>
        <time>2017-12-03T08:46:14Z</time>
      </trkpt>
      <trkpt lat="45.01226" lon="5.5317">
        <ele>1359.8</ele>
        <time>2017-12-03T08:46:19Z</time>
      </trkpt>
      <trkpt lat="45.01224" lon="5.53173">
        <ele>1357.6</ele>
        <time>2017-12-03T08:46:24Z</time>
      </trkpt>
      <trkpt lat="45.01221" lon="5.53177">
        <ele>1361.2</ele>
        <time>2017-12-03T08:46:29Z</time>
      </trkpt>
      <trkpt lat="45.01218" lon="5.53181">
        <ele>1361</ele>
        <time>2017-12-03T08:46:34Z</time>
      </trkpt>
      <trkpt lat="45.01216" lon="5.53184">
        <ele>1363.8</ele>
        <time>2017-12-03T08:46:39Z</time>
      </trkpt>
      <trkpt lat="45.01213" lon="5.53188">
        <ele>1362.6</ele>
        <time>2017-12-03T08:46:44Z</time>
      </trkpt>
      <trkpt lat="45.01212" lon="5.53191">
        <ele>1363.8</ele>
        <time>2017-12-03T08:46:49Z</time>
      </trkpt>
      <trkpt lat="45.0121" lon="5.53194">
        <ele>1366</ele>
        <time>2017-12-03T08:46:54Z</time>
      </trkpt>
      <trkpt lat="45.01208" lon="5.53197">
        <ele>1365.6</ele>
        <time>2017-12-03T08:46:59Z</time>
      </trkpt>
      <trkpt lat="45.01206" lon="5.53199">
        <ele>1364.2</ele>
        <time>2017-12-03T08:47:04Z</time>
      </trkpt>
      <trkpt lat="45.01203" lon="5.53201">
        <ele>1368.8</ele>
        <time>2017-12-03T08:47:09Z</time>
      </trkpt>
      <trkpt lat="45.01201" lon="5.53204">
        <ele>1367.8</ele>
        <time>2017-12-03T08:47:14Z</time>
      </trkpt>
      <trkpt lat="45.01198" lon="5.53205">
        <ele>1366.2</ele>
        <time>2017-12-03T08:47:19Z</time>
      </trkpt>
      <trkpt lat="45.01195" lon="5.53207">
        <ele>1366</ele>
        <time>2017-12-03T08:47:24Z</time>
      </trkpt>
      <trkpt lat="45.01192" lon="5.53208">
        <ele>1368.2</ele>
        <time>2017-12-03T08:47:29Z</time>
      </trkpt>
      <trkpt lat="45.01189" lon="5.53209">
        <ele>1369.4</ele>
        <time>2017-12-03T08:47:34Z</time>
      </trkpt>
      <trkpt lat="45.01187" lon="5.5321">
        <ele>1371.8</ele>
        <time>2017-12-03T08:47:39Z</time>
      </trkpt>
      <trkpt lat="45.01184" lon="5.53211">
        <ele>1371.4</ele>
        <time>2017-12-03T08:47:44Z</time>
      </trkpt>
      <trkpt lat="45.01181" lon="5.53212">
        <ele>1371.6</ele>
        <time>2017-12-03T08:47:49Z</time>
      </trkpt>
      <trkpt lat="45.01178" lon="5.53212">
        <ele>1369.4</ele>
        <time>2017-12-03T08:47:54Z</time>
      </trkpt>
      <trkpt lat="45.01176" lon="5.53212">
        <ele>1372</ele>
        <time>2017-12-03T08:47:59Z</time>
      </trkpt>
      <trkpt lat="45.01173" lon="5.53212">
        <ele>1371.6</ele>
        <time>2017-12-03T08:48:04Z</time>
      </trkpt>
      <trkpt lat="45.01169" lon="5.53212">
        <ele>1372.8</ele>
        <time>2017-12-03T08:48:09Z</time>
      </trkpt>
      <trkpt lat="45.01166" lon="5.53212">
        <ele>1374.4</ele>
        <time>2017-12-03T08:48:14Z</time>
      </trkpt>
      <trkpt lat="45.01163" lon="5.53212">
        <ele>1375</ele>
        <time>2017-12-03T08:48:19Z</time>
      </trkpt>
      <trkpt lat="45.0116" lon="5.53212">
        <ele>1379.4</ele>
        <time>2017-12-03T08:48:24Z</time>
      </trkpt>
      <trkpt lat="45.01158" lon="5.53212">
        <ele>1377.8</ele>
        <time>2017-12-03T08:48:29Z</time>
      </trkpt>
      <trkpt lat="45.01155" lon="5.53212">
        <ele>1378.6</ele>
        <time>2017-12-03T08:48:34Z</time>
      </trkpt>
      <trkpt lat="45.01153" lon="5.53212">
        <ele>1375</ele>
        <time>2017-12-03T08:48:39Z</time>
      </trkpt>
      <trkpt lat="45.0115" lon="5.53212">
        <ele>1379.8</ele>
        <time>2017-12-03T08:48:44Z</time>
      </trkpt>
      <trkpt lat="45.01147" lon="5.53212">
        <ele>1378</ele>
        <time>2017-12-03T08:48:49Z</time>
      </trkpt>
      <trkpt lat="45.01145" lon="5.53212">
        <ele>1381.4</ele>
        <time>2017-12-03T08:48:54Z</time>
      </trkpt>
      <trkpt lat="45.01143" lon="5.53212">
        <ele>1379.8</ele>
        <time>2017-12-03T08:48:59Z</time>
      </trkpt>
      <trkpt lat="45.0114" lon="5.53212">
        <ele>1384.8</ele>
        <time>2017-12-03T08:49:04Z</time>
      </trkpt>
      <trkpt lat="45.01137" lon="5.53212">
        <ele>1382.8</ele>
        <time>2017-12-03T08:49:09Z</time>
      </trkpt>
      <trkpt lat="45.01134" lon="5.53212">
        <ele>1384.6</ele>
        <time>2017-12-03T08:49:14Z</time>
      </trkpt>
      <trkpt lat="45.01131" lon="5.53212">
        <ele>1384.4</ele>
        <time>2017-12-03T08:49:19Z</time>
      </trkpt>
      <trkpt lat="45.01128" lon="5.53213">
        <ele>1384.2</ele>
        <time>2017-12-03T08:49:24Z</time>
      </trkpt>
      <trkpt lat="45.01126" lon="5.53215">
        <ele>1389.2</ele>
        <time>2017-12-03T08:49:29Z</time>
      </trkpt>
      <trkpt lat="45.01124" lon="5.53217">
        <ele>1387.6</ele>
        <time>2017-12-03T08:49:34Z</time>
      </trkpt>
      <trkpt lat="45.01122" lon="5.53218">
        <ele>1386.8</ele>
        <time>2017-12-03T08:49:39Z</time>
      </trkpt>
      <trkpt lat="45.0112" lon="5.5322">
        <ele>1393.2</ele>
        <time>2017-12-03T08:49:44Z</time>
      </trkpt>
      <trkpt lat="45.01117" lon="5.53221">
        <ele>1392.8</ele>
        <time>2017-12-03T08:49:49Z</time>
      </trkpt>
      <trkpt lat="45.01113" lon="5.53223">
        <ele>1391</ele>
        <time>2017-12-03T08:49:54Z</time>
      </trkpt>
      <trkpt lat="45.01111" lon="5.53225">
        <ele>1394.2</ele>
        <time>2017-12-03T08:49:59Z</time>
      </trkpt>
      <trkpt lat="45.01109" lon="5.53227">
        <ele>1395</ele>
        <time>2017-12-03T08:50:04Z</time>
      </trkpt>
      <trkpt lat="45.01107" lon="5.53229">
        <ele>1393.6</ele>
        <time>2017-12-03T08:50:09Z</time>
      </trkpt>
      <trkpt lat="45.01104" lon="5.53232">
        <ele>1395.6</ele>
        <time>2017-12-03T08:50:14Z</time>
      </trkpt>
      <trkpt lat="45.01101" lon="5.53234">
        <ele>1394.8</ele>
        <time>2017-12-03T08:50:19Z</time>
      </trkpt>
      <trkpt lat="45.01098" lon="5.53238">
        <ele>1393.6</ele>
        <time>2017-12-03T08:50:24Z</time>
      </trkpt>
      <trkpt lat="45.01096" lon="5.5324">
        <ele>1396.8</ele>
        <time>2017-12-03T08:50:29Z</time>
      </trkpt>
      <trkpt lat="45.01092" lon="5.53243">
        <ele>1396.4</ele>
        <time>2017-12-03T08:50:34Z</time>
      </trkpt>
      <trkpt lat="45.01089" lon="5.53246">
        <ele>1396.8</ele>
        <time>2017-12-03T08:50:39Z</time>
      </trkpt>
      <trkpt lat="45.01087" lon="5.53247">
        <ele>1396.4</ele>
        <time>2017-12-03T08:50:44Z</time>
      </trkpt>
      <trkpt lat="45.01084" lon="5.53249">
        <ele>1398</ele>
        <time>2017-12-03T08:50:49Z</time>
      </trkpt>
      <trkpt lat="45.01081" lon="5.53251">
        <ele>1399.4</ele>
        <time>2017-12-03T08:50:54Z</time>
      </trkpt>
      <trkpt lat="45.01078" lon="5.53254">
        <ele>1400.8</ele>
        <time>2017-12-03T08:50:59Z</time>
      </trkpt>
      <trkpt lat="45.01076" lon="5.53256">
        <ele>1404.6</ele>
        <time>2017-12-03T08:51:04Z</time>
      </trkpt>
      <trkpt lat="45.01074" lon="5.53259">
        <ele>1405.4</ele>
        <time>2017-12-03T08:51:09Z</time>
      </trkpt>
      <trkpt lat="45.01072" lon="5.53261">
        <ele>1403</ele>
        <time>2017-12-03T08:51:14Z</time>
      </trkpt>
      <trkpt lat="45.01071" lon="5.53263">
        <ele>1402</ele>
        <time>2017-12-03T08:51:19Z</time>
      </trkpt>
      <trkpt lat="45.01069" lon="5.53265">
        <ele>1405.8</ele>
        <time>2017-12-03T08:51:24Z</time>
      </trkpt>
      <trkpt lat="45.01067" lon="5.53268">
        <ele>1403.6</ele>
        <time>2017-12-03T08:51:29Z</time>
      </trkpt>
      <trkpt lat="45.01065" lon="5.53271">
        <ele>1402.4</ele>
        <time>2017-12-03T08:51:34Z</time>
      </trkpt>
      <trkpt lat="45.01062" lon="5.53274">
        <ele>1407</ele>
        <time>2017-12-03T08:51:39Z</time>
      </trkpt>
      <trkpt lat="45.0106" lon="5.53277">
        <ele>1408.2</ele>
        <time>2017-12-03T08:51:44Z</time>
      </trkpt>
      <trkpt lat="45.01057" lon="5.53281">
        <ele>1405</ele>
        <time>2017-12-03T08:51:49Z</time>
      </trkpt>
      <trkpt lat="45.01055" lon="5.53284">
        <ele>1408.2</ele>
        <time>2017-12-03T08:51:54Z</time>
      </trkpt>
      <trkpt lat="45.01054" lon="5.53287">
        <ele>1407.8</ele>
        <time>2017-12-03T08:51:59Z</time>
      </trkpt>
      <trkpt lat="45.01052" lon="5.5329">
        <ele>1411.4</ele>
        <time>2017-12-03T08:52:04Z</time>
      </trkpt>
      <trkpt lat="45.0105" lon="5.53294">
        <ele>1410.8</ele>
        <time>2017-12-03T08:52:09Z</time>
      </trkpt>
      <trkpt lat="45.0105" lon="5.53295">
        <ele>1412.2</ele>
        <time>2017-12-03T08:52:14Z</time>
      </trkpt>
      <trkpt lat="45.0105" lon="5.53295">
        <ele>1411.2</ele>
        <time>2017-12-03T08:52:19Z</time>
      </trkpt>
      <trkpt lat="45.01049" lon="5.53297">
        <ele>1414.2</ele>
        <time>2017-12-03T08:52:24Z</time>
      </trkpt>
      <trkpt lat="45.01047" lon="5.53301">
        <ele>1411.2</ele>
        <time>2017-12-03T08:52:29Z</time>
      </trkpt>
      <trkpt lat="45.01045" lon="5.53304">
        <ele>1414.6</ele>
        <time>2017-12-03T08:52:34Z</time>
      </trkpt>
      <trkpt lat="45.01042" lon="5.53307">
        <ele>1416.4</ele>
        <time>2017-12-03T08:52:39Z</time>
      </trkpt>
      <trkpt lat="45.0104" lon="5.5331">
        <ele>1411.6</ele>
        <time>2017-12-03T08:52:44Z</time>
      </trkpt>
      <trkpt lat="45.01038" lon="5.53313">
        <ele>1413.4</ele>
        <time>2017-12-03T08:52:49Z</time>
      </trkpt>
      <trkpt lat="45.01036" lon="5.53316">
        <ele>1411.8</ele>
        <time>2017-12-03T08:52:54Z</time>
      </trkpt>
      <trkpt lat="45.01034" lon="5.53318">
        <ele>1416.6</ele>
        <time>2017-12-03T08:52:59Z</time>
      </trkpt>
      <trkpt lat="45.01032" lon="5.53321">
        <ele>1417.8</ele>
        <time>2017-12-03T08:53:04Z</time>
      </trkpt>
      <trkpt lat="45.01029" lon="5.53323">
        <ele>1418.2</ele>
        <time>2017-12-03T08:53:09Z</time>
      </trkpt>
      <trkpt lat="45.01026" lon="5.53326">
        <ele>1416.8</ele>
        <time>2017-12-03T08:53:14Z</time>
      </trkpt>
      <trkpt lat="45.01024" lon="5.53328">
        <ele>1416</ele>
        <time>2017-12-03T08:53:19Z</time>
      </trkpt>
      <trkpt lat="45.01022" lon="5.5333">
        <ele>1417.4</ele>
        <time>2017-12-03T08:53:24Z</time>
      </trkpt>
      <trkpt lat="45.01019" lon="5.53331">
        <ele>1421.8</ele>
        <time>2017-12-03T08:53:29Z</time>
      </trkpt>
      <trkpt lat="45.01016" lon="5.53333">
        <ele>1421</ele>
        <time>2017-12-03T08:53:34Z</time>
      </trkpt>
      <trkpt lat="45.01013" lon="5.53335">
        <ele>1420.6</ele>
        <time>2017-12-03T08:53:39Z</time>
      </trkpt>
      <trkpt lat="45.0101" lon="5.53337">
        <ele>1422.2</ele>
        <time>2017-12-03T08:53:44Z</time>
      </trkpt>
      <trkpt lat="45.01007" lon="5.53338">
        <ele>1420.6</ele>
        <time>2017-12-03T08:53:49Z</time>
      </trkpt>
      <trkpt lat="45.01004" lon="5.5334">
        <ele>1423.2</ele>
        <time>2017-12-03T08:53:54Z</time>
      </trkpt>
      <trkpt lat="45.01002" lon="5.53341">
        <ele>1425.6</ele>
        <time>2017-12-03T08:53:59Z</time>
      </trkpt>
      <trkpt lat="45.00999" lon="5.53343">
        <ele>1425.8</ele>
        <time>2017-12-03T08:54:04Z</time>
      </trkpt>
      <trkpt lat="45.00996" lon="5.53345">
        <ele>1425.8</ele>
        <time>2017-12-03T08:54:09Z</time>
      </trkpt>
      <trkpt lat="45.00993" lon="5.53346">
        <ele>1426.2</ele>
        <time>2017-12-03T08:54:14Z</time>
      </trkpt>
      <trkpt lat="45.00992" lon="5.53346">
        <ele>1424.8</ele>
        <time>2017-12-03T08:54:19Z</time>
      </trkpt>
      <trkpt lat="45.00992" lon="5.53346">
        <ele>1425.4</ele>
        <time>2017-12-03T08:54:24Z</time>
      </trkpt>
      <trkpt lat="45.00992" lon="5.53347">
        <ele>1427</ele>
        <time>2017-12-03T08:54:29Z</time>
      </trkpt>
      <trkpt lat="45.00992" lon="5.53347">
        <ele>1426.8</ele>
        <time>2017-12-03T08:54:34Z</time>
      </trkpt>
      <trkpt lat="45.00992" lon="5.53347">
        <ele>1426.6</ele>
        <time>2017-12-03T08:54:39Z</time>
      </trkpt>
      <trkpt lat="45.00992" lon="5.53347">
        <ele>1426.4</ele>
        <time>2017-12-03T08:54:44Z</time>
      </trkpt>
      <trkpt lat="45.00992" lon="5.53347">
        <ele>1426.4</ele>
        <time>2017-12-03T08:54:49Z</time>
      </trkpt>
      <trkpt lat="45.00992" lon="5.53347">
        <ele>1426.4</ele>
        <time>2017-12-03T08:54:54Z</time>
      </trkpt>
      <trkpt lat="45.00992" lon="5.53346">
        <ele>1426.4</ele>
        <time>2017-12-03T08:54:59Z</time>
      </trkpt>
      <trkpt lat="45.00992" lon="5.53346">
        <ele>1426.2</ele>
        <time>2017-12-03T08:55:04Z</time>
      </trkpt>
      <trkpt lat="45.00992" lon="5.53346">
        <ele>1426.2</ele>
        <time>2017-12-03T08:55:09Z</time>
      </trkpt>
      <trkpt lat="45.00991" lon="5.53347">
        <ele>1426.2</ele>
        <time>2017-12-03T08:55:14Z</time>
      </trkpt>
      <trkpt lat="45.00991" lon="5.53347">
        <ele>1426.2</ele>
        <time>2017-12-03T08:55:19Z</time>
      </trkpt>
      <trkpt lat="45.00991" lon="5.53347">
        <ele>1426.2</ele>
        <time>2017-12-03T08:55:24Z</time>
      </trkpt>
      <trkpt lat="45.00991" lon="5.53347">
        <ele>1426.2</ele>
        <time>2017-12-03T08:55:29Z</time>
      </trkpt>
      <trkpt lat="45.00991" lon="5.53347">
        <ele>1426.2</ele>
        <time>2017-12-03T08:55:34Z</time>
      </trkpt>
      <trkpt lat="45.0099" lon="5.53346">
        <ele>1426.2</ele>
        <time>2017-12-03T08:55:39Z</time>
      </trkpt>
      <trkpt lat="45.0099" lon="5.53346">
        <ele>1426</ele>
        <time>2017-12-03T08:55:44Z</time>
      </trkpt>
      <trkpt lat="45.0099" lon="5.53346">
        <ele>1425.8</ele>
        <time>2017-12-03T08:55:49Z</time>
      </trkpt>
      <trkpt lat="45.00989" lon="5.53345">
        <ele>1426</ele>
        <time>2017-12-03T08:55:54Z</time>
      </trkpt>
      <trkpt lat="45.00985" lon="5.53346">
        <ele>1424.4</ele>
        <time>2017-12-03T08:55:59Z</time>
      </trkpt>
      <trkpt lat="45.00982" lon="5.53345">
        <ele>1424.4</ele>
        <time>2017-12-03T08:56:04Z</time>
      </trkpt>
      <trkpt lat="45.00978" lon="5.53344">
        <ele>1425</ele>
        <time>2017-12-03T08:56:09Z</time>
      </trkpt>
      <trkpt lat="45.00974" lon="5.53344">
        <ele>1430.4</ele>
        <time>2017-12-03T08:56:14Z</time>
      </trkpt>
      <trkpt lat="45.00971" lon="5.53345">
        <ele>1430</ele>
        <time>2017-12-03T08:56:19Z</time>
      </trkpt>
      <trkpt lat="45.00967" lon="5.53345">
        <ele>1431.4</ele>
        <time>2017-12-03T08:56:24Z</time>
      </trkpt>
      <trkpt lat="45.00964" lon="5.53345">
        <ele>1433</ele>
        <time>2017-12-03T08:56:29Z</time>
      </trkpt>
      <trkpt lat="45.00961" lon="5.53346">
        <ele>1433.4</ele>
        <time>2017-12-03T08:56:34Z</time>
      </trkpt>
      <trkpt lat="45.00958" lon="5.53347">
        <ele>1433</ele>
        <time>2017-12-03T08:56:39Z</time>
      </trkpt>
      <trkpt lat="45.00955" lon="5.53348">
        <ele>1432.6</ele>
        <time>2017-12-03T08:56:44Z</time>
      </trkpt>
      <trkpt lat="45.00952" lon="5.53349">
        <ele>1439.2</ele>
        <time>2017-12-03T08:56:49Z</time>
      </trkpt>
      <trkpt lat="45.00947" lon="5.53351">
        <ele>1437.4</ele>
        <time>2017-12-03T08:56:54Z</time>
      </trkpt>
      <trkpt lat="45.00944" lon="5.53352">
        <ele>1437</ele>
        <time>2017-12-03T08:56:59Z</time>
      </trkpt>
      <trkpt lat="45.00941" lon="5.53354">
        <ele>1438.4</ele>
        <time>2017-12-03T08:57:04Z</time>
      </trkpt>
      <trkpt lat="45.00939" lon="5.53355">
        <ele>1441.6</ele>
        <time>2017-12-03T08:57:09Z</time>
      </trkpt>
      <trkpt lat="45.00935" lon="5.53355">
        <ele>1439.8</ele>
        <time>2017-12-03T08:57:14Z</time>
      </trkpt>
      <trkpt lat="45.00931" lon="5.53356">
        <ele>1444.6</ele>
        <time>2017-12-03T08:57:19Z</time>
      </trkpt>
      <trkpt lat="45.00928" lon="5.53356">
        <ele>1446.2</ele>
        <time>2017-12-03T08:57:24Z</time>
      </trkpt>
      <trkpt lat="45.00924" lon="5.53356">
        <ele>1444.6</ele>
        <time>2017-12-03T08:57:29Z</time>
      </trkpt>
      <trkpt lat="45.0092" lon="5.53357">
        <ele>1447</ele>
        <time>2017-12-03T08:57:34Z</time>
      </trkpt>
      <trkpt lat="45.00918" lon="5.53358">
        <ele>1447.2</ele>
        <time>2017-12-03T08:57:39Z</time>
      </trkpt>
      <trkpt lat="45.00914" lon="5.53359">
        <ele>1446.2</ele>
        <time>2017-12-03T08:57:44Z</time>
      </trkpt>
      <trkpt lat="45.00911" lon="5.53359">
        <ele>1446.2</ele>
        <time>2017-12-03T08:57:49Z</time>
      </trkpt>
      <trkpt lat="45.00907" lon="5.5336">
        <ele>1449.8</ele>
        <time>2017-12-03T08:57:54Z</time>
      </trkpt>
      <trkpt lat="45.00904" lon="5.53361">
        <ele>1448.8</ele>
        <time>2017-12-03T08:57:59Z</time>
      </trkpt>
      <trkpt lat="45.00902" lon="5.53359">
        <ele>1449</ele>
        <time>2017-12-03T08:58:04Z</time>
      </trkpt>
      <trkpt lat="45.00898" lon="5.53358">
        <ele>1451.6</ele>
        <time>2017-12-03T08:58:09Z</time>
      </trkpt>
      <trkpt lat="45.00894" lon="5.53358">
        <ele>1452</ele>
        <time>2017-12-03T08:58:14Z</time>
      </trkpt>
      <trkpt lat="45.0089" lon="5.53357">
        <ele>1452.4</ele>
        <time>2017-12-03T08:58:19Z</time>
      </trkpt>
      <trkpt lat="45.00886" lon="5.53356">
        <ele>1452</ele>
        <time>2017-12-03T08:58:24Z</time>
      </trkpt>
      <trkpt lat="45.00883" lon="5.53353">
        <ele>1452.6</ele>
        <time>2017-12-03T08:58:29Z</time>
      </trkpt>
      <trkpt lat="45.0088" lon="5.53351">
        <ele>1454.8</ele>
        <time>2017-12-03T08:58:34Z</time>
      </trkpt>
      <trkpt lat="45.00876" lon="5.53349">
        <ele>1457.6</ele>
        <time>2017-12-03T08:58:40Z</time>
      </trkpt>
      <trkpt lat="45.00873" lon="5.53346">
        <ele>1454.8</ele>
        <time>2017-12-03T08:58:45Z</time>
      </trkpt>
      <trkpt lat="45.00871" lon="5.53343">
        <ele>1455.8</ele>
        <time>2017-12-03T08:58:50Z</time>
      </trkpt>
      <trkpt lat="45.00869" lon="5.53341">
        <ele>1453.2</ele>
        <time>2017-12-03T08:58:55Z</time>
      </trkpt>
      <trkpt lat="45.00867" lon="5.53339">
        <ele>1456.6</ele>
        <time>2017-12-03T08:59:00Z</time>
      </trkpt>
      <trkpt lat="45.00866" lon="5.53336">
        <ele>1459.8</ele>
        <time>2017-12-03T08:59:05Z</time>
      </trkpt>
      <trkpt lat="45.00864" lon="5.53334">
        <ele>1462</ele>
        <time>2017-12-03T08:59:10Z</time>
      </trkpt>
      <trkpt lat="45.00862" lon="5.53332">
        <ele>1462.8</ele>
        <time>2017-12-03T08:59:15Z</time>
      </trkpt>
      <trkpt lat="45.00859" lon="5.5333">
        <ele>1466</ele>
        <time>2017-12-03T08:59:20Z</time>
      </trkpt>
      <trkpt lat="45.00856" lon="5.53329">
        <ele>1465</ele>
        <time>2017-12-03T08:59:25Z</time>
      </trkpt>
      <trkpt lat="45.00854" lon="5.53328">
        <ele>1463.8</ele>
        <time>2017-12-03T08:59:30Z</time>
      </trkpt>
      <trkpt lat="45.00851" lon="5.53325">
        <ele>1464.6</ele>
        <time>2017-12-03T08:59:35Z</time>
      </trkpt>
      <trkpt lat="45.00848" lon="5.53324">
        <ele>1462.6</ele>
        <time>2017-12-03T08:59:40Z</time>
      </trkpt>
      <trkpt lat="45.00845" lon="5.53322">
        <ele>1463.8</ele>
        <time>2017-12-03T08:59:45Z</time>
      </trkpt>
      <trkpt lat="45.00842" lon="5.53321">
        <ele>1464.8</ele>
        <time>2017-12-03T08:59:50Z</time>
      </trkpt>
      <trkpt lat="45.00839" lon="5.53319">
        <ele>1464.8</ele>
        <time>2017-12-03T08:59:55Z</time>
      </trkpt>
      <trkpt lat="45.00837" lon="5.53318">
        <ele>1465.8</ele>
        <time>2017-12-03T09:00:00Z</time>
      </trkpt>
      <trkpt lat="45.00834" lon="5.53317">
        <ele>1467.6</ele>
        <time>2017-12-03T09:00:05Z</time>
      </trkpt>
      <trkpt lat="45.00832" lon="5.53315">
        <ele>1463.8</ele>
        <time>2017-12-03T09:00:10Z</time>
      </trkpt>
      <trkpt lat="45.00829" lon="5.53314">
        <ele>1467.2</ele>
        <time>2017-12-03T09:00:15Z</time>
      </trkpt>
      <trkpt lat="45.00825" lon="5.53314">
        <ele>1467.4</ele>
        <time>2017-12-03T09:00:20Z</time>
      </trkpt>
      <trkpt lat="45.00824" lon="5.53312">
        <ele>1469</ele>
        <time>2017-12-03T09:00:25Z</time>
      </trkpt>
      <trkpt lat="45.00821" lon="5.53311">
        <ele>1471.4</ele>
        <time>2017-12-03T09:00:30Z</time>
      </trkpt>
      <trkpt lat="45.00818" lon="5.53311">
        <ele>1473.2</ele>
        <time>2017-12-03T09:00:35Z</time>
      </trkpt>
      <trkpt lat="45.00816" lon="5.53311">
        <ele>1473.4</ele>
        <time>2017-12-03T09:00:40Z</time>
      </trkpt>
      <trkpt lat="45.00813" lon="5.53311">
        <ele>1471</ele>
        <time>2017-12-03T09:00:45Z</time>
      </trkpt>
      <trkpt lat="45.00809" lon="5.53311">
        <ele>1475.6</ele>
        <time>2017-12-03T09:00:50Z</time>
      </trkpt>
      <trkpt lat="45.00805" lon="5.53311">
        <ele>1474.6</ele>
        <time>2017-12-03T09:00:55Z</time>
      </trkpt>
      <trkpt lat="45.00801" lon="5.53311">
        <ele>1475.2</ele>
        <time>2017-12-03T09:01:00Z</time>
      </trkpt>
      <trkpt lat="45.00797" lon="5.53311">
        <ele>1477.4</ele>
        <time>2017-12-03T09:01:05Z</time>
      </trkpt>
      <trkpt lat="45.00794" lon="5.53312">
        <ele>1476.4</ele>
        <time>2017-12-03T09:01:10Z</time>
      </trkpt>
      <trkpt lat="45.0079" lon="5.53312">
        <ele>1477.4</ele>
        <time>2017-12-03T09:01:15Z</time>
      </trkpt>
      <trkpt lat="45.00787" lon="5.53312">
        <ele>1478.4</ele>
        <time>2017-12-03T09:01:20Z</time>
      </trkpt>
      <trkpt lat="45.00785" lon="5.53313">
        <ele>1478.2</ele>
        <time>2017-12-03T09:01:25Z</time>
      </trkpt>
      <trkpt lat="45.00782" lon="5.53313">
        <ele>1480.2</ele>
        <time>2017-12-03T09:01:30Z</time>
      </trkpt>
      <trkpt lat="45.00779" lon="5.53314">
        <ele>1483.6</ele>
        <time>2017-12-03T09:01:35Z</time>
      </trkpt>
      <trkpt lat="45.00776" lon="5.53317">
        <ele>1482.2</ele>
        <time>2017-12-03T09:01:40Z</time>
      </trkpt>
      <trkpt lat="45.00774" lon="5.5332">
        <ele>1479.2</ele>
        <time>2017-12-03T09:01:45Z</time>
      </trkpt>
      <trkpt lat="45.00771" lon="5.53323">
        <ele>1484.4</ele>
        <time>2017-12-03T09:01:50Z</time>
      </trkpt>
      <trkpt lat="45.00769" lon="5.53325">
        <ele>1484</ele>
        <time>2017-12-03T09:01:55Z</time>
      </trkpt>
      <trkpt lat="45.00767" lon="5.53327">
        <ele>1484.4</ele>
        <time>2017-12-03T09:02:00Z</time>
      </trkpt>
      <trkpt lat="45.00765" lon="5.53328">
        <ele>1486</ele>
        <time>2017-12-03T09:02:05Z</time>
      </trkpt>
      <trkpt lat="45.00762" lon="5.53329">
        <ele>1489.2</ele>
        <time>2017-12-03T09:02:10Z</time>
      </trkpt>
      <trkpt lat="45.0076" lon="5.53329">
        <ele>1488.4</ele>
        <time>2017-12-03T09:02:15Z</time>
      </trkpt>
      <trkpt lat="45.00756" lon="5.53329">
        <ele>1489.4</ele>
        <time>2017-12-03T09:02:20Z</time>
      </trkpt>
      <trkpt lat="45.00753" lon="5.53329">
        <ele>1490.6</ele>
        <time>2017-12-03T09:02:25Z</time>
      </trkpt>
      <trkpt lat="45.0075" lon="5.5333">
        <ele>1488.2</ele>
        <time>2017-12-03T09:02:30Z</time>
      </trkpt>
      <trkpt lat="45.00747" lon="5.5333">
        <ele>1492.6</ele>
        <time>2017-12-03T09:02:35Z</time>
      </trkpt>
      <trkpt lat="45.00742" lon="5.5333">
        <ele>1491.6</ele>
        <time>2017-12-03T09:02:40Z</time>
      </trkpt>
      <trkpt lat="45.00738" lon="5.5333">
        <ele>1490.6</ele>
        <time>2017-12-03T09:02:45Z</time>
      </trkpt>
      <trkpt lat="45.00735" lon="5.5333">
        <ele>1493.8</ele>
        <time>2017-12-03T09:02:50Z</time>
      </trkpt>
      <trkpt lat="45.00732" lon="5.53328">
        <ele>1495.8</ele>
        <time>2017-12-03T09:02:55Z</time>
      </trkpt>
      <trkpt lat="45.00728" lon="5.53328">
        <ele>1495.2</ele>
        <time>2017-12-03T09:03:00Z</time>
      </trkpt>
      <trkpt lat="45.00724" lon="5.53329">
        <ele>1493.8</ele>
        <time>2017-12-03T09:03:05Z</time>
      </trkpt>
      <trkpt lat="45.00721" lon="5.53329">
        <ele>1498</ele>
        <time>2017-12-03T09:03:10Z</time>
      </trkpt>
      <trkpt lat="45.00717" lon="5.53331">
        <ele>1496</ele>
        <time>2017-12-03T09:03:15Z</time>
      </trkpt>
      <trkpt lat="45.00714" lon="5.53332">
        <ele>1496.8</ele>
        <time>2017-12-03T09:03:20Z</time>
      </trkpt>
      <trkpt lat="45.0071" lon="5.53333">
        <ele>1495.8</ele>
        <time>2017-12-03T09:03:25Z</time>
      </trkpt>
      <trkpt lat="45.00707" lon="5.53335">
        <ele>1499.6</ele>
        <time>2017-12-03T09:03:30Z</time>
      </trkpt>
      <trkpt lat="45.00703" lon="5.53336">
        <ele>1494.2</ele>
        <time>2017-12-03T09:03:35Z</time>
      </trkpt>
      <trkpt lat="45.007" lon="5.53337">
        <ele>1498.8</ele>
        <time>2017-12-03T09:03:40Z</time>
      </trkpt>
      <trkpt lat="45.00697" lon="5.53337">
        <ele>1500.2</ele>
        <time>2017-12-03T09:03:45Z</time>
      </trkpt>
      <trkpt lat="45.00694" lon="5.53338">
        <ele>1494.6</ele>
        <time>2017-12-03T09:03:50Z</time>
      </trkpt>
      <trkpt lat="45.0069" lon="5.53338">
        <ele>1499</ele>
        <time>2017-12-03T09:03:55Z</time>
      </trkpt>
      <trkpt lat="45.00686" lon="5.53339">
        <ele>1500.4</ele>
        <time>2017-12-03T09:04:00Z</time>
      </trkpt>
      <trkpt lat="45.00684" lon="5.53342">
        <ele>1497.2</ele>
        <time>2017-12-03T09:04:05Z</time>
      </trkpt>
      <trkpt lat="45.00681" lon="5.53343">
        <ele>1501</ele>
        <time>2017-12-03T09:04:10Z</time>
      </trkpt>
      <trkpt lat="45.00678" lon="5.53346">
        <ele>1501.2</ele>
        <time>2017-12-03T09:04:15Z</time>
      </trkpt>
      <trkpt lat="45.00675" lon="5.53348">
        <ele>1502.6</ele>
        <time>2017-12-03T09:04:20Z</time>
      </trkpt>
      <trkpt lat="45.00673" lon="5.53349">
        <ele>1504.4</ele>
        <time>2017-12-03T09:04:25Z</time>
      </trkpt>
      <trkpt lat="45.0067" lon="5.5335">
        <ele>1503</ele>
        <time>2017-12-03T09:04:30Z</time>
      </trkpt>
      <trkpt lat="45.00669" lon="5.53352">
        <ele>1504.8</ele>
        <time>2017-12-03T09:04:35Z</time>
      </trkpt>
      <trkpt lat="45.00669" lon="5.53352">
        <ele>1504</ele>
        <time>2017-12-03T09:04:40Z</time>
      </trkpt>
      <trkpt lat="45.00669" lon="5.53352">
        <ele>1503.6</ele>
        <time>2017-12-03T09:04:45Z</time>
      </trkpt>
      <trkpt lat="45.00668" lon="5.53353">
        <ele>1502.2</ele>
        <time>2017-12-03T09:04:50Z</time>
      </trkpt>
      <trkpt lat="45.00664" lon="5.53354">
        <ele>1502</ele>
        <time>2017-12-03T09:04:55Z</time>
      </trkpt>
      <trkpt lat="45.00661" lon="5.53355">
        <ele>1505.8</ele>
        <time>2017-12-03T09:05:00Z</time>
      </trkpt>
      <trkpt lat="45.00657" lon="5.53355">
        <ele>1503</ele>
        <time>2017-12-03T09:05:05Z</time>
      </trkpt>
      <trkpt lat="45.00654" lon="5.53355">
        <ele>1500.4</ele>
        <time>2017-12-03T09:05:10Z</time>
      </trkpt>
      <trkpt lat="45.00651" lon="5.53355">
        <ele>1507.8</ele>
        <time>2017-12-03T09:05:15Z</time>
      </trkpt>
      <trkpt lat="45.00647" lon="5.53354">
        <ele>1507.2</ele>
        <time>2017-12-03T09:05:20Z</time>
      </trkpt>
      <trkpt lat="45.00644" lon="5.53353">
        <ele>1508.2</ele>
        <time>2017-12-03T09:05:25Z</time>
      </trkpt>
      <trkpt lat="45.00642" lon="5.53351">
        <ele>1507.2</ele>
        <time>2017-12-03T09:05:30Z</time>
      </trkpt>
      <trkpt lat="45.00639" lon="5.5335">
        <ele>1511.6</ele>
        <time>2017-12-03T09:05:35Z</time>
      </trkpt>
      <trkpt lat="45.00636" lon="5.53349">
        <ele>1510.2</ele>
        <time>2017-12-03T09:05:40Z</time>
      </trkpt>
      <trkpt lat="45.00632" lon="5.53348">
        <ele>1511.4</ele>
        <time>2017-12-03T09:05:45Z</time>
      </trkpt>
      <trkpt lat="45.00629" lon="5.53348">
        <ele>1510</ele>
        <time>2017-12-03T09:05:50Z</time>
      </trkpt>
      <trkpt lat="45.00626" lon="5.53348">
        <ele>1511</ele>
        <time>2017-12-03T09:05:55Z</time>
      </trkpt>
      <trkpt lat="45.00622" lon="5.53348">
        <ele>1513.6</ele>
        <time>2017-12-03T09:06:00Z</time>
      </trkpt>
      <trkpt lat="45.00619" lon="5.53348">
        <ele>1514.2</ele>
        <time>2017-12-03T09:06:05Z</time>
      </trkpt>
      <trkpt lat="45.00616" lon="5.53347">
        <ele>1513.6</ele>
        <time>2017-12-03T09:06:10Z</time>
      </trkpt>
      <trkpt lat="45.00612" lon="5.53346">
        <ele>1513.2</ele>
        <time>2017-12-03T09:06:15Z</time>
      </trkpt>
      <trkpt lat="45.00609" lon="5.53345">
        <ele>1516.2</ele>
        <time>2017-12-03T09:06:20Z</time>
      </trkpt>
      <trkpt lat="45.00606" lon="5.53344">
        <ele>1516.4</ele>
        <time>2017-12-03T09:06:25Z</time>
      </trkpt>
      <trkpt lat="45.00603" lon="5.53346">
        <ele>1514.2</ele>
        <time>2017-12-03T09:06:30Z</time>
      </trkpt>
      <trkpt lat="45.006" lon="5.53347">
        <ele>1517.2</ele>
        <time>2017-12-03T09:06:35Z</time>
      </trkpt>
      <trkpt lat="45.00597" lon="5.53348">
        <ele>1520.2</ele>
        <time>2017-12-03T09:06:40Z</time>
      </trkpt>
      <trkpt lat="45.00594" lon="5.53348">
        <ele>1515.6</ele>
        <time>2017-12-03T09:06:45Z</time>
      </trkpt>
      <trkpt lat="45.00592" lon="5.53349">
        <ele>1517.2</ele>
        <time>2017-12-03T09:06:50Z</time>
      </trkpt>
      <trkpt lat="45.00588" lon="5.5335">
        <ele>1517.2</ele>
        <time>2017-12-03T09:06:55Z</time>
      </trkpt>
      <trkpt lat="45.00585" lon="5.53348">
        <ele>1519.6</ele>
        <time>2017-12-03T09:07:00Z</time>
      </trkpt>
      <trkpt lat="45.00582" lon="5.53347">
        <ele>1521.6</ele>
        <time>2017-12-03T09:07:05Z</time>
      </trkpt>
      <trkpt lat="45.00579" lon="5.53347">
        <ele>1521</ele>
        <time>2017-12-03T09:07:10Z</time>
      </trkpt>
      <trkpt lat="45.00575" lon="5.53348">
        <ele>1521.2</ele>
        <time>2017-12-03T09:07:15Z</time>
      </trkpt>
      <trkpt lat="45.00572" lon="5.53349">
        <ele>1522</ele>
        <time>2017-12-03T09:07:20Z</time>
      </trkpt>
      <trkpt lat="45.00568" lon="5.5335">
        <ele>1523</ele>
        <time>2017-12-03T09:07:25Z</time>
      </trkpt>
      <trkpt lat="45.00566" lon="5.53351">
        <ele>1524.4</ele>
        <time>2017-12-03T09:07:30Z</time>
      </trkpt>
      <trkpt lat="45.00563" lon="5.53352">
        <ele>1523.4</ele>
        <time>2017-12-03T09:07:35Z</time>
      </trkpt>
      <trkpt lat="45.0056" lon="5.53355">
        <ele>1525.6</ele>
        <time>2017-12-03T09:07:40Z</time>
      </trkpt>
      <trkpt lat="45.00557" lon="5.53359">
        <ele>1526.6</ele>
        <time>2017-12-03T09:07:45Z</time>
      </trkpt>
      <trkpt lat="45.00554" lon="5.53362">
        <ele>1525.8</ele>
        <time>2017-12-03T09:07:50Z</time>
      </trkpt>
      <trkpt lat="45.00551" lon="5.53365">
        <ele>1528.2</ele>
        <time>2017-12-03T09:07:55Z</time>
      </trkpt>
      <trkpt lat="45.00549" lon="5.53368">
        <ele>1526.4</ele>
        <time>2017-12-03T09:08:00Z</time>
      </trkpt>
      <trkpt lat="45.00545" lon="5.53369">
        <ele>1526.8</ele>
        <time>2017-12-03T09:08:05Z</time>
      </trkpt>
      <trkpt lat="45.00542" lon="5.5337">
        <ele>1529.2</ele>
        <time>2017-12-03T09:08:10Z</time>
      </trkpt>
      <trkpt lat="45.00539" lon="5.5337">
        <ele>1529.4</ele>
        <time>2017-12-03T09:08:15Z</time>
      </trkpt>
      <trkpt lat="45.00537" lon="5.5337">
        <ele>1533.6</ele>
        <time>2017-12-03T09:08:20Z</time>
      </trkpt>
      <trkpt lat="45.00534" lon="5.53369">
        <ele>1530.2</ele>
        <time>2017-12-03T09:08:25Z</time>
      </trkpt>
      <trkpt lat="45.00531" lon="5.53368">
        <ele>1532.6</ele>
        <time>2017-12-03T09:08:30Z</time>
      </trkpt>
      <trkpt lat="45.00529" lon="5.53367">
        <ele>1532</ele>
        <time>2017-12-03T09:08:35Z</time>
      </trkpt>
      <trkpt lat="45.00526" lon="5.53367">
        <ele>1532.4</ele>
        <time>2017-12-03T09:08:40Z</time>
      </trkpt>
      <trkpt lat="45.00524" lon="5.53366">
        <ele>1533</ele>
        <time>2017-12-03T09:08:45Z</time>
      </trkpt>
      <trkpt lat="45.00521" lon="5.53366">
        <ele>1534.2</ele>
        <time>2017-12-03T09:08:50Z</time>
      </trkpt>
      <trkpt lat="45.00519" lon="5.53366">
        <ele>1532.2</ele>
        <time>2017-12-03T09:08:55Z</time>
      </trkpt>
      <trkpt lat="45.00516" lon="5.53367">
        <ele>1535.6</ele>
        <time>2017-12-03T09:09:00Z</time>
      </trkpt>
      <trkpt lat="45.00513" lon="5.53368">
        <ele>1537.8</ele>
        <time>2017-12-03T09:09:05Z</time>
      </trkpt>
      <trkpt lat="45.00511" lon="5.53368">
        <ele>1537.6</ele>
        <time>2017-12-03T09:09:10Z</time>
      </trkpt>
      <trkpt lat="45.00509" lon="5.53369">
        <ele>1540</ele>
        <time>2017-12-03T09:09:15Z</time>
      </trkpt>
      <trkpt lat="45.00506" lon="5.5337">
        <ele>1540.8</ele>
        <time>2017-12-03T09:09:20Z</time>
      </trkpt>
      <trkpt lat="45.00503" lon="5.53371">
        <ele>1541</ele>
        <time>2017-12-03T09:09:25Z</time>
      </trkpt>
      <trkpt lat="45.00501" lon="5.53371">
        <ele>1543.2</ele>
        <time>2017-12-03T09:09:30Z</time>
      </trkpt>
      <trkpt lat="45.00498" lon="5.53371">
        <ele>1541.2</ele>
        <time>2017-12-03T09:09:35Z</time>
      </trkpt>
      <trkpt lat="45.00495" lon="5.5337">
        <ele>1544</ele>
        <time>2017-12-03T09:09:40Z</time>
      </trkpt>
      <trkpt lat="45.00493" lon="5.53369">
        <ele>1545</ele>
        <time>2017-12-03T09:09:45Z</time>
      </trkpt>
      <trkpt lat="45.0049" lon="5.53369">
        <ele>1545.8</ele>
        <time>2017-12-03T09:09:50Z</time>
      </trkpt>
      <trkpt lat="45.00486" lon="5.5337">
        <ele>1548.2</ele>
        <time>2017-12-03T09:09:55Z</time>
      </trkpt>
      <trkpt lat="45.00483" lon="5.53371">
        <ele>1549.2</ele>
        <time>2017-12-03T09:10:00Z</time>
      </trkpt>
      <trkpt lat="45.0048" lon="5.53373">
        <ele>1547</ele>
        <time>2017-12-03T09:10:05Z</time>
      </trkpt>
      <trkpt lat="45.00477" lon="5.53375">
        <ele>1547.6</ele>
        <time>2017-12-03T09:10:10Z</time>
      </trkpt>
      <trkpt lat="45.00475" lon="5.53376">
        <ele>1546.6</ele>
        <time>2017-12-03T09:10:15Z</time>
      </trkpt>
      <trkpt lat="45.00472" lon="5.53376">
        <ele>1551.8</ele>
        <time>2017-12-03T09:10:20Z</time>
      </trkpt>
      <trkpt lat="45.00469" lon="5.53377">
        <ele>1551</ele>
        <time>2017-12-03T09:10:25Z</time>
      </trkpt>
      <trkpt lat="45.00467" lon="5.53378">
        <ele>1554.2</ele>
        <time>2017-12-03T09:10:30Z</time>
      </trkpt>
      <trkpt lat="45.00464" lon="5.53378">
        <ele>1551.6</ele>
        <time>2017-12-03T09:10:35Z</time>
      </trkpt>
      <trkpt lat="45.00463" lon="5.53379">
        <ele>1554.2</ele>
        <time>2017-12-03T09:10:40Z</time>
      </trkpt>
      <trkpt lat="45.00463" lon="5.53383">
        <ele>1556.6</ele>
        <time>2017-12-03T09:10:45Z</time>
      </trkpt>
      <trkpt lat="45.00464" lon="5.53387">
        <ele>1554.6</ele>
        <time>2017-12-03T09:10:50Z</time>
      </trkpt>
      <trkpt lat="45.00463" lon="5.53389">
        <ele>1559.6</ele>
        <time>2017-12-03T09:10:55Z</time>
      </trkpt>
      <trkpt lat="45.00459" lon="5.53388">
        <ele>1556.2</ele>
        <time>2017-12-03T09:11:00Z</time>
      </trkpt>
      <trkpt lat="45.00457" lon="5.53389">
        <ele>1558.4</ele>
        <time>2017-12-03T09:11:05Z</time>
      </trkpt>
      <trkpt lat="45.00455" lon="5.53389">
        <ele>1558.8</ele>
        <time>2017-12-03T09:11:10Z</time>
      </trkpt>
      <trkpt lat="45.00452" lon="5.53388">
        <ele>1561.8</ele>
        <time>2017-12-03T09:11:16Z</time>
      </trkpt>
      <trkpt lat="45.00449" lon="5.53388">
        <ele>1558</ele>
        <time>2017-12-03T09:11:21Z</time>
      </trkpt>
      <trkpt lat="45.00446" lon="5.53387">
        <ele>1560.6</ele>
        <time>2017-12-03T09:11:26Z</time>
      </trkpt>
      <trkpt lat="45.00443" lon="5.53385">
        <ele>1561.6</ele>
        <time>2017-12-03T09:11:31Z</time>
      </trkpt>
      <trkpt lat="45.0044" lon="5.53384">
        <ele>1561.2</ele>
        <time>2017-12-03T09:11:36Z</time>
      </trkpt>
      <trkpt lat="45.00438" lon="5.53387">
        <ele>1562</ele>
        <time>2017-12-03T09:11:41Z</time>
      </trkpt>
      <trkpt lat="45.00439" lon="5.53392">
        <ele>1563.2</ele>
        <time>2017-12-03T09:11:46Z</time>
      </trkpt>
      <trkpt lat="45.00438" lon="5.53396">
        <ele>1565.2</ele>
        <time>2017-12-03T09:11:51Z</time>
      </trkpt>
      <trkpt lat="45.00438" lon="5.534">
        <ele>1565.6</ele>
        <time>2017-12-03T09:11:56Z</time>
      </trkpt>
      <trkpt lat="45.00437" lon="5.53403">
        <ele>1566.8</ele>
        <time>2017-12-03T09:12:01Z</time>
      </trkpt>
      <trkpt lat="45.00434" lon="5.53402">
        <ele>1567.6</ele>
        <time>2017-12-03T09:12:06Z</time>
      </trkpt>
      <trkpt lat="45.00431" lon="5.53401">
        <ele>1566.4</ele>
        <time>2017-12-03T09:12:11Z</time>
      </trkpt>
      <trkpt lat="45.00428" lon="5.534">
        <ele>1568.4</ele>
        <time>2017-12-03T09:12:16Z</time>
      </trkpt>
      <trkpt lat="45.00426" lon="5.53399">
        <ele>1572.2</ele>
        <time>2017-12-03T09:12:21Z</time>
      </trkpt>
      <trkpt lat="45.00423" lon="5.53398">
        <ele>1571.4</ele>
        <time>2017-12-03T09:12:26Z</time>
      </trkpt>
      <trkpt lat="45.00421" lon="5.53397">
        <ele>1570.6</ele>
        <time>2017-12-03T09:12:31Z</time>
      </trkpt>
      <trkpt lat="45.00419" lon="5.53396">
        <ele>1575.6</ele>
        <time>2017-12-03T09:12:36Z</time>
      </trkpt>
      <trkpt lat="45.00417" lon="5.53394">
        <ele>1575.4</ele>
        <time>2017-12-03T09:12:41Z</time>
      </trkpt>
      <trkpt lat="45.00417" lon="5.53394">
        <ele>1574.6</ele>
        <time>2017-12-03T09:12:46Z</time>
      </trkpt>
      <trkpt lat="45.00416" lon="5.53394">
        <ele>1574</ele>
        <time>2017-12-03T09:12:51Z</time>
      </trkpt>
      <trkpt lat="45.00415" lon="5.53394">
        <ele>1573.8</ele>
        <time>2017-12-03T09:12:56Z</time>
      </trkpt>
      <trkpt lat="45.00413" lon="5.53393">
        <ele>1571.6</ele>
        <time>2017-12-03T09:13:01Z</time>
      </trkpt>
      <trkpt lat="45.00411" lon="5.53391">
        <ele>1573.2</ele>
        <time>2017-12-03T09:13:06Z</time>
      </trkpt>
      <trkpt lat="45.00408" lon="5.5339">
        <ele>1573.6</ele>
        <time>2017-12-03T09:13:11Z</time>
      </trkpt>
      <trkpt lat="45.00405" lon="5.53389">
        <ele>1572.4</ele>
        <time>2017-12-03T09:13:16Z</time>
      </trkpt>
      <trkpt lat="45.00402" lon="5.53387">
        <ele>1574.8</ele>
        <time>2017-12-03T09:13:21Z</time>
      </trkpt>
      <trkpt lat="45.00399" lon="5.53386">
        <ele>1576.4</ele>
        <time>2017-12-03T09:13:26Z</time>
      </trkpt>
      <trkpt lat="45.00396" lon="5.53385">
        <ele>1577.2</ele>
        <time>2017-12-03T09:13:31Z</time>
      </trkpt>
      <trkpt lat="45.00394" lon="5.53385">
        <ele>1577.2</ele>
        <time>2017-12-03T09:13:36Z</time>
      </trkpt>
      <trkpt lat="45.00394" lon="5.5339">
        <ele>1580.4</ele>
        <time>2017-12-03T09:13:41Z</time>
      </trkpt>
      <trkpt lat="45.00394" lon="5.53394">
        <ele>1578.6</ele>
        <time>2017-12-03T09:13:46Z</time>
      </trkpt>
      <trkpt lat="45.00394" lon="5.53398">
        <ele>1584.6</ele>
        <time>2017-12-03T09:13:51Z</time>
      </trkpt>
      <trkpt lat="45.00394" lon="5.53402">
        <ele>1581.6</ele>
        <time>2017-12-03T09:13:56Z</time>
      </trkpt>
      <trkpt lat="45.00394" lon="5.53405">
        <ele>1584.4</ele>
        <time>2017-12-03T09:14:01Z</time>
      </trkpt>
      <trkpt lat="45.00394" lon="5.5341">
        <ele>1584.4</ele>
        <time>2017-12-03T09:14:06Z</time>
      </trkpt>
      <trkpt lat="45.00395" lon="5.53414">
        <ele>1584.6</ele>
        <time>2017-12-03T09:14:11Z</time>
      </trkpt>
      <trkpt lat="45.00394" lon="5.53416">
        <ele>1584</ele>
        <time>2017-12-03T09:14:16Z</time>
      </trkpt>
      <trkpt lat="45.00392" lon="5.53415">
        <ele>1585</ele>
        <time>2017-12-03T09:14:21Z</time>
      </trkpt>
      <trkpt lat="45.00389" lon="5.53413">
        <ele>1588.4</ele>
        <time>2017-12-03T09:14:26Z</time>
      </trkpt>
      <trkpt lat="45.00386" lon="5.5341">
        <ele>1590.4</ele>
        <time>2017-12-03T09:14:31Z</time>
      </trkpt>
      <trkpt lat="45.00384" lon="5.53408">
        <ele>1587.4</ele>
        <time>2017-12-03T09:14:36Z</time>
      </trkpt>
      <trkpt lat="45.00381" lon="5.53406">
        <ele>1590.2</ele>
        <time>2017-12-03T09:14:41Z</time>
      </trkpt>
      <trkpt lat="45.00378" lon="5.53404">
        <ele>1591.6</ele>
        <time>2017-12-03T09:14:46Z</time>
      </trkpt>
      <trkpt lat="45.00375" lon="5.53402">
        <ele>1589.2</ele>
        <time>2017-12-03T09:14:51Z</time>
      </trkpt>
      <trkpt lat="45.00373" lon="5.53399">
        <ele>1591</ele>
        <time>2017-12-03T09:14:56Z</time>
      </trkpt>
      <trkpt lat="45.0037" lon="5.53397">
        <ele>1593.6</ele>
        <time>2017-12-03T09:15:01Z</time>
      </trkpt>
      <trkpt lat="45.00368" lon="5.53395">
        <ele>1589.8</ele>
        <time>2017-12-03T09:15:06Z</time>
      </trkpt>
      <trkpt lat="45.00366" lon="5.53393">
        <ele>1594.4</ele>
        <time>2017-12-03T09:15:11Z</time>
      </trkpt>
      <trkpt lat="45.00364" lon="5.53394">
        <ele>1591.8</ele>
        <time>2017-12-03T09:15:16Z</time>
      </trkpt>
      <trkpt lat="45.00364" lon="5.53397">
        <ele>1595.6</ele>
        <time>2017-12-03T09:15:21Z</time>
      </trkpt>
      <trkpt lat="45.00365" lon="5.53401">
        <ele>1593.2</ele>
        <time>2017-12-03T09:15:26Z</time>
      </trkpt>
      <trkpt lat="45.00365" lon="5.53405">
        <ele>1597</ele>
        <time>2017-12-03T09:15:31Z</time>
      </trkpt>
      <trkpt lat="45.00365" lon="5.53409">
        <ele>1598</ele>
        <time>2017-12-03T09:15:36Z</time>
      </trkpt>
      <trkpt lat="45.00365" lon="5.53413">
        <ele>1598.2</ele>
        <time>2017-12-03T09:15:41Z</time>
      </trkpt>
      <trkpt lat="45.00365" lon="5.53417">
        <ele>1599.6</ele>
        <time>2017-12-03T09:15:46Z</time>
      </trkpt>
      <trkpt lat="45.00366" lon="5.53422">
        <ele>1601.4</ele>
        <time>2017-12-03T09:15:51Z</time>
      </trkpt>
      <trkpt lat="45.00366" lon="5.53426">
        <ele>1600</ele>
        <time>2017-12-03T09:15:56Z</time>
      </trkpt>
      <trkpt lat="45.00367" lon="5.53431">
        <ele>1601.6</ele>
        <time>2017-12-03T09:16:02Z</time>
      </trkpt>
      <trkpt lat="45.00368" lon="5.53435">
        <ele>1603.6</ele>
        <time>2017-12-03T09:16:07Z</time>
      </trkpt>
      <trkpt lat="45.00369" lon="5.53439">
        <ele>1602.8</ele>
        <time>2017-12-03T09:16:12Z</time>
      </trkpt>
      <trkpt lat="45.00367" lon="5.53439">
        <ele>1602</ele>
        <time>2017-12-03T09:16:17Z</time>
      </trkpt>
      <trkpt lat="45.00364" lon="5.53438">
        <ele>1602.8</ele>
        <time>2017-12-03T09:16:22Z</time>
      </trkpt>
      <trkpt lat="45.00361" lon="5.53438">
        <ele>1607</ele>
        <time>2017-12-03T09:16:27Z</time>
      </trkpt>
      <trkpt lat="45.00358" lon="5.53437">
        <ele>1607</ele>
        <time>2017-12-03T09:16:32Z</time>
      </trkpt>
      <trkpt lat="45.00355" lon="5.53436">
        <ele>1607.8</ele>
        <time>2017-12-03T09:16:37Z</time>
      </trkpt>
      <trkpt lat="45.00353" lon="5.53435">
        <ele>1609.6</ele>
        <time>2017-12-03T09:16:42Z</time>
      </trkpt>
      <trkpt lat="45.00351" lon="5.53433">
        <ele>1609.6</ele>
        <time>2017-12-03T09:16:47Z</time>
      </trkpt>
      <trkpt lat="45.00348" lon="5.53432">
        <ele>1610.8</ele>
        <time>2017-12-03T09:16:52Z</time>
      </trkpt>
      <trkpt lat="45.00346" lon="5.5343">
        <ele>1611.6</ele>
        <time>2017-12-03T09:16:57Z</time>
      </trkpt>
      <trkpt lat="45.00344" lon="5.53427">
        <ele>1613.2</ele>
        <time>2017-12-03T09:17:02Z</time>
      </trkpt>
      <trkpt lat="45.00342" lon="5.53426">
        <ele>1611.6</ele>
        <time>2017-12-03T09:17:07Z</time>
      </trkpt>
      <trkpt lat="45.0034" lon="5.53425">
        <ele>1610.6</ele>
        <time>2017-12-03T09:17:12Z</time>
      </trkpt>
      <trkpt lat="45.00338" lon="5.53424">
        <ele>1610.8</ele>
        <time>2017-12-03T09:17:17Z</time>
      </trkpt>
      <trkpt lat="45.00336" lon="5.53423">
        <ele>1613.2</ele>
        <time>2017-12-03T09:17:22Z</time>
      </trkpt>
      <trkpt lat="45.00334" lon="5.53422">
        <ele>1613</ele>
        <time>2017-12-03T09:17:27Z</time>
      </trkpt>
      <trkpt lat="45.00332" lon="5.5342">
        <ele>1614.4</ele>
        <time>2017-12-03T09:17:32Z</time>
      </trkpt>
      <trkpt lat="45.0033" lon="5.53419">
        <ele>1613</ele>
        <time>2017-12-03T09:17:37Z</time>
      </trkpt>
      <trkpt lat="45.00328" lon="5.53417">
        <ele>1615.4</ele>
        <time>2017-12-03T09:17:42Z</time>
      </trkpt>
      <trkpt lat="45.00326" lon="5.53416">
        <ele>1618.4</ele>
        <time>2017-12-03T09:17:47Z</time>
      </trkpt>
      <trkpt lat="45.00326" lon="5.53419">
        <ele>1617.8</ele>
        <time>2017-12-03T09:17:52Z</time>
      </trkpt>
      <trkpt lat="45.00325" lon="5.53423">
        <ele>1620.4</ele>
        <time>2017-12-03T09:17:57Z</time>
      </trkpt>
      <trkpt lat="45.00325" lon="5.53428">
        <ele>1618.2</ele>
        <time>2017-12-03T09:18:02Z</time>
      </trkpt>
      <trkpt lat="45.00325" lon="5.53431">
        <ele>1618.2</ele>
        <time>2017-12-03T09:18:07Z</time>
      </trkpt>
      <trkpt lat="45.00325" lon="5.53435">
        <ele>1619.8</ele>
        <time>2017-12-03T09:18:12Z</time>
      </trkpt>
      <trkpt lat="45.00326" lon="5.53439">
        <ele>1620.8</ele>
        <time>2017-12-03T09:18:17Z</time>
      </trkpt>
      <trkpt lat="45.00326" lon="5.53443">
        <ele>1620.6</ele>
        <time>2017-12-03T09:18:22Z</time>
      </trkpt>
      <trkpt lat="45.00327" lon="5.53448">
        <ele>1623</ele>
        <time>2017-12-03T09:18:27Z</time>
      </trkpt>
      <trkpt lat="45.00327" lon="5.53451">
        <ele>1626</ele>
        <time>2017-12-03T09:18:32Z</time>
      </trkpt>
      <trkpt lat="45.00328" lon="5.53455">
        <ele>1622.6</ele>
        <time>2017-12-03T09:18:37Z</time>
      </trkpt>
      <trkpt lat="45.00327" lon="5.53456">
        <ele>1620.2</ele>
        <time>2017-12-03T09:18:42Z</time>
      </trkpt>
      <trkpt lat="45.00325" lon="5.53454">
        <ele>1622.6</ele>
        <time>2017-12-03T09:18:47Z</time>
      </trkpt>
      <trkpt lat="45.00322" lon="5.53453">
        <ele>1625.4</ele>
        <time>2017-12-03T09:18:52Z</time>
      </trkpt>
      <trkpt lat="45.0032" lon="5.53451">
        <ele>1626.6</ele>
        <time>2017-12-03T09:18:57Z</time>
      </trkpt>
      <trkpt lat="45.00318" lon="5.53449">
        <ele>1626.8</ele>
        <time>2017-12-03T09:19:02Z</time>
      </trkpt>
      <trkpt lat="45.00316" lon="5.53447">
        <ele>1625</ele>
        <time>2017-12-03T09:19:07Z</time>
      </trkpt>
      <trkpt lat="45.00313" lon="5.53446">
        <ele>1627.6</ele>
        <time>2017-12-03T09:19:12Z</time>
      </trkpt>
      <trkpt lat="45.00311" lon="5.53445">
        <ele>1629.8</ele>
        <time>2017-12-03T09:19:17Z</time>
      </trkpt>
      <trkpt lat="45.00308" lon="5.53444">
        <ele>1631</ele>
        <time>2017-12-03T09:19:22Z</time>
      </trkpt>
      <trkpt lat="45.00306" lon="5.53443">
        <ele>1632</ele>
        <time>2017-12-03T09:19:27Z</time>
      </trkpt>
      <trkpt lat="45.00304" lon="5.53443">
        <ele>1629.6</ele>
        <time>2017-12-03T09:19:32Z</time>
      </trkpt>
      <trkpt lat="45.00305" lon="5.53446">
        <ele>1633.2</ele>
        <time>2017-12-03T09:19:37Z</time>
      </trkpt>
      <trkpt lat="45.00305" lon="5.53449">
        <ele>1632.2</ele>
        <time>2017-12-03T09:19:42Z</time>
      </trkpt>
      <trkpt lat="45.00306" lon="5.53453">
        <ele>1633.2</ele>
        <time>2017-12-03T09:19:47Z</time>
      </trkpt>
      <trkpt lat="45.00306" lon="5.53457">
        <ele>1635.8</ele>
        <time>2017-12-03T09:19:52Z</time>
      </trkpt>
      <trkpt lat="45.00307" lon="5.53461">
        <ele>1635.6</ele>
        <time>2017-12-03T09:19:57Z</time>
      </trkpt>
      <trkpt lat="45.00306" lon="5.53464">
        <ele>1637.2</ele>
        <time>2017-12-03T09:20:02Z</time>
      </trkpt>
      <trkpt lat="45.00306" lon="5.53467">
        <ele>1639.6</ele>
        <time>2017-12-03T09:20:07Z</time>
      </trkpt>
      <trkpt lat="45.00306" lon="5.53471">
        <ele>1638.2</ele>
        <time>2017-12-03T09:20:12Z</time>
      </trkpt>
      <trkpt lat="45.00306" lon="5.53472">
        <ele>1640.6</ele>
        <time>2017-12-03T09:20:18Z</time>
      </trkpt>
      <trkpt lat="45.00303" lon="5.53471">
        <ele>1641.2</ele>
        <time>2017-12-03T09:20:23Z</time>
      </trkpt>
      <trkpt lat="45.00301" lon="5.53469">
        <ele>1640.2</ele>
        <time>2017-12-03T09:20:28Z</time>
      </trkpt>
      <trkpt lat="45.00298" lon="5.53468">
        <ele>1641.6</ele>
        <time>2017-12-03T09:20:33Z</time>
      </trkpt>
      <trkpt lat="45.00295" lon="5.53467">
        <ele>1641.6</ele>
        <time>2017-12-03T09:20:38Z</time>
      </trkpt>
      <trkpt lat="45.00293" lon="5.53465">
        <ele>1642.4</ele>
        <time>2017-12-03T09:20:43Z</time>
      </trkpt>
      <trkpt lat="45.0029" lon="5.53464">
        <ele>1644.4</ele>
        <time>2017-12-03T09:20:48Z</time>
      </trkpt>
      <trkpt lat="45.00287" lon="5.53463">
        <ele>1644.6</ele>
        <time>2017-12-03T09:20:53Z</time>
      </trkpt>
      <trkpt lat="45.00285" lon="5.53461">
        <ele>1642.8</ele>
        <time>2017-12-03T09:20:58Z</time>
      </trkpt>
      <trkpt lat="45.00282" lon="5.5346">
        <ele>1643.4</ele>
        <time>2017-12-03T09:21:03Z</time>
      </trkpt>
      <trkpt lat="45.00279" lon="5.53459">
        <ele>1645.4</ele>
        <time>2017-12-03T09:21:08Z</time>
      </trkpt>
      <trkpt lat="45.00279" lon="5.53459">
        <ele>1645.4</ele>
        <time>2017-12-03T09:21:13Z</time>
      </trkpt>
      <trkpt lat="45.00279" lon="5.53459">
        <ele>1645.2</ele>
        <time>2017-12-03T09:21:18Z</time>
      </trkpt>
      <trkpt lat="45.00279" lon="5.53459">
        <ele>1645.2</ele>
        <time>2017-12-03T09:21:23Z</time>
      </trkpt>
      <trkpt lat="45.00279" lon="5.53459">
        <ele>1645.2</ele>
        <time>2017-12-03T09:21:28Z</time>
      </trkpt>
      <trkpt lat="45.00279" lon="5.53458">
        <ele>1645.2</ele>
        <time>2017-12-03T09:21:33Z</time>
      </trkpt>
      <trkpt lat="45.00279" lon="5.53458">
        <ele>1645</ele>
        <time>2017-12-03T09:21:38Z</time>
      </trkpt>
      <trkpt lat="45.00279" lon="5.53458">
        <ele>1645</ele>
        <time>2017-12-03T09:21:43Z</time>
      </trkpt>
      <trkpt lat="45.00278" lon="5.53458">
        <ele>1646.8</ele>
        <time>2017-12-03T09:21:48Z</time>
      </trkpt>
      <trkpt lat="45.00274" lon="5.53456">
        <ele>1648</ele>
        <time>2017-12-03T09:21:53Z</time>
      </trkpt>
      <trkpt lat="45.00271" lon="5.53454">
        <ele>1647.4</ele>
        <time>2017-12-03T09:21:58Z</time>
      </trkpt>
      <trkpt lat="45.00268" lon="5.53452">
        <ele>1647</ele>
        <time>2017-12-03T09:22:03Z</time>
      </trkpt>
      <trkpt lat="45.00265" lon="5.53451">
        <ele>1649.2</ele>
        <time>2017-12-03T09:22:08Z</time>
      </trkpt>
      <trkpt lat="45.00262" lon="5.53449">
        <ele>1647.8</ele>
        <time>2017-12-03T09:22:13Z</time>
      </trkpt>
      <trkpt lat="45.00261" lon="5.53449">
        <ele>1649.8</ele>
        <time>2017-12-03T09:22:18Z</time>
      </trkpt>
      <trkpt lat="45.00261" lon="5.53449">
        <ele>1649.8</ele>
        <time>2017-12-03T09:22:23Z</time>
      </trkpt>
      <trkpt lat="45.00261" lon="5.53449">
        <ele>1649.8</ele>
        <time>2017-12-03T09:22:28Z</time>
      </trkpt>
      <trkpt lat="45.00258" lon="5.53449">
        <ele>1650</ele>
        <time>2017-12-03T09:22:33Z</time>
      </trkpt>
      <trkpt lat="45.00254" lon="5.53447">
        <ele>1649.8</ele>
        <time>2017-12-03T09:22:38Z</time>
      </trkpt>
      <trkpt lat="45.00249" lon="5.53444">
        <ele>1650.2</ele>
        <time>2017-12-03T09:22:43Z</time>
      </trkpt>
      <trkpt lat="45.00245" lon="5.53444">
        <ele>1650.8</ele>
        <time>2017-12-03T09:22:48Z</time>
      </trkpt>
      <trkpt lat="45.00241" lon="5.53444">
        <ele>1652.4</ele>
        <time>2017-12-03T09:22:53Z</time>
      </trkpt>
      <trkpt lat="45.00241" lon="5.53444">
        <ele>1652.6</ele>
        <time>2017-12-03T09:22:58Z</time>
      </trkpt>
      <trkpt lat="45.00241" lon="5.53444">
        <ele>1652.8</ele>
        <time>2017-12-03T09:23:03Z</time>
      </trkpt>
      <trkpt lat="45.00241" lon="5.53444">
        <ele>1649.6</ele>
        <time>2017-12-03T09:23:08Z</time>
      </trkpt>
      <trkpt lat="45.00242" lon="5.53444">
        <ele>1650.6</ele>
        <time>2017-12-03T09:23:13Z</time>
      </trkpt>
      <trkpt lat="45.00242" lon="5.53445">
        <ele>1651.4</ele>
        <time>2017-12-03T09:23:18Z</time>
      </trkpt>
      <trkpt lat="45.00242" lon="5.53445">
        <ele>1651.8</ele>
        <time>2017-12-03T09:23:23Z</time>
      </trkpt>
      <trkpt lat="45.00242" lon="5.53445">
        <ele>1652.4</ele>
        <time>2017-12-03T09:23:28Z</time>
      </trkpt>
      <trkpt lat="45.00242" lon="5.53445">
        <ele>1652.6</ele>
        <time>2017-12-03T09:23:33Z</time>
      </trkpt>
      <trkpt lat="45.00242" lon="5.53445">
        <ele>1652.8</ele>
        <time>2017-12-03T09:23:38Z</time>
      </trkpt>
      <trkpt lat="45.00242" lon="5.53445">
        <ele>1653</ele>
        <time>2017-12-03T09:23:43Z</time>
      </trkpt>
      <trkpt lat="45.00242" lon="5.53445">
        <ele>1653</ele>
        <time>2017-12-03T09:23:48Z</time>
      </trkpt>
      <trkpt lat="45.00242" lon="5.53445">
        <ele>1653.2</ele>
        <time>2017-12-03T09:23:53Z</time>
      </trkpt>
      <trkpt lat="45.00242" lon="5.53445">
        <ele>1653.2</ele>
        <time>2017-12-03T09:23:58Z</time>
      </trkpt>
      <trkpt lat="45.00242" lon="5.53445">
        <ele>1653.2</ele>
        <time>2017-12-03T09:24:03Z</time>
      </trkpt>
      <trkpt lat="45.00242" lon="5.53445">
        <ele>1653.2</ele>
        <time>2017-12-03T09:24:08Z</time>
      </trkpt>
      <trkpt lat="45.00242" lon="5.53445">
        <ele>1653.2</ele>
        <time>2017-12-03T09:24:13Z</time>
      </trkpt>
      <trkpt lat="45.00242" lon="5.53445">
        <ele>1653.2</ele>
        <time>2017-12-03T09:24:18Z</time>
      </trkpt>
      <trkpt lat="45.00242" lon="5.53445">
        <ele>1653.2</ele>
        <time>2017-12-03T09:24:23Z</time>
      </trkpt>
      <trkpt lat="45.00242" lon="5.53445">
        <ele>1653.2</ele>
        <time>2017-12-03T09:24:28Z</time>
      </trkpt>
      <trkpt lat="45.00242" lon="5.53445">
        <ele>1653.2</ele>
        <time>2017-12-03T09:24:33Z</time>
      </trkpt>
      <trkpt lat="45.00242" lon="5.53445">
        <ele>1653.2</ele>
        <time>2017-12-03T09:24:38Z</time>
      </trkpt>
      <trkpt lat="45.00242" lon="5.53445">
        <ele>1653.2</ele>
        <time>2017-12-03T09:24:43Z</time>
      </trkpt>
      <trkpt lat="45.00242" lon="5.53445">
        <ele>1653.2</ele>
        <time>2017-12-03T09:24:48Z</time>
      </trkpt>
      <trkpt lat="45.00242" lon="5.53445">
        <ele>1653.2</ele>
        <time>2017-12-03T09:24:53Z</time>
      </trkpt>
      <trkpt lat="45.00242" lon="5.53445">
        <ele>1653.2</ele>
        <time>2017-12-03T09:24:58Z</time>
      </trkpt>
      <trkpt lat="45.00242" lon="5.53445">
        <ele>1653.2</ele>
        <time>2017-12-03T09:25:03Z</time>
      </trkpt>
      <trkpt lat="45.00242" lon="5.53445">
        <ele>1653.2</ele>
        <time>2017-12-03T09:25:08Z</time>
      </trkpt>
      <trkpt lat="45.00242" lon="5.53445">
        <ele>1653.2</ele>
        <time>2017-12-03T09:25:13Z</time>
      </trkpt>
      <trkpt lat="45.00242" lon="5.53445">
        <ele>1653.2</ele>
        <time>2017-12-03T09:25:18Z</time>
      </trkpt>
      <trkpt lat="45.00242" lon="5.53445">
        <ele>1653.2</ele>
        <time>2017-12-03T09:25:23Z</time>
      </trkpt>
      <trkpt lat="45.00242" lon="5.53445">
        <ele>1653.2</ele>
        <time>2017-12-03T09:25:28Z</time>
      </trkpt>
      <trkpt lat="45.00242" lon="5.53445">
        <ele>1653.2</ele>
        <time>2017-12-03T09:25:33Z</time>
      </trkpt>
      <trkpt lat="45.00242" lon="5.53445">
        <ele>1653.2</ele>
        <time>2017-12-03T09:25:38Z</time>
      </trkpt>
      <trkpt lat="45.00242" lon="5.53444">
        <ele>1653.6</ele>
        <time>2017-12-03T09:25:43Z</time>
      </trkpt>
      <trkpt lat="45.00242" lon="5.53444">
        <ele>1653.2</ele>
        <time>2017-12-03T09:25:48Z</time>
      </trkpt>
      <trkpt lat="45.00242" lon="5.53444">
        <ele>1652.8</ele>
        <time>2017-12-03T09:25:53Z</time>
      </trkpt>
      <trkpt lat="45.00242" lon="5.53444">
        <ele>1652.6</ele>
        <time>2017-12-03T09:25:58Z</time>
      </trkpt>
      <trkpt lat="45.00242" lon="5.53444">
        <ele>1652.6</ele>
        <time>2017-12-03T09:26:03Z</time>
      </trkpt>
      <trkpt lat="45.00242" lon="5.53444">
        <ele>1652.4</ele>
        <time>2017-12-03T09:26:08Z</time>
      </trkpt>
      <trkpt lat="45.00242" lon="5.53444">
        <ele>1652.4</ele>
        <time>2017-12-03T09:26:13Z</time>
      </trkpt>
      <trkpt lat="45.00242" lon="5.53444">
        <ele>1652.4</ele>
        <time>2017-12-03T09:26:18Z</time>
      </trkpt>
      <trkpt lat="45.00242" lon="5.53444">
        <ele>1652.4</ele>
        <time>2017-12-03T09:26:23Z</time>
      </trkpt>
      <trkpt lat="45.00241" lon="5.53444">
        <ele>1652.4</ele>
        <time>2017-12-03T09:26:28Z</time>
      </trkpt>
      <trkpt lat="45.0024" lon="5.53445">
        <ele>1652</ele>
        <time>2017-12-03T09:26:33Z</time>
      </trkpt>
      <trkpt lat="45.00236" lon="5.53446">
        <ele>1648.4</ele>
        <time>2017-12-03T09:26:38Z</time>
      </trkpt>
      <trkpt lat="45.00234" lon="5.53448">
        <ele>1648</ele>
        <time>2017-12-03T09:26:43Z</time>
      </trkpt>
      <trkpt lat="45.00233" lon="5.53448">
        <ele>1649</ele>
        <time>2017-12-03T09:26:48Z</time>
      </trkpt>
      <trkpt lat="45.00233" lon="5.53448">
        <ele>1649.6</ele>
        <time>2017-12-03T09:26:53Z</time>
      </trkpt>
      <trkpt lat="45.00233" lon="5.53448">
        <ele>1650.2</ele>
        <time>2017-12-03T09:26:58Z</time>
      </trkpt>
      <trkpt lat="45.00233" lon="5.53448">
        <ele>1650.4</ele>
        <time>2017-12-03T09:27:03Z</time>
      </trkpt>
      <trkpt lat="45.0023" lon="5.53451">
        <ele>1651.8</ele>
        <time>2017-12-03T09:27:08Z</time>
      </trkpt>
      <trkpt lat="45.00225" lon="5.53455">
        <ele>1647.8</ele>
        <time>2017-12-03T09:27:13Z</time>
      </trkpt>
      <trkpt lat="45.00211" lon="5.53469">
        <ele>1644.2</ele>
        <time>2017-12-03T09:27:18Z</time>
      </trkpt>
      <trkpt lat="45.00204" lon="5.53476">
        <ele>1646.2</ele>
        <time>2017-12-03T09:27:23Z</time>
      </trkpt>
      <trkpt lat="45.00204" lon="5.53478">
        <ele>1645.8</ele>
        <time>2017-12-03T09:27:28Z</time>
      </trkpt>
      <trkpt lat="45.00203" lon="5.53482">
        <ele>1647.8</ele>
        <time>2017-12-03T09:27:33Z</time>
      </trkpt>
      <trkpt lat="45.00202" lon="5.53491">
        <ele>1642.6</ele>
        <time>2017-12-03T09:27:38Z</time>
      </trkpt>
      <trkpt lat="45.002" lon="5.53496">
        <ele>1642</ele>
        <time>2017-12-03T09:27:43Z</time>
      </trkpt>
      <trkpt lat="45.00196" lon="5.53509">
        <ele>1640</ele>
        <time>2017-12-03T09:27:48Z</time>
      </trkpt>
      <trkpt lat="45.00191" lon="5.53525">
        <ele>1639.8</ele>
        <time>2017-12-03T09:27:53Z</time>
      </trkpt>
      <trkpt lat="45.0019" lon="5.53533">
        <ele>1641.4</ele>
        <time>2017-12-03T09:27:58Z</time>
      </trkpt>
      <trkpt lat="45.00189" lon="5.53541">
        <ele>1640.8</ele>
        <time>2017-12-03T09:28:03Z</time>
      </trkpt>
      <trkpt lat="45.00187" lon="5.53546">
        <ele>1639.8</ele>
        <time>2017-12-03T09:28:08Z</time>
      </trkpt>
      <trkpt lat="45.00187" lon="5.53548">
        <ele>1639.4</ele>
        <time>2017-12-03T09:28:13Z</time>
      </trkpt>
      <trkpt lat="45.00188" lon="5.53549">
        <ele>1639.8</ele>
        <time>2017-12-03T09:28:18Z</time>
      </trkpt>
      <trkpt lat="45.00185" lon="5.53556">
        <ele>1637.4</ele>
        <time>2017-12-03T09:28:23Z</time>
      </trkpt>
      <trkpt lat="45.00182" lon="5.53562">
        <ele>1635.2</ele>
        <time>2017-12-03T09:28:28Z</time>
      </trkpt>
      <trkpt lat="45.00179" lon="5.5357">
        <ele>1638.6</ele>
        <time>2017-12-03T09:28:33Z</time>
      </trkpt>
      <trkpt lat="45.00176" lon="5.53577">
        <ele>1638.8</ele>
        <time>2017-12-03T09:28:38Z</time>
      </trkpt>
      <trkpt lat="45.00174" lon="5.53584">
        <ele>1638.6</ele>
        <time>2017-12-03T09:28:43Z</time>
      </trkpt>
      <trkpt lat="45.0017" lon="5.5359">
        <ele>1640</ele>
        <time>2017-12-03T09:28:48Z</time>
      </trkpt>
      <trkpt lat="45.00168" lon="5.53594">
        <ele>1639</ele>
        <time>2017-12-03T09:28:53Z</time>
      </trkpt>
      <trkpt lat="45.00165" lon="5.53597">
        <ele>1643.2</ele>
        <time>2017-12-03T09:28:58Z</time>
      </trkpt>
      <trkpt lat="45.00162" lon="5.53601">
        <ele>1641</ele>
        <time>2017-12-03T09:29:03Z</time>
      </trkpt>
      <trkpt lat="45.0016" lon="5.53606">
        <ele>1641.6</ele>
        <time>2017-12-03T09:29:08Z</time>
      </trkpt>
      <trkpt lat="45.00158" lon="5.53609">
        <ele>1641.6</ele>
        <time>2017-12-03T09:29:13Z</time>
      </trkpt>
      <trkpt lat="45.00157" lon="5.53609">
        <ele>1641.4</ele>
        <time>2017-12-03T09:29:18Z</time>
      </trkpt>
      <trkpt lat="45.00156" lon="5.53612">
        <ele>1643.4</ele>
        <time>2017-12-03T09:29:23Z</time>
      </trkpt>
      <trkpt lat="45.00155" lon="5.53613">
        <ele>1643.2</ele>
        <time>2017-12-03T09:29:28Z</time>
      </trkpt>
      <trkpt lat="45.00153" lon="5.53617">
        <ele>1646.2</ele>
        <time>2017-12-03T09:29:33Z</time>
      </trkpt>
      <trkpt lat="45.00151" lon="5.5362">
        <ele>1642.2</ele>
        <time>2017-12-03T09:29:38Z</time>
      </trkpt>
      <trkpt lat="45.0015" lon="5.53621">
        <ele>1646.6</ele>
        <time>2017-12-03T09:29:43Z</time>
      </trkpt>
      <trkpt lat="45.00149" lon="5.53621">
        <ele>1645</ele>
        <time>2017-12-03T09:29:48Z</time>
      </trkpt>
      <trkpt lat="45.00148" lon="5.53623">
        <ele>1644.4</ele>
        <time>2017-12-03T09:29:53Z</time>
      </trkpt>
      <trkpt lat="45.00147" lon="5.53628">
        <ele>1645.2</ele>
        <time>2017-12-03T09:29:58Z</time>
      </trkpt>
      <trkpt lat="45.00146" lon="5.53632">
        <ele>1648.6</ele>
        <time>2017-12-03T09:30:03Z</time>
      </trkpt>
      <trkpt lat="45.00146" lon="5.53637">
        <ele>1645.4</ele>
        <time>2017-12-03T09:30:08Z</time>
      </trkpt>
      <trkpt lat="45.00145" lon="5.5364">
        <ele>1647.4</ele>
        <time>2017-12-03T09:30:13Z</time>
      </trkpt>
      <trkpt lat="45.00143" lon="5.53642">
        <ele>1648.2</ele>
        <time>2017-12-03T09:30:18Z</time>
      </trkpt>
      <trkpt lat="45.00144" lon="5.53643">
        <ele>1650.6</ele>
        <time>2017-12-03T09:30:23Z</time>
      </trkpt>
      <trkpt lat="45.00145" lon="5.53644">
        <ele>1652.2</ele>
        <time>2017-12-03T09:30:28Z</time>
      </trkpt>
      <trkpt lat="45.00146" lon="5.53644">
        <ele>1653.2</ele>
        <time>2017-12-03T09:30:38Z</time>
      </trkpt>
      <trkpt lat="45.00145" lon="5.53646">
        <ele>1653.2</ele>
        <time>2017-12-03T09:30:43Z</time>
      </trkpt>
      <trkpt lat="45.00142" lon="5.53648">
        <ele>1652.6</ele>
        <time>2017-12-03T09:30:48Z</time>
      </trkpt>
      <trkpt lat="45.0014" lon="5.5365">
        <ele>1652.8</ele>
        <time>2017-12-03T09:30:53Z</time>
      </trkpt>
      <trkpt lat="45.00141" lon="5.53652">
        <ele>1652</ele>
        <time>2017-12-03T09:30:58Z</time>
      </trkpt>
      <trkpt lat="45.00144" lon="5.53653">
        <ele>1651.8</ele>
        <time>2017-12-03T09:31:03Z</time>
      </trkpt>
      <trkpt lat="45.00143" lon="5.53653">
        <ele>1653.4</ele>
        <time>2017-12-03T09:31:13Z</time>
      </trkpt>
      <trkpt lat="45.00141" lon="5.53655">
        <ele>1655</ele>
        <time>2017-12-03T09:31:18Z</time>
      </trkpt>
      <trkpt lat="45.00138" lon="5.53659">
        <ele>1656</ele>
        <time>2017-12-03T09:31:23Z</time>
      </trkpt>
      <trkpt lat="45.00137" lon="5.53663">
        <ele>1657.4</ele>
        <time>2017-12-03T09:31:28Z</time>
      </trkpt>
      <trkpt lat="45.00135" lon="5.53666">
        <ele>1658.6</ele>
        <time>2017-12-03T09:31:33Z</time>
      </trkpt>
      <trkpt lat="45.00134" lon="5.53671">
        <ele>1661</ele>
        <time>2017-12-03T09:31:38Z</time>
      </trkpt>
      <trkpt lat="45.00133" lon="5.53675">
        <ele>1660.6</ele>
        <time>2017-12-03T09:31:43Z</time>
      </trkpt>
      <trkpt lat="45.00132" lon="5.53678">
        <ele>1659.8</ele>
        <time>2017-12-03T09:31:48Z</time>
      </trkpt>
      <trkpt lat="45.00131" lon="5.53679">
        <ele>1662</ele>
        <time>2017-12-03T09:31:53Z</time>
      </trkpt>
      <trkpt lat="45.0013" lon="5.53681">
        <ele>1661</ele>
        <time>2017-12-03T09:31:58Z</time>
      </trkpt>
      <trkpt lat="45.00131" lon="5.53686">
        <ele>1664.4</ele>
        <time>2017-12-03T09:32:03Z</time>
      </trkpt>
      <trkpt lat="45.00132" lon="5.53688">
        <ele>1663.8</ele>
        <time>2017-12-03T09:32:08Z</time>
      </trkpt>
      <trkpt lat="45.00133" lon="5.53688">
        <ele>1663</ele>
        <time>2017-12-03T09:32:13Z</time>
      </trkpt>
      <trkpt lat="45.00134" lon="5.53689">
        <ele>1663.4</ele>
        <time>2017-12-03T09:32:18Z</time>
      </trkpt>
      <trkpt lat="45.00133" lon="5.5369">
        <ele>1660.8</ele>
        <time>2017-12-03T09:32:23Z</time>
      </trkpt>
      <trkpt lat="45.00131" lon="5.53692">
        <ele>1664.4</ele>
        <time>2017-12-03T09:32:28Z</time>
      </trkpt>
      <trkpt lat="45.00129" lon="5.53694">
        <ele>1665.2</ele>
        <time>2017-12-03T09:32:33Z</time>
      </trkpt>
      <trkpt lat="45.00127" lon="5.53695">
        <ele>1666.4</ele>
        <time>2017-12-03T09:32:38Z</time>
      </trkpt>
      <trkpt lat="45.00127" lon="5.53696">
        <ele>1668.6</ele>
        <time>2017-12-03T09:32:43Z</time>
      </trkpt>
      <trkpt lat="45.00129" lon="5.53697">
        <ele>1665.4</ele>
        <time>2017-12-03T09:32:48Z</time>
      </trkpt>
      <trkpt lat="45.00129" lon="5.53698">
        <ele>1664</ele>
        <time>2017-12-03T09:32:53Z</time>
      </trkpt>
      <trkpt lat="45.00127" lon="5.537">
        <ele>1668</ele>
        <time>2017-12-03T09:32:58Z</time>
      </trkpt>
      <trkpt lat="45.00125" lon="5.53703">
        <ele>1667</ele>
        <time>2017-12-03T09:33:03Z</time>
      </trkpt>
      <trkpt lat="45.00123" lon="5.53705">
        <ele>1666.4</ele>
        <time>2017-12-03T09:33:08Z</time>
      </trkpt>
      <trkpt lat="45.00122" lon="5.53705">
        <ele>1666.2</ele>
        <time>2017-12-03T09:33:13Z</time>
      </trkpt>
      <trkpt lat="45.00122" lon="5.53705">
        <ele>1667</ele>
        <time>2017-12-03T09:33:23Z</time>
      </trkpt>
      <trkpt lat="45.00123" lon="5.53709">
        <ele>1671.4</ele>
        <time>2017-12-03T09:33:28Z</time>
      </trkpt>
      <trkpt lat="45.00124" lon="5.53712">
        <ele>1673.6</ele>
        <time>2017-12-03T09:33:33Z</time>
      </trkpt>
      <trkpt lat="45.00125" lon="5.53714">
        <ele>1672.8</ele>
        <time>2017-12-03T09:33:38Z</time>
      </trkpt>
      <trkpt lat="45.00126" lon="5.53716">
        <ele>1675.4</ele>
        <time>2017-12-03T09:33:43Z</time>
      </trkpt>
      <trkpt lat="45.00128" lon="5.53719">
        <ele>1676.2</ele>
        <time>2017-12-03T09:33:48Z</time>
      </trkpt>
      <trkpt lat="45.00128" lon="5.53722">
        <ele>1678</ele>
        <time>2017-12-03T09:33:53Z</time>
      </trkpt>
      <trkpt lat="45.00128" lon="5.53724">
        <ele>1679</ele>
        <time>2017-12-03T09:33:58Z</time>
      </trkpt>
      <trkpt lat="45.00128" lon="5.53724">
        <ele>1678</ele>
        <time>2017-12-03T09:34:03Z</time>
      </trkpt>
      <trkpt lat="45.00128" lon="5.53724">
        <ele>1676.8</ele>
        <time>2017-12-03T09:34:08Z</time>
      </trkpt>
      <trkpt lat="45.00127" lon="5.53729">
        <ele>1680.6</ele>
        <time>2017-12-03T09:34:13Z</time>
      </trkpt>
      <trkpt lat="45.00127" lon="5.5373">
        <ele>1677.2</ele>
        <time>2017-12-03T09:34:18Z</time>
      </trkpt>
      <trkpt lat="45.00129" lon="5.53729">
        <ele>1673.8</ele>
        <time>2017-12-03T09:34:23Z</time>
      </trkpt>
      <trkpt lat="45.00132" lon="5.53728">
        <ele>1677.6</ele>
        <time>2017-12-03T09:34:28Z</time>
      </trkpt>
      <trkpt lat="45.00132" lon="5.53729">
        <ele>1682.4</ele>
        <time>2017-12-03T09:34:33Z</time>
      </trkpt>
      <trkpt lat="45.00131" lon="5.53736">
        <ele>1679</ele>
        <time>2017-12-03T09:34:38Z</time>
      </trkpt>
      <trkpt lat="45.00129" lon="5.53742">
        <ele>1684.2</ele>
        <time>2017-12-03T09:34:43Z</time>
      </trkpt>
      <trkpt lat="45.00126" lon="5.53745">
        <ele>1680.6</ele>
        <time>2017-12-03T09:34:48Z</time>
      </trkpt>
      <trkpt lat="45.00125" lon="5.53749">
        <ele>1682.6</ele>
        <time>2017-12-03T09:34:53Z</time>
      </trkpt>
      <trkpt lat="45.00123" lon="5.53754">
        <ele>1686.4</ele>
        <time>2017-12-03T09:34:58Z</time>
      </trkpt>
      <trkpt lat="45.00121" lon="5.53758">
        <ele>1684.8</ele>
        <time>2017-12-03T09:35:03Z</time>
      </trkpt>
      <trkpt lat="45.00119" lon="5.53761">
        <ele>1685.2</ele>
        <time>2017-12-03T09:35:08Z</time>
      </trkpt>
      <trkpt lat="45.00117" lon="5.53764">
        <ele>1685</ele>
        <time>2017-12-03T09:35:13Z</time>
      </trkpt>
      <trkpt lat="45.00115" lon="5.53766">
        <ele>1686.4</ele>
        <time>2017-12-03T09:35:18Z</time>
      </trkpt>
      <trkpt lat="45.00111" lon="5.53768">
        <ele>1687.2</ele>
        <time>2017-12-03T09:35:23Z</time>
      </trkpt>
      <trkpt lat="45.00108" lon="5.5377">
        <ele>1684.8</ele>
        <time>2017-12-03T09:35:28Z</time>
      </trkpt>
      <trkpt lat="45.00108" lon="5.53771">
        <ele>1684.2</ele>
        <time>2017-12-03T09:35:33Z</time>
      </trkpt>
      <trkpt lat="45.00109" lon="5.53773">
        <ele>1687.6</ele>
        <time>2017-12-03T09:35:38Z</time>
      </trkpt>
      <trkpt lat="45.00107" lon="5.53775">
        <ele>1689</ele>
        <time>2017-12-03T09:35:43Z</time>
      </trkpt>
      <trkpt lat="45.00107" lon="5.53778">
        <ele>1688.2</ele>
        <time>2017-12-03T09:35:48Z</time>
      </trkpt>
      <trkpt lat="45.00107" lon="5.53782">
        <ele>1691.6</ele>
        <time>2017-12-03T09:35:53Z</time>
      </trkpt>
      <trkpt lat="45.00105" lon="5.53785">
        <ele>1694.4</ele>
        <time>2017-12-03T09:35:58Z</time>
      </trkpt>
      <trkpt lat="45.00105" lon="5.53788">
        <ele>1691.4</ele>
        <time>2017-12-03T09:36:03Z</time>
      </trkpt>
      <trkpt lat="45.00106" lon="5.53791">
        <ele>1689.6</ele>
        <time>2017-12-03T09:36:08Z</time>
      </trkpt>
      <trkpt lat="45.00107" lon="5.53793">
        <ele>1692</ele>
        <time>2017-12-03T09:36:13Z</time>
      </trkpt>
      <trkpt lat="45.00106" lon="5.53797">
        <ele>1691</ele>
        <time>2017-12-03T09:36:18Z</time>
      </trkpt>
      <trkpt lat="45.00106" lon="5.53801">
        <ele>1694.4</ele>
        <time>2017-12-03T09:36:23Z</time>
      </trkpt>
      <trkpt lat="45.00107" lon="5.53804">
        <ele>1694.2</ele>
        <time>2017-12-03T09:36:28Z</time>
      </trkpt>
      <trkpt lat="45.00109" lon="5.53807">
        <ele>1695.6</ele>
        <time>2017-12-03T09:36:33Z</time>
      </trkpt>
      <trkpt lat="45.0011" lon="5.53811">
        <ele>1697.4</ele>
        <time>2017-12-03T09:36:38Z</time>
      </trkpt>
      <trkpt lat="45.0011" lon="5.53815">
        <ele>1695</ele>
        <time>2017-12-03T09:36:43Z</time>
      </trkpt>
      <trkpt lat="45.00109" lon="5.53819">
        <ele>1696</ele>
        <time>2017-12-03T09:36:48Z</time>
      </trkpt>
      <trkpt lat="45.00109" lon="5.53826">
        <ele>1697</ele>
        <time>2017-12-03T09:36:53Z</time>
      </trkpt>
      <trkpt lat="45.00108" lon="5.53831">
        <ele>1696.2</ele>
        <time>2017-12-03T09:36:58Z</time>
      </trkpt>
      <trkpt lat="45.00108" lon="5.53832">
        <ele>1693.6</ele>
        <time>2017-12-03T09:37:03Z</time>
      </trkpt>
      <trkpt lat="45.0011" lon="5.53834">
        <ele>1696.4</ele>
        <time>2017-12-03T09:37:08Z</time>
      </trkpt>
      <trkpt lat="45.00111" lon="5.53836">
        <ele>1697.2</ele>
        <time>2017-12-03T09:37:13Z</time>
      </trkpt>
      <trkpt lat="45.00112" lon="5.53838">
        <ele>1701.2</ele>
        <time>2017-12-03T09:37:18Z</time>
      </trkpt>
      <trkpt lat="45.00113" lon="5.53838">
        <ele>1698.8</ele>
        <time>2017-12-03T09:37:23Z</time>
      </trkpt>
      <trkpt lat="45.00115" lon="5.53835">
        <ele>1701.8</ele>
        <time>2017-12-03T09:37:28Z</time>
      </trkpt>
      <trkpt lat="45.00115" lon="5.53837">
        <ele>1703</ele>
        <time>2017-12-03T09:37:33Z</time>
      </trkpt>
      <trkpt lat="45.00115" lon="5.53842">
        <ele>1703.4</ele>
        <time>2017-12-03T09:37:38Z</time>
      </trkpt>
      <trkpt lat="45.00116" lon="5.53847">
        <ele>1701.2</ele>
        <time>2017-12-03T09:37:43Z</time>
      </trkpt>
      <trkpt lat="45.00118" lon="5.5385">
        <ele>1706.6</ele>
        <time>2017-12-03T09:37:48Z</time>
      </trkpt>
      <trkpt lat="45.00121" lon="5.53852">
        <ele>1706.2</ele>
        <time>2017-12-03T09:37:53Z</time>
      </trkpt>
      <trkpt lat="45.00122" lon="5.53853">
        <ele>1709.2</ele>
        <time>2017-12-03T09:37:58Z</time>
      </trkpt>
      <trkpt lat="45.00124" lon="5.53855">
        <ele>1706.8</ele>
        <time>2017-12-03T09:38:03Z</time>
      </trkpt>
      <trkpt lat="45.00126" lon="5.53858">
        <ele>1707</ele>
        <time>2017-12-03T09:38:08Z</time>
      </trkpt>
      <trkpt lat="45.00127" lon="5.53862">
        <ele>1706.6</ele>
        <time>2017-12-03T09:38:13Z</time>
      </trkpt>
      <trkpt lat="45.00128" lon="5.53865">
        <ele>1710</ele>
        <time>2017-12-03T09:38:18Z</time>
      </trkpt>
      <trkpt lat="45.0013" lon="5.53865">
        <ele>1708.8</ele>
        <time>2017-12-03T09:38:23Z</time>
      </trkpt>
      <trkpt lat="45.00131" lon="5.53863">
        <ele>1710.8</ele>
        <time>2017-12-03T09:38:28Z</time>
      </trkpt>
      <trkpt lat="45.00131" lon="5.53866">
        <ele>1711.4</ele>
        <time>2017-12-03T09:38:33Z</time>
      </trkpt>
      <trkpt lat="45.00131" lon="5.53871">
        <ele>1711</ele>
        <time>2017-12-03T09:38:38Z</time>
      </trkpt>
      <trkpt lat="45.00131" lon="5.53875">
        <ele>1713.2</ele>
        <time>2017-12-03T09:38:43Z</time>
      </trkpt>
      <trkpt lat="45.0013" lon="5.53879">
        <ele>1712.2</ele>
        <time>2017-12-03T09:38:48Z</time>
      </trkpt>
      <trkpt lat="45.00129" lon="5.53883">
        <ele>1710.6</ele>
        <time>2017-12-03T09:38:53Z</time>
      </trkpt>
      <trkpt lat="45.00128" lon="5.53886">
        <ele>1715.2</ele>
        <time>2017-12-03T09:38:58Z</time>
      </trkpt>
      <trkpt lat="45.00128" lon="5.53889">
        <ele>1712.4</ele>
        <time>2017-12-03T09:39:03Z</time>
      </trkpt>
      <trkpt lat="45.00127" lon="5.53893">
        <ele>1715.8</ele>
        <time>2017-12-03T09:39:08Z</time>
      </trkpt>
      <trkpt lat="45.00126" lon="5.53897">
        <ele>1720.6</ele>
        <time>2017-12-03T09:39:13Z</time>
      </trkpt>
      <trkpt lat="45.00125" lon="5.53901">
        <ele>1717</ele>
        <time>2017-12-03T09:39:18Z</time>
      </trkpt>
      <trkpt lat="45.00123" lon="5.53905">
        <ele>1717.8</ele>
        <time>2017-12-03T09:39:23Z</time>
      </trkpt>
      <trkpt lat="45.00122" lon="5.53907">
        <ele>1716.4</ele>
        <time>2017-12-03T09:39:28Z</time>
      </trkpt>
      <trkpt lat="45.0012" lon="5.53909">
        <ele>1721.2</ele>
        <time>2017-12-03T09:39:33Z</time>
      </trkpt>
      <trkpt lat="45.00118" lon="5.53911">
        <ele>1718.2</ele>
        <time>2017-12-03T09:39:38Z</time>
      </trkpt>
      <trkpt lat="45.00115" lon="5.53913">
        <ele>1718.8</ele>
        <time>2017-12-03T09:39:43Z</time>
      </trkpt>
      <trkpt lat="45.00113" lon="5.53915">
        <ele>1725.4</ele>
        <time>2017-12-03T09:39:48Z</time>
      </trkpt>
      <trkpt lat="45.00112" lon="5.53919">
        <ele>1721</ele>
        <time>2017-12-03T09:39:53Z</time>
      </trkpt>
      <trkpt lat="45.00111" lon="5.53921">
        <ele>1722.4</ele>
        <time>2017-12-03T09:39:58Z</time>
      </trkpt>
      <trkpt lat="45.0011" lon="5.53925">
        <ele>1722.8</ele>
        <time>2017-12-03T09:40:04Z</time>
      </trkpt>
      <trkpt lat="45.00109" lon="5.53928">
        <ele>1727.4</ele>
        <time>2017-12-03T09:40:10Z</time>
      </trkpt>
      <trkpt lat="45.00109" lon="5.53931">
        <ele>1727</ele>
        <time>2017-12-03T09:40:15Z</time>
      </trkpt>
      <trkpt lat="45.00108" lon="5.53933">
        <ele>1728.6</ele>
        <time>2017-12-03T09:40:20Z</time>
      </trkpt>
      <trkpt lat="45.00107" lon="5.53937">
        <ele>1729.2</ele>
        <time>2017-12-03T09:40:25Z</time>
      </trkpt>
      <trkpt lat="45.00107" lon="5.53941">
        <ele>1732.2</ele>
        <time>2017-12-03T09:40:30Z</time>
      </trkpt>
      <trkpt lat="45.00107" lon="5.53944">
        <ele>1734.2</ele>
        <time>2017-12-03T09:40:35Z</time>
      </trkpt>
      <trkpt lat="45.00107" lon="5.53947">
        <ele>1736.2</ele>
        <time>2017-12-03T09:40:40Z</time>
      </trkpt>
      <trkpt lat="45.00107" lon="5.53952">
        <ele>1735.8</ele>
        <time>2017-12-03T09:40:45Z</time>
      </trkpt>
      <trkpt lat="45.00108" lon="5.53956">
        <ele>1734.8</ele>
        <time>2017-12-03T09:40:50Z</time>
      </trkpt>
      <trkpt lat="45.00108" lon="5.53961">
        <ele>1732.6</ele>
        <time>2017-12-03T09:40:55Z</time>
      </trkpt>
      <trkpt lat="45.00108" lon="5.53966">
        <ele>1735.6</ele>
        <time>2017-12-03T09:41:00Z</time>
      </trkpt>
      <trkpt lat="45.00109" lon="5.5397">
        <ele>1735.6</ele>
        <time>2017-12-03T09:41:05Z</time>
      </trkpt>
      <trkpt lat="45.00109" lon="5.53974">
        <ele>1734.4</ele>
        <time>2017-12-03T09:41:10Z</time>
      </trkpt>
      <trkpt lat="45.0011" lon="5.53978">
        <ele>1735</ele>
        <time>2017-12-03T09:41:15Z</time>
      </trkpt>
      <trkpt lat="45.0011" lon="5.53982">
        <ele>1735.2</ele>
        <time>2017-12-03T09:41:20Z</time>
      </trkpt>
      <trkpt lat="45.0011" lon="5.53985">
        <ele>1738.6</ele>
        <time>2017-12-03T09:41:25Z</time>
      </trkpt>
      <trkpt lat="45.00111" lon="5.53988">
        <ele>1737.2</ele>
        <time>2017-12-03T09:41:30Z</time>
      </trkpt>
      <trkpt lat="45.00111" lon="5.53992">
        <ele>1737.6</ele>
        <time>2017-12-03T09:41:35Z</time>
      </trkpt>
      <trkpt lat="45.00111" lon="5.53998">
        <ele>1738.8</ele>
        <time>2017-12-03T09:41:40Z</time>
      </trkpt>
      <trkpt lat="45.00112" lon="5.54005">
        <ele>1738</ele>
        <time>2017-12-03T09:41:45Z</time>
      </trkpt>
      <trkpt lat="45.00112" lon="5.5401">
        <ele>1739</ele>
        <time>2017-12-03T09:41:50Z</time>
      </trkpt>
      <trkpt lat="45.00113" lon="5.54014">
        <ele>1740.4</ele>
        <time>2017-12-03T09:41:55Z</time>
      </trkpt>
      <trkpt lat="45.00114" lon="5.54019">
        <ele>1741.8</ele>
        <time>2017-12-03T09:42:00Z</time>
      </trkpt>
      <trkpt lat="45.00115" lon="5.54023">
        <ele>1742.6</ele>
        <time>2017-12-03T09:42:05Z</time>
      </trkpt>
      <trkpt lat="45.00116" lon="5.54027">
        <ele>1742.4</ele>
        <time>2017-12-03T09:42:10Z</time>
      </trkpt>
      <trkpt lat="45.00118" lon="5.54031">
        <ele>1744.4</ele>
        <time>2017-12-03T09:42:15Z</time>
      </trkpt>
      <trkpt lat="45.00119" lon="5.54033">
        <ele>1746.4</ele>
        <time>2017-12-03T09:42:20Z</time>
      </trkpt>
      <trkpt lat="45.00119" lon="5.54034">
        <ele>1752.2</ele>
        <time>2017-12-03T09:42:40Z</time>
      </trkpt>
      <trkpt lat="45.00117" lon="5.54039">
        <ele>1753.4</ele>
        <time>2017-12-03T09:42:45Z</time>
      </trkpt>
      <trkpt lat="45.00116" lon="5.54041">
        <ele>1753.6</ele>
        <time>2017-12-03T09:42:50Z</time>
      </trkpt>
      <trkpt lat="45.00116" lon="5.54043">
        <ele>1751.4</ele>
        <time>2017-12-03T09:42:55Z</time>
      </trkpt>
      <trkpt lat="45.00117" lon="5.54045">
        <ele>1754.8</ele>
        <time>2017-12-03T09:43:00Z</time>
      </trkpt>
      <trkpt lat="45.00118" lon="5.54045">
        <ele>1756.6</ele>
        <time>2017-12-03T09:43:05Z</time>
      </trkpt>
      <trkpt lat="45.00118" lon="5.54045">
        <ele>1757.2</ele>
        <time>2017-12-03T09:43:10Z</time>
      </trkpt>
      <trkpt lat="45.00118" lon="5.54046">
        <ele>1757.8</ele>
        <time>2017-12-03T09:43:15Z</time>
      </trkpt>
      <trkpt lat="45.00116" lon="5.54049">
        <ele>1760.6</ele>
        <time>2017-12-03T09:43:20Z</time>
      </trkpt>
      <trkpt lat="45.00115" lon="5.54052">
        <ele>1760</ele>
        <time>2017-12-03T09:43:25Z</time>
      </trkpt>
      <trkpt lat="45.00115" lon="5.54054">
        <ele>1763.4</ele>
        <time>2017-12-03T09:43:30Z</time>
      </trkpt>
      <trkpt lat="45.00116" lon="5.54055">
        <ele>1761.6</ele>
        <time>2017-12-03T09:43:35Z</time>
      </trkpt>
      <trkpt lat="45.00118" lon="5.54055">
        <ele>1760.8</ele>
        <time>2017-12-03T09:43:40Z</time>
      </trkpt>
      <trkpt lat="45.00119" lon="5.54055">
        <ele>1763.8</ele>
        <time>2017-12-03T09:43:45Z</time>
      </trkpt>
      <trkpt lat="45.00118" lon="5.54057">
        <ele>1759</ele>
        <time>2017-12-03T09:43:50Z</time>
      </trkpt>
      <trkpt lat="45.00116" lon="5.5406">
        <ele>1760.8</ele>
        <time>2017-12-03T09:43:55Z</time>
      </trkpt>
      <trkpt lat="45.00114" lon="5.54062">
        <ele>1759.2</ele>
        <time>2017-12-03T09:44:00Z</time>
      </trkpt>
      <trkpt lat="45.00112" lon="5.54064">
        <ele>1761.8</ele>
        <time>2017-12-03T09:44:05Z</time>
      </trkpt>
      <trkpt lat="45.00111" lon="5.54066">
        <ele>1758.8</ele>
        <time>2017-12-03T09:44:10Z</time>
      </trkpt>
      <trkpt lat="45.00112" lon="5.54067">
        <ele>1760.8</ele>
        <time>2017-12-03T09:44:15Z</time>
      </trkpt>
      <trkpt lat="45.00114" lon="5.54069">
        <ele>1762.4</ele>
        <time>2017-12-03T09:44:20Z</time>
      </trkpt>
      <trkpt lat="45.00115" lon="5.5407">
        <ele>1760.2</ele>
        <time>2017-12-03T09:44:25Z</time>
      </trkpt>
      <trkpt lat="45.00114" lon="5.54071">
        <ele>1756.4</ele>
        <time>2017-12-03T09:44:30Z</time>
      </trkpt>
      <trkpt lat="45.00112" lon="5.54073">
        <ele>1759.6</ele>
        <time>2017-12-03T09:44:35Z</time>
      </trkpt>
      <trkpt lat="45.00111" lon="5.54075">
        <ele>1761.8</ele>
        <time>2017-12-03T09:44:41Z</time>
      </trkpt>
      <trkpt lat="45.0011" lon="5.54075">
        <ele>1762</ele>
        <time>2017-12-03T09:44:46Z</time>
      </trkpt>
      <trkpt lat="45.00112" lon="5.54078">
        <ele>1763</ele>
        <time>2017-12-03T09:44:51Z</time>
      </trkpt>
      <trkpt lat="45.00114" lon="5.54079">
        <ele>1763.8</ele>
        <time>2017-12-03T09:44:56Z</time>
      </trkpt>
      <trkpt lat="45.00116" lon="5.5408">
        <ele>1764.4</ele>
        <time>2017-12-03T09:45:01Z</time>
      </trkpt>
      <trkpt lat="45.00116" lon="5.54081">
        <ele>1763</ele>
        <time>2017-12-03T09:45:06Z</time>
      </trkpt>
      <trkpt lat="45.00114" lon="5.54082">
        <ele>1761.8</ele>
        <time>2017-12-03T09:45:11Z</time>
      </trkpt>
      <trkpt lat="45.00113" lon="5.54083">
        <ele>1762.2</ele>
        <time>2017-12-03T09:45:16Z</time>
      </trkpt>
      <trkpt lat="45.00114" lon="5.54084">
        <ele>1762</ele>
        <time>2017-12-03T09:45:21Z</time>
      </trkpt>
      <trkpt lat="45.00116" lon="5.54086">
        <ele>1764.4</ele>
        <time>2017-12-03T09:45:26Z</time>
      </trkpt>
      <trkpt lat="45.00114" lon="5.54087">
        <ele>1763.8</ele>
        <time>2017-12-03T09:45:31Z</time>
      </trkpt>
      <trkpt lat="45.00112" lon="5.54088">
        <ele>1765</ele>
        <time>2017-12-03T09:45:36Z</time>
      </trkpt>
      <trkpt lat="45.00111" lon="5.54088">
        <ele>1765.8</ele>
        <time>2017-12-03T09:45:41Z</time>
      </trkpt>
      <trkpt lat="45.00112" lon="5.5409">
        <ele>1769</ele>
        <time>2017-12-03T09:45:46Z</time>
      </trkpt>
      <trkpt lat="45.00114" lon="5.54094">
        <ele>1765.4</ele>
        <time>2017-12-03T09:45:51Z</time>
      </trkpt>
      <trkpt lat="45.00116" lon="5.54097">
        <ele>1768.4</ele>
        <time>2017-12-03T09:45:56Z</time>
      </trkpt>
      <trkpt lat="45.00118" lon="5.541">
        <ele>1768.6</ele>
        <time>2017-12-03T09:46:01Z</time>
      </trkpt>
      <trkpt lat="45.00117" lon="5.54102">
        <ele>1767.4</ele>
        <time>2017-12-03T09:46:06Z</time>
      </trkpt>
      <trkpt lat="45.00115" lon="5.54103">
        <ele>1764.4</ele>
        <time>2017-12-03T09:46:11Z</time>
      </trkpt>
      <trkpt lat="45.00112" lon="5.54104">
        <ele>1766.2</ele>
        <time>2017-12-03T09:46:16Z</time>
      </trkpt>
      <trkpt lat="45.0011" lon="5.54103">
        <ele>1769.6</ele>
        <time>2017-12-03T09:46:21Z</time>
      </trkpt>
      <trkpt lat="45.00107" lon="5.54103">
        <ele>1767.4</ele>
        <time>2017-12-03T09:46:26Z</time>
      </trkpt>
      <trkpt lat="45.00106" lon="5.54103">
        <ele>1769.2</ele>
        <time>2017-12-03T09:46:31Z</time>
      </trkpt>
      <trkpt lat="45.00107" lon="5.54104">
        <ele>1771</ele>
        <time>2017-12-03T09:46:36Z</time>
      </trkpt>
      <trkpt lat="45.00107" lon="5.54105">
        <ele>1771.4</ele>
        <time>2017-12-03T09:46:41Z</time>
      </trkpt>
      <trkpt lat="45.00107" lon="5.54105">
        <ele>1771.6</ele>
        <time>2017-12-03T09:46:46Z</time>
      </trkpt>
      <trkpt lat="45.00106" lon="5.54104">
        <ele>1771.8</ele>
        <time>2017-12-03T09:46:51Z</time>
      </trkpt>
      <trkpt lat="45.00106" lon="5.54106">
        <ele>1771.6</ele>
        <time>2017-12-03T09:46:56Z</time>
      </trkpt>
      <trkpt lat="45.00108" lon="5.54111">
        <ele>1771.6</ele>
        <time>2017-12-03T09:47:01Z</time>
      </trkpt>
      <trkpt lat="45.00109" lon="5.54114">
        <ele>1773.4</ele>
        <time>2017-12-03T09:47:06Z</time>
      </trkpt>
      <trkpt lat="45.0011" lon="5.54118">
        <ele>1774.4</ele>
        <time>2017-12-03T09:47:11Z</time>
      </trkpt>
      <trkpt lat="45.00111" lon="5.54122">
        <ele>1773.2</ele>
        <time>2017-12-03T09:47:16Z</time>
      </trkpt>
      <trkpt lat="45.00113" lon="5.54126">
        <ele>1774</ele>
        <time>2017-12-03T09:47:21Z</time>
      </trkpt>
      <trkpt lat="45.00114" lon="5.54129">
        <ele>1777</ele>
        <time>2017-12-03T09:47:26Z</time>
      </trkpt>
      <trkpt lat="45.00115" lon="5.54132">
        <ele>1777.4</ele>
        <time>2017-12-03T09:47:31Z</time>
      </trkpt>
      <trkpt lat="45.00117" lon="5.54134">
        <ele>1775.8</ele>
        <time>2017-12-03T09:47:36Z</time>
      </trkpt>
      <trkpt lat="45.00117" lon="5.54136">
        <ele>1776.2</ele>
        <time>2017-12-03T09:47:41Z</time>
      </trkpt>
      <trkpt lat="45.00115" lon="5.54139">
        <ele>1779.4</ele>
        <time>2017-12-03T09:47:46Z</time>
      </trkpt>
      <trkpt lat="45.00113" lon="5.54141">
        <ele>1783.8</ele>
        <time>2017-12-03T09:47:51Z</time>
      </trkpt>
      <trkpt lat="45.00111" lon="5.54145">
        <ele>1783</ele>
        <time>2017-12-03T09:47:56Z</time>
      </trkpt>
      <trkpt lat="45.00109" lon="5.54149">
        <ele>1780.2</ele>
        <time>2017-12-03T09:48:01Z</time>
      </trkpt>
      <trkpt lat="45.00107" lon="5.54153">
        <ele>1781.2</ele>
        <time>2017-12-03T09:48:06Z</time>
      </trkpt>
      <trkpt lat="45.00105" lon="5.54156">
        <ele>1783.2</ele>
        <time>2017-12-03T09:48:11Z</time>
      </trkpt>
      <trkpt lat="45.00103" lon="5.54159">
        <ele>1781.4</ele>
        <time>2017-12-03T09:48:16Z</time>
      </trkpt>
      <trkpt lat="45.00101" lon="5.5416">
        <ele>1783.4</ele>
        <time>2017-12-03T09:48:21Z</time>
      </trkpt>
      <trkpt lat="45.00101" lon="5.54161">
        <ele>1782.8</ele>
        <time>2017-12-03T09:48:26Z</time>
      </trkpt>
      <trkpt lat="45.00098" lon="5.54164">
        <ele>1783.8</ele>
        <time>2017-12-03T09:48:31Z</time>
      </trkpt>
      <trkpt lat="45.00097" lon="5.54167">
        <ele>1784.6</ele>
        <time>2017-12-03T09:48:36Z</time>
      </trkpt>
      <trkpt lat="45.00095" lon="5.54171">
        <ele>1785.8</ele>
        <time>2017-12-03T09:48:41Z</time>
      </trkpt>
      <trkpt lat="45.00094" lon="5.54174">
        <ele>1788.8</ele>
        <time>2017-12-03T09:48:46Z</time>
      </trkpt>
      <trkpt lat="45.00093" lon="5.54177">
        <ele>1790</ele>
        <time>2017-12-03T09:48:51Z</time>
      </trkpt>
      <trkpt lat="45.00093" lon="5.54178">
        <ele>1789.6</ele>
        <time>2017-12-03T09:48:56Z</time>
      </trkpt>
      <trkpt lat="45.00092" lon="5.54178">
        <ele>1788.6</ele>
        <time>2017-12-03T09:49:01Z</time>
      </trkpt>
      <trkpt lat="45.00089" lon="5.54176">
        <ele>1788.6</ele>
        <time>2017-12-03T09:49:06Z</time>
      </trkpt>
      <trkpt lat="45.00087" lon="5.54174">
        <ele>1794.4</ele>
        <time>2017-12-03T09:49:11Z</time>
      </trkpt>
      <trkpt lat="45.00084" lon="5.54173">
        <ele>1790.4</ele>
        <time>2017-12-03T09:49:17Z</time>
      </trkpt>
      <trkpt lat="45.00082" lon="5.54172">
        <ele>1793.2</ele>
        <time>2017-12-03T09:49:22Z</time>
      </trkpt>
      <trkpt lat="45.00079" lon="5.54171">
        <ele>1793.4</ele>
        <time>2017-12-03T09:49:27Z</time>
      </trkpt>
      <trkpt lat="45.00079" lon="5.5417">
        <ele>1793.6</ele>
        <time>2017-12-03T09:49:32Z</time>
      </trkpt>
      <trkpt lat="45.00079" lon="5.5417">
        <ele>1793.6</ele>
        <time>2017-12-03T09:49:37Z</time>
      </trkpt>
      <trkpt lat="45.00079" lon="5.5417">
        <ele>1793.6</ele>
        <time>2017-12-03T09:49:42Z</time>
      </trkpt>
      <trkpt lat="45.00079" lon="5.5417">
        <ele>1793.8</ele>
        <time>2017-12-03T09:49:47Z</time>
      </trkpt>
      <trkpt lat="45.00078" lon="5.54169">
        <ele>1794.2</ele>
        <time>2017-12-03T09:49:52Z</time>
      </trkpt>
      <trkpt lat="45.00074" lon="5.54166">
        <ele>1793.4</ele>
        <time>2017-12-03T09:49:57Z</time>
      </trkpt>
      <trkpt lat="45.0007" lon="5.54164">
        <ele>1794.2</ele>
        <time>2017-12-03T09:50:02Z</time>
      </trkpt>
      <trkpt lat="45.00065" lon="5.54164">
        <ele>1794.6</ele>
        <time>2017-12-03T09:50:07Z</time>
      </trkpt>
      <trkpt lat="45.00062" lon="5.54165">
        <ele>1792.8</ele>
        <time>2017-12-03T09:50:12Z</time>
      </trkpt>
      <trkpt lat="45.00058" lon="5.54166">
        <ele>1793.8</ele>
        <time>2017-12-03T09:50:17Z</time>
      </trkpt>
      <trkpt lat="45.00055" lon="5.54167">
        <ele>1795.8</ele>
        <time>2017-12-03T09:50:22Z</time>
      </trkpt>
      <trkpt lat="45.00054" lon="5.54167">
        <ele>1795.4</ele>
        <time>2017-12-03T09:50:27Z</time>
      </trkpt>
      <trkpt lat="45.00054" lon="5.54167">
        <ele>1795.2</ele>
        <time>2017-12-03T09:50:32Z</time>
      </trkpt>
      <trkpt lat="45.00054" lon="5.54167">
        <ele>1795</ele>
        <time>2017-12-03T09:50:37Z</time>
      </trkpt>
      <trkpt lat="45.00054" lon="5.54167">
        <ele>1795</ele>
        <time>2017-12-03T09:50:42Z</time>
      </trkpt>
      <trkpt lat="45.00054" lon="5.54167">
        <ele>1795</ele>
        <time>2017-12-03T09:50:47Z</time>
      </trkpt>
      <trkpt lat="45.00054" lon="5.54167">
        <ele>1794.8</ele>
        <time>2017-12-03T09:50:52Z</time>
      </trkpt>
      <trkpt lat="45.00054" lon="5.54167">
        <ele>1794.8</ele>
        <time>2017-12-03T09:50:57Z</time>
      </trkpt>
      <trkpt lat="45.00054" lon="5.54167">
        <ele>1794.8</ele>
        <time>2017-12-03T09:51:02Z</time>
      </trkpt>
      <trkpt lat="45.0005" lon="5.54166">
        <ele>1795</ele>
        <time>2017-12-03T09:51:07Z</time>
      </trkpt>
      <trkpt lat="45.00047" lon="5.54167">
        <ele>1793.6</ele>
        <time>2017-12-03T09:51:12Z</time>
      </trkpt>
      <trkpt lat="45.00046" lon="5.54166">
        <ele>1793.4</ele>
        <time>2017-12-03T09:51:17Z</time>
      </trkpt>
      <trkpt lat="45.00046" lon="5.54166">
        <ele>1793.8</ele>
        <time>2017-12-03T09:51:22Z</time>
      </trkpt>
      <trkpt lat="45.00046" lon="5.54166">
        <ele>1794.2</ele>
        <time>2017-12-03T09:51:27Z</time>
      </trkpt>
      <trkpt lat="45.00046" lon="5.54166">
        <ele>1794.4</ele>
        <time>2017-12-03T09:51:32Z</time>
      </trkpt>
      <trkpt lat="45.00045" lon="5.54166">
        <ele>1791.2</ele>
        <time>2017-12-03T09:51:37Z</time>
      </trkpt>
      <trkpt lat="45.00043" lon="5.54165">
        <ele>1794.4</ele>
        <time>2017-12-03T09:51:42Z</time>
      </trkpt>
      <trkpt lat="45.00043" lon="5.54165">
        <ele>1794.8</ele>
        <time>2017-12-03T09:51:47Z</time>
      </trkpt>
      <trkpt lat="45.00043" lon="5.54165">
        <ele>1795</ele>
        <time>2017-12-03T09:51:52Z</time>
      </trkpt>
      <trkpt lat="45.00043" lon="5.54165">
        <ele>1795.2</ele>
        <time>2017-12-03T09:51:57Z</time>
      </trkpt>
      <trkpt lat="45.00043" lon="5.54165">
        <ele>1795.2</ele>
        <time>2017-12-03T09:52:02Z</time>
      </trkpt>
      <trkpt lat="45.00043" lon="5.54165">
        <ele>1795.2</ele>
        <time>2017-12-03T09:52:07Z</time>
      </trkpt>
      <trkpt lat="45.00043" lon="5.54165">
        <ele>1795.4</ele>
        <time>2017-12-03T09:52:12Z</time>
      </trkpt>
      <trkpt lat="45.00043" lon="5.54165">
        <ele>1795.4</ele>
        <time>2017-12-03T09:52:17Z</time>
      </trkpt>
      <trkpt lat="45.00043" lon="5.54164">
        <ele>1795.4</ele>
        <time>2017-12-03T09:52:22Z</time>
      </trkpt>
      <trkpt lat="45.00043" lon="5.54164">
        <ele>1795.4</ele>
        <time>2017-12-03T09:52:27Z</time>
      </trkpt>
      <trkpt lat="45.00043" lon="5.54164">
        <ele>1795.4</ele>
        <time>2017-12-03T09:52:32Z</time>
      </trkpt>
      <trkpt lat="45.00043" lon="5.54164">
        <ele>1795.4</ele>
        <time>2017-12-03T09:52:37Z</time>
      </trkpt>
      <trkpt lat="45.00043" lon="5.54164">
        <ele>1795.4</ele>
        <time>2017-12-03T09:52:42Z</time>
      </trkpt>
      <trkpt lat="45.00043" lon="5.54164">
        <ele>1795.4</ele>
        <time>2017-12-03T09:52:47Z</time>
      </trkpt>
      <trkpt lat="45.00043" lon="5.54164">
        <ele>1795.4</ele>
        <time>2017-12-03T09:52:52Z</time>
      </trkpt>
      <trkpt lat="45.00043" lon="5.54164">
        <ele>1795.4</ele>
        <time>2017-12-03T09:52:57Z</time>
      </trkpt>
      <trkpt lat="45.00043" lon="5.54164">
        <ele>1795.4</ele>
        <time>2017-12-03T09:53:02Z</time>
      </trkpt>
      <trkpt lat="45.00043" lon="5.54164">
        <ele>1795.4</ele>
        <time>2017-12-03T09:53:07Z</time>
      </trkpt>
      <trkpt lat="45.00043" lon="5.54164">
        <ele>1795.2</ele>
        <time>2017-12-03T09:53:12Z</time>
      </trkpt>
      <trkpt lat="45.00043" lon="5.54164">
        <ele>1795.2</ele>
        <time>2017-12-03T09:53:17Z</time>
      </trkpt>
      <trkpt lat="45.00043" lon="5.54164">
        <ele>1795.2</ele>
        <time>2017-12-03T09:53:22Z</time>
      </trkpt>
      <trkpt lat="45.00043" lon="5.54164">
        <ele>1795.2</ele>
        <time>2017-12-03T09:53:27Z</time>
      </trkpt>
      <trkpt lat="45.00043" lon="5.54164">
        <ele>1795.2</ele>
        <time>2017-12-03T09:53:32Z</time>
      </trkpt>
      <trkpt lat="45.00043" lon="5.54164">
        <ele>1795.2</ele>
        <time>2017-12-03T09:53:37Z</time>
      </trkpt>
      <trkpt lat="45.00043" lon="5.54164">
        <ele>1795.2</ele>
        <time>2017-12-03T09:53:42Z</time>
      </trkpt>
      <trkpt lat="45.00043" lon="5.54164">
        <ele>1795.2</ele>
        <time>2017-12-03T09:53:47Z</time>
      </trkpt>
      <trkpt lat="45.00043" lon="5.54164">
        <ele>1795.2</ele>
        <time>2017-12-03T09:53:52Z</time>
      </trkpt>
      <trkpt lat="45.00043" lon="5.54164">
        <ele>1795.2</ele>
        <time>2017-12-03T09:53:57Z</time>
      </trkpt>
      <trkpt lat="45.00043" lon="5.54164">
        <ele>1795.2</ele>
        <time>2017-12-03T09:54:02Z</time>
      </trkpt>
      <trkpt lat="45.00043" lon="5.54164">
        <ele>1795.2</ele>
        <time>2017-12-03T09:54:07Z</time>
      </trkpt>
      <trkpt lat="45.00043" lon="5.54164">
        <ele>1795.2</ele>
        <time>2017-12-03T09:54:12Z</time>
      </trkpt>
      <trkpt lat="45.00043" lon="5.54164">
        <ele>1795.2</ele>
        <time>2017-12-03T09:54:18Z</time>
      </trkpt>
      <trkpt lat="45.00042" lon="5.54163">
        <ele>1795</ele>
        <time>2017-12-03T09:54:23Z</time>
      </trkpt>
      <trkpt lat="45.00042" lon="5.54163">
        <ele>1795</ele>
        <time>2017-12-03T09:54:28Z</time>
      </trkpt>
      <trkpt lat="45.00042" lon="5.54163">
        <ele>1794.8</ele>
        <time>2017-12-03T09:54:33Z</time>
      </trkpt>
      <trkpt lat="45.00042" lon="5.54163">
        <ele>1794.8</ele>
        <time>2017-12-03T09:54:38Z</time>
      </trkpt>
      <trkpt lat="45.00042" lon="5.54163">
        <ele>1794.6</ele>
        <time>2017-12-03T09:54:43Z</time>
      </trkpt>
      <trkpt lat="45.00042" lon="5.54163">
        <ele>1794.6</ele>
        <time>2017-12-03T09:54:48Z</time>
      </trkpt>
      <trkpt lat="45.00042" lon="5.54163">
        <ele>1794.6</ele>
        <time>2017-12-03T09:54:53Z</time>
      </trkpt>
      <trkpt lat="45.00042" lon="5.54163">
        <ele>1794.6</ele>
        <time>2017-12-03T09:54:58Z</time>
      </trkpt>
      <trkpt lat="45.00042" lon="5.54163">
        <ele>1794.4</ele>
        <time>2017-12-03T09:55:03Z</time>
      </trkpt>
      <trkpt lat="45.00042" lon="5.54163">
        <ele>1794.4</ele>
        <time>2017-12-03T09:55:08Z</time>
      </trkpt>
      <trkpt lat="45.00042" lon="5.54163">
        <ele>1794.4</ele>
        <time>2017-12-03T09:55:13Z</time>
      </trkpt>
      <trkpt lat="45.00042" lon="5.54163">
        <ele>1794.4</ele>
        <time>2017-12-03T09:55:18Z</time>
      </trkpt>
      <trkpt lat="45.00042" lon="5.54163">
        <ele>1794.4</ele>
        <time>2017-12-03T09:55:23Z</time>
      </trkpt>
      <trkpt lat="45.00042" lon="5.54163">
        <ele>1794.4</ele>
        <time>2017-12-03T09:55:28Z</time>
      </trkpt>
      <trkpt lat="45.00042" lon="5.54163">
        <ele>1794.4</ele>
        <time>2017-12-03T09:55:33Z</time>
      </trkpt>
      <trkpt lat="45.00042" lon="5.54163">
        <ele>1794.4</ele>
        <time>2017-12-03T09:55:38Z</time>
      </trkpt>
      <trkpt lat="45.00042" lon="5.54163">
        <ele>1794.4</ele>
        <time>2017-12-03T09:55:43Z</time>
      </trkpt>
      <trkpt lat="45.00042" lon="5.54163">
        <ele>1794.4</ele>
        <time>2017-12-03T09:55:48Z</time>
      </trkpt>
      <trkpt lat="45.00042" lon="5.54163">
        <ele>1794.4</ele>
        <time>2017-12-03T09:55:53Z</time>
      </trkpt>
      <trkpt lat="45.00042" lon="5.54163">
        <ele>1794.4</ele>
        <time>2017-12-03T09:55:58Z</time>
      </trkpt>
      <trkpt lat="45.00042" lon="5.54163">
        <ele>1794.4</ele>
        <time>2017-12-03T09:56:03Z</time>
      </trkpt>
      <trkpt lat="45.00042" lon="5.54163">
        <ele>1794.4</ele>
        <time>2017-12-03T09:56:08Z</time>
      </trkpt>
      <trkpt lat="45.00042" lon="5.54163">
        <ele>1795</ele>
        <time>2017-12-03T09:56:13Z</time>
      </trkpt>
      <trkpt lat="45.00042" lon="5.54163">
        <ele>1794.6</ele>
        <time>2017-12-03T09:56:18Z</time>
      </trkpt>
      <trkpt lat="45.00042" lon="5.54163">
        <ele>1794.4</ele>
        <time>2017-12-03T09:56:23Z</time>
      </trkpt>
      <trkpt lat="45.00042" lon="5.54164">
        <ele>1794.4</ele>
        <time>2017-12-03T09:56:28Z</time>
      </trkpt>
      <trkpt lat="45.00042" lon="5.54164">
        <ele>1794</ele>
        <time>2017-12-03T09:56:33Z</time>
      </trkpt>
      <trkpt lat="45.00042" lon="5.54164">
        <ele>1793.8</ele>
        <time>2017-12-03T09:56:38Z</time>
      </trkpt>
      <trkpt lat="45.00041" lon="5.54164">
        <ele>1793.8</ele>
        <time>2017-12-03T09:56:43Z</time>
      </trkpt>
      <trkpt lat="45.0004" lon="5.54166">
        <ele>1793.8</ele>
        <time>2017-12-03T09:56:48Z</time>
      </trkpt>
      <trkpt lat="45.00038" lon="5.54173">
        <ele>1791.2</ele>
        <time>2017-12-03T09:56:53Z</time>
      </trkpt>
      <trkpt lat="45.00036" lon="5.54182">
        <ele>1793</ele>
        <time>2017-12-03T09:56:58Z</time>
      </trkpt>
      <trkpt lat="45.00031" lon="5.54194">
        <ele>1790.2</ele>
        <time>2017-12-03T09:57:03Z</time>
      </trkpt>
      <trkpt lat="45.00027" lon="5.54202">
        <ele>1787.6</ele>
        <time>2017-12-03T09:57:08Z</time>
      </trkpt>
      <trkpt lat="45.00024" lon="5.54208">
        <ele>1786.2</ele>
        <time>2017-12-03T09:57:13Z</time>
      </trkpt>
      <trkpt lat="45.00019" lon="5.54211">
        <ele>1787.2</ele>
        <time>2017-12-03T09:57:18Z</time>
      </trkpt>
      <trkpt lat="45.00014" lon="5.54207">
        <ele>1787.8</ele>
        <time>2017-12-03T09:57:23Z</time>
      </trkpt>
      <trkpt lat="45.00009" lon="5.542">
        <ele>1785.4</ele>
        <time>2017-12-03T09:57:28Z</time>
      </trkpt>
      <trkpt lat="45.00004" lon="5.54194">
        <ele>1784.8</ele>
        <time>2017-12-03T09:57:33Z</time>
      </trkpt>
      <trkpt lat="44.99998" lon="5.5419">
        <ele>1786.2</ele>
        <time>2017-12-03T09:57:38Z</time>
      </trkpt>
      <trkpt lat="44.99995" lon="5.54191">
        <ele>1784</ele>
        <time>2017-12-03T09:57:43Z</time>
      </trkpt>
      <trkpt lat="44.99992" lon="5.54198">
        <ele>1782</ele>
        <time>2017-12-03T09:57:48Z</time>
      </trkpt>
      <trkpt lat="44.99986" lon="5.54216">
        <ele>1780.2</ele>
        <time>2017-12-03T09:57:53Z</time>
      </trkpt>
      <trkpt lat="44.99983" lon="5.54227">
        <ele>1778.8</ele>
        <time>2017-12-03T09:57:58Z</time>
      </trkpt>
      <trkpt lat="44.99983" lon="5.54227">
        <ele>1779.8</ele>
        <time>2017-12-03T09:58:03Z</time>
      </trkpt>
      <trkpt lat="44.9998" lon="5.54229">
        <ele>1780.8</ele>
        <time>2017-12-03T09:58:08Z</time>
      </trkpt>
      <trkpt lat="44.99972" lon="5.54236">
        <ele>1776.2</ele>
        <time>2017-12-03T09:58:13Z</time>
      </trkpt>
      <trkpt lat="44.99953" lon="5.54236">
        <ele>1771.8</ele>
        <time>2017-12-03T09:58:18Z</time>
      </trkpt>
      <trkpt lat="44.9995" lon="5.5424">
        <ele>1773.6</ele>
        <time>2017-12-03T09:58:23Z</time>
      </trkpt>
      <trkpt lat="44.99949" lon="5.54244">
        <ele>1776.6</ele>
        <time>2017-12-03T09:58:28Z</time>
      </trkpt>
      <trkpt lat="44.99948" lon="5.54246">
        <ele>1776.6</ele>
        <time>2017-12-03T09:58:33Z</time>
      </trkpt>
      <trkpt lat="44.99944" lon="5.54249">
        <ele>1772</ele>
        <time>2017-12-03T09:58:38Z</time>
      </trkpt>
      <trkpt lat="44.99939" lon="5.54255">
        <ele>1774</ele>
        <time>2017-12-03T09:58:43Z</time>
      </trkpt>
      <trkpt lat="44.99936" lon="5.54261">
        <ele>1775</ele>
        <time>2017-12-03T09:58:48Z</time>
      </trkpt>
      <trkpt lat="44.99932" lon="5.54266">
        <ele>1774</ele>
        <time>2017-12-03T09:58:53Z</time>
      </trkpt>
      <trkpt lat="44.99929" lon="5.54271">
        <ele>1772.2</ele>
        <time>2017-12-03T09:58:58Z</time>
      </trkpt>
      <trkpt lat="44.99927" lon="5.54273">
        <ele>1774.4</ele>
        <time>2017-12-03T09:59:03Z</time>
      </trkpt>
      <trkpt lat="44.99925" lon="5.54276">
        <ele>1772.4</ele>
        <time>2017-12-03T09:59:08Z</time>
      </trkpt>
      <trkpt lat="44.99922" lon="5.5428">
        <ele>1775.2</ele>
        <time>2017-12-03T09:59:13Z</time>
      </trkpt>
      <trkpt lat="44.99922" lon="5.54281">
        <ele>1772</ele>
        <time>2017-12-03T09:59:18Z</time>
      </trkpt>
      <trkpt lat="44.99922" lon="5.54281">
        <ele>1772.2</ele>
        <time>2017-12-03T09:59:23Z</time>
      </trkpt>
      <trkpt lat="44.99922" lon="5.54281">
        <ele>1772.4</ele>
        <time>2017-12-03T09:59:28Z</time>
      </trkpt>
      <trkpt lat="44.99922" lon="5.54282">
        <ele>1772.6</ele>
        <time>2017-12-03T09:59:33Z</time>
      </trkpt>
      <trkpt lat="44.9992" lon="5.54285">
        <ele>1772.2</ele>
        <time>2017-12-03T09:59:38Z</time>
      </trkpt>
      <trkpt lat="44.99913" lon="5.54293">
        <ele>1768.2</ele>
        <time>2017-12-03T09:59:43Z</time>
      </trkpt>
      <trkpt lat="44.99903" lon="5.54302">
        <ele>1769.6</ele>
        <time>2017-12-03T09:59:48Z</time>
      </trkpt>
      <trkpt lat="44.99898" lon="5.54305">
        <ele>1772.2</ele>
        <time>2017-12-03T09:59:53Z</time>
      </trkpt>
      <trkpt lat="44.99894" lon="5.54307">
        <ele>1767.8</ele>
        <time>2017-12-03T09:59:58Z</time>
      </trkpt>
      <trkpt lat="44.99889" lon="5.5431">
        <ele>1769.6</ele>
        <time>2017-12-03T10:00:04Z</time>
      </trkpt>
      <trkpt lat="44.99882" lon="5.54312">
        <ele>1768.8</ele>
        <time>2017-12-03T10:00:09Z</time>
      </trkpt>
      <trkpt lat="44.99875" lon="5.54315">
        <ele>1766.2</ele>
        <time>2017-12-03T10:00:14Z</time>
      </trkpt>
      <trkpt lat="44.99871" lon="5.54316">
        <ele>1766.4</ele>
        <time>2017-12-03T10:00:19Z</time>
      </trkpt>
      <trkpt lat="44.99867" lon="5.54316">
        <ele>1767.2</ele>
        <time>2017-12-03T10:00:24Z</time>
      </trkpt>
      <trkpt lat="44.99863" lon="5.54317">
        <ele>1770.2</ele>
        <time>2017-12-03T10:00:29Z</time>
      </trkpt>
      <trkpt lat="44.99858" lon="5.54318">
        <ele>1770.8</ele>
        <time>2017-12-03T10:00:34Z</time>
      </trkpt>
      <trkpt lat="44.99854" lon="5.54318">
        <ele>1768</ele>
        <time>2017-12-03T10:00:39Z</time>
      </trkpt>
      <trkpt lat="44.9985" lon="5.54317">
        <ele>1767.4</ele>
        <time>2017-12-03T10:00:44Z</time>
      </trkpt>
      <trkpt lat="44.99843" lon="5.54319">
        <ele>1767.8</ele>
        <time>2017-12-03T10:00:50Z</time>
      </trkpt>
      <trkpt lat="44.99842" lon="5.54319">
        <ele>1765.4</ele>
        <time>2017-12-03T10:00:55Z</time>
      </trkpt>
      <trkpt lat="44.99836" lon="5.54321">
        <ele>1765.4</ele>
        <time>2017-12-03T10:01:00Z</time>
      </trkpt>
      <trkpt lat="44.99829" lon="5.54323">
        <ele>1767.2</ele>
        <time>2017-12-03T10:01:05Z</time>
      </trkpt>
      <trkpt lat="44.99823" lon="5.54322">
        <ele>1766.8</ele>
        <time>2017-12-03T10:01:10Z</time>
      </trkpt>
      <trkpt lat="44.99814" lon="5.54316">
        <ele>1760.2</ele>
        <time>2017-12-03T10:01:15Z</time>
      </trkpt>
      <trkpt lat="44.99809" lon="5.54315">
        <ele>1764</ele>
        <time>2017-12-03T10:01:20Z</time>
      </trkpt>
      <trkpt lat="44.998" lon="5.5432">
        <ele>1766.2</ele>
        <time>2017-12-03T10:01:25Z</time>
      </trkpt>
      <trkpt lat="44.99795" lon="5.54318">
        <ele>1765.6</ele>
        <time>2017-12-03T10:01:30Z</time>
      </trkpt>
      <trkpt lat="44.9979" lon="5.54316">
        <ele>1761.4</ele>
        <time>2017-12-03T10:01:35Z</time>
      </trkpt>
      <trkpt lat="44.99786" lon="5.54314">
        <ele>1764.4</ele>
        <time>2017-12-03T10:01:40Z</time>
      </trkpt>
      <trkpt lat="44.99783" lon="5.54312">
        <ele>1762.8</ele>
        <time>2017-12-03T10:01:45Z</time>
      </trkpt>
      <trkpt lat="44.99779" lon="5.5431">
        <ele>1763.2</ele>
        <time>2017-12-03T10:01:50Z</time>
      </trkpt>
      <trkpt lat="44.99774" lon="5.54309">
        <ele>1765.6</ele>
        <time>2017-12-03T10:01:55Z</time>
      </trkpt>
      <trkpt lat="44.9977" lon="5.54309">
        <ele>1762.2</ele>
        <time>2017-12-03T10:02:00Z</time>
      </trkpt>
      <trkpt lat="44.99767" lon="5.54309">
        <ele>1765.6</ele>
        <time>2017-12-03T10:02:05Z</time>
      </trkpt>
      <trkpt lat="44.99764" lon="5.54311">
        <ele>1766.6</ele>
        <time>2017-12-03T10:02:10Z</time>
      </trkpt>
      <trkpt lat="44.99762" lon="5.54315">
        <ele>1765.6</ele>
        <time>2017-12-03T10:02:15Z</time>
      </trkpt>
      <trkpt lat="44.99759" lon="5.54319">
        <ele>1761.8</ele>
        <time>2017-12-03T10:02:20Z</time>
      </trkpt>
      <trkpt lat="44.99754" lon="5.54323">
        <ele>1766.2</ele>
        <time>2017-12-03T10:02:25Z</time>
      </trkpt>
      <trkpt lat="44.9975" lon="5.54323">
        <ele>1768</ele>
        <time>2017-12-03T10:02:30Z</time>
      </trkpt>
      <trkpt lat="44.99747" lon="5.54322">
        <ele>1767.6</ele>
        <time>2017-12-03T10:02:35Z</time>
      </trkpt>
      <trkpt lat="44.99744" lon="5.5432">
        <ele>1767.8</ele>
        <time>2017-12-03T10:02:40Z</time>
      </trkpt>
      <trkpt lat="44.99741" lon="5.54318">
        <ele>1767</ele>
        <time>2017-12-03T10:02:45Z</time>
      </trkpt>
      <trkpt lat="44.99737" lon="5.54317">
        <ele>1767.2</ele>
        <time>2017-12-03T10:02:50Z</time>
      </trkpt>
      <trkpt lat="44.99735" lon="5.54316">
        <ele>1770.2</ele>
        <time>2017-12-03T10:02:55Z</time>
      </trkpt>
      <trkpt lat="44.99733" lon="5.54315">
        <ele>1768.2</ele>
        <time>2017-12-03T10:03:00Z</time>
      </trkpt>
      <trkpt lat="44.99729" lon="5.54314">
        <ele>1771.2</ele>
        <time>2017-12-03T10:03:05Z</time>
      </trkpt>
      <trkpt lat="44.99727" lon="5.54316">
        <ele>1772.8</ele>
        <time>2017-12-03T10:03:10Z</time>
      </trkpt>
      <trkpt lat="44.99726" lon="5.5432">
        <ele>1770.8</ele>
        <time>2017-12-03T10:03:15Z</time>
      </trkpt>
      <trkpt lat="44.99724" lon="5.54325">
        <ele>1773.6</ele>
        <time>2017-12-03T10:03:20Z</time>
      </trkpt>
      <trkpt lat="44.99721" lon="5.54329">
        <ele>1771</ele>
        <time>2017-12-03T10:03:25Z</time>
      </trkpt>
      <trkpt lat="44.99718" lon="5.5433">
        <ele>1774.8</ele>
        <time>2017-12-03T10:03:30Z</time>
      </trkpt>
      <trkpt lat="44.99713" lon="5.54331">
        <ele>1774.4</ele>
        <time>2017-12-03T10:03:36Z</time>
      </trkpt>
      <trkpt lat="44.9971" lon="5.54333">
        <ele>1772.2</ele>
        <time>2017-12-03T10:03:41Z</time>
      </trkpt>
      <trkpt lat="44.99709" lon="5.54333">
        <ele>1773.6</ele>
        <time>2017-12-03T10:03:46Z</time>
      </trkpt>
      <trkpt lat="44.99709" lon="5.54333">
        <ele>1773.6</ele>
        <time>2017-12-03T10:03:51Z</time>
      </trkpt>
      <trkpt lat="44.99709" lon="5.54333">
        <ele>1773.6</ele>
        <time>2017-12-03T10:03:56Z</time>
      </trkpt>
      <trkpt lat="44.99709" lon="5.54333">
        <ele>1773.6</ele>
        <time>2017-12-03T10:04:01Z</time>
      </trkpt>
      <trkpt lat="44.99709" lon="5.54333">
        <ele>1773.6</ele>
        <time>2017-12-03T10:04:06Z</time>
      </trkpt>
      <trkpt lat="44.99709" lon="5.54333">
        <ele>1773.6</ele>
        <time>2017-12-03T10:04:11Z</time>
      </trkpt>
      <trkpt lat="44.99709" lon="5.54333">
        <ele>1773.6</ele>
        <time>2017-12-03T10:04:16Z</time>
      </trkpt>
      <trkpt lat="44.99709" lon="5.54333">
        <ele>1773.6</ele>
        <time>2017-12-03T10:04:21Z</time>
      </trkpt>
      <trkpt lat="44.99709" lon="5.54333">
        <ele>1773.6</ele>
        <time>2017-12-03T10:04:26Z</time>
      </trkpt>
      <trkpt lat="44.99706" lon="5.54332">
        <ele>1775.6</ele>
        <time>2017-12-03T10:04:31Z</time>
      </trkpt>
      <trkpt lat="44.99702" lon="5.54331">
        <ele>1774.4</ele>
        <time>2017-12-03T10:04:36Z</time>
      </trkpt>
      <trkpt lat="44.99698" lon="5.54329">
        <ele>1774.2</ele>
        <time>2017-12-03T10:04:41Z</time>
      </trkpt>
      <trkpt lat="44.99695" lon="5.54328">
        <ele>1774.2</ele>
        <time>2017-12-03T10:04:46Z</time>
      </trkpt>
      <trkpt lat="44.99693" lon="5.54327">
        <ele>1774.8</ele>
        <time>2017-12-03T10:04:51Z</time>
      </trkpt>
      <trkpt lat="44.99693" lon="5.54327">
        <ele>1777</ele>
        <time>2017-12-03T10:04:56Z</time>
      </trkpt>
      <trkpt lat="44.99689" lon="5.54325">
        <ele>1776.2</ele>
        <time>2017-12-03T10:05:01Z</time>
      </trkpt>
      <trkpt lat="44.99686" lon="5.54323">
        <ele>1778.2</ele>
        <time>2017-12-03T10:05:06Z</time>
      </trkpt>
      <trkpt lat="44.99683" lon="5.54321">
        <ele>1780.2</ele>
        <time>2017-12-03T10:05:11Z</time>
      </trkpt>
      <trkpt lat="44.9968" lon="5.54319">
        <ele>1778</ele>
        <time>2017-12-03T10:05:16Z</time>
      </trkpt>
      <trkpt lat="44.99678" lon="5.54317">
        <ele>1777.2</ele>
        <time>2017-12-03T10:05:21Z</time>
      </trkpt>
      <trkpt lat="44.99676" lon="5.54315">
        <ele>1778.6</ele>
        <time>2017-12-03T10:05:26Z</time>
      </trkpt>
      <trkpt lat="44.99674" lon="5.54313">
        <ele>1779</ele>
        <time>2017-12-03T10:05:31Z</time>
      </trkpt>
      <trkpt lat="44.99672" lon="5.5431">
        <ele>1779</ele>
        <time>2017-12-03T10:05:36Z</time>
      </trkpt>
      <trkpt lat="44.9967" lon="5.54307">
        <ele>1779.2</ele>
        <time>2017-12-03T10:05:41Z</time>
      </trkpt>
      <trkpt lat="44.99668" lon="5.54305">
        <ele>1780.2</ele>
        <time>2017-12-03T10:05:46Z</time>
      </trkpt>
      <trkpt lat="44.99665" lon="5.54301">
        <ele>1781</ele>
        <time>2017-12-03T10:05:51Z</time>
      </trkpt>
      <trkpt lat="44.99664" lon="5.54298">
        <ele>1782.4</ele>
        <time>2017-12-03T10:05:56Z</time>
      </trkpt>
      <trkpt lat="44.99664" lon="5.54299">
        <ele>1782.4</ele>
        <time>2017-12-03T10:06:01Z</time>
      </trkpt>
      <trkpt lat="44.99664" lon="5.54299">
        <ele>1782.4</ele>
        <time>2017-12-03T10:06:06Z</time>
      </trkpt>
      <trkpt lat="44.99664" lon="5.54299">
        <ele>1782.2</ele>
        <time>2017-12-03T10:06:11Z</time>
      </trkpt>
      <trkpt lat="44.99663" lon="5.54298">
        <ele>1782.6</ele>
        <time>2017-12-03T10:06:16Z</time>
      </trkpt>
      <trkpt lat="44.99661" lon="5.54294">
        <ele>1783.8</ele>
        <time>2017-12-03T10:06:21Z</time>
      </trkpt>
      <trkpt lat="44.99659" lon="5.54291">
        <ele>1781</ele>
        <time>2017-12-03T10:06:26Z</time>
      </trkpt>
      <trkpt lat="44.99656" lon="5.54289">
        <ele>1785.8</ele>
        <time>2017-12-03T10:06:31Z</time>
      </trkpt>
      <trkpt lat="44.99654" lon="5.54286">
        <ele>1787.6</ele>
        <time>2017-12-03T10:06:36Z</time>
      </trkpt>
      <trkpt lat="44.99651" lon="5.54284">
        <ele>1790</ele>
        <time>2017-12-03T10:06:41Z</time>
      </trkpt>
      <trkpt lat="44.99648" lon="5.54282">
        <ele>1786.4</ele>
        <time>2017-12-03T10:06:46Z</time>
      </trkpt>
      <trkpt lat="44.99646" lon="5.5428">
        <ele>1789.8</ele>
        <time>2017-12-03T10:06:51Z</time>
      </trkpt>
      <trkpt lat="44.99643" lon="5.54278">
        <ele>1784.6</ele>
        <time>2017-12-03T10:06:56Z</time>
      </trkpt>
      <trkpt lat="44.99641" lon="5.54276">
        <ele>1789.4</ele>
        <time>2017-12-03T10:07:01Z</time>
      </trkpt>
      <trkpt lat="44.99639" lon="5.54275">
        <ele>1787.4</ele>
        <time>2017-12-03T10:07:06Z</time>
      </trkpt>
      <trkpt lat="44.99636" lon="5.54275">
        <ele>1792</ele>
        <time>2017-12-03T10:07:11Z</time>
      </trkpt>
      <trkpt lat="44.99633" lon="5.54274">
        <ele>1788.6</ele>
        <time>2017-12-03T10:07:16Z</time>
      </trkpt>
      <trkpt lat="44.9963" lon="5.54273">
        <ele>1795.8</ele>
        <time>2017-12-03T10:07:21Z</time>
      </trkpt>
      <trkpt lat="44.99627" lon="5.54271">
        <ele>1792</ele>
        <time>2017-12-03T10:07:26Z</time>
      </trkpt>
      <trkpt lat="44.99624" lon="5.5427">
        <ele>1793</ele>
        <time>2017-12-03T10:07:31Z</time>
      </trkpt>
      <trkpt lat="44.99621" lon="5.54268">
        <ele>1792.2</ele>
        <time>2017-12-03T10:07:36Z</time>
      </trkpt>
      <trkpt lat="44.99618" lon="5.54266">
        <ele>1793</ele>
        <time>2017-12-03T10:07:41Z</time>
      </trkpt>
      <trkpt lat="44.99615" lon="5.54265">
        <ele>1794.6</ele>
        <time>2017-12-03T10:07:46Z</time>
      </trkpt>
      <trkpt lat="44.99612" lon="5.54264">
        <ele>1793.2</ele>
        <time>2017-12-03T10:07:51Z</time>
      </trkpt>
      <trkpt lat="44.99609" lon="5.54262">
        <ele>1796.2</ele>
        <time>2017-12-03T10:07:56Z</time>
      </trkpt>
      <trkpt lat="44.99606" lon="5.54261">
        <ele>1795</ele>
        <time>2017-12-03T10:08:01Z</time>
      </trkpt>
      <trkpt lat="44.99603" lon="5.5426">
        <ele>1797.4</ele>
        <time>2017-12-03T10:08:06Z</time>
      </trkpt>
      <trkpt lat="44.99601" lon="5.54259">
        <ele>1796.4</ele>
        <time>2017-12-03T10:08:11Z</time>
      </trkpt>
      <trkpt lat="44.99598" lon="5.54258">
        <ele>1798</ele>
        <time>2017-12-03T10:08:16Z</time>
      </trkpt>
      <trkpt lat="44.99596" lon="5.54257">
        <ele>1799.4</ele>
        <time>2017-12-03T10:08:21Z</time>
      </trkpt>
      <trkpt lat="44.99593" lon="5.54255">
        <ele>1801</ele>
        <time>2017-12-03T10:08:26Z</time>
      </trkpt>
      <trkpt lat="44.99591" lon="5.54253">
        <ele>1798.8</ele>
        <time>2017-12-03T10:08:31Z</time>
      </trkpt>
      <trkpt lat="44.99588" lon="5.54251">
        <ele>1802.2</ele>
        <time>2017-12-03T10:08:36Z</time>
      </trkpt>
      <trkpt lat="44.99586" lon="5.54249">
        <ele>1803.2</ele>
        <time>2017-12-03T10:08:41Z</time>
      </trkpt>
      <trkpt lat="44.99583" lon="5.54247">
        <ele>1801.8</ele>
        <time>2017-12-03T10:08:46Z</time>
      </trkpt>
      <trkpt lat="44.9958" lon="5.54248">
        <ele>1802.8</ele>
        <time>2017-12-03T10:08:51Z</time>
      </trkpt>
      <trkpt lat="44.99577" lon="5.54249">
        <ele>1803.4</ele>
        <time>2017-12-03T10:08:56Z</time>
      </trkpt>
      <trkpt lat="44.99574" lon="5.5425">
        <ele>1805</ele>
        <time>2017-12-03T10:09:01Z</time>
      </trkpt>
      <trkpt lat="44.99571" lon="5.54251">
        <ele>1805</ele>
        <time>2017-12-03T10:09:06Z</time>
      </trkpt>
      <trkpt lat="44.99568" lon="5.54252">
        <ele>1806.4</ele>
        <time>2017-12-03T10:09:11Z</time>
      </trkpt>
      <trkpt lat="44.99565" lon="5.54252">
        <ele>1806.8</ele>
        <time>2017-12-03T10:09:16Z</time>
      </trkpt>
      <trkpt lat="44.99563" lon="5.54254">
        <ele>1806.8</ele>
        <time>2017-12-03T10:09:21Z</time>
      </trkpt>
      <trkpt lat="44.99561" lon="5.54256">
        <ele>1807</ele>
        <time>2017-12-03T10:09:26Z</time>
      </trkpt>
      <trkpt lat="44.99562" lon="5.5426">
        <ele>1813.2</ele>
        <time>2017-12-03T10:09:31Z</time>
      </trkpt>
      <trkpt lat="44.99563" lon="5.54263">
        <ele>1812.2</ele>
        <time>2017-12-03T10:09:36Z</time>
      </trkpt>
      <trkpt lat="44.99564" lon="5.54266">
        <ele>1810.6</ele>
        <time>2017-12-03T10:09:41Z</time>
      </trkpt>
      <trkpt lat="44.99565" lon="5.54269">
        <ele>1811.8</ele>
        <time>2017-12-03T10:09:46Z</time>
      </trkpt>
      <trkpt lat="44.99566" lon="5.54271">
        <ele>1813</ele>
        <time>2017-12-03T10:09:51Z</time>
      </trkpt>
      <trkpt lat="44.99564" lon="5.54272">
        <ele>1814</ele>
        <time>2017-12-03T10:09:56Z</time>
      </trkpt>
      <trkpt lat="44.99562" lon="5.54271">
        <ele>1817.6</ele>
        <time>2017-12-03T10:10:01Z</time>
      </trkpt>
      <trkpt lat="44.99559" lon="5.54271">
        <ele>1816.8</ele>
        <time>2017-12-03T10:10:06Z</time>
      </trkpt>
      <trkpt lat="44.99556" lon="5.54271">
        <ele>1815.2</ele>
        <time>2017-12-03T10:10:11Z</time>
      </trkpt>
      <trkpt lat="44.99553" lon="5.5427">
        <ele>1813</ele>
        <time>2017-12-03T10:10:16Z</time>
      </trkpt>
      <trkpt lat="44.9955" lon="5.5427">
        <ele>1815.8</ele>
        <time>2017-12-03T10:10:21Z</time>
      </trkpt>
      <trkpt lat="44.99547" lon="5.5427">
        <ele>1817.8</ele>
        <time>2017-12-03T10:10:26Z</time>
      </trkpt>
      <trkpt lat="44.99544" lon="5.5427">
        <ele>1819.6</ele>
        <time>2017-12-03T10:10:31Z</time>
      </trkpt>
      <trkpt lat="44.99541" lon="5.54269">
        <ele>1819.6</ele>
        <time>2017-12-03T10:10:36Z</time>
      </trkpt>
      <trkpt lat="44.99539" lon="5.54268">
        <ele>1817.6</ele>
        <time>2017-12-03T10:10:41Z</time>
      </trkpt>
      <trkpt lat="44.99536" lon="5.54266">
        <ele>1819.2</ele>
        <time>2017-12-03T10:10:46Z</time>
      </trkpt>
      <trkpt lat="44.99533" lon="5.54265">
        <ele>1820.8</ele>
        <time>2017-12-03T10:10:51Z</time>
      </trkpt>
      <trkpt lat="44.9953" lon="5.54265">
        <ele>1822.8</ele>
        <time>2017-12-03T10:10:56Z</time>
      </trkpt>
      <trkpt lat="44.99527" lon="5.54264">
        <ele>1821.8</ele>
        <time>2017-12-03T10:11:01Z</time>
      </trkpt>
      <trkpt lat="44.99524" lon="5.54263">
        <ele>1822.8</ele>
        <time>2017-12-03T10:11:06Z</time>
      </trkpt>
      <trkpt lat="44.99521" lon="5.54262">
        <ele>1822.6</ele>
        <time>2017-12-03T10:11:11Z</time>
      </trkpt>
      <trkpt lat="44.99518" lon="5.54261">
        <ele>1823.6</ele>
        <time>2017-12-03T10:11:16Z</time>
      </trkpt>
      <trkpt lat="44.99516" lon="5.5426">
        <ele>1823.8</ele>
        <time>2017-12-03T10:11:21Z</time>
      </trkpt>
      <trkpt lat="44.99513" lon="5.54258">
        <ele>1824.8</ele>
        <time>2017-12-03T10:11:26Z</time>
      </trkpt>
      <trkpt lat="44.99511" lon="5.54257">
        <ele>1825</ele>
        <time>2017-12-03T10:11:31Z</time>
      </trkpt>
      <trkpt lat="44.99509" lon="5.54256">
        <ele>1822.4</ele>
        <time>2017-12-03T10:11:36Z</time>
      </trkpt>
      <trkpt lat="44.99506" lon="5.54254">
        <ele>1825.6</ele>
        <time>2017-12-03T10:11:41Z</time>
      </trkpt>
      <trkpt lat="44.99504" lon="5.54252">
        <ele>1824.4</ele>
        <time>2017-12-03T10:11:46Z</time>
      </trkpt>
      <trkpt lat="44.99502" lon="5.5425">
        <ele>1823</ele>
        <time>2017-12-03T10:11:51Z</time>
      </trkpt>
      <trkpt lat="44.995" lon="5.54248">
        <ele>1826</ele>
        <time>2017-12-03T10:11:56Z</time>
      </trkpt>
      <trkpt lat="44.99498" lon="5.54246">
        <ele>1825.2</ele>
        <time>2017-12-03T10:12:01Z</time>
      </trkpt>
      <trkpt lat="44.99496" lon="5.54244">
        <ele>1828.2</ele>
        <time>2017-12-03T10:12:06Z</time>
      </trkpt>
      <trkpt lat="44.99494" lon="5.54243">
        <ele>1828.6</ele>
        <time>2017-12-03T10:12:11Z</time>
      </trkpt>
      <trkpt lat="44.99493" lon="5.5424">
        <ele>1829.6</ele>
        <time>2017-12-03T10:12:16Z</time>
      </trkpt>
      <trkpt lat="44.99491" lon="5.54238">
        <ele>1829</ele>
        <time>2017-12-03T10:12:21Z</time>
      </trkpt>
      <trkpt lat="44.9949" lon="5.54235">
        <ele>1834</ele>
        <time>2017-12-03T10:12:26Z</time>
      </trkpt>
      <trkpt lat="44.99488" lon="5.54233">
        <ele>1827</ele>
        <time>2017-12-03T10:12:32Z</time>
      </trkpt>
      <trkpt lat="44.99485" lon="5.54231">
        <ele>1829.6</ele>
        <time>2017-12-03T10:12:37Z</time>
      </trkpt>
      <trkpt lat="44.99483" lon="5.54229">
        <ele>1828.2</ele>
        <time>2017-12-03T10:12:42Z</time>
      </trkpt>
      <trkpt lat="44.99481" lon="5.54228">
        <ele>1831.4</ele>
        <time>2017-12-03T10:12:47Z</time>
      </trkpt>
      <trkpt lat="44.99478" lon="5.54227">
        <ele>1835</ele>
        <time>2017-12-03T10:12:52Z</time>
      </trkpt>
      <trkpt lat="44.99478" lon="5.54226">
        <ele>1833.8</ele>
        <time>2017-12-03T10:12:57Z</time>
      </trkpt>
      <trkpt lat="44.99476" lon="5.54225">
        <ele>1833.8</ele>
        <time>2017-12-03T10:13:02Z</time>
      </trkpt>
      <trkpt lat="44.99473" lon="5.54223">
        <ele>1835.2</ele>
        <time>2017-12-03T10:13:07Z</time>
      </trkpt>
      <trkpt lat="44.99471" lon="5.54222">
        <ele>1835</ele>
        <time>2017-12-03T10:13:12Z</time>
      </trkpt>
      <trkpt lat="44.9947" lon="5.5422">
        <ele>1834.8</ele>
        <time>2017-12-03T10:13:17Z</time>
      </trkpt>
      <trkpt lat="44.99468" lon="5.54218">
        <ele>1832.8</ele>
        <time>2017-12-03T10:13:22Z</time>
      </trkpt>
      <trkpt lat="44.99466" lon="5.54216">
        <ele>1835.4</ele>
        <time>2017-12-03T10:13:27Z</time>
      </trkpt>
      <trkpt lat="44.99465" lon="5.54214">
        <ele>1838</ele>
        <time>2017-12-03T10:13:32Z</time>
      </trkpt>
      <trkpt lat="44.99464" lon="5.54211">
        <ele>1835.4</ele>
        <time>2017-12-03T10:13:37Z</time>
      </trkpt>
      <trkpt lat="44.99463" lon="5.54208">
        <ele>1836.4</ele>
        <time>2017-12-03T10:13:42Z</time>
      </trkpt>
      <trkpt lat="44.99462" lon="5.54205">
        <ele>1835.2</ele>
        <time>2017-12-03T10:13:47Z</time>
      </trkpt>
      <trkpt lat="44.99461" lon="5.54207">
        <ele>1836.6</ele>
        <time>2017-12-03T10:13:52Z</time>
      </trkpt>
      <trkpt lat="44.99459" lon="5.54211">
        <ele>1837.6</ele>
        <time>2017-12-03T10:13:57Z</time>
      </trkpt>
      <trkpt lat="44.99457" lon="5.54214">
        <ele>1838</ele>
        <time>2017-12-03T10:14:02Z</time>
      </trkpt>
      <trkpt lat="44.99455" lon="5.54217">
        <ele>1840</ele>
        <time>2017-12-03T10:14:07Z</time>
      </trkpt>
      <trkpt lat="44.99454" lon="5.54219">
        <ele>1841.6</ele>
        <time>2017-12-03T10:14:12Z</time>
      </trkpt>
      <trkpt lat="44.99454" lon="5.54219">
        <ele>1841.2</ele>
        <time>2017-12-03T10:14:17Z</time>
      </trkpt>
      <trkpt lat="44.99454" lon="5.5422">
        <ele>1841.2</ele>
        <time>2017-12-03T10:14:22Z</time>
      </trkpt>
      <trkpt lat="44.99454" lon="5.5422">
        <ele>1840.8</ele>
        <time>2017-12-03T10:14:27Z</time>
      </trkpt>
      <trkpt lat="44.99454" lon="5.5422">
        <ele>1840.6</ele>
        <time>2017-12-03T10:14:32Z</time>
      </trkpt>
      <trkpt lat="44.99454" lon="5.5422">
        <ele>1840.2</ele>
        <time>2017-12-03T10:14:37Z</time>
      </trkpt>
      <trkpt lat="44.99454" lon="5.54221">
        <ele>1840</ele>
        <time>2017-12-03T10:14:42Z</time>
      </trkpt>
      <trkpt lat="44.99454" lon="5.54221">
        <ele>1839.8</ele>
        <time>2017-12-03T10:14:47Z</time>
      </trkpt>
      <trkpt lat="44.99454" lon="5.54221">
        <ele>1839.6</ele>
        <time>2017-12-03T10:14:52Z</time>
      </trkpt>
      <trkpt lat="44.99454" lon="5.54221">
        <ele>1839.6</ele>
        <time>2017-12-03T10:14:57Z</time>
      </trkpt>
      <trkpt lat="44.99454" lon="5.54221">
        <ele>1839.4</ele>
        <time>2017-12-03T10:15:02Z</time>
      </trkpt>
      <trkpt lat="44.99454" lon="5.54221">
        <ele>1839.4</ele>
        <time>2017-12-03T10:15:07Z</time>
      </trkpt>
      <trkpt lat="44.99454" lon="5.54221">
        <ele>1839.2</ele>
        <time>2017-12-03T10:15:12Z</time>
      </trkpt>
      <trkpt lat="44.99454" lon="5.54221">
        <ele>1841.8</ele>
        <time>2017-12-03T10:15:17Z</time>
      </trkpt>
      <trkpt lat="44.99454" lon="5.54221">
        <ele>1840.8</ele>
        <time>2017-12-03T10:15:22Z</time>
      </trkpt>
      <trkpt lat="44.99454" lon="5.54221">
        <ele>1840.2</ele>
        <time>2017-12-03T10:15:27Z</time>
      </trkpt>
      <trkpt lat="44.99454" lon="5.54221">
        <ele>1839.8</ele>
        <time>2017-12-03T10:15:32Z</time>
      </trkpt>
      <trkpt lat="44.99454" lon="5.54221">
        <ele>1839.4</ele>
        <time>2017-12-03T10:15:37Z</time>
      </trkpt>
      <trkpt lat="44.99454" lon="5.54221">
        <ele>1839.2</ele>
        <time>2017-12-03T10:15:42Z</time>
      </trkpt>
      <trkpt lat="44.99454" lon="5.54221">
        <ele>1839</ele>
        <time>2017-12-03T10:15:47Z</time>
      </trkpt>
      <trkpt lat="44.99454" lon="5.54221">
        <ele>1838.8</ele>
        <time>2017-12-03T10:15:52Z</time>
      </trkpt>
      <trkpt lat="44.99454" lon="5.54221">
        <ele>1838.6</ele>
        <time>2017-12-03T10:15:57Z</time>
      </trkpt>
      <trkpt lat="44.99454" lon="5.54222">
        <ele>1839</ele>
        <time>2017-12-03T10:16:02Z</time>
      </trkpt>
      <trkpt lat="44.99453" lon="5.54223">
        <ele>1836.2</ele>
        <time>2017-12-03T10:16:07Z</time>
      </trkpt>
      <trkpt lat="44.99452" lon="5.54225">
        <ele>1837.6</ele>
        <time>2017-12-03T10:16:12Z</time>
      </trkpt>
      <trkpt lat="44.99451" lon="5.54228">
        <ele>1837.8</ele>
        <time>2017-12-03T10:16:17Z</time>
      </trkpt>
      <trkpt lat="44.9945" lon="5.54232">
        <ele>1840.8</ele>
        <time>2017-12-03T10:16:22Z</time>
      </trkpt>
      <trkpt lat="44.99449" lon="5.54235">
        <ele>1839.8</ele>
        <time>2017-12-03T10:16:27Z</time>
      </trkpt>
      <trkpt lat="44.99449" lon="5.54238">
        <ele>1842.4</ele>
        <time>2017-12-03T10:16:32Z</time>
      </trkpt>
      <trkpt lat="44.99448" lon="5.54238">
        <ele>1844</ele>
        <time>2017-12-03T10:16:37Z</time>
      </trkpt>
      <trkpt lat="44.99447" lon="5.54234">
        <ele>1841.2</ele>
        <time>2017-12-03T10:16:42Z</time>
      </trkpt>
      <trkpt lat="44.99445" lon="5.54231">
        <ele>1842.8</ele>
        <time>2017-12-03T10:16:47Z</time>
      </trkpt>
      <trkpt lat="44.99444" lon="5.54229">
        <ele>1845.4</ele>
        <time>2017-12-03T10:16:52Z</time>
      </trkpt>
      <trkpt lat="44.99442" lon="5.54225">
        <ele>1844</ele>
        <time>2017-12-03T10:16:58Z</time>
      </trkpt>
      <trkpt lat="44.99441" lon="5.54225">
        <ele>1843</ele>
        <time>2017-12-03T10:17:03Z</time>
      </trkpt>
      <trkpt lat="44.9944" lon="5.54228">
        <ele>1846</ele>
        <time>2017-12-03T10:17:08Z</time>
      </trkpt>
      <trkpt lat="44.9944" lon="5.54231">
        <ele>1843.8</ele>
        <time>2017-12-03T10:17:13Z</time>
      </trkpt>
      <trkpt lat="44.9944" lon="5.54235">
        <ele>1847.8</ele>
        <time>2017-12-03T10:17:18Z</time>
      </trkpt>
      <trkpt lat="44.99439" lon="5.54238">
        <ele>1848.8</ele>
        <time>2017-12-03T10:17:23Z</time>
      </trkpt>
      <trkpt lat="44.99438" lon="5.54242">
        <ele>1852</ele>
        <time>2017-12-03T10:17:28Z</time>
      </trkpt>
      <trkpt lat="44.99437" lon="5.54242">
        <ele>1850</ele>
        <time>2017-12-03T10:17:33Z</time>
      </trkpt>
      <trkpt lat="44.99435" lon="5.54241">
        <ele>1853.4</ele>
        <time>2017-12-03T10:17:38Z</time>
      </trkpt>
      <trkpt lat="44.99434" lon="5.54239">
        <ele>1849.2</ele>
        <time>2017-12-03T10:17:43Z</time>
      </trkpt>
      <trkpt lat="44.99432" lon="5.54236">
        <ele>1851</ele>
        <time>2017-12-03T10:17:48Z</time>
      </trkpt>
      <trkpt lat="44.99431" lon="5.54234">
        <ele>1852.8</ele>
        <time>2017-12-03T10:17:53Z</time>
      </trkpt>
      <trkpt lat="44.9943" lon="5.54231">
        <ele>1849.8</ele>
        <time>2017-12-03T10:17:58Z</time>
      </trkpt>
      <trkpt lat="44.99429" lon="5.54228">
        <ele>1855</ele>
        <time>2017-12-03T10:18:03Z</time>
      </trkpt>
      <trkpt lat="44.99428" lon="5.54225">
        <ele>1855</ele>
        <time>2017-12-03T10:18:08Z</time>
      </trkpt>
      <trkpt lat="44.99428" lon="5.54222">
        <ele>1854.8</ele>
        <time>2017-12-03T10:18:13Z</time>
      </trkpt>
      <trkpt lat="44.99427" lon="5.54219">
        <ele>1858.6</ele>
        <time>2017-12-03T10:18:18Z</time>
      </trkpt>
      <trkpt lat="44.99427" lon="5.54218">
        <ele>1855.2</ele>
        <time>2017-12-03T10:18:23Z</time>
      </trkpt>
      <trkpt lat="44.99427" lon="5.54216">
        <ele>1855</ele>
        <time>2017-12-03T10:18:28Z</time>
      </trkpt>
      <trkpt lat="44.99427" lon="5.54214">
        <ele>1855</ele>
        <time>2017-12-03T10:18:33Z</time>
      </trkpt>
      <trkpt lat="44.99426" lon="5.54215">
        <ele>1857.6</ele>
        <time>2017-12-03T10:18:38Z</time>
      </trkpt>
      <trkpt lat="44.99425" lon="5.54217">
        <ele>1854.8</ele>
        <time>2017-12-03T10:18:43Z</time>
      </trkpt>
      <trkpt lat="44.99423" lon="5.54221">
        <ele>1856.6</ele>
        <time>2017-12-03T10:18:48Z</time>
      </trkpt>
      <trkpt lat="44.99421" lon="5.54224">
        <ele>1859.8</ele>
        <time>2017-12-03T10:18:53Z</time>
      </trkpt>
      <trkpt lat="44.9942" lon="5.54227">
        <ele>1859.2</ele>
        <time>2017-12-03T10:18:58Z</time>
      </trkpt>
      <trkpt lat="44.99419" lon="5.54231">
        <ele>1859.6</ele>
        <time>2017-12-03T10:19:03Z</time>
      </trkpt>
      <trkpt lat="44.99417" lon="5.54235">
        <ele>1862.4</ele>
        <time>2017-12-03T10:19:08Z</time>
      </trkpt>
      <trkpt lat="44.99416" lon="5.54238">
        <ele>1862</ele>
        <time>2017-12-03T10:19:13Z</time>
      </trkpt>
      <trkpt lat="44.99414" lon="5.54238">
        <ele>1861.6</ele>
        <time>2017-12-03T10:19:18Z</time>
      </trkpt>
      <trkpt lat="44.99412" lon="5.54239">
        <ele>1864.2</ele>
        <time>2017-12-03T10:19:23Z</time>
      </trkpt>
      <trkpt lat="44.99409" lon="5.54241">
        <ele>1865</ele>
        <time>2017-12-03T10:19:28Z</time>
      </trkpt>
      <trkpt lat="44.99407" lon="5.54243">
        <ele>1864.8</ele>
        <time>2017-12-03T10:19:33Z</time>
      </trkpt>
      <trkpt lat="44.99405" lon="5.54246">
        <ele>1863.4</ele>
        <time>2017-12-03T10:19:38Z</time>
      </trkpt>
      <trkpt lat="44.99404" lon="5.54248">
        <ele>1865</ele>
        <time>2017-12-03T10:19:43Z</time>
      </trkpt>
      <trkpt lat="44.99402" lon="5.54251">
        <ele>1864.2</ele>
        <time>2017-12-03T10:19:48Z</time>
      </trkpt>
      <trkpt lat="44.99401" lon="5.54253">
        <ele>1870.8</ele>
        <time>2017-12-03T10:19:53Z</time>
      </trkpt>
      <trkpt lat="44.994" lon="5.54253">
        <ele>1868.4</ele>
        <time>2017-12-03T10:19:58Z</time>
      </trkpt>
      <trkpt lat="44.99398" lon="5.54251">
        <ele>1867.4</ele>
        <time>2017-12-03T10:20:03Z</time>
      </trkpt>
      <trkpt lat="44.99396" lon="5.54248">
        <ele>1869.2</ele>
        <time>2017-12-03T10:20:08Z</time>
      </trkpt>
      <trkpt lat="44.99396" lon="5.54245">
        <ele>1870.6</ele>
        <time>2017-12-03T10:20:13Z</time>
      </trkpt>
      <trkpt lat="44.99394" lon="5.54244">
        <ele>1870.4</ele>
        <time>2017-12-03T10:20:18Z</time>
      </trkpt>
      <trkpt lat="44.99393" lon="5.54247">
        <ele>1872.2</ele>
        <time>2017-12-03T10:20:23Z</time>
      </trkpt>
      <trkpt lat="44.99391" lon="5.5425">
        <ele>1873</ele>
        <time>2017-12-03T10:20:28Z</time>
      </trkpt>
      <trkpt lat="44.9939" lon="5.54253">
        <ele>1873.2</ele>
        <time>2017-12-03T10:20:33Z</time>
      </trkpt>
      <trkpt lat="44.99389" lon="5.54256">
        <ele>1875</ele>
        <time>2017-12-03T10:20:38Z</time>
      </trkpt>
      <trkpt lat="44.99388" lon="5.54258">
        <ele>1873.4</ele>
        <time>2017-12-03T10:20:43Z</time>
      </trkpt>
      <trkpt lat="44.99386" lon="5.54258">
        <ele>1872.6</ele>
        <time>2017-12-03T10:20:48Z</time>
      </trkpt>
      <trkpt lat="44.99384" lon="5.54256">
        <ele>1876.8</ele>
        <time>2017-12-03T10:20:53Z</time>
      </trkpt>
      <trkpt lat="44.99382" lon="5.54254">
        <ele>1877.6</ele>
        <time>2017-12-03T10:20:58Z</time>
      </trkpt>
      <trkpt lat="44.99381" lon="5.54252">
        <ele>1882</ele>
        <time>2017-12-03T10:21:03Z</time>
      </trkpt>
      <trkpt lat="44.9938" lon="5.54249">
        <ele>1879</ele>
        <time>2017-12-03T10:21:08Z</time>
      </trkpt>
      <trkpt lat="44.99379" lon="5.54247">
        <ele>1880.8</ele>
        <time>2017-12-03T10:21:13Z</time>
      </trkpt>
      <trkpt lat="44.99377" lon="5.54247">
        <ele>1879.4</ele>
        <time>2017-12-03T10:21:18Z</time>
      </trkpt>
      <trkpt lat="44.99375" lon="5.54248">
        <ele>1878.8</ele>
        <time>2017-12-03T10:21:23Z</time>
      </trkpt>
      <trkpt lat="44.99373" lon="5.5425">
        <ele>1879.2</ele>
        <time>2017-12-03T10:21:28Z</time>
      </trkpt>
      <trkpt lat="44.9937" lon="5.54252">
        <ele>1880.4</ele>
        <time>2017-12-03T10:21:33Z</time>
      </trkpt>
      <trkpt lat="44.99368" lon="5.54254">
        <ele>1881.6</ele>
        <time>2017-12-03T10:21:38Z</time>
      </trkpt>
      <trkpt lat="44.99366" lon="5.54256">
        <ele>1882.6</ele>
        <time>2017-12-03T10:21:43Z</time>
      </trkpt>
      <trkpt lat="44.99364" lon="5.54258">
        <ele>1883.8</ele>
        <time>2017-12-03T10:21:48Z</time>
      </trkpt>
      <trkpt lat="44.99362" lon="5.54258">
        <ele>1880.8</ele>
        <time>2017-12-03T10:21:53Z</time>
      </trkpt>
      <trkpt lat="44.99361" lon="5.54256">
        <ele>1882.4</ele>
        <time>2017-12-03T10:21:58Z</time>
      </trkpt>
      <trkpt lat="44.99359" lon="5.54254">
        <ele>1884.4</ele>
        <time>2017-12-03T10:22:03Z</time>
      </trkpt>
      <trkpt lat="44.99357" lon="5.54253">
        <ele>1887.4</ele>
        <time>2017-12-03T10:22:08Z</time>
      </trkpt>
      <trkpt lat="44.99355" lon="5.54253">
        <ele>1885.4</ele>
        <time>2017-12-03T10:22:13Z</time>
      </trkpt>
      <trkpt lat="44.99353" lon="5.54254">
        <ele>1883.6</ele>
        <time>2017-12-03T10:22:18Z</time>
      </trkpt>
      <trkpt lat="44.99351" lon="5.54255">
        <ele>1887.8</ele>
        <time>2017-12-03T10:22:23Z</time>
      </trkpt>
      <trkpt lat="44.99349" lon="5.54256">
        <ele>1888.6</ele>
        <time>2017-12-03T10:22:28Z</time>
      </trkpt>
      <trkpt lat="44.99347" lon="5.54257">
        <ele>1890.4</ele>
        <time>2017-12-03T10:22:33Z</time>
      </trkpt>
      <trkpt lat="44.99345" lon="5.54257">
        <ele>1889</ele>
        <time>2017-12-03T10:22:38Z</time>
      </trkpt>
      <trkpt lat="44.99343" lon="5.54256">
        <ele>1892</ele>
        <time>2017-12-03T10:22:43Z</time>
      </trkpt>
      <trkpt lat="44.99341" lon="5.54253">
        <ele>1890.6</ele>
        <time>2017-12-03T10:22:48Z</time>
      </trkpt>
      <trkpt lat="44.99339" lon="5.54251">
        <ele>1891.4</ele>
        <time>2017-12-03T10:22:53Z</time>
      </trkpt>
      <trkpt lat="44.99336" lon="5.5425">
        <ele>1896.6</ele>
        <time>2017-12-03T10:22:58Z</time>
      </trkpt>
      <trkpt lat="44.99334" lon="5.54252">
        <ele>1894.4</ele>
        <time>2017-12-03T10:23:03Z</time>
      </trkpt>
      <trkpt lat="44.99332" lon="5.54254">
        <ele>1891.2</ele>
        <time>2017-12-03T10:23:08Z</time>
      </trkpt>
      <trkpt lat="44.9933" lon="5.54254">
        <ele>1893.8</ele>
        <time>2017-12-03T10:23:13Z</time>
      </trkpt>
      <trkpt lat="44.99328" lon="5.54252">
        <ele>1895.6</ele>
        <time>2017-12-03T10:23:18Z</time>
      </trkpt>
      <trkpt lat="44.99327" lon="5.54251">
        <ele>1897.8</ele>
        <time>2017-12-03T10:23:23Z</time>
      </trkpt>
      <trkpt lat="44.99324" lon="5.5425">
        <ele>1895.6</ele>
        <time>2017-12-03T10:23:28Z</time>
      </trkpt>
      <trkpt lat="44.99322" lon="5.5425">
        <ele>1896</ele>
        <time>2017-12-03T10:23:33Z</time>
      </trkpt>
      <trkpt lat="44.9932" lon="5.54249">
        <ele>1894.8</ele>
        <time>2017-12-03T10:23:38Z</time>
      </trkpt>
      <trkpt lat="44.99318" lon="5.54249">
        <ele>1897</ele>
        <time>2017-12-03T10:23:43Z</time>
      </trkpt>
      <trkpt lat="44.99315" lon="5.54248">
        <ele>1898.8</ele>
        <time>2017-12-03T10:23:48Z</time>
      </trkpt>
      <trkpt lat="44.99313" lon="5.54247">
        <ele>1903.2</ele>
        <time>2017-12-03T10:23:53Z</time>
      </trkpt>
      <trkpt lat="44.99311" lon="5.54245">
        <ele>1900.8</ele>
        <time>2017-12-03T10:23:58Z</time>
      </trkpt>
      <trkpt lat="44.9931" lon="5.54243">
        <ele>1902.6</ele>
        <time>2017-12-03T10:24:03Z</time>
      </trkpt>
      <trkpt lat="44.9931" lon="5.54243">
        <ele>1902.4</ele>
        <time>2017-12-03T10:24:08Z</time>
      </trkpt>
      <trkpt lat="44.9931" lon="5.5424">
        <ele>1901.2</ele>
        <time>2017-12-03T10:24:13Z</time>
      </trkpt>
      <trkpt lat="44.9931" lon="5.54237">
        <ele>1904.6</ele>
        <time>2017-12-03T10:24:18Z</time>
      </trkpt>
      <trkpt lat="44.9931" lon="5.54236">
        <ele>1902.6</ele>
        <time>2017-12-03T10:24:23Z</time>
      </trkpt>
      <trkpt lat="44.99309" lon="5.54236">
        <ele>1901.8</ele>
        <time>2017-12-03T10:24:28Z</time>
      </trkpt>
      <trkpt lat="44.99309" lon="5.54236">
        <ele>1902</ele>
        <time>2017-12-03T10:24:33Z</time>
      </trkpt>
      <trkpt lat="44.99309" lon="5.54236">
        <ele>1902.2</ele>
        <time>2017-12-03T10:24:38Z</time>
      </trkpt>
      <trkpt lat="44.99309" lon="5.54236">
        <ele>1902.4</ele>
        <time>2017-12-03T10:24:43Z</time>
      </trkpt>
      <trkpt lat="44.99309" lon="5.54236">
        <ele>1902.4</ele>
        <time>2017-12-03T10:24:48Z</time>
      </trkpt>
      <trkpt lat="44.99309" lon="5.54236">
        <ele>1902.4</ele>
        <time>2017-12-03T10:24:53Z</time>
      </trkpt>
      <trkpt lat="44.99309" lon="5.54236">
        <ele>1902.6</ele>
        <time>2017-12-03T10:24:58Z</time>
      </trkpt>
      <trkpt lat="44.99309" lon="5.54236">
        <ele>1902.6</ele>
        <time>2017-12-03T10:25:03Z</time>
      </trkpt>
      <trkpt lat="44.99309" lon="5.54236">
        <ele>1902.6</ele>
        <time>2017-12-03T10:25:08Z</time>
      </trkpt>
      <trkpt lat="44.99309" lon="5.54236">
        <ele>1902.6</ele>
        <time>2017-12-03T10:25:13Z</time>
      </trkpt>
      <trkpt lat="44.99309" lon="5.54236">
        <ele>1902.6</ele>
        <time>2017-12-03T10:25:18Z</time>
      </trkpt>
      <trkpt lat="44.99309" lon="5.54236">
        <ele>1902.6</ele>
        <time>2017-12-03T10:25:23Z</time>
      </trkpt>
      <trkpt lat="44.99309" lon="5.54236">
        <ele>1902.6</ele>
        <time>2017-12-03T10:25:28Z</time>
      </trkpt>
      <trkpt lat="44.99309" lon="5.54236">
        <ele>1902.6</ele>
        <time>2017-12-03T10:25:33Z</time>
      </trkpt>
      <trkpt lat="44.99309" lon="5.54236">
        <ele>1902.6</ele>
        <time>2017-12-03T10:25:38Z</time>
      </trkpt>
      <trkpt lat="44.99309" lon="5.54236">
        <ele>1902.6</ele>
        <time>2017-12-03T10:25:43Z</time>
      </trkpt>
      <trkpt lat="44.99309" lon="5.54236">
        <ele>1902.6</ele>
        <time>2017-12-03T10:25:48Z</time>
      </trkpt>
      <trkpt lat="44.99309" lon="5.54236">
        <ele>1902.6</ele>
        <time>2017-12-03T10:25:53Z</time>
      </trkpt>
      <trkpt lat="44.99309" lon="5.54236">
        <ele>1902.6</ele>
        <time>2017-12-03T10:25:58Z</time>
      </trkpt>
      <trkpt lat="44.99309" lon="5.54236">
        <ele>1902.6</ele>
        <time>2017-12-03T10:26:03Z</time>
      </trkpt>
      <trkpt lat="44.99309" lon="5.54236">
        <ele>1902.6</ele>
        <time>2017-12-03T10:26:08Z</time>
      </trkpt>
      <trkpt lat="44.99309" lon="5.54236">
        <ele>1902.6</ele>
        <time>2017-12-03T10:26:13Z</time>
      </trkpt>
      <trkpt lat="44.99309" lon="5.54236">
        <ele>1902.6</ele>
        <time>2017-12-03T10:26:18Z</time>
      </trkpt>
      <trkpt lat="44.99309" lon="5.54236">
        <ele>1902.4</ele>
        <time>2017-12-03T10:26:23Z</time>
      </trkpt>
      <trkpt lat="44.99309" lon="5.54236">
        <ele>1902.4</ele>
        <time>2017-12-03T10:26:28Z</time>
      </trkpt>
      <trkpt lat="44.99309" lon="5.54236">
        <ele>1902.4</ele>
        <time>2017-12-03T10:26:33Z</time>
      </trkpt>
      <trkpt lat="44.99309" lon="5.54236">
        <ele>1902.4</ele>
        <time>2017-12-03T10:26:38Z</time>
      </trkpt>
      <trkpt lat="44.99309" lon="5.54236">
        <ele>1902.4</ele>
        <time>2017-12-03T10:26:43Z</time>
      </trkpt>
      <trkpt lat="44.99309" lon="5.54236">
        <ele>1902.4</ele>
        <time>2017-12-03T10:26:48Z</time>
      </trkpt>
      <trkpt lat="44.99309" lon="5.54236">
        <ele>1902.4</ele>
        <time>2017-12-03T10:26:53Z</time>
      </trkpt>
      <trkpt lat="44.99309" lon="5.54236">
        <ele>1902.4</ele>
        <time>2017-12-03T10:26:58Z</time>
      </trkpt>
      <trkpt lat="44.99309" lon="5.54236">
        <ele>1902.4</ele>
        <time>2017-12-03T10:27:03Z</time>
      </trkpt>
      <trkpt lat="44.9931" lon="5.54236">
        <ele>1904.4</ele>
        <time>2017-12-03T10:27:08Z</time>
      </trkpt>
      <trkpt lat="44.9931" lon="5.54235">
        <ele>1903.8</ele>
        <time>2017-12-03T10:27:13Z</time>
      </trkpt>
      <trkpt lat="44.9931" lon="5.54236">
        <ele>1903.6</ele>
        <time>2017-12-03T10:27:18Z</time>
      </trkpt>
      <trkpt lat="44.9931" lon="5.54236">
        <ele>1903.4</ele>
        <time>2017-12-03T10:27:23Z</time>
      </trkpt>
      <trkpt lat="44.9931" lon="5.54236">
        <ele>1903.2</ele>
        <time>2017-12-03T10:27:28Z</time>
      </trkpt>
      <trkpt lat="44.9931" lon="5.54236">
        <ele>1903.2</ele>
        <time>2017-12-03T10:27:33Z</time>
      </trkpt>
      <trkpt lat="44.99309" lon="5.54233">
        <ele>1900.8</ele>
        <time>2017-12-03T10:27:38Z</time>
      </trkpt>
      <trkpt lat="44.99308" lon="5.54229">
        <ele>1903.4</ele>
        <time>2017-12-03T10:27:43Z</time>
      </trkpt>
      <trkpt lat="44.99307" lon="5.54225">
        <ele>1905</ele>
        <time>2017-12-03T10:27:48Z</time>
      </trkpt>
      <trkpt lat="44.99306" lon="5.54222">
        <ele>1904.4</ele>
        <time>2017-12-03T10:27:53Z</time>
      </trkpt>
      <trkpt lat="44.99305" lon="5.54219">
        <ele>1906.4</ele>
        <time>2017-12-03T10:27:58Z</time>
      </trkpt>
      <trkpt lat="44.99304" lon="5.54216">
        <ele>1907.4</ele>
        <time>2017-12-03T10:28:03Z</time>
      </trkpt>
      <trkpt lat="44.99302" lon="5.54217">
        <ele>1903.8</ele>
        <time>2017-12-03T10:28:08Z</time>
      </trkpt>
      <trkpt lat="44.99299" lon="5.54218">
        <ele>1907.8</ele>
        <time>2017-12-03T10:28:13Z</time>
      </trkpt>
      <trkpt lat="44.99297" lon="5.54218">
        <ele>1907</ele>
        <time>2017-12-03T10:28:18Z</time>
      </trkpt>
      <trkpt lat="44.99296" lon="5.54215">
        <ele>1907</ele>
        <time>2017-12-03T10:28:23Z</time>
      </trkpt>
      <trkpt lat="44.99296" lon="5.54211">
        <ele>1906</ele>
        <time>2017-12-03T10:28:28Z</time>
      </trkpt>
      <trkpt lat="44.99295" lon="5.54208">
        <ele>1909.2</ele>
        <time>2017-12-03T10:28:33Z</time>
      </trkpt>
      <trkpt lat="44.99294" lon="5.54205">
        <ele>1909.8</ele>
        <time>2017-12-03T10:28:38Z</time>
      </trkpt>
      <trkpt lat="44.99293" lon="5.54201">
        <ele>1913</ele>
        <time>2017-12-03T10:28:43Z</time>
      </trkpt>
      <trkpt lat="44.99292" lon="5.54199">
        <ele>1913.4</ele>
        <time>2017-12-03T10:28:48Z</time>
      </trkpt>
      <trkpt lat="44.9929" lon="5.54201">
        <ele>1915.8</ele>
        <time>2017-12-03T10:28:53Z</time>
      </trkpt>
      <trkpt lat="44.99288" lon="5.54202">
        <ele>1916.8</ele>
        <time>2017-12-03T10:28:58Z</time>
      </trkpt>
      <trkpt lat="44.99286" lon="5.54204">
        <ele>1917</ele>
        <time>2017-12-03T10:29:03Z</time>
      </trkpt>
      <trkpt lat="44.99284" lon="5.54205">
        <ele>1912.6</ele>
        <time>2017-12-03T10:29:08Z</time>
      </trkpt>
      <trkpt lat="44.99282" lon="5.54206">
        <ele>1915.8</ele>
        <time>2017-12-03T10:29:13Z</time>
      </trkpt>
      <trkpt lat="44.9928" lon="5.54206">
        <ele>1914.2</ele>
        <time>2017-12-03T10:29:18Z</time>
      </trkpt>
      <trkpt lat="44.99278" lon="5.54208">
        <ele>1922.4</ele>
        <time>2017-12-03T10:29:23Z</time>
      </trkpt>
      <trkpt lat="44.99276" lon="5.54208">
        <ele>1918.6</ele>
        <time>2017-12-03T10:29:28Z</time>
      </trkpt>
      <trkpt lat="44.99273" lon="5.54208">
        <ele>1918.6</ele>
        <time>2017-12-03T10:29:33Z</time>
      </trkpt>
      <trkpt lat="44.99271" lon="5.54209">
        <ele>1921.4</ele>
        <time>2017-12-03T10:29:38Z</time>
      </trkpt>
      <trkpt lat="44.99269" lon="5.54209">
        <ele>1920.8</ele>
        <time>2017-12-03T10:29:43Z</time>
      </trkpt>
      <trkpt lat="44.99267" lon="5.54209">
        <ele>1921.4</ele>
        <time>2017-12-03T10:29:48Z</time>
      </trkpt>
      <trkpt lat="44.99267" lon="5.54209">
        <ele>1921.6</ele>
        <time>2017-12-03T10:29:53Z</time>
      </trkpt>
      <trkpt lat="44.99267" lon="5.54209">
        <ele>1921.6</ele>
        <time>2017-12-03T10:29:58Z</time>
      </trkpt>
      <trkpt lat="44.99267" lon="5.54209">
        <ele>1921.8</ele>
        <time>2017-12-03T10:30:03Z</time>
      </trkpt>
      <trkpt lat="44.99267" lon="5.54209">
        <ele>1921.8</ele>
        <time>2017-12-03T10:30:08Z</time>
      </trkpt>
      <trkpt lat="44.99267" lon="5.54209">
        <ele>1921.8</ele>
        <time>2017-12-03T10:30:13Z</time>
      </trkpt>
      <trkpt lat="44.99266" lon="5.54209">
        <ele>1921.6</ele>
        <time>2017-12-03T10:30:18Z</time>
      </trkpt>
      <trkpt lat="44.99263" lon="5.54209">
        <ele>1925.2</ele>
        <time>2017-12-03T10:30:23Z</time>
      </trkpt>
      <trkpt lat="44.99261" lon="5.54209">
        <ele>1922.8</ele>
        <time>2017-12-03T10:30:28Z</time>
      </trkpt>
      <trkpt lat="44.99258" lon="5.54209">
        <ele>1925</ele>
        <time>2017-12-03T10:30:33Z</time>
      </trkpt>
      <trkpt lat="44.99256" lon="5.54209">
        <ele>1926.8</ele>
        <time>2017-12-03T10:30:38Z</time>
      </trkpt>
      <trkpt lat="44.99254" lon="5.54209">
        <ele>1928</ele>
        <time>2017-12-03T10:30:43Z</time>
      </trkpt>
      <trkpt lat="44.99252" lon="5.54208">
        <ele>1928.8</ele>
        <time>2017-12-03T10:30:48Z</time>
      </trkpt>
      <trkpt lat="44.99251" lon="5.54205">
        <ele>1928.6</ele>
        <time>2017-12-03T10:30:53Z</time>
      </trkpt>
      <trkpt lat="44.9925" lon="5.54201">
        <ele>1928</ele>
        <time>2017-12-03T10:30:58Z</time>
      </trkpt>
      <trkpt lat="44.99251" lon="5.54198">
        <ele>1927</ele>
        <time>2017-12-03T10:31:03Z</time>
      </trkpt>
      <trkpt lat="44.99251" lon="5.54194">
        <ele>1929.2</ele>
        <time>2017-12-03T10:31:08Z</time>
      </trkpt>
      <trkpt lat="44.99252" lon="5.5419">
        <ele>1929.6</ele>
        <time>2017-12-03T10:31:13Z</time>
      </trkpt>
      <trkpt lat="44.99252" lon="5.54186">
        <ele>1931.4</ele>
        <time>2017-12-03T10:31:18Z</time>
      </trkpt>
      <trkpt lat="44.99253" lon="5.54182">
        <ele>1934.8</ele>
        <time>2017-12-03T10:31:23Z</time>
      </trkpt>
      <trkpt lat="44.99253" lon="5.54179">
        <ele>1931.2</ele>
        <time>2017-12-03T10:31:28Z</time>
      </trkpt>
      <trkpt lat="44.99254" lon="5.54175">
        <ele>1930.4</ele>
        <time>2017-12-03T10:31:33Z</time>
      </trkpt>
      <trkpt lat="44.99254" lon="5.54171">
        <ele>1932</ele>
        <time>2017-12-03T10:31:38Z</time>
      </trkpt>
      <trkpt lat="44.99254" lon="5.54168">
        <ele>1932</ele>
        <time>2017-12-03T10:31:43Z</time>
      </trkpt>
      <trkpt lat="44.99253" lon="5.54165">
        <ele>1935</ele>
        <time>2017-12-03T10:31:48Z</time>
      </trkpt>
      <trkpt lat="44.99252" lon="5.54163">
        <ele>1935.4</ele>
        <time>2017-12-03T10:31:53Z</time>
      </trkpt>
      <trkpt lat="44.9925" lon="5.54163">
        <ele>1936.8</ele>
        <time>2017-12-03T10:31:58Z</time>
      </trkpt>
      <trkpt lat="44.99248" lon="5.54163">
        <ele>1935.8</ele>
        <time>2017-12-03T10:32:03Z</time>
      </trkpt>
      <trkpt lat="44.99246" lon="5.54163">
        <ele>1939.8</ele>
        <time>2017-12-03T10:32:08Z</time>
      </trkpt>
      <trkpt lat="44.99243" lon="5.54163">
        <ele>1939.6</ele>
        <time>2017-12-03T10:32:13Z</time>
      </trkpt>
      <trkpt lat="44.99241" lon="5.54163">
        <ele>1938</ele>
        <time>2017-12-03T10:32:18Z</time>
      </trkpt>
      <trkpt lat="44.99239" lon="5.54163">
        <ele>1940.8</ele>
        <time>2017-12-03T10:32:23Z</time>
      </trkpt>
      <trkpt lat="44.99237" lon="5.54163">
        <ele>1942.6</ele>
        <time>2017-12-03T10:32:28Z</time>
      </trkpt>
      <trkpt lat="44.99235" lon="5.54163">
        <ele>1939.4</ele>
        <time>2017-12-03T10:32:33Z</time>
      </trkpt>
      <trkpt lat="44.99232" lon="5.54163">
        <ele>1943.6</ele>
        <time>2017-12-03T10:32:38Z</time>
      </trkpt>
      <trkpt lat="44.9923" lon="5.54163">
        <ele>1942.2</ele>
        <time>2017-12-03T10:32:43Z</time>
      </trkpt>
      <trkpt lat="44.99227" lon="5.54163">
        <ele>1945</ele>
        <time>2017-12-03T10:32:48Z</time>
      </trkpt>
      <trkpt lat="44.99225" lon="5.54163">
        <ele>1948.4</ele>
        <time>2017-12-03T10:32:53Z</time>
      </trkpt>
      <trkpt lat="44.99223" lon="5.54164">
        <ele>1949</ele>
        <time>2017-12-03T10:32:58Z</time>
      </trkpt>
      <trkpt lat="44.99221" lon="5.54164">
        <ele>1949.4</ele>
        <time>2017-12-03T10:33:03Z</time>
      </trkpt>
      <trkpt lat="44.99219" lon="5.54165">
        <ele>1947.4</ele>
        <time>2017-12-03T10:33:08Z</time>
      </trkpt>
      <trkpt lat="44.99216" lon="5.54166">
        <ele>1947.8</ele>
        <time>2017-12-03T10:33:13Z</time>
      </trkpt>
      <trkpt lat="44.99214" lon="5.54166">
        <ele>1951.2</ele>
        <time>2017-12-03T10:33:18Z</time>
      </trkpt>
      <trkpt lat="44.99212" lon="5.54166">
        <ele>1955.2</ele>
        <time>2017-12-03T10:33:23Z</time>
      </trkpt>
      <trkpt lat="44.99212" lon="5.54166">
        <ele>1953.6</ele>
        <time>2017-12-03T10:33:28Z</time>
      </trkpt>
      <trkpt lat="44.99212" lon="5.54166">
        <ele>1952.6</ele>
        <time>2017-12-03T10:33:33Z</time>
      </trkpt>
      <trkpt lat="44.99212" lon="5.54166">
        <ele>1951.8</ele>
        <time>2017-12-03T10:33:38Z</time>
      </trkpt>
      <trkpt lat="44.99212" lon="5.54166">
        <ele>1951.2</ele>
        <time>2017-12-03T10:33:43Z</time>
      </trkpt>
      <trkpt lat="44.99212" lon="5.54166">
        <ele>1950.8</ele>
        <time>2017-12-03T10:33:48Z</time>
      </trkpt>
      <trkpt lat="44.99212" lon="5.54166">
        <ele>1950.4</ele>
        <time>2017-12-03T10:33:53Z</time>
      </trkpt>
      <trkpt lat="44.99212" lon="5.54166">
        <ele>1950.2</ele>
        <time>2017-12-03T10:33:58Z</time>
      </trkpt>
      <trkpt lat="44.99212" lon="5.54166">
        <ele>1950</ele>
        <time>2017-12-03T10:34:03Z</time>
      </trkpt>
      <trkpt lat="44.99211" lon="5.54165">
        <ele>1952.8</ele>
        <time>2017-12-03T10:34:08Z</time>
      </trkpt>
      <trkpt lat="44.9921" lon="5.54163">
        <ele>1952.4</ele>
        <time>2017-12-03T10:34:13Z</time>
      </trkpt>
      <trkpt lat="44.9921" lon="5.54159">
        <ele>1955.8</ele>
        <time>2017-12-03T10:34:18Z</time>
      </trkpt>
      <trkpt lat="44.9921" lon="5.54155">
        <ele>1954.8</ele>
        <time>2017-12-03T10:34:23Z</time>
      </trkpt>
      <trkpt lat="44.9921" lon="5.54151">
        <ele>1949.4</ele>
        <time>2017-12-03T10:34:28Z</time>
      </trkpt>
      <trkpt lat="44.99211" lon="5.54148">
        <ele>1952.8</ele>
        <time>2017-12-03T10:34:33Z</time>
      </trkpt>
      <trkpt lat="44.99212" lon="5.54143">
        <ele>1951.4</ele>
        <time>2017-12-03T10:34:38Z</time>
      </trkpt>
      <trkpt lat="44.99212" lon="5.54138">
        <ele>1952.2</ele>
        <time>2017-12-03T10:34:43Z</time>
      </trkpt>
      <trkpt lat="44.99212" lon="5.54134">
        <ele>1954.2</ele>
        <time>2017-12-03T10:34:48Z</time>
      </trkpt>
      <trkpt lat="44.99214" lon="5.54129">
        <ele>1954.8</ele>
        <time>2017-12-03T10:34:53Z</time>
      </trkpt>
      <trkpt lat="44.99215" lon="5.54126">
        <ele>1956.2</ele>
        <time>2017-12-03T10:34:58Z</time>
      </trkpt>
      <trkpt lat="44.99216" lon="5.54122">
        <ele>1954.6</ele>
        <time>2017-12-03T10:35:03Z</time>
      </trkpt>
      <trkpt lat="44.99217" lon="5.54119">
        <ele>1953</ele>
        <time>2017-12-03T10:35:08Z</time>
      </trkpt>
      <trkpt lat="44.99217" lon="5.54116">
        <ele>1954.6</ele>
        <time>2017-12-03T10:35:13Z</time>
      </trkpt>
      <trkpt lat="44.99218" lon="5.54113">
        <ele>1957.4</ele>
        <time>2017-12-03T10:35:18Z</time>
      </trkpt>
      <trkpt lat="44.99219" lon="5.5411">
        <ele>1957</ele>
        <time>2017-12-03T10:35:23Z</time>
      </trkpt>
      <trkpt lat="44.99218" lon="5.54108">
        <ele>1961.4</ele>
        <time>2017-12-03T10:35:28Z</time>
      </trkpt>
      <trkpt lat="44.99218" lon="5.54104">
        <ele>1961.8</ele>
        <time>2017-12-03T10:35:33Z</time>
      </trkpt>
      <trkpt lat="44.99217" lon="5.54101">
        <ele>1963.2</ele>
        <time>2017-12-03T10:35:38Z</time>
      </trkpt>
      <trkpt lat="44.99217" lon="5.54101">
        <ele>1962.6</ele>
        <time>2017-12-03T10:35:43Z</time>
      </trkpt>
      <trkpt lat="44.99217" lon="5.54101">
        <ele>1962.2</ele>
        <time>2017-12-03T10:35:48Z</time>
      </trkpt>
      <trkpt lat="44.99217" lon="5.54101">
        <ele>1962</ele>
        <time>2017-12-03T10:35:53Z</time>
      </trkpt>
      <trkpt lat="44.99217" lon="5.541">
        <ele>1961.8</ele>
        <time>2017-12-03T10:35:58Z</time>
      </trkpt>
      <trkpt lat="44.99217" lon="5.54097">
        <ele>1962</ele>
        <time>2017-12-03T10:36:03Z</time>
      </trkpt>
      <trkpt lat="44.99217" lon="5.54093">
        <ele>1963.4</ele>
        <time>2017-12-03T10:36:08Z</time>
      </trkpt>
      <trkpt lat="44.99216" lon="5.54091">
        <ele>1965.4</ele>
        <time>2017-12-03T10:36:13Z</time>
      </trkpt>
      <trkpt lat="44.99216" lon="5.54091">
        <ele>1964.8</ele>
        <time>2017-12-03T10:36:18Z</time>
      </trkpt>
      <trkpt lat="44.99216" lon="5.54091">
        <ele>1964.4</ele>
        <time>2017-12-03T10:36:23Z</time>
      </trkpt>
      <trkpt lat="44.99216" lon="5.54091">
        <ele>1964</ele>
        <time>2017-12-03T10:36:28Z</time>
      </trkpt>
      <trkpt lat="44.99216" lon="5.54091">
        <ele>1963.8</ele>
        <time>2017-12-03T10:36:33Z</time>
      </trkpt>
      <trkpt lat="44.99216" lon="5.54091">
        <ele>1963.6</ele>
        <time>2017-12-03T10:36:38Z</time>
      </trkpt>
      <trkpt lat="44.99216" lon="5.54091">
        <ele>1963.6</ele>
        <time>2017-12-03T10:36:43Z</time>
      </trkpt>
      <trkpt lat="44.99216" lon="5.5409">
        <ele>1963.6</ele>
        <time>2017-12-03T10:36:48Z</time>
      </trkpt>
      <trkpt lat="44.99216" lon="5.5409">
        <ele>1963.6</ele>
        <time>2017-12-03T10:36:53Z</time>
      </trkpt>
      <trkpt lat="44.99216" lon="5.5409">
        <ele>1963.6</ele>
        <time>2017-12-03T10:36:58Z</time>
      </trkpt>
      <trkpt lat="44.99216" lon="5.5409">
        <ele>1963.6</ele>
        <time>2017-12-03T10:37:03Z</time>
      </trkpt>
      <trkpt lat="44.99215" lon="5.54087">
        <ele>1962.4</ele>
        <time>2017-12-03T10:37:08Z</time>
      </trkpt>
      <trkpt lat="44.99215" lon="5.54082">
        <ele>1961.8</ele>
        <time>2017-12-03T10:37:13Z</time>
      </trkpt>
      <trkpt lat="44.99214" lon="5.54076">
        <ele>1963.6</ele>
        <time>2017-12-03T10:37:18Z</time>
      </trkpt>
      <trkpt lat="44.99212" lon="5.54073">
        <ele>1964.8</ele>
        <time>2017-12-03T10:37:23Z</time>
      </trkpt>
      <trkpt lat="44.9921" lon="5.5407">
        <ele>1964.2</ele>
        <time>2017-12-03T10:37:28Z</time>
      </trkpt>
      <trkpt lat="44.99209" lon="5.54067">
        <ele>1967.2</ele>
        <time>2017-12-03T10:37:33Z</time>
      </trkpt>
      <trkpt lat="44.99207" lon="5.54063">
        <ele>1971.4</ele>
        <time>2017-12-03T10:37:38Z</time>
      </trkpt>
      <trkpt lat="44.99206" lon="5.54059">
        <ele>1967.6</ele>
        <time>2017-12-03T10:37:43Z</time>
      </trkpt>
      <trkpt lat="44.99206" lon="5.54058">
        <ele>1970.8</ele>
        <time>2017-12-03T10:37:48Z</time>
      </trkpt>
      <trkpt lat="44.99204" lon="5.54055">
        <ele>1971.8</ele>
        <time>2017-12-03T10:37:53Z</time>
      </trkpt>
      <trkpt lat="44.99201" lon="5.54052">
        <ele>1969.4</ele>
        <time>2017-12-03T10:37:58Z</time>
      </trkpt>
      <trkpt lat="44.99199" lon="5.5405">
        <ele>1974.8</ele>
        <time>2017-12-03T10:38:03Z</time>
      </trkpt>
      <trkpt lat="44.99197" lon="5.54048">
        <ele>1975</ele>
        <time>2017-12-03T10:38:08Z</time>
      </trkpt>
      <trkpt lat="44.99194" lon="5.54047">
        <ele>1972</ele>
        <time>2017-12-03T10:38:13Z</time>
      </trkpt>
      <trkpt lat="44.99192" lon="5.54046">
        <ele>1975.6</ele>
        <time>2017-12-03T10:38:18Z</time>
      </trkpt>
      <trkpt lat="44.9919" lon="5.54044">
        <ele>1976.4</ele>
        <time>2017-12-03T10:38:23Z</time>
      </trkpt>
      <trkpt lat="44.99187" lon="5.54042">
        <ele>1977.6</ele>
        <time>2017-12-03T10:38:28Z</time>
      </trkpt>
      <trkpt lat="44.99185" lon="5.54041">
        <ele>1979.8</ele>
        <time>2017-12-03T10:38:33Z</time>
      </trkpt>
      <trkpt lat="44.99183" lon="5.54038">
        <ele>1979</ele>
        <time>2017-12-03T10:38:38Z</time>
      </trkpt>
      <trkpt lat="44.99181" lon="5.54036">
        <ele>1981.8</ele>
        <time>2017-12-03T10:38:43Z</time>
      </trkpt>
      <trkpt lat="44.99179" lon="5.54034">
        <ele>1983.8</ele>
        <time>2017-12-03T10:38:48Z</time>
      </trkpt>
      <trkpt lat="44.99177" lon="5.54031">
        <ele>1983.4</ele>
        <time>2017-12-03T10:38:53Z</time>
      </trkpt>
      <trkpt lat="44.99175" lon="5.54028">
        <ele>1984</ele>
        <time>2017-12-03T10:38:58Z</time>
      </trkpt>
      <trkpt lat="44.99174" lon="5.54025">
        <ele>1984.8</ele>
        <time>2017-12-03T10:39:03Z</time>
      </trkpt>
      <trkpt lat="44.99174" lon="5.54022">
        <ele>1986.8</ele>
        <time>2017-12-03T10:39:08Z</time>
      </trkpt>
      <trkpt lat="44.99172" lon="5.54019">
        <ele>1986.6</ele>
        <time>2017-12-03T10:39:13Z</time>
      </trkpt>
      <trkpt lat="44.99171" lon="5.54016">
        <ele>1988</ele>
        <time>2017-12-03T10:39:18Z</time>
      </trkpt>
      <trkpt lat="44.9917" lon="5.54013">
        <ele>1987.8</ele>
        <time>2017-12-03T10:39:23Z</time>
      </trkpt>
      <trkpt lat="44.99167" lon="5.54012">
        <ele>1992.8</ele>
        <time>2017-12-03T10:39:28Z</time>
      </trkpt>
      <trkpt lat="44.99165" lon="5.54011">
        <ele>1991.8</ele>
        <time>2017-12-03T10:39:33Z</time>
      </trkpt>
      <trkpt lat="44.99163" lon="5.54009">
        <ele>1995.6</ele>
        <time>2017-12-03T10:39:38Z</time>
      </trkpt>
      <trkpt lat="44.99161" lon="5.54006">
        <ele>1993.4</ele>
        <time>2017-12-03T10:39:43Z</time>
      </trkpt>
      <trkpt lat="44.99159" lon="5.54003">
        <ele>1989.8</ele>
        <time>2017-12-03T10:39:48Z</time>
      </trkpt>
      <trkpt lat="44.99157" lon="5.54">
        <ele>1992.4</ele>
        <time>2017-12-03T10:39:53Z</time>
      </trkpt>
      <trkpt lat="44.99155" lon="5.53997">
        <ele>1993.2</ele>
        <time>2017-12-03T10:39:58Z</time>
      </trkpt>
      <trkpt lat="44.99152" lon="5.53995">
        <ele>1991.6</ele>
        <time>2017-12-03T10:40:03Z</time>
      </trkpt>
      <trkpt lat="44.99151" lon="5.53992">
        <ele>1993</ele>
        <time>2017-12-03T10:40:08Z</time>
      </trkpt>
      <trkpt lat="44.99152" lon="5.53988">
        <ele>1990</ele>
        <time>2017-12-03T10:40:13Z</time>
      </trkpt>
      <trkpt lat="44.99155" lon="5.53985">
        <ele>1994.2</ele>
        <time>2017-12-03T10:40:18Z</time>
      </trkpt>
      <trkpt lat="44.99158" lon="5.53982">
        <ele>1993.4</ele>
        <time>2017-12-03T10:40:23Z</time>
      </trkpt>
      <trkpt lat="44.9916" lon="5.53981">
        <ele>1995.4</ele>
        <time>2017-12-03T10:40:28Z</time>
      </trkpt>
      <trkpt lat="44.99161" lon="5.53978">
        <ele>1995.2</ele>
        <time>2017-12-03T10:40:33Z</time>
      </trkpt>
      <trkpt lat="44.99163" lon="5.53976">
        <ele>1998.6</ele>
        <time>2017-12-03T10:40:38Z</time>
      </trkpt>
      <trkpt lat="44.99164" lon="5.53974">
        <ele>2000.8</ele>
        <time>2017-12-03T10:40:43Z</time>
      </trkpt>
      <trkpt lat="44.99165" lon="5.5397">
        <ele>2002.4</ele>
        <time>2017-12-03T10:40:48Z</time>
      </trkpt>
      <trkpt lat="44.99165" lon="5.53966">
        <ele>2002.2</ele>
        <time>2017-12-03T10:40:53Z</time>
      </trkpt>
      <trkpt lat="44.99165" lon="5.53962">
        <ele>2002.8</ele>
        <time>2017-12-03T10:40:58Z</time>
      </trkpt>
      <trkpt lat="44.99165" lon="5.53957">
        <ele>2000.6</ele>
        <time>2017-12-03T10:41:03Z</time>
      </trkpt>
      <trkpt lat="44.99165" lon="5.53951">
        <ele>1999.6</ele>
        <time>2017-12-03T10:41:08Z</time>
      </trkpt>
      <trkpt lat="44.99164" lon="5.53946">
        <ele>1999.8</ele>
        <time>2017-12-03T10:41:13Z</time>
      </trkpt>
      <trkpt lat="44.99163" lon="5.53943">
        <ele>2000.6</ele>
        <time>2017-12-03T10:41:18Z</time>
      </trkpt>
      <trkpt lat="44.99162" lon="5.5394">
        <ele>2002.4</ele>
        <time>2017-12-03T10:41:23Z</time>
      </trkpt>
      <trkpt lat="44.99163" lon="5.53936">
        <ele>1999.8</ele>
        <time>2017-12-03T10:41:28Z</time>
      </trkpt>
      <trkpt lat="44.99165" lon="5.53933">
        <ele>2002</ele>
        <time>2017-12-03T10:41:33Z</time>
      </trkpt>
      <trkpt lat="44.99167" lon="5.53931">
        <ele>2003.2</ele>
        <time>2017-12-03T10:41:38Z</time>
      </trkpt>
      <trkpt lat="44.9917" lon="5.53929">
        <ele>2003</ele>
        <time>2017-12-03T10:41:43Z</time>
      </trkpt>
      <trkpt lat="44.99171" lon="5.53925">
        <ele>2005.6</ele>
        <time>2017-12-03T10:41:48Z</time>
      </trkpt>
      <trkpt lat="44.99172" lon="5.53921">
        <ele>2002.8</ele>
        <time>2017-12-03T10:41:53Z</time>
      </trkpt>
      <trkpt lat="44.99174" lon="5.53918">
        <ele>2003.2</ele>
        <time>2017-12-03T10:41:58Z</time>
      </trkpt>
      <trkpt lat="44.99174" lon="5.53917">
        <ele>2004.6</ele>
        <time>2017-12-03T10:42:03Z</time>
      </trkpt>
      <trkpt lat="44.99174" lon="5.53917">
        <ele>2005.2</ele>
        <time>2017-12-03T10:42:08Z</time>
      </trkpt>
      <trkpt lat="44.99174" lon="5.53917">
        <ele>2005.4</ele>
        <time>2017-12-03T10:42:13Z</time>
      </trkpt>
      <trkpt lat="44.99174" lon="5.53917">
        <ele>2005.8</ele>
        <time>2017-12-03T10:42:18Z</time>
      </trkpt>
      <trkpt lat="44.99174" lon="5.53917">
        <ele>2006</ele>
        <time>2017-12-03T10:42:23Z</time>
      </trkpt>
      <trkpt lat="44.99174" lon="5.53917">
        <ele>2006</ele>
        <time>2017-12-03T10:42:28Z</time>
      </trkpt>
      <trkpt lat="44.99174" lon="5.53917">
        <ele>2006</ele>
        <time>2017-12-03T10:42:33Z</time>
      </trkpt>
      <trkpt lat="44.99174" lon="5.53917">
        <ele>2006.2</ele>
        <time>2017-12-03T10:42:38Z</time>
      </trkpt>
      <trkpt lat="44.99174" lon="5.53917">
        <ele>2006.2</ele>
        <time>2017-12-03T10:42:43Z</time>
      </trkpt>
      <trkpt lat="44.99175" lon="5.53914">
        <ele>2005.4</ele>
        <time>2017-12-03T10:42:48Z</time>
      </trkpt>
      <trkpt lat="44.99177" lon="5.5391">
        <ele>2006.8</ele>
        <time>2017-12-03T10:42:53Z</time>
      </trkpt>
      <trkpt lat="44.99178" lon="5.53907">
        <ele>2007.4</ele>
        <time>2017-12-03T10:42:58Z</time>
      </trkpt>
      <trkpt lat="44.99181" lon="5.53904">
        <ele>2009.8</ele>
        <time>2017-12-03T10:43:03Z</time>
      </trkpt>
      <trkpt lat="44.99183" lon="5.53902">
        <ele>2008.8</ele>
        <time>2017-12-03T10:43:08Z</time>
      </trkpt>
      <trkpt lat="44.99186" lon="5.53899">
        <ele>2011.2</ele>
        <time>2017-12-03T10:43:13Z</time>
      </trkpt>
      <trkpt lat="44.99188" lon="5.53897">
        <ele>2013.4</ele>
        <time>2017-12-03T10:43:18Z</time>
      </trkpt>
      <trkpt lat="44.9919" lon="5.53896">
        <ele>2012</ele>
        <time>2017-12-03T10:43:23Z</time>
      </trkpt>
      <trkpt lat="44.99194" lon="5.53895">
        <ele>2014.8</ele>
        <time>2017-12-03T10:43:28Z</time>
      </trkpt>
      <trkpt lat="44.99197" lon="5.53896">
        <ele>2012.4</ele>
        <time>2017-12-03T10:43:33Z</time>
      </trkpt>
      <trkpt lat="44.992" lon="5.53897">
        <ele>2012</ele>
        <time>2017-12-03T10:43:38Z</time>
      </trkpt>
      <trkpt lat="44.99204" lon="5.53897">
        <ele>2012.2</ele>
        <time>2017-12-03T10:43:43Z</time>
      </trkpt>
      <trkpt lat="44.99207" lon="5.53896">
        <ele>2012.6</ele>
        <time>2017-12-03T10:43:48Z</time>
      </trkpt>
      <trkpt lat="44.99209" lon="5.53894">
        <ele>2013</ele>
        <time>2017-12-03T10:43:53Z</time>
      </trkpt>
      <trkpt lat="44.99211" lon="5.53894">
        <ele>2013.8</ele>
        <time>2017-12-03T10:43:58Z</time>
      </trkpt>
      <trkpt lat="44.99214" lon="5.53896">
        <ele>2016</ele>
        <time>2017-12-03T10:44:03Z</time>
      </trkpt>
      <trkpt lat="44.99218" lon="5.53898">
        <ele>2015.8</ele>
        <time>2017-12-03T10:44:08Z</time>
      </trkpt>
      <trkpt lat="44.99221" lon="5.53899">
        <ele>2017.2</ele>
        <time>2017-12-03T10:44:13Z</time>
      </trkpt>
      <trkpt lat="44.99224" lon="5.53899">
        <ele>2015.2</ele>
        <time>2017-12-03T10:44:18Z</time>
      </trkpt>
      <trkpt lat="44.99226" lon="5.53899">
        <ele>2020.8</ele>
        <time>2017-12-03T10:44:23Z</time>
      </trkpt>
      <trkpt lat="44.99226" lon="5.53899">
        <ele>2019.6</ele>
        <time>2017-12-03T10:44:28Z</time>
      </trkpt>
      <trkpt lat="44.99229" lon="5.53898">
        <ele>2015.8</ele>
        <time>2017-12-03T10:44:33Z</time>
      </trkpt>
      <trkpt lat="44.99231" lon="5.53895">
        <ele>2017</ele>
        <time>2017-12-03T10:44:38Z</time>
      </trkpt>
      <trkpt lat="44.99233" lon="5.53893">
        <ele>2016.4</ele>
        <time>2017-12-03T10:44:43Z</time>
      </trkpt>
      <trkpt lat="44.99236" lon="5.53891">
        <ele>2020.2</ele>
        <time>2017-12-03T10:44:48Z</time>
      </trkpt>
      <trkpt lat="44.99237" lon="5.53887">
        <ele>2023.2</ele>
        <time>2017-12-03T10:44:53Z</time>
      </trkpt>
      <trkpt lat="44.99239" lon="5.53886">
        <ele>2021.8</ele>
        <time>2017-12-03T10:44:58Z</time>
      </trkpt>
      <trkpt lat="44.99241" lon="5.53885">
        <ele>2022.6</ele>
        <time>2017-12-03T10:45:03Z</time>
      </trkpt>
      <trkpt lat="44.99244" lon="5.53885">
        <ele>2018.8</ele>
        <time>2017-12-03T10:45:08Z</time>
      </trkpt>
      <trkpt lat="44.99247" lon="5.53888">
        <ele>2021.8</ele>
        <time>2017-12-03T10:45:13Z</time>
      </trkpt>
      <trkpt lat="44.99248" lon="5.53891">
        <ele>2023.2</ele>
        <time>2017-12-03T10:45:18Z</time>
      </trkpt>
      <trkpt lat="44.99251" lon="5.5389">
        <ele>2023</ele>
        <time>2017-12-03T10:45:23Z</time>
      </trkpt>
      <trkpt lat="44.99253" lon="5.53889">
        <ele>2024.6</ele>
        <time>2017-12-03T10:45:28Z</time>
      </trkpt>
      <trkpt lat="44.99255" lon="5.53887">
        <ele>2025.4</ele>
        <time>2017-12-03T10:45:33Z</time>
      </trkpt>
      <trkpt lat="44.99257" lon="5.53886">
        <ele>2027.6</ele>
        <time>2017-12-03T10:45:38Z</time>
      </trkpt>
      <trkpt lat="44.99259" lon="5.53885">
        <ele>2025.8</ele>
        <time>2017-12-03T10:45:43Z</time>
      </trkpt>
      <trkpt lat="44.9926" lon="5.53884">
        <ele>2026</ele>
        <time>2017-12-03T10:45:48Z</time>
      </trkpt>
      <trkpt lat="44.9926" lon="5.53884">
        <ele>2027.4</ele>
        <time>2017-12-03T10:45:53Z</time>
      </trkpt>
      <trkpt lat="44.99263" lon="5.53882">
        <ele>2028</ele>
        <time>2017-12-03T10:45:58Z</time>
      </trkpt>
      <trkpt lat="44.99265" lon="5.5388">
        <ele>2026.4</ele>
        <time>2017-12-03T10:46:03Z</time>
      </trkpt>
      <trkpt lat="44.99267" lon="5.53878">
        <ele>2026</ele>
        <time>2017-12-03T10:46:08Z</time>
      </trkpt>
      <trkpt lat="44.9927" lon="5.53877">
        <ele>2027.8</ele>
        <time>2017-12-03T10:46:13Z</time>
      </trkpt>
      <trkpt lat="44.99273" lon="5.53875">
        <ele>2029.8</ele>
        <time>2017-12-03T10:46:18Z</time>
      </trkpt>
      <trkpt lat="44.99274" lon="5.53874">
        <ele>2029.8</ele>
        <time>2017-12-03T10:46:23Z</time>
      </trkpt>
      <trkpt lat="44.99274" lon="5.53874">
        <ele>2030.2</ele>
        <time>2017-12-03T10:46:28Z</time>
      </trkpt>
      <trkpt lat="44.99274" lon="5.53874">
        <ele>2030.6</ele>
        <time>2017-12-03T10:46:33Z</time>
      </trkpt>
      <trkpt lat="44.99276" lon="5.53873">
        <ele>2032.6</ele>
        <time>2017-12-03T10:46:38Z</time>
      </trkpt>
      <trkpt lat="44.99279" lon="5.53871">
        <ele>2036.8</ele>
        <time>2017-12-03T10:46:43Z</time>
      </trkpt>
      <trkpt lat="44.99281" lon="5.53869">
        <ele>2035.2</ele>
        <time>2017-12-03T10:46:48Z</time>
      </trkpt>
      <trkpt lat="44.99283" lon="5.53866">
        <ele>2030.6</ele>
        <time>2017-12-03T10:46:53Z</time>
      </trkpt>
      <trkpt lat="44.99285" lon="5.53862">
        <ele>2024.2</ele>
        <time>2017-12-03T10:46:58Z</time>
      </trkpt>
      <trkpt lat="44.99287" lon="5.53861">
        <ele>2026</ele>
        <time>2017-12-03T10:47:03Z</time>
      </trkpt>
      <trkpt lat="44.99289" lon="5.53862">
        <ele>2024</ele>
        <time>2017-12-03T10:47:08Z</time>
      </trkpt>
      <trkpt lat="44.9929" lon="5.53861">
        <ele>2024.6</ele>
        <time>2017-12-03T10:47:13Z</time>
      </trkpt>
      <trkpt lat="44.99288" lon="5.53859">
        <ele>2026.8</ele>
        <time>2017-12-03T10:47:18Z</time>
      </trkpt>
      <trkpt lat="44.99286" lon="5.53857">
        <ele>2031.4</ele>
        <time>2017-12-03T10:47:23Z</time>
      </trkpt>
      <trkpt lat="44.99285" lon="5.53853">
        <ele>2031</ele>
        <time>2017-12-03T10:47:28Z</time>
      </trkpt>
      <trkpt lat="44.99287" lon="5.53851">
        <ele>2033.8</ele>
        <time>2017-12-03T10:47:33Z</time>
      </trkpt>
      <trkpt lat="44.9929" lon="5.53853">
        <ele>2037</ele>
        <time>2017-12-03T10:47:38Z</time>
      </trkpt>
      <trkpt lat="44.99293" lon="5.53855">
        <ele>2038</ele>
        <time>2017-12-03T10:47:43Z</time>
      </trkpt>
      <trkpt lat="44.99296" lon="5.53857">
        <ele>2038.8</ele>
        <time>2017-12-03T10:47:48Z</time>
      </trkpt>
      <trkpt lat="44.99299" lon="5.53857">
        <ele>2031.4</ele>
        <time>2017-12-03T10:47:53Z</time>
      </trkpt>
      <trkpt lat="44.99302" lon="5.53855">
        <ele>2031</ele>
        <time>2017-12-03T10:47:58Z</time>
      </trkpt>
      <trkpt lat="44.99305" lon="5.53852">
        <ele>2036</ele>
        <time>2017-12-03T10:48:03Z</time>
      </trkpt>
      <trkpt lat="44.99305" lon="5.53851">
        <ele>2032</ele>
        <time>2017-12-03T10:48:08Z</time>
      </trkpt>
      <trkpt lat="44.99304" lon="5.5385">
        <ele>2032</ele>
        <time>2017-12-03T10:48:13Z</time>
      </trkpt>
      <trkpt lat="44.99301" lon="5.53851">
        <ele>2028.4</ele>
        <time>2017-12-03T10:48:18Z</time>
      </trkpt>
      <trkpt lat="44.99302" lon="5.53851">
        <ele>2029.4</ele>
        <time>2017-12-03T10:48:23Z</time>
      </trkpt>
      <trkpt lat="44.99301" lon="5.5385">
        <ele>2030</ele>
        <time>2017-12-03T10:48:28Z</time>
      </trkpt>
      <trkpt lat="44.99301" lon="5.5385">
        <ele>2030.4</ele>
        <time>2017-12-03T10:48:33Z</time>
      </trkpt>
      <trkpt lat="44.99301" lon="5.5385">
        <ele>2030.6</ele>
        <time>2017-12-03T10:48:38Z</time>
      </trkpt>
      <trkpt lat="44.99301" lon="5.5385">
        <ele>2030.8</ele>
        <time>2017-12-03T10:48:43Z</time>
      </trkpt>
      <trkpt lat="44.99301" lon="5.5385">
        <ele>2031</ele>
        <time>2017-12-03T10:48:48Z</time>
      </trkpt>
      <trkpt lat="44.99301" lon="5.5385">
        <ele>2031.2</ele>
        <time>2017-12-03T10:48:53Z</time>
      </trkpt>
      <trkpt lat="44.99301" lon="5.5385">
        <ele>2031.2</ele>
        <time>2017-12-03T10:48:58Z</time>
      </trkpt>
      <trkpt lat="44.99301" lon="5.5385">
        <ele>2031.2</ele>
        <time>2017-12-03T10:49:03Z</time>
      </trkpt>
      <trkpt lat="44.993" lon="5.5385">
        <ele>2028</ele>
        <time>2017-12-03T10:49:08Z</time>
      </trkpt>
      <trkpt lat="44.99297" lon="5.53849">
        <ele>2034.4</ele>
        <time>2017-12-03T10:49:13Z</time>
      </trkpt>
      <trkpt lat="44.99293" lon="5.53846">
        <ele>2031.8</ele>
        <time>2017-12-03T10:49:18Z</time>
      </trkpt>
      <trkpt lat="44.99288" lon="5.53843">
        <ele>2031.6</ele>
        <time>2017-12-03T10:49:23Z</time>
      </trkpt>
      <trkpt lat="44.99284" lon="5.53843">
        <ele>2027</ele>
        <time>2017-12-03T10:49:28Z</time>
      </trkpt>
      <trkpt lat="44.99283" lon="5.53845">
        <ele>2028.4</ele>
        <time>2017-12-03T10:49:33Z</time>
      </trkpt>
      <trkpt lat="44.99282" lon="5.5385">
        <ele>2029</ele>
        <time>2017-12-03T10:49:38Z</time>
      </trkpt>
      <trkpt lat="44.99283" lon="5.53856">
        <ele>2029.2</ele>
        <time>2017-12-03T10:49:43Z</time>
      </trkpt>
      <trkpt lat="44.99278" lon="5.53856">
        <ele>2024.4</ele>
        <time>2017-12-03T10:49:48Z</time>
      </trkpt>
      <trkpt lat="44.99269" lon="5.53856">
        <ele>2021</ele>
        <time>2017-12-03T10:49:53Z</time>
      </trkpt>
      <trkpt lat="44.99266" lon="5.53857">
        <ele>2022.8</ele>
        <time>2017-12-03T10:49:58Z</time>
      </trkpt>
      <trkpt lat="44.99265" lon="5.53858">
        <ele>2022.2</ele>
        <time>2017-12-03T10:50:03Z</time>
      </trkpt>
      <trkpt lat="44.99265" lon="5.53858">
        <ele>2024.4</ele>
        <time>2017-12-03T10:50:08Z</time>
      </trkpt>
      <trkpt lat="44.99265" lon="5.53858">
        <ele>2024.8</ele>
        <time>2017-12-03T10:50:13Z</time>
      </trkpt>
      <trkpt lat="44.99265" lon="5.53858">
        <ele>2025</ele>
        <time>2017-12-03T10:50:18Z</time>
      </trkpt>
      <trkpt lat="44.99265" lon="5.53858">
        <ele>2025.2</ele>
        <time>2017-12-03T10:50:23Z</time>
      </trkpt>
      <trkpt lat="44.99265" lon="5.53858">
        <ele>2026.6</ele>
        <time>2017-12-03T10:50:28Z</time>
      </trkpt>
      <trkpt lat="44.99265" lon="5.53858">
        <ele>2026.2</ele>
        <time>2017-12-03T10:50:33Z</time>
      </trkpt>
      <trkpt lat="44.99265" lon="5.53858">
        <ele>2026</ele>
        <time>2017-12-03T10:50:38Z</time>
      </trkpt>
      <trkpt lat="44.99265" lon="5.53858">
        <ele>2025</ele>
        <time>2017-12-03T10:50:43Z</time>
      </trkpt>
      <trkpt lat="44.99265" lon="5.53858">
        <ele>2025</ele>
        <time>2017-12-03T10:50:48Z</time>
      </trkpt>
      <trkpt lat="44.99265" lon="5.53858">
        <ele>2025.2</ele>
        <time>2017-12-03T10:50:53Z</time>
      </trkpt>
      <trkpt lat="44.99265" lon="5.53858">
        <ele>2025.2</ele>
        <time>2017-12-03T10:50:58Z</time>
      </trkpt>
      <trkpt lat="44.99265" lon="5.53858">
        <ele>2025.2</ele>
        <time>2017-12-03T10:51:03Z</time>
      </trkpt>
      <trkpt lat="44.99265" lon="5.53858">
        <ele>2025.2</ele>
        <time>2017-12-03T10:51:08Z</time>
      </trkpt>
      <trkpt lat="44.99265" lon="5.53858">
        <ele>2025.4</ele>
        <time>2017-12-03T10:51:13Z</time>
      </trkpt>
      <trkpt lat="44.99265" lon="5.53858">
        <ele>2025.4</ele>
        <time>2017-12-03T10:51:18Z</time>
      </trkpt>
      <trkpt lat="44.99265" lon="5.53858">
        <ele>2025.4</ele>
        <time>2017-12-03T10:51:23Z</time>
      </trkpt>
      <trkpt lat="44.99265" lon="5.53858">
        <ele>2025.4</ele>
        <time>2017-12-03T10:51:28Z</time>
      </trkpt>
      <trkpt lat="44.99265" lon="5.53858">
        <ele>2025.4</ele>
        <time>2017-12-03T10:51:33Z</time>
      </trkpt>
      <trkpt lat="44.99265" lon="5.53858">
        <ele>2025.4</ele>
        <time>2017-12-03T10:51:38Z</time>
      </trkpt>
      <trkpt lat="44.99265" lon="5.53858">
        <ele>2025.4</ele>
        <time>2017-12-03T10:51:43Z</time>
      </trkpt>
      <trkpt lat="44.99265" lon="5.53858">
        <ele>2025.4</ele>
        <time>2017-12-03T10:51:48Z</time>
      </trkpt>
      <trkpt lat="44.99265" lon="5.53858">
        <ele>2025.4</ele>
        <time>2017-12-03T10:51:53Z</time>
      </trkpt>
      <trkpt lat="44.99265" lon="5.53858">
        <ele>2025.4</ele>
        <time>2017-12-03T10:51:58Z</time>
      </trkpt>
      <trkpt lat="44.99265" lon="5.53858">
        <ele>2025.4</ele>
        <time>2017-12-03T10:52:03Z</time>
      </trkpt>
      <trkpt lat="44.99265" lon="5.53859">
        <ele>2025.4</ele>
        <time>2017-12-03T10:52:08Z</time>
      </trkpt>
      <trkpt lat="44.99265" lon="5.53859">
        <ele>2025.4</ele>
        <time>2017-12-03T10:52:13Z</time>
      </trkpt>
      <trkpt lat="44.99265" lon="5.53859">
        <ele>2025.4</ele>
        <time>2017-12-03T10:52:18Z</time>
      </trkpt>
      <trkpt lat="44.99265" lon="5.53859">
        <ele>2025.4</ele>
        <time>2017-12-03T10:52:23Z</time>
      </trkpt>
      <trkpt lat="44.99265" lon="5.53859">
        <ele>2025.4</ele>
        <time>2017-12-03T10:52:28Z</time>
      </trkpt>
      <trkpt lat="44.99265" lon="5.53859">
        <ele>2025.4</ele>
        <time>2017-12-03T10:52:33Z</time>
      </trkpt>
      <trkpt lat="44.99265" lon="5.53859">
        <ele>2025.4</ele>
        <time>2017-12-03T10:52:38Z</time>
      </trkpt>
      <trkpt lat="44.99265" lon="5.53859">
        <ele>2025.4</ele>
        <time>2017-12-03T10:52:43Z</time>
      </trkpt>
      <trkpt lat="44.99265" lon="5.53859">
        <ele>2025.4</ele>
        <time>2017-12-03T10:52:48Z</time>
      </trkpt>
      <trkpt lat="44.99265" lon="5.53859">
        <ele>2025.4</ele>
        <time>2017-12-03T10:52:53Z</time>
      </trkpt>
      <trkpt lat="44.99265" lon="5.53859">
        <ele>2025.4</ele>
        <time>2017-12-03T10:52:58Z</time>
      </trkpt>
      <trkpt lat="44.99265" lon="5.53859">
        <ele>2025.4</ele>
        <time>2017-12-03T10:53:03Z</time>
      </trkpt>
      <trkpt lat="44.99265" lon="5.53859">
        <ele>2025.4</ele>
        <time>2017-12-03T10:53:08Z</time>
      </trkpt>
      <trkpt lat="44.99265" lon="5.53859">
        <ele>2025.4</ele>
        <time>2017-12-03T10:53:13Z</time>
      </trkpt>
      <trkpt lat="44.99265" lon="5.53859">
        <ele>2025.4</ele>
        <time>2017-12-03T10:53:18Z</time>
      </trkpt>
      <trkpt lat="44.99265" lon="5.53859">
        <ele>2025.4</ele>
        <time>2017-12-03T10:53:23Z</time>
      </trkpt>
      <trkpt lat="44.99265" lon="5.53859">
        <ele>2025.4</ele>
        <time>2017-12-03T10:53:28Z</time>
      </trkpt>
      <trkpt lat="44.99265" lon="5.53858">
        <ele>2025.4</ele>
        <time>2017-12-03T10:53:33Z</time>
      </trkpt>
      <trkpt lat="44.99265" lon="5.53859">
        <ele>2025.4</ele>
        <time>2017-12-03T10:53:38Z</time>
      </trkpt>
      <trkpt lat="44.99265" lon="5.53859">
        <ele>2025.4</ele>
        <time>2017-12-03T10:53:43Z</time>
      </trkpt>
      <trkpt lat="44.99265" lon="5.53859">
        <ele>2025.4</ele>
        <time>2017-12-03T10:53:48Z</time>
      </trkpt>
      <trkpt lat="44.99265" lon="5.53859">
        <ele>2025.4</ele>
        <time>2017-12-03T10:53:53Z</time>
      </trkpt>
      <trkpt lat="44.99265" lon="5.53859">
        <ele>2025.4</ele>
        <time>2017-12-03T10:53:58Z</time>
      </trkpt>
      <trkpt lat="44.99265" lon="5.53859">
        <ele>2025.4</ele>
        <time>2017-12-03T10:54:03Z</time>
      </trkpt>
      <trkpt lat="44.99265" lon="5.53859">
        <ele>2025.4</ele>
        <time>2017-12-03T10:54:08Z</time>
      </trkpt>
      <trkpt lat="44.99265" lon="5.53859">
        <ele>2025.4</ele>
        <time>2017-12-03T10:54:13Z</time>
      </trkpt>
      <trkpt lat="44.99265" lon="5.53859">
        <ele>2025.4</ele>
        <time>2017-12-03T10:54:18Z</time>
      </trkpt>
      <trkpt lat="44.99265" lon="5.53859">
        <ele>2025.4</ele>
        <time>2017-12-03T10:54:23Z</time>
      </trkpt>
      <trkpt lat="44.99265" lon="5.53859">
        <ele>2025.4</ele>
        <time>2017-12-03T10:54:28Z</time>
      </trkpt>
      <trkpt lat="44.99265" lon="5.53859">
        <ele>2025.4</ele>
        <time>2017-12-03T10:54:33Z</time>
      </trkpt>
      <trkpt lat="44.99265" lon="5.53859">
        <ele>2025.4</ele>
        <time>2017-12-03T10:54:38Z</time>
      </trkpt>
      <trkpt lat="44.99265" lon="5.53859">
        <ele>2025.4</ele>
        <time>2017-12-03T10:54:43Z</time>
      </trkpt>
      <trkpt lat="44.99265" lon="5.53859">
        <ele>2025.4</ele>
        <time>2017-12-03T10:54:48Z</time>
      </trkpt>
      <trkpt lat="44.99265" lon="5.53859">
        <ele>2025.4</ele>
        <time>2017-12-03T10:54:53Z</time>
      </trkpt>
      <trkpt lat="44.99265" lon="5.53859">
        <ele>2025.4</ele>
        <time>2017-12-03T10:54:58Z</time>
      </trkpt>
      <trkpt lat="44.99265" lon="5.53859">
        <ele>2025.4</ele>
        <time>2017-12-03T10:55:03Z</time>
      </trkpt>
      <trkpt lat="44.99265" lon="5.53859">
        <ele>2025.4</ele>
        <time>2017-12-03T10:55:08Z</time>
      </trkpt>
      <trkpt lat="44.99265" lon="5.53859">
        <ele>2025.4</ele>
        <time>2017-12-03T10:55:13Z</time>
      </trkpt>
      <trkpt lat="44.99265" lon="5.53859">
        <ele>2025.4</ele>
        <time>2017-12-03T10:55:18Z</time>
      </trkpt>
      <trkpt lat="44.99265" lon="5.53859">
        <ele>2025.4</ele>
        <time>2017-12-03T10:55:23Z</time>
      </trkpt>
      <trkpt lat="44.99265" lon="5.53859">
        <ele>2025.4</ele>
        <time>2017-12-03T10:55:28Z</time>
      </trkpt>
      <trkpt lat="44.99265" lon="5.53859">
        <ele>2025.4</ele>
        <time>2017-12-03T10:55:33Z</time>
      </trkpt>
      <trkpt lat="44.99265" lon="5.53859">
        <ele>2025.4</ele>
        <time>2017-12-03T10:55:38Z</time>
      </trkpt>
      <trkpt lat="44.99265" lon="5.53859">
        <ele>2025.4</ele>
        <time>2017-12-03T10:55:43Z</time>
      </trkpt>
      <trkpt lat="44.99265" lon="5.53859">
        <ele>2025.4</ele>
        <time>2017-12-03T10:55:48Z</time>
      </trkpt>
      <trkpt lat="44.99265" lon="5.53858">
        <ele>2029.2</ele>
        <time>2017-12-03T10:55:53Z</time>
      </trkpt>
      <trkpt lat="44.99265" lon="5.53858">
        <ele>2028.2</ele>
        <time>2017-12-03T10:55:58Z</time>
      </trkpt>
      <trkpt lat="44.99265" lon="5.53858">
        <ele>2027.2</ele>
        <time>2017-12-03T10:56:03Z</time>
      </trkpt>
      <trkpt lat="44.99265" lon="5.53858">
        <ele>2026.8</ele>
        <time>2017-12-03T10:56:08Z</time>
      </trkpt>
      <trkpt lat="44.99265" lon="5.53858">
        <ele>2026.4</ele>
        <time>2017-12-03T10:56:13Z</time>
      </trkpt>
      <trkpt lat="44.99265" lon="5.53858">
        <ele>2026</ele>
        <time>2017-12-03T10:56:18Z</time>
      </trkpt>
      <trkpt lat="44.99265" lon="5.53858">
        <ele>2025.8</ele>
        <time>2017-12-03T10:56:23Z</time>
      </trkpt>
      <trkpt lat="44.99265" lon="5.53858">
        <ele>2025.6</ele>
        <time>2017-12-03T10:56:28Z</time>
      </trkpt>
      <trkpt lat="44.99265" lon="5.53858">
        <ele>2025.6</ele>
        <time>2017-12-03T10:56:33Z</time>
      </trkpt>
      <trkpt lat="44.99266" lon="5.53858">
        <ele>2023.6</ele>
        <time>2017-12-03T10:56:38Z</time>
      </trkpt>
      <trkpt lat="44.99266" lon="5.53858">
        <ele>2024.2</ele>
        <time>2017-12-03T10:56:43Z</time>
      </trkpt>
      <trkpt lat="44.99266" lon="5.53859">
        <ele>2025</ele>
        <time>2017-12-03T10:56:48Z</time>
      </trkpt>
      <trkpt lat="44.99266" lon="5.53859">
        <ele>2025.4</ele>
        <time>2017-12-03T10:56:53Z</time>
      </trkpt>
      <trkpt lat="44.99266" lon="5.53859">
        <ele>2025.8</ele>
        <time>2017-12-03T10:56:58Z</time>
      </trkpt>
      <trkpt lat="44.99266" lon="5.53859">
        <ele>2026.4</ele>
        <time>2017-12-03T10:57:03Z</time>
      </trkpt>
      <trkpt lat="44.99266" lon="5.53859">
        <ele>2026.4</ele>
        <time>2017-12-03T10:57:08Z</time>
      </trkpt>
      <trkpt lat="44.99266" lon="5.53859">
        <ele>2026.6</ele>
        <time>2017-12-03T10:57:13Z</time>
      </trkpt>
      <trkpt lat="44.99266" lon="5.53859">
        <ele>2026.6</ele>
        <time>2017-12-03T10:57:18Z</time>
      </trkpt>
      <trkpt lat="44.99266" lon="5.53859">
        <ele>2026.6</ele>
        <time>2017-12-03T10:57:23Z</time>
      </trkpt>
      <trkpt lat="44.99266" lon="5.53859">
        <ele>2026.6</ele>
        <time>2017-12-03T10:57:28Z</time>
      </trkpt>
      <trkpt lat="44.99266" lon="5.53859">
        <ele>2026.6</ele>
        <time>2017-12-03T10:57:33Z</time>
      </trkpt>
      <trkpt lat="44.99266" lon="5.53859">
        <ele>2026.6</ele>
        <time>2017-12-03T10:57:38Z</time>
      </trkpt>
      <trkpt lat="44.99266" lon="5.53859">
        <ele>2026.6</ele>
        <time>2017-12-03T10:57:43Z</time>
      </trkpt>
      <trkpt lat="44.99266" lon="5.53859">
        <ele>2026.8</ele>
        <time>2017-12-03T10:57:48Z</time>
      </trkpt>
      <trkpt lat="44.99266" lon="5.53859">
        <ele>2026.8</ele>
        <time>2017-12-03T10:57:53Z</time>
      </trkpt>
      <trkpt lat="44.99266" lon="5.53859">
        <ele>2026.8</ele>
        <time>2017-12-03T10:57:58Z</time>
      </trkpt>
      <trkpt lat="44.99266" lon="5.5386">
        <ele>2026.8</ele>
        <time>2017-12-03T10:58:03Z</time>
      </trkpt>
      <trkpt lat="44.99264" lon="5.53865">
        <ele>2024.2</ele>
        <time>2017-12-03T10:58:08Z</time>
      </trkpt>
      <trkpt lat="44.99263" lon="5.53867">
        <ele>2026.4</ele>
        <time>2017-12-03T10:58:13Z</time>
      </trkpt>
      <trkpt lat="44.99263" lon="5.53868">
        <ele>2026.4</ele>
        <time>2017-12-03T10:58:18Z</time>
      </trkpt>
      <trkpt lat="44.99263" lon="5.53868">
        <ele>2026.2</ele>
        <time>2017-12-03T10:58:23Z</time>
      </trkpt>
      <trkpt lat="44.99263" lon="5.53867">
        <ele>2027.2</ele>
        <time>2017-12-03T10:58:28Z</time>
      </trkpt>
      <trkpt lat="44.99263" lon="5.53868">
        <ele>2027</ele>
        <time>2017-12-03T10:58:33Z</time>
      </trkpt>
      <trkpt lat="44.99261" lon="5.53874">
        <ele>2025</ele>
        <time>2017-12-03T10:58:38Z</time>
      </trkpt>
      <trkpt lat="44.99258" lon="5.53879">
        <ele>2029.6</ele>
        <time>2017-12-03T10:58:43Z</time>
      </trkpt>
      <trkpt lat="44.99256" lon="5.53885">
        <ele>2031.6</ele>
        <time>2017-12-03T10:58:48Z</time>
      </trkpt>
      <trkpt lat="44.99251" lon="5.53891">
        <ele>2024</ele>
        <time>2017-12-03T10:58:53Z</time>
      </trkpt>
      <trkpt lat="44.99251" lon="5.53901">
        <ele>2017.6</ele>
        <time>2017-12-03T10:58:58Z</time>
      </trkpt>
      <trkpt lat="44.99251" lon="5.53901">
        <ele>2018.4</ele>
        <time>2017-12-03T10:59:03Z</time>
      </trkpt>
      <trkpt lat="44.9925" lon="5.53903">
        <ele>2016.2</ele>
        <time>2017-12-03T10:59:08Z</time>
      </trkpt>
      <trkpt lat="44.99251" lon="5.53911">
        <ele>2019.2</ele>
        <time>2017-12-03T10:59:13Z</time>
      </trkpt>
      <trkpt lat="44.99251" lon="5.53912">
        <ele>2018.8</ele>
        <time>2017-12-03T10:59:18Z</time>
      </trkpt>
      <trkpt lat="44.99251" lon="5.53912">
        <ele>2018.2</ele>
        <time>2017-12-03T10:59:23Z</time>
      </trkpt>
      <trkpt lat="44.99248" lon="5.53913">
        <ele>2018.6</ele>
        <time>2017-12-03T10:59:28Z</time>
      </trkpt>
      <trkpt lat="44.99247" lon="5.53913">
        <ele>2014.4</ele>
        <time>2017-12-03T10:59:33Z</time>
      </trkpt>
      <trkpt lat="44.99247" lon="5.5392">
        <ele>2014.6</ele>
        <time>2017-12-03T10:59:38Z</time>
      </trkpt>
      <trkpt lat="44.99243" lon="5.53926">
        <ele>2011.2</ele>
        <time>2017-12-03T10:59:43Z</time>
      </trkpt>
      <trkpt lat="44.99245" lon="5.53935">
        <ele>2008.6</ele>
        <time>2017-12-03T10:59:48Z</time>
      </trkpt>
      <trkpt lat="44.99245" lon="5.53936">
        <ele>2008.8</ele>
        <time>2017-12-03T10:59:53Z</time>
      </trkpt>
      <trkpt lat="44.99245" lon="5.53936">
        <ele>2009</ele>
        <time>2017-12-03T10:59:58Z</time>
      </trkpt>
      <trkpt lat="44.99244" lon="5.53936">
        <ele>2009.2</ele>
        <time>2017-12-03T11:00:03Z</time>
      </trkpt>
      <trkpt lat="44.99243" lon="5.53935">
        <ele>2009.2</ele>
        <time>2017-12-03T11:00:08Z</time>
      </trkpt>
      <trkpt lat="44.99242" lon="5.53935">
        <ele>2009.2</ele>
        <time>2017-12-03T11:00:13Z</time>
      </trkpt>
      <trkpt lat="44.99242" lon="5.53935">
        <ele>2009.2</ele>
        <time>2017-12-03T11:00:18Z</time>
      </trkpt>
      <trkpt lat="44.99234" lon="5.53941">
        <ele>2005.4</ele>
        <time>2017-12-03T11:00:23Z</time>
      </trkpt>
      <trkpt lat="44.9924" lon="5.53953">
        <ele>2003</ele>
        <time>2017-12-03T11:00:28Z</time>
      </trkpt>
      <trkpt lat="44.99237" lon="5.53965">
        <ele>2002.8</ele>
        <time>2017-12-03T11:00:33Z</time>
      </trkpt>
      <trkpt lat="44.99245" lon="5.53978">
        <ele>1992.2</ele>
        <time>2017-12-03T11:00:38Z</time>
      </trkpt>
      <trkpt lat="44.99246" lon="5.53988">
        <ele>1993.6</ele>
        <time>2017-12-03T11:00:43Z</time>
      </trkpt>
      <trkpt lat="44.99242" lon="5.54">
        <ele>1985.2</ele>
        <time>2017-12-03T11:00:48Z</time>
      </trkpt>
      <trkpt lat="44.99245" lon="5.54017">
        <ele>1977</ele>
        <time>2017-12-03T11:00:53Z</time>
      </trkpt>
      <trkpt lat="44.99247" lon="5.5403">
        <ele>1978.8</ele>
        <time>2017-12-03T11:00:58Z</time>
      </trkpt>
      <trkpt lat="44.99259" lon="5.54035">
        <ele>1970.2</ele>
        <time>2017-12-03T11:01:03Z</time>
      </trkpt>
      <trkpt lat="44.99258" lon="5.54043">
        <ele>1970.2</ele>
        <time>2017-12-03T11:01:08Z</time>
      </trkpt>
      <trkpt lat="44.9927" lon="5.54051">
        <ele>1971</ele>
        <time>2017-12-03T11:01:13Z</time>
      </trkpt>
      <trkpt lat="44.9928" lon="5.54053">
        <ele>1971.4</ele>
        <time>2017-12-03T11:01:18Z</time>
      </trkpt>
      <trkpt lat="44.99277" lon="5.54063">
        <ele>1969.8</ele>
        <time>2017-12-03T11:01:23Z</time>
      </trkpt>
      <trkpt lat="44.99283" lon="5.54074">
        <ele>1961.4</ele>
        <time>2017-12-03T11:01:28Z</time>
      </trkpt>
      <trkpt lat="44.9928" lon="5.54086">
        <ele>1959</ele>
        <time>2017-12-03T11:01:33Z</time>
      </trkpt>
      <trkpt lat="44.99282" lon="5.54086">
        <ele>1959.4</ele>
        <time>2017-12-03T11:01:38Z</time>
      </trkpt>
      <trkpt lat="44.99282" lon="5.54087">
        <ele>1958.8</ele>
        <time>2017-12-03T11:01:43Z</time>
      </trkpt>
      <trkpt lat="44.99282" lon="5.54086">
        <ele>1958.2</ele>
        <time>2017-12-03T11:01:48Z</time>
      </trkpt>
      <trkpt lat="44.99283" lon="5.54087">
        <ele>1954.6</ele>
        <time>2017-12-03T11:01:53Z</time>
      </trkpt>
      <trkpt lat="44.9929" lon="5.54094">
        <ele>1954.8</ele>
        <time>2017-12-03T11:01:58Z</time>
      </trkpt>
      <trkpt lat="44.99282" lon="5.54101">
        <ele>1949.2</ele>
        <time>2017-12-03T11:02:03Z</time>
      </trkpt>
      <trkpt lat="44.99283" lon="5.54111">
        <ele>1946.4</ele>
        <time>2017-12-03T11:02:08Z</time>
      </trkpt>
      <trkpt lat="44.99291" lon="5.54118">
        <ele>1940.6</ele>
        <time>2017-12-03T11:02:13Z</time>
      </trkpt>
      <trkpt lat="44.99291" lon="5.54124">
        <ele>1937.6</ele>
        <time>2017-12-03T11:02:18Z</time>
      </trkpt>
      <trkpt lat="44.99293" lon="5.54128">
        <ele>1944.2</ele>
        <time>2017-12-03T11:02:23Z</time>
      </trkpt>
      <trkpt lat="44.99297" lon="5.54143">
        <ele>1934.2</ele>
        <time>2017-12-03T11:02:28Z</time>
      </trkpt>
      <trkpt lat="44.99301" lon="5.54162">
        <ele>1927.4</ele>
        <time>2017-12-03T11:02:33Z</time>
      </trkpt>
      <trkpt lat="44.99303" lon="5.54186">
        <ele>1917.2</ele>
        <time>2017-12-03T11:02:38Z</time>
      </trkpt>
      <trkpt lat="44.99309" lon="5.54202">
        <ele>1913.4</ele>
        <time>2017-12-03T11:02:43Z</time>
      </trkpt>
      <trkpt lat="44.99311" lon="5.54203">
        <ele>1912.4</ele>
        <time>2017-12-03T11:02:48Z</time>
      </trkpt>
      <trkpt lat="44.99311" lon="5.54203">
        <ele>1912.4</ele>
        <time>2017-12-03T11:02:53Z</time>
      </trkpt>
      <trkpt lat="44.99311" lon="5.54203">
        <ele>1912.4</ele>
        <time>2017-12-03T11:02:59Z</time>
      </trkpt>
      <trkpt lat="44.99311" lon="5.54203">
        <ele>1912.4</ele>
        <time>2017-12-03T11:03:04Z</time>
      </trkpt>
      <trkpt lat="44.99311" lon="5.54203">
        <ele>1912.4</ele>
        <time>2017-12-03T11:03:09Z</time>
      </trkpt>
      <trkpt lat="44.99311" lon="5.54203">
        <ele>1912.4</ele>
        <time>2017-12-03T11:03:14Z</time>
      </trkpt>
      <trkpt lat="44.99311" lon="5.54203">
        <ele>1912.4</ele>
        <time>2017-12-03T11:03:19Z</time>
      </trkpt>
      <trkpt lat="44.99311" lon="5.54203">
        <ele>1912.4</ele>
        <time>2017-12-03T11:03:24Z</time>
      </trkpt>
      <trkpt lat="44.99313" lon="5.54202">
        <ele>1914.2</ele>
        <time>2017-12-03T11:03:29Z</time>
      </trkpt>
      <trkpt lat="44.99318" lon="5.54206">
        <ele>1911.6</ele>
        <time>2017-12-03T11:03:34Z</time>
      </trkpt>
      <trkpt lat="44.99322" lon="5.54217">
        <ele>1903.2</ele>
        <time>2017-12-03T11:03:39Z</time>
      </trkpt>
      <trkpt lat="44.99321" lon="5.54218">
        <ele>1902.6</ele>
        <time>2017-12-03T11:03:44Z</time>
      </trkpt>
      <trkpt lat="44.99316" lon="5.54228">
        <ele>1899</ele>
        <time>2017-12-03T11:03:49Z</time>
      </trkpt>
      <trkpt lat="44.9932" lon="5.5423">
        <ele>1899.8</ele>
        <time>2017-12-03T11:03:54Z</time>
      </trkpt>
      <trkpt lat="44.99331" lon="5.54234">
        <ele>1897.8</ele>
        <time>2017-12-03T11:03:59Z</time>
      </trkpt>
      <trkpt lat="44.99337" lon="5.54246">
        <ele>1892.2</ele>
        <time>2017-12-03T11:04:04Z</time>
      </trkpt>
      <trkpt lat="44.99337" lon="5.54246">
        <ele>1891</ele>
        <time>2017-12-03T11:04:09Z</time>
      </trkpt>
      <trkpt lat="44.99337" lon="5.54246">
        <ele>1891.6</ele>
        <time>2017-12-03T11:04:14Z</time>
      </trkpt>
      <trkpt lat="44.99337" lon="5.54247">
        <ele>1893.6</ele>
        <time>2017-12-03T11:04:19Z</time>
      </trkpt>
      <trkpt lat="44.99336" lon="5.54248">
        <ele>1894</ele>
        <time>2017-12-03T11:04:24Z</time>
      </trkpt>
      <trkpt lat="44.99336" lon="5.54248">
        <ele>1894.4</ele>
        <time>2017-12-03T11:04:29Z</time>
      </trkpt>
      <trkpt lat="44.99336" lon="5.54248">
        <ele>1894.6</ele>
        <time>2017-12-03T11:04:34Z</time>
      </trkpt>
      <trkpt lat="44.99336" lon="5.54248">
        <ele>1894.8</ele>
        <time>2017-12-03T11:04:39Z</time>
      </trkpt>
      <trkpt lat="44.99336" lon="5.54248">
        <ele>1895</ele>
        <time>2017-12-03T11:04:44Z</time>
      </trkpt>
      <trkpt lat="44.99336" lon="5.54248">
        <ele>1895</ele>
        <time>2017-12-03T11:04:49Z</time>
      </trkpt>
      <trkpt lat="44.99336" lon="5.54248">
        <ele>1895.2</ele>
        <time>2017-12-03T11:04:54Z</time>
      </trkpt>
      <trkpt lat="44.99336" lon="5.54248">
        <ele>1895.2</ele>
        <time>2017-12-03T11:04:59Z</time>
      </trkpt>
      <trkpt lat="44.99336" lon="5.5425">
        <ele>1894.2</ele>
        <time>2017-12-03T11:05:04Z</time>
      </trkpt>
      <trkpt lat="44.9934" lon="5.54256">
        <ele>1894.2</ele>
        <time>2017-12-03T11:05:09Z</time>
      </trkpt>
      <trkpt lat="44.99349" lon="5.54263">
        <ele>1895</ele>
        <time>2017-12-03T11:05:14Z</time>
      </trkpt>
      <trkpt lat="44.99364" lon="5.54251">
        <ele>1886.8</ele>
        <time>2017-12-03T11:05:19Z</time>
      </trkpt>
      <trkpt lat="44.99374" lon="5.5426">
        <ele>1884.6</ele>
        <time>2017-12-03T11:05:24Z</time>
      </trkpt>
      <trkpt lat="44.99384" lon="5.54269">
        <ele>1884.4</ele>
        <time>2017-12-03T11:05:29Z</time>
      </trkpt>
      <trkpt lat="44.99392" lon="5.54272">
        <ele>1882.4</ele>
        <time>2017-12-03T11:05:34Z</time>
      </trkpt>
      <trkpt lat="44.99395" lon="5.54273">
        <ele>1878.4</ele>
        <time>2017-12-03T11:05:39Z</time>
      </trkpt>
      <trkpt lat="44.99397" lon="5.54275">
        <ele>1877.6</ele>
        <time>2017-12-03T11:05:44Z</time>
      </trkpt>
      <trkpt lat="44.99405" lon="5.54275">
        <ele>1873</ele>
        <time>2017-12-03T11:05:49Z</time>
      </trkpt>
      <trkpt lat="44.99419" lon="5.54278">
        <ele>1870.6</ele>
        <time>2017-12-03T11:05:54Z</time>
      </trkpt>
      <trkpt lat="44.99424" lon="5.5428">
        <ele>1873</ele>
        <time>2017-12-03T11:05:59Z</time>
      </trkpt>
      <trkpt lat="44.99427" lon="5.54281">
        <ele>1873.6</ele>
        <time>2017-12-03T11:06:04Z</time>
      </trkpt>
      <trkpt lat="44.99433" lon="5.54285">
        <ele>1872.8</ele>
        <time>2017-12-03T11:06:09Z</time>
      </trkpt>
      <trkpt lat="44.99441" lon="5.54292">
        <ele>1870.8</ele>
        <time>2017-12-03T11:06:14Z</time>
      </trkpt>
      <trkpt lat="44.99452" lon="5.54287">
        <ele>1866.6</ele>
        <time>2017-12-03T11:06:19Z</time>
      </trkpt>
      <trkpt lat="44.99463" lon="5.54275">
        <ele>1855.8</ele>
        <time>2017-12-03T11:06:24Z</time>
      </trkpt>
      <trkpt lat="44.9947" lon="5.5426">
        <ele>1848</ele>
        <time>2017-12-03T11:06:29Z</time>
      </trkpt>
      <trkpt lat="44.99487" lon="5.54264">
        <ele>1836.4</ele>
        <time>2017-12-03T11:06:34Z</time>
      </trkpt>
      <trkpt lat="44.99502" lon="5.54275">
        <ele>1827.2</ele>
        <time>2017-12-03T11:06:39Z</time>
      </trkpt>
      <trkpt lat="44.9952" lon="5.54275">
        <ele>1817.6</ele>
        <time>2017-12-03T11:06:44Z</time>
      </trkpt>
      <trkpt lat="44.99534" lon="5.54278">
        <ele>1821.8</ele>
        <time>2017-12-03T11:06:49Z</time>
      </trkpt>
      <trkpt lat="44.99555" lon="5.54283">
        <ele>1820</ele>
        <time>2017-12-03T11:06:54Z</time>
      </trkpt>
      <trkpt lat="44.99571" lon="5.5428">
        <ele>1821</ele>
        <time>2017-12-03T11:06:59Z</time>
      </trkpt>
      <trkpt lat="44.99568" lon="5.54281">
        <ele>1822</ele>
        <time>2017-12-03T11:07:04Z</time>
      </trkpt>
      <trkpt lat="44.99565" lon="5.5428">
        <ele>1822.2</ele>
        <time>2017-12-03T11:07:09Z</time>
      </trkpt>
      <trkpt lat="44.99564" lon="5.5428">
        <ele>1822.2</ele>
        <time>2017-12-03T11:07:14Z</time>
      </trkpt>
      <trkpt lat="44.99564" lon="5.5428">
        <ele>1822.2</ele>
        <time>2017-12-03T11:07:19Z</time>
      </trkpt>
      <trkpt lat="44.99564" lon="5.5428">
        <ele>1822.2</ele>
        <time>2017-12-03T11:07:24Z</time>
      </trkpt>
      <trkpt lat="44.99564" lon="5.5428">
        <ele>1822.2</ele>
        <time>2017-12-03T11:07:29Z</time>
      </trkpt>
      <trkpt lat="44.99564" lon="5.54279">
        <ele>1821.4</ele>
        <time>2017-12-03T11:07:34Z</time>
      </trkpt>
      <trkpt lat="44.99571" lon="5.54281">
        <ele>1819.2</ele>
        <time>2017-12-03T11:07:39Z</time>
      </trkpt>
      <trkpt lat="44.99584" lon="5.54284">
        <ele>1819.2</ele>
        <time>2017-12-03T11:07:44Z</time>
      </trkpt>
      <trkpt lat="44.99606" lon="5.54292">
        <ele>1814.6</ele>
        <time>2017-12-03T11:07:49Z</time>
      </trkpt>
      <trkpt lat="44.99631" lon="5.54295">
        <ele>1811.8</ele>
        <time>2017-12-03T11:07:54Z</time>
      </trkpt>
      <trkpt lat="44.99658" lon="5.54296">
        <ele>1807.6</ele>
        <time>2017-12-03T11:07:59Z</time>
      </trkpt>
      <trkpt lat="44.99675" lon="5.54308">
        <ele>1803.8</ele>
        <time>2017-12-03T11:08:04Z</time>
      </trkpt>
      <trkpt lat="44.99696" lon="5.54334">
        <ele>1795</ele>
        <time>2017-12-03T11:08:09Z</time>
      </trkpt>
      <trkpt lat="44.99722" lon="5.54343">
        <ele>1794.6</ele>
        <time>2017-12-03T11:08:14Z</time>
      </trkpt>
      <trkpt lat="44.99725" lon="5.54337">
        <ele>1793.4</ele>
        <time>2017-12-03T11:08:19Z</time>
      </trkpt>
      <trkpt lat="44.9973" lon="5.54335">
        <ele>1792.6</ele>
        <time>2017-12-03T11:08:24Z</time>
      </trkpt>
      <trkpt lat="44.99747" lon="5.54339">
        <ele>1790</ele>
        <time>2017-12-03T11:08:29Z</time>
      </trkpt>
      <trkpt lat="44.99769" lon="5.54346">
        <ele>1782.8</ele>
        <time>2017-12-03T11:08:34Z</time>
      </trkpt>
      <trkpt lat="44.99772" lon="5.54347">
        <ele>1782.4</ele>
        <time>2017-12-03T11:08:39Z</time>
      </trkpt>
      <trkpt lat="44.9978" lon="5.54353">
        <ele>1780.6</ele>
        <time>2017-12-03T11:08:44Z</time>
      </trkpt>
      <trkpt lat="44.99783" lon="5.54355">
        <ele>1778.2</ele>
        <time>2017-12-03T11:08:49Z</time>
      </trkpt>
      <trkpt lat="44.99785" lon="5.54358">
        <ele>1776.2</ele>
        <time>2017-12-03T11:08:54Z</time>
      </trkpt>
      <trkpt lat="44.9979" lon="5.54364">
        <ele>1774</ele>
        <time>2017-12-03T11:08:59Z</time>
      </trkpt>
      <trkpt lat="44.99793" lon="5.54367">
        <ele>1767.6</ele>
        <time>2017-12-03T11:09:04Z</time>
      </trkpt>
      <trkpt lat="44.99797" lon="5.54368">
        <ele>1767.6</ele>
        <time>2017-12-03T11:09:09Z</time>
      </trkpt>
      <trkpt lat="44.998" lon="5.54366">
        <ele>1767.2</ele>
        <time>2017-12-03T11:09:14Z</time>
      </trkpt>
      <trkpt lat="44.99802" lon="5.54365">
        <ele>1769.4</ele>
        <time>2017-12-03T11:09:19Z</time>
      </trkpt>
      <trkpt lat="44.99803" lon="5.54365">
        <ele>1767.6</ele>
        <time>2017-12-03T11:09:24Z</time>
      </trkpt>
      <trkpt lat="44.99805" lon="5.54362">
        <ele>1762.8</ele>
        <time>2017-12-03T11:17:36Z</time>
      </trkpt>
      <trkpt lat="44.99805" lon="5.54362">
        <ele>1762.8</ele>
        <time>2017-12-03T11:17:41Z</time>
      </trkpt>
      <trkpt lat="44.99805" lon="5.54362">
        <ele>1762.8</ele>
        <time>2017-12-03T11:17:46Z</time>
      </trkpt>
      <trkpt lat="44.99805" lon="5.54362">
        <ele>1762.8</ele>
        <time>2017-12-03T11:17:51Z</time>
      </trkpt>
      <trkpt lat="44.99806" lon="5.54362">
        <ele>1762.6</ele>
        <time>2017-12-03T11:17:56Z</time>
      </trkpt>
      <trkpt lat="44.99806" lon="5.54362">
        <ele>1762.6</ele>
        <time>2017-12-03T11:18:01Z</time>
      </trkpt>
      <trkpt lat="44.99806" lon="5.54362">
        <ele>1762.4</ele>
        <time>2017-12-03T11:18:06Z</time>
      </trkpt>
      <trkpt lat="44.99806" lon="5.54362">
        <ele>1762.4</ele>
        <time>2017-12-03T11:18:11Z</time>
      </trkpt>
      <trkpt lat="44.99806" lon="5.54362">
        <ele>1761.4</ele>
        <time>2017-12-03T11:18:26Z</time>
      </trkpt>
      <trkpt lat="44.99808" lon="5.5436">
        <ele>1762.8</ele>
        <time>2017-12-03T11:18:31Z</time>
      </trkpt>
      <trkpt lat="44.9981" lon="5.54358">
        <ele>1763</ele>
        <time>2017-12-03T11:18:36Z</time>
      </trkpt>
      <trkpt lat="44.99814" lon="5.54357">
        <ele>1761</ele>
        <time>2017-12-03T11:18:41Z</time>
      </trkpt>
      <trkpt lat="44.99818" lon="5.54355">
        <ele>1760.4</ele>
        <time>2017-12-03T11:18:46Z</time>
      </trkpt>
      <trkpt lat="44.99823" lon="5.54354">
        <ele>1758.4</ele>
        <time>2017-12-03T11:18:51Z</time>
      </trkpt>
      <trkpt lat="44.99826" lon="5.54354">
        <ele>1758</ele>
        <time>2017-12-03T11:18:56Z</time>
      </trkpt>
      <trkpt lat="44.99828" lon="5.54353">
        <ele>1756.2</ele>
        <time>2017-12-03T11:19:01Z</time>
      </trkpt>
      <trkpt lat="44.99831" lon="5.54352">
        <ele>1758.6</ele>
        <time>2017-12-03T11:19:06Z</time>
      </trkpt>
      <trkpt lat="44.99833" lon="5.54351">
        <ele>1759</ele>
        <time>2017-12-03T11:19:11Z</time>
      </trkpt>
      <trkpt lat="44.99833" lon="5.54351">
        <ele>1759.2</ele>
        <time>2017-12-03T11:19:16Z</time>
      </trkpt>
      <trkpt lat="44.99836" lon="5.54351">
        <ele>1759.4</ele>
        <time>2017-12-03T11:19:21Z</time>
      </trkpt>
      <trkpt lat="44.99837" lon="5.54351">
        <ele>1758.2</ele>
        <time>2017-12-03T11:19:26Z</time>
      </trkpt>
      <trkpt lat="44.99837" lon="5.54351">
        <ele>1760.2</ele>
        <time>2017-12-03T11:19:31Z</time>
      </trkpt>
      <trkpt lat="44.99837" lon="5.54351">
        <ele>1759.6</ele>
        <time>2017-12-03T11:19:36Z</time>
      </trkpt>
      <trkpt lat="44.99837" lon="5.54351">
        <ele>1759</ele>
        <time>2017-12-03T11:19:41Z</time>
      </trkpt>
      <trkpt lat="44.99837" lon="5.54351">
        <ele>1758.8</ele>
        <time>2017-12-03T11:19:46Z</time>
      </trkpt>
      <trkpt lat="44.99839" lon="5.54351">
        <ele>1760.2</ele>
        <time>2017-12-03T11:19:51Z</time>
      </trkpt>
      <trkpt lat="44.99843" lon="5.54355">
        <ele>1756.8</ele>
        <time>2017-12-03T11:19:56Z</time>
      </trkpt>
      <trkpt lat="44.99846" lon="5.54359">
        <ele>1756</ele>
        <time>2017-12-03T11:20:01Z</time>
      </trkpt>
      <trkpt lat="44.99851" lon="5.54361">
        <ele>1757.8</ele>
        <time>2017-12-03T11:20:06Z</time>
      </trkpt>
      <trkpt lat="44.99857" lon="5.54361">
        <ele>1758.2</ele>
        <time>2017-12-03T11:20:11Z</time>
      </trkpt>
      <trkpt lat="44.99861" lon="5.54358">
        <ele>1756.2</ele>
        <time>2017-12-03T11:20:16Z</time>
      </trkpt>
      <trkpt lat="44.99864" lon="5.54351">
        <ele>1755.8</ele>
        <time>2017-12-03T11:20:21Z</time>
      </trkpt>
      <trkpt lat="44.99868" lon="5.54343">
        <ele>1758.4</ele>
        <time>2017-12-03T11:20:26Z</time>
      </trkpt>
      <trkpt lat="44.99871" lon="5.54336">
        <ele>1755</ele>
        <time>2017-12-03T11:20:31Z</time>
      </trkpt>
      <trkpt lat="44.99875" lon="5.5433">
        <ele>1755.6</ele>
        <time>2017-12-03T11:20:36Z</time>
      </trkpt>
      <trkpt lat="44.99878" lon="5.54325">
        <ele>1757.6</ele>
        <time>2017-12-03T11:20:41Z</time>
      </trkpt>
      <trkpt lat="44.99882" lon="5.54321">
        <ele>1755.4</ele>
        <time>2017-12-03T11:20:46Z</time>
      </trkpt>
      <trkpt lat="44.99886" lon="5.54316">
        <ele>1756.2</ele>
        <time>2017-12-03T11:20:51Z</time>
      </trkpt>
      <trkpt lat="44.9989" lon="5.54311">
        <ele>1756.6</ele>
        <time>2017-12-03T11:20:56Z</time>
      </trkpt>
      <trkpt lat="44.99896" lon="5.54307">
        <ele>1755.4</ele>
        <time>2017-12-03T11:21:01Z</time>
      </trkpt>
      <trkpt lat="44.99903" lon="5.54304">
        <ele>1756.6</ele>
        <time>2017-12-03T11:21:06Z</time>
      </trkpt>
      <trkpt lat="44.99905" lon="5.54301">
        <ele>1757.8</ele>
        <time>2017-12-03T11:21:11Z</time>
      </trkpt>
      <trkpt lat="44.99909" lon="5.54297">
        <ele>1757.8</ele>
        <time>2017-12-03T11:21:16Z</time>
      </trkpt>
      <trkpt lat="44.99914" lon="5.54294">
        <ele>1759.4</ele>
        <time>2017-12-03T11:21:21Z</time>
      </trkpt>
      <trkpt lat="44.99915" lon="5.54292">
        <ele>1761.2</ele>
        <time>2017-12-03T11:21:26Z</time>
      </trkpt>
      <trkpt lat="44.99917" lon="5.5429">
        <ele>1761.6</ele>
        <time>2017-12-03T11:21:31Z</time>
      </trkpt>
      <trkpt lat="44.99919" lon="5.54287">
        <ele>1763.6</ele>
        <time>2017-12-03T11:21:36Z</time>
      </trkpt>
      <trkpt lat="44.99921" lon="5.54283">
        <ele>1764</ele>
        <time>2017-12-03T11:21:41Z</time>
      </trkpt>
      <trkpt lat="44.99924" lon="5.54279">
        <ele>1763.8</ele>
        <time>2017-12-03T11:21:46Z</time>
      </trkpt>
      <trkpt lat="44.99927" lon="5.54274">
        <ele>1763</ele>
        <time>2017-12-03T11:21:51Z</time>
      </trkpt>
      <trkpt lat="44.99933" lon="5.54265">
        <ele>1765</ele>
        <time>2017-12-03T11:21:56Z</time>
      </trkpt>
      <trkpt lat="44.99941" lon="5.54255">
        <ele>1762.2</ele>
        <time>2017-12-03T11:22:01Z</time>
      </trkpt>
      <trkpt lat="44.99943" lon="5.54251">
        <ele>1761.4</ele>
        <time>2017-12-03T11:22:06Z</time>
      </trkpt>
      <trkpt lat="44.99947" lon="5.54249">
        <ele>1762.2</ele>
        <time>2017-12-03T11:22:11Z</time>
      </trkpt>
      <trkpt lat="44.99951" lon="5.54246">
        <ele>1762</ele>
        <time>2017-12-03T11:22:16Z</time>
      </trkpt>
      <trkpt lat="44.99954" lon="5.5424">
        <ele>1760.2</ele>
        <time>2017-12-03T11:22:21Z</time>
      </trkpt>
      <trkpt lat="44.9996" lon="5.54237">
        <ele>1763.6</ele>
        <time>2017-12-03T11:22:26Z</time>
      </trkpt>
      <trkpt lat="44.99964" lon="5.54238">
        <ele>1763.6</ele>
        <time>2017-12-03T11:22:31Z</time>
      </trkpt>
      <trkpt lat="44.99968" lon="5.54238">
        <ele>1761.6</ele>
        <time>2017-12-03T11:22:36Z</time>
      </trkpt>
      <trkpt lat="44.99971" lon="5.5424">
        <ele>1765.2</ele>
        <time>2017-12-03T11:22:41Z</time>
      </trkpt>
      <trkpt lat="44.99974" lon="5.54244">
        <ele>1767.8</ele>
        <time>2017-12-03T11:22:46Z</time>
      </trkpt>
      <trkpt lat="44.99975" lon="5.54246">
        <ele>1763.4</ele>
        <time>2017-12-03T11:22:51Z</time>
      </trkpt>
      <trkpt lat="44.99976" lon="5.54247">
        <ele>1760</ele>
        <time>2017-12-03T11:22:56Z</time>
      </trkpt>
      <trkpt lat="44.99975" lon="5.54248">
        <ele>1760.4</ele>
        <time>2017-12-03T11:23:01Z</time>
      </trkpt>
      <trkpt lat="44.99975" lon="5.54248">
        <ele>1760.8</ele>
        <time>2017-12-03T11:23:06Z</time>
      </trkpt>
      <trkpt lat="44.99976" lon="5.54248">
        <ele>1761</ele>
        <time>2017-12-03T11:23:11Z</time>
      </trkpt>
      <trkpt lat="44.99976" lon="5.54248">
        <ele>1761.4</ele>
        <time>2017-12-03T11:23:16Z</time>
      </trkpt>
      <trkpt lat="44.99976" lon="5.54247">
        <ele>1761.8</ele>
        <time>2017-12-03T11:23:21Z</time>
      </trkpt>
      <trkpt lat="44.99975" lon="5.54247">
        <ele>1762</ele>
        <time>2017-12-03T11:23:26Z</time>
      </trkpt>
      <trkpt lat="44.99978" lon="5.54251">
        <ele>1768</ele>
        <time>2017-12-03T11:50:12Z</time>
      </trkpt>
      <trkpt lat="44.99979" lon="5.54252">
        <ele>1771</ele>
        <time>2017-12-03T11:50:17Z</time>
      </trkpt>
      <trkpt lat="44.99978" lon="5.54253">
        <ele>1768</ele>
        <time>2017-12-03T11:50:22Z</time>
      </trkpt>
      <trkpt lat="44.99978" lon="5.54255">
        <ele>1767.8</ele>
        <time>2017-12-03T11:50:27Z</time>
      </trkpt>
      <trkpt lat="44.99978" lon="5.54255">
        <ele>1767.6</ele>
        <time>2017-12-03T11:50:32Z</time>
      </trkpt>
      <trkpt lat="44.9998" lon="5.54253">
        <ele>1770.6</ele>
        <time>2017-12-03T11:50:37Z</time>
      </trkpt>
      <trkpt lat="44.99981" lon="5.54251">
        <ele>1771.6</ele>
        <time>2017-12-03T11:50:42Z</time>
      </trkpt>
      <trkpt lat="44.99983" lon="5.54249">
        <ele>1771.6</ele>
        <time>2017-12-03T11:50:47Z</time>
      </trkpt>
      <trkpt lat="44.99984" lon="5.54248">
        <ele>1768.8</ele>
        <time>2017-12-03T11:50:52Z</time>
      </trkpt>
      <trkpt lat="44.99985" lon="5.54248">
        <ele>1771.2</ele>
        <time>2017-12-03T11:50:57Z</time>
      </trkpt>
      <trkpt lat="44.99986" lon="5.54249">
        <ele>1768.4</ele>
        <time>2017-12-03T11:51:02Z</time>
      </trkpt>
      <trkpt lat="44.99986" lon="5.54249">
        <ele>1769.4</ele>
        <time>2017-12-03T11:51:07Z</time>
      </trkpt>
      <trkpt lat="44.99986" lon="5.5425">
        <ele>1771</ele>
        <time>2017-12-03T11:51:12Z</time>
      </trkpt>
      <trkpt lat="44.99987" lon="5.54254">
        <ele>1774.6</ele>
        <time>2017-12-03T11:51:17Z</time>
      </trkpt>
      <trkpt lat="44.99988" lon="5.54257">
        <ele>1771.4</ele>
        <time>2017-12-03T11:51:22Z</time>
      </trkpt>
      <trkpt lat="44.99989" lon="5.54259">
        <ele>1770.2</ele>
        <time>2017-12-03T11:51:27Z</time>
      </trkpt>
      <trkpt lat="44.99989" lon="5.54262">
        <ele>1771</ele>
        <time>2017-12-03T11:51:32Z</time>
      </trkpt>
      <trkpt lat="44.9999" lon="5.54264">
        <ele>1775.2</ele>
        <time>2017-12-03T11:51:37Z</time>
      </trkpt>
      <trkpt lat="44.99991" lon="5.54265">
        <ele>1773.6</ele>
        <time>2017-12-03T11:51:42Z</time>
      </trkpt>
      <trkpt lat="44.99991" lon="5.54266">
        <ele>1774</ele>
        <time>2017-12-03T11:51:47Z</time>
      </trkpt>
      <trkpt lat="44.99992" lon="5.54268">
        <ele>1776.2</ele>
        <time>2017-12-03T11:51:52Z</time>
      </trkpt>
      <trkpt lat="44.99994" lon="5.5427">
        <ele>1776.2</ele>
        <time>2017-12-03T11:51:57Z</time>
      </trkpt>
      <trkpt lat="44.99995" lon="5.54272">
        <ele>1776</ele>
        <time>2017-12-03T11:52:02Z</time>
      </trkpt>
      <trkpt lat="44.99996" lon="5.54274">
        <ele>1776.4</ele>
        <time>2017-12-03T11:52:07Z</time>
      </trkpt>
      <trkpt lat="44.99997" lon="5.54276">
        <ele>1774.2</ele>
        <time>2017-12-03T11:52:12Z</time>
      </trkpt>
      <trkpt lat="44.99996" lon="5.54279">
        <ele>1777.6</ele>
        <time>2017-12-03T11:52:17Z</time>
      </trkpt>
      <trkpt lat="44.99995" lon="5.54281">
        <ele>1778.8</ele>
        <time>2017-12-03T11:52:22Z</time>
      </trkpt>
      <trkpt lat="44.99994" lon="5.54282">
        <ele>1779</ele>
        <time>2017-12-03T11:52:27Z</time>
      </trkpt>
      <trkpt lat="44.99992" lon="5.54283">
        <ele>1778.8</ele>
        <time>2017-12-03T11:52:32Z</time>
      </trkpt>
      <trkpt lat="44.9999" lon="5.54284">
        <ele>1779.6</ele>
        <time>2017-12-03T11:52:37Z</time>
      </trkpt>
      <trkpt lat="44.9999" lon="5.54286">
        <ele>1779.2</ele>
        <time>2017-12-03T11:52:42Z</time>
      </trkpt>
      <trkpt lat="44.99991" lon="5.54289">
        <ele>1779.4</ele>
        <time>2017-12-03T11:52:47Z</time>
      </trkpt>
      <trkpt lat="44.99992" lon="5.54291">
        <ele>1783.4</ele>
        <time>2017-12-03T11:52:52Z</time>
      </trkpt>
      <trkpt lat="44.99994" lon="5.54293">
        <ele>1786.6</ele>
        <time>2017-12-03T11:52:57Z</time>
      </trkpt>
      <trkpt lat="44.99995" lon="5.54295">
        <ele>1783.6</ele>
        <time>2017-12-03T11:53:02Z</time>
      </trkpt>
      <trkpt lat="44.99997" lon="5.54297">
        <ele>1784</ele>
        <time>2017-12-03T11:53:07Z</time>
      </trkpt>
      <trkpt lat="44.99999" lon="5.54299">
        <ele>1783.6</ele>
        <time>2017-12-03T11:53:12Z</time>
      </trkpt>
      <trkpt lat="45" lon="5.543">
        <ele>1786.2</ele>
        <time>2017-12-03T11:53:17Z</time>
      </trkpt>
      <trkpt lat="45.00002" lon="5.54302">
        <ele>1782.2</ele>
        <time>2017-12-03T11:53:22Z</time>
      </trkpt>
      <trkpt lat="45.00004" lon="5.54304">
        <ele>1782.2</ele>
        <time>2017-12-03T11:53:27Z</time>
      </trkpt>
      <trkpt lat="45.00006" lon="5.54305">
        <ele>1785.4</ele>
        <time>2017-12-03T11:53:32Z</time>
      </trkpt>
      <trkpt lat="45.00007" lon="5.54307">
        <ele>1788</ele>
        <time>2017-12-03T11:53:37Z</time>
      </trkpt>
      <trkpt lat="45.00009" lon="5.54308">
        <ele>1790.8</ele>
        <time>2017-12-03T11:53:42Z</time>
      </trkpt>
      <trkpt lat="45.00011" lon="5.54309">
        <ele>1790.4</ele>
        <time>2017-12-03T11:53:47Z</time>
      </trkpt>
      <trkpt lat="45.00012" lon="5.54311">
        <ele>1791.6</ele>
        <time>2017-12-03T11:53:52Z</time>
      </trkpt>
      <trkpt lat="45.00014" lon="5.54313">
        <ele>1791.2</ele>
        <time>2017-12-03T11:53:57Z</time>
      </trkpt>
      <trkpt lat="45.00015" lon="5.54314">
        <ele>1790.4</ele>
        <time>2017-12-03T11:54:02Z</time>
      </trkpt>
      <trkpt lat="45.00017" lon="5.54315">
        <ele>1792.6</ele>
        <time>2017-12-03T11:54:07Z</time>
      </trkpt>
      <trkpt lat="45.00019" lon="5.54316">
        <ele>1789.2</ele>
        <time>2017-12-03T11:54:12Z</time>
      </trkpt>
      <trkpt lat="45.0002" lon="5.54317">
        <ele>1787.8</ele>
        <time>2017-12-03T11:54:17Z</time>
      </trkpt>
      <trkpt lat="45.00022" lon="5.54318">
        <ele>1790.4</ele>
        <time>2017-12-03T11:54:22Z</time>
      </trkpt>
      <trkpt lat="45.00023" lon="5.5432">
        <ele>1789.8</ele>
        <time>2017-12-03T11:54:27Z</time>
      </trkpt>
      <trkpt lat="45.00023" lon="5.54322">
        <ele>1790.4</ele>
        <time>2017-12-03T11:54:32Z</time>
      </trkpt>
      <trkpt lat="45.00023" lon="5.54324">
        <ele>1792</ele>
        <time>2017-12-03T11:54:37Z</time>
      </trkpt>
      <trkpt lat="45.00024" lon="5.54326">
        <ele>1793</ele>
        <time>2017-12-03T11:54:42Z</time>
      </trkpt>
      <trkpt lat="45.00025" lon="5.54327">
        <ele>1794</ele>
        <time>2017-12-03T11:54:47Z</time>
      </trkpt>
      <trkpt lat="45.00027" lon="5.54329">
        <ele>1798.4</ele>
        <time>2017-12-03T11:54:52Z</time>
      </trkpt>
      <trkpt lat="45.00027" lon="5.54331">
        <ele>1800.4</ele>
        <time>2017-12-03T11:54:57Z</time>
      </trkpt>
      <trkpt lat="45.00027" lon="5.54331">
        <ele>1799.6</ele>
        <time>2017-12-03T11:55:02Z</time>
      </trkpt>
      <trkpt lat="45.00027" lon="5.54331">
        <ele>1798.8</ele>
        <time>2017-12-03T11:55:07Z</time>
      </trkpt>
      <trkpt lat="45.00027" lon="5.5433">
        <ele>1795.2</ele>
        <time>2017-12-03T11:55:12Z</time>
      </trkpt>
      <trkpt lat="45.00028" lon="5.5433">
        <ele>1796</ele>
        <time>2017-12-03T11:55:17Z</time>
      </trkpt>
      <trkpt lat="45.00028" lon="5.5433">
        <ele>1796.4</ele>
        <time>2017-12-03T11:55:22Z</time>
      </trkpt>
      <trkpt lat="45.00028" lon="5.5433">
        <ele>1796.8</ele>
        <time>2017-12-03T11:55:27Z</time>
      </trkpt>
      <trkpt lat="45.00028" lon="5.5433">
        <ele>1797</ele>
        <time>2017-12-03T11:55:32Z</time>
      </trkpt>
      <trkpt lat="45.00028" lon="5.5433">
        <ele>1797</ele>
        <time>2017-12-03T11:55:37Z</time>
      </trkpt>
      <trkpt lat="45.00028" lon="5.5433">
        <ele>1797</ele>
        <time>2017-12-03T11:55:42Z</time>
      </trkpt>
      <trkpt lat="45.00028" lon="5.5433">
        <ele>1797</ele>
        <time>2017-12-03T11:55:47Z</time>
      </trkpt>
      <trkpt lat="45.00028" lon="5.5433">
        <ele>1796.8</ele>
        <time>2017-12-03T11:55:52Z</time>
      </trkpt>
      <trkpt lat="45.00028" lon="5.5433">
        <ele>1796.6</ele>
        <time>2017-12-03T11:55:57Z</time>
      </trkpt>
      <trkpt lat="45.00028" lon="5.5433">
        <ele>1796.6</ele>
        <time>2017-12-03T11:56:02Z</time>
      </trkpt>
      <trkpt lat="45.00028" lon="5.5433">
        <ele>1796.4</ele>
        <time>2017-12-03T11:56:07Z</time>
      </trkpt>
      <trkpt lat="45.00028" lon="5.5433">
        <ele>1796.4</ele>
        <time>2017-12-03T11:56:12Z</time>
      </trkpt>
      <trkpt lat="45.00028" lon="5.5433">
        <ele>1796.4</ele>
        <time>2017-12-03T11:56:17Z</time>
      </trkpt>
      <trkpt lat="45.00028" lon="5.5433">
        <ele>1796.4</ele>
        <time>2017-12-03T11:56:22Z</time>
      </trkpt>
      <trkpt lat="45.00029" lon="5.54332">
        <ele>1797.6</ele>
        <time>2017-12-03T11:56:27Z</time>
      </trkpt>
      <trkpt lat="45.00032" lon="5.54336">
        <ele>1797</ele>
        <time>2017-12-03T11:56:32Z</time>
      </trkpt>
      <trkpt lat="45.00034" lon="5.54339">
        <ele>1798.6</ele>
        <time>2017-12-03T11:56:37Z</time>
      </trkpt>
      <trkpt lat="45.00036" lon="5.54342">
        <ele>1796.2</ele>
        <time>2017-12-03T11:56:42Z</time>
      </trkpt>
      <trkpt lat="45.00038" lon="5.54344">
        <ele>1797.6</ele>
        <time>2017-12-03T11:56:47Z</time>
      </trkpt>
      <trkpt lat="45.0004" lon="5.54346">
        <ele>1798.8</ele>
        <time>2017-12-03T11:56:53Z</time>
      </trkpt>
      <trkpt lat="45.00042" lon="5.54347">
        <ele>1798.2</ele>
        <time>2017-12-03T11:56:58Z</time>
      </trkpt>
      <trkpt lat="45.00044" lon="5.54349">
        <ele>1796.8</ele>
        <time>2017-12-03T11:57:03Z</time>
      </trkpt>
      <trkpt lat="45.00047" lon="5.54352">
        <ele>1798.6</ele>
        <time>2017-12-03T11:57:09Z</time>
      </trkpt>
      <trkpt lat="45.00049" lon="5.54354">
        <ele>1799.4</ele>
        <time>2017-12-03T11:57:14Z</time>
      </trkpt>
      <trkpt lat="45.00048" lon="5.54355">
        <ele>1799.4</ele>
        <time>2017-12-03T11:57:19Z</time>
      </trkpt>
      <trkpt lat="45.00045" lon="5.54355">
        <ele>1798.8</ele>
        <time>2017-12-03T11:57:24Z</time>
      </trkpt>
      <trkpt lat="45.00042" lon="5.54357">
        <ele>1796</ele>
        <time>2017-12-03T11:57:29Z</time>
      </trkpt>
      <trkpt lat="45.00042" lon="5.54357">
        <ele>1800.2</ele>
        <time>2017-12-03T11:57:34Z</time>
      </trkpt>
      <trkpt lat="45.00041" lon="5.54359">
        <ele>1802</ele>
        <time>2017-12-03T11:57:39Z</time>
      </trkpt>
      <trkpt lat="45.0004" lon="5.5436">
        <ele>1803.8</ele>
        <time>2017-12-03T11:57:44Z</time>
      </trkpt>
      <trkpt lat="45.0004" lon="5.5436">
        <ele>1804.4</ele>
        <time>2017-12-03T11:57:49Z</time>
      </trkpt>
      <trkpt lat="45.0004" lon="5.54361">
        <ele>1805</ele>
        <time>2017-12-03T11:57:54Z</time>
      </trkpt>
      <trkpt lat="45.00038" lon="5.54362">
        <ele>1808.6</ele>
        <time>2017-12-03T11:57:59Z</time>
      </trkpt>
      <trkpt lat="45.00036" lon="5.54365">
        <ele>1809</ele>
        <time>2017-12-03T11:58:04Z</time>
      </trkpt>
      <trkpt lat="45.00036" lon="5.5437">
        <ele>1806</ele>
        <time>2017-12-03T11:58:09Z</time>
      </trkpt>
      <trkpt lat="45.00037" lon="5.54375">
        <ele>1810</ele>
        <time>2017-12-03T11:58:14Z</time>
      </trkpt>
      <trkpt lat="45.00037" lon="5.54379">
        <ele>1806.4</ele>
        <time>2017-12-03T11:58:19Z</time>
      </trkpt>
      <trkpt lat="45.00038" lon="5.54382">
        <ele>1811.8</ele>
        <time>2017-12-03T11:58:24Z</time>
      </trkpt>
      <trkpt lat="45.00037" lon="5.54385">
        <ele>1811.6</ele>
        <time>2017-12-03T11:58:29Z</time>
      </trkpt>
      <trkpt lat="45.00037" lon="5.54388">
        <ele>1813</ele>
        <time>2017-12-03T11:58:34Z</time>
      </trkpt>
      <trkpt lat="45.00037" lon="5.54391">
        <ele>1813</ele>
        <time>2017-12-03T11:58:39Z</time>
      </trkpt>
      <trkpt lat="45.00035" lon="5.54392">
        <ele>1812</ele>
        <time>2017-12-03T11:58:44Z</time>
      </trkpt>
      <trkpt lat="45.00033" lon="5.54393">
        <ele>1814.2</ele>
        <time>2017-12-03T11:58:49Z</time>
      </trkpt>
      <trkpt lat="45.0003" lon="5.54395">
        <ele>1816.8</ele>
        <time>2017-12-03T11:58:54Z</time>
      </trkpt>
      <trkpt lat="45.0003" lon="5.54397">
        <ele>1816</ele>
        <time>2017-12-03T11:58:59Z</time>
      </trkpt>
      <trkpt lat="45.0003" lon="5.54401">
        <ele>1818.8</ele>
        <time>2017-12-03T11:59:04Z</time>
      </trkpt>
      <trkpt lat="45.00032" lon="5.54404">
        <ele>1818.8</ele>
        <time>2017-12-03T11:59:09Z</time>
      </trkpt>
      <trkpt lat="45.00031" lon="5.54405">
        <ele>1817.4</ele>
        <time>2017-12-03T11:59:14Z</time>
      </trkpt>
      <trkpt lat="45.00028" lon="5.54407">
        <ele>1819.6</ele>
        <time>2017-12-03T11:59:19Z</time>
      </trkpt>
      <trkpt lat="45.00026" lon="5.54407">
        <ele>1820.8</ele>
        <time>2017-12-03T11:59:24Z</time>
      </trkpt>
      <trkpt lat="45.00023" lon="5.54407">
        <ele>1821.4</ele>
        <time>2017-12-03T11:59:29Z</time>
      </trkpt>
      <trkpt lat="45.0002" lon="5.54408">
        <ele>1824.4</ele>
        <time>2017-12-03T11:59:34Z</time>
      </trkpt>
      <trkpt lat="45.00017" lon="5.54409">
        <ele>1824.6</ele>
        <time>2017-12-03T11:59:39Z</time>
      </trkpt>
      <trkpt lat="45.00015" lon="5.54409">
        <ele>1826.4</ele>
        <time>2017-12-03T11:59:44Z</time>
      </trkpt>
      <trkpt lat="45.00012" lon="5.54409">
        <ele>1826.8</ele>
        <time>2017-12-03T11:59:49Z</time>
      </trkpt>
      <trkpt lat="45.0001" lon="5.5441">
        <ele>1827.4</ele>
        <time>2017-12-03T11:59:54Z</time>
      </trkpt>
      <trkpt lat="45.00007" lon="5.54411">
        <ele>1828.6</ele>
        <time>2017-12-03T11:59:59Z</time>
      </trkpt>
      <trkpt lat="45.00005" lon="5.54413">
        <ele>1827.6</ele>
        <time>2017-12-03T12:00:04Z</time>
      </trkpt>
      <trkpt lat="45.00002" lon="5.54414">
        <ele>1826.4</ele>
        <time>2017-12-03T12:00:09Z</time>
      </trkpt>
      <trkpt lat="45" lon="5.54416">
        <ele>1828.6</ele>
        <time>2017-12-03T12:00:14Z</time>
      </trkpt>
      <trkpt lat="44.99998" lon="5.54417">
        <ele>1830.6</ele>
        <time>2017-12-03T12:00:19Z</time>
      </trkpt>
      <trkpt lat="44.99998" lon="5.54417">
        <ele>1830.2</ele>
        <time>2017-12-03T12:00:24Z</time>
      </trkpt>
      <trkpt lat="44.99998" lon="5.54417">
        <ele>1830</ele>
        <time>2017-12-03T12:00:29Z</time>
      </trkpt>
      <trkpt lat="44.99999" lon="5.54417">
        <ele>1830</ele>
        <time>2017-12-03T12:00:34Z</time>
      </trkpt>
      <trkpt lat="44.99999" lon="5.54417">
        <ele>1829.8</ele>
        <time>2017-12-03T12:00:39Z</time>
      </trkpt>
      <trkpt lat="44.99999" lon="5.54417">
        <ele>1830.2</ele>
        <time>2017-12-03T12:00:44Z</time>
      </trkpt>
      <trkpt lat="44.99999" lon="5.54417">
        <ele>1829.8</ele>
        <time>2017-12-03T12:00:49Z</time>
      </trkpt>
      <trkpt lat="44.99999" lon="5.54417">
        <ele>1829.6</ele>
        <time>2017-12-03T12:00:54Z</time>
      </trkpt>
      <trkpt lat="44.99999" lon="5.54417">
        <ele>1829.4</ele>
        <time>2017-12-03T12:00:59Z</time>
      </trkpt>
      <trkpt lat="44.99999" lon="5.54417">
        <ele>1829.4</ele>
        <time>2017-12-03T12:01:04Z</time>
      </trkpt>
      <trkpt lat="45" lon="5.54417">
        <ele>1829.4</ele>
        <time>2017-12-03T12:01:09Z</time>
      </trkpt>
      <trkpt lat="44.99999" lon="5.54417">
        <ele>1829.2</ele>
        <time>2017-12-03T12:01:14Z</time>
      </trkpt>
      <trkpt lat="44.99998" lon="5.5442">
        <ele>1828</ele>
        <time>2017-12-03T12:01:19Z</time>
      </trkpt>
      <trkpt lat="44.99995" lon="5.54422">
        <ele>1831</ele>
        <time>2017-12-03T12:01:24Z</time>
      </trkpt>
      <trkpt lat="44.99993" lon="5.54426">
        <ele>1829</ele>
        <time>2017-12-03T12:01:29Z</time>
      </trkpt>
      <trkpt lat="44.99992" lon="5.54428">
        <ele>1831.6</ele>
        <time>2017-12-03T12:01:35Z</time>
      </trkpt>
      <trkpt lat="44.99995" lon="5.54431">
        <ele>1830.8</ele>
        <time>2017-12-03T12:01:40Z</time>
      </trkpt>
      <trkpt lat="44.99998" lon="5.54433">
        <ele>1831.4</ele>
        <time>2017-12-03T12:01:45Z</time>
      </trkpt>
      <trkpt lat="45.00001" lon="5.54436">
        <ele>1833.8</ele>
        <time>2017-12-03T12:01:50Z</time>
      </trkpt>
      <trkpt lat="45.00004" lon="5.54438">
        <ele>1832.2</ele>
        <time>2017-12-03T12:01:55Z</time>
      </trkpt>
      <trkpt lat="45.00005" lon="5.54439">
        <ele>1834</ele>
        <time>2017-12-03T12:02:00Z</time>
      </trkpt>
      <trkpt lat="45.00005" lon="5.54439">
        <ele>1834.6</ele>
        <time>2017-12-03T12:02:05Z</time>
      </trkpt>
      <trkpt lat="45.00005" lon="5.54439">
        <ele>1835</ele>
        <time>2017-12-03T12:02:10Z</time>
      </trkpt>
      <trkpt lat="45.00005" lon="5.54439">
        <ele>1835.2</ele>
        <time>2017-12-03T12:02:15Z</time>
      </trkpt>
      <trkpt lat="45.00005" lon="5.54439">
        <ele>1835.4</ele>
        <time>2017-12-03T12:02:20Z</time>
      </trkpt>
      <trkpt lat="45.00005" lon="5.54439">
        <ele>1835.4</ele>
        <time>2017-12-03T12:02:25Z</time>
      </trkpt>
      <trkpt lat="45.00005" lon="5.54439">
        <ele>1835.6</ele>
        <time>2017-12-03T12:02:30Z</time>
      </trkpt>
      <trkpt lat="45.00005" lon="5.54439">
        <ele>1835.6</ele>
        <time>2017-12-03T12:02:35Z</time>
      </trkpt>
      <trkpt lat="45.00005" lon="5.54439">
        <ele>1835.6</ele>
        <time>2017-12-03T12:02:40Z</time>
      </trkpt>
      <trkpt lat="45.00005" lon="5.54439">
        <ele>1835.8</ele>
        <time>2017-12-03T12:02:45Z</time>
      </trkpt>
      <trkpt lat="45.00005" lon="5.54439">
        <ele>1835.8</ele>
        <time>2017-12-03T12:02:50Z</time>
      </trkpt>
      <trkpt lat="45.00005" lon="5.54439">
        <ele>1835.6</ele>
        <time>2017-12-03T12:02:55Z</time>
      </trkpt>
      <trkpt lat="45.00005" lon="5.54439">
        <ele>1835.6</ele>
        <time>2017-12-03T12:03:00Z</time>
      </trkpt>
      <trkpt lat="45.00005" lon="5.54439">
        <ele>1835.6</ele>
        <time>2017-12-03T12:03:05Z</time>
      </trkpt>
      <trkpt lat="45.00005" lon="5.54439">
        <ele>1835.6</ele>
        <time>2017-12-03T12:03:10Z</time>
      </trkpt>
      <trkpt lat="45.00005" lon="5.54439">
        <ele>1835.6</ele>
        <time>2017-12-03T12:03:15Z</time>
      </trkpt>
      <trkpt lat="45.00005" lon="5.54439">
        <ele>1835.6</ele>
        <time>2017-12-03T12:03:20Z</time>
      </trkpt>
      <trkpt lat="45.00005" lon="5.54439">
        <ele>1835.6</ele>
        <time>2017-12-03T12:03:25Z</time>
      </trkpt>
      <trkpt lat="45.00005" lon="5.54439">
        <ele>1835.4</ele>
        <time>2017-12-03T12:03:30Z</time>
      </trkpt>
      <trkpt lat="45.00005" lon="5.54439">
        <ele>1835.4</ele>
        <time>2017-12-03T12:03:35Z</time>
      </trkpt>
      <trkpt lat="45.00005" lon="5.54439">
        <ele>1835.4</ele>
        <time>2017-12-03T12:03:40Z</time>
      </trkpt>
      <trkpt lat="45.00005" lon="5.54439">
        <ele>1835.4</ele>
        <time>2017-12-03T12:03:45Z</time>
      </trkpt>
      <trkpt lat="45.00005" lon="5.54439">
        <ele>1835.4</ele>
        <time>2017-12-03T12:03:50Z</time>
      </trkpt>
      <trkpt lat="45.00005" lon="5.54439">
        <ele>1835.4</ele>
        <time>2017-12-03T12:03:55Z</time>
      </trkpt>
      <trkpt lat="45.00005" lon="5.54439">
        <ele>1835.4</ele>
        <time>2017-12-03T12:04:00Z</time>
      </trkpt>
      <trkpt lat="45.00005" lon="5.54439">
        <ele>1835.4</ele>
        <time>2017-12-03T12:04:05Z</time>
      </trkpt>
      <trkpt lat="45.00005" lon="5.54439">
        <ele>1835.4</ele>
        <time>2017-12-03T12:04:10Z</time>
      </trkpt>
      <trkpt lat="45.00005" lon="5.54439">
        <ele>1835.4</ele>
        <time>2017-12-03T12:04:15Z</time>
      </trkpt>
      <trkpt lat="45.00005" lon="5.54439">
        <ele>1835.4</ele>
        <time>2017-12-03T12:04:20Z</time>
      </trkpt>
      <trkpt lat="45.00005" lon="5.54439">
        <ele>1835.6</ele>
        <time>2017-12-03T12:04:25Z</time>
      </trkpt>
      <trkpt lat="45.00005" lon="5.54439">
        <ele>1835.6</ele>
        <time>2017-12-03T12:04:30Z</time>
      </trkpt>
      <trkpt lat="45.00005" lon="5.54439">
        <ele>1835.6</ele>
        <time>2017-12-03T12:04:35Z</time>
      </trkpt>
      <trkpt lat="45.00005" lon="5.54439">
        <ele>1835.6</ele>
        <time>2017-12-03T12:04:40Z</time>
      </trkpt>
      <trkpt lat="45.00005" lon="5.5444">
        <ele>1835.6</ele>
        <time>2017-12-03T12:04:45Z</time>
      </trkpt>
      <trkpt lat="45.00005" lon="5.5444">
        <ele>1835.6</ele>
        <time>2017-12-03T12:04:50Z</time>
      </trkpt>
      <trkpt lat="45.00005" lon="5.5444">
        <ele>1835.6</ele>
        <time>2017-12-03T12:04:55Z</time>
      </trkpt>
      <trkpt lat="45.00005" lon="5.5444">
        <ele>1835.4</ele>
        <time>2017-12-03T12:05:00Z</time>
      </trkpt>
      <trkpt lat="45.00005" lon="5.5444">
        <ele>1835.4</ele>
        <time>2017-12-03T12:05:05Z</time>
      </trkpt>
      <trkpt lat="45.00007" lon="5.54444">
        <ele>1832.6</ele>
        <time>2017-12-03T12:05:10Z</time>
      </trkpt>
      <trkpt lat="45.00008" lon="5.54448">
        <ele>1834.8</ele>
        <time>2017-12-03T12:05:15Z</time>
      </trkpt>
      <trkpt lat="45.0001" lon="5.54452">
        <ele>1837.4</ele>
        <time>2017-12-03T12:05:20Z</time>
      </trkpt>
      <trkpt lat="45.00012" lon="5.54457">
        <ele>1838.8</ele>
        <time>2017-12-03T12:05:25Z</time>
      </trkpt>
      <trkpt lat="45.00013" lon="5.54462">
        <ele>1838.2</ele>
        <time>2017-12-03T12:05:30Z</time>
      </trkpt>
      <trkpt lat="45.00014" lon="5.54466">
        <ele>1839.6</ele>
        <time>2017-12-03T12:05:35Z</time>
      </trkpt>
      <trkpt lat="45.00016" lon="5.5447">
        <ele>1842.6</ele>
        <time>2017-12-03T12:05:40Z</time>
      </trkpt>
      <trkpt lat="45.00017" lon="5.54474">
        <ele>1839.6</ele>
        <time>2017-12-03T12:05:45Z</time>
      </trkpt>
      <trkpt lat="45.00018" lon="5.54478">
        <ele>1839.8</ele>
        <time>2017-12-03T12:05:50Z</time>
      </trkpt>
      <trkpt lat="45.00018" lon="5.54479">
        <ele>1840.6</ele>
        <time>2017-12-03T12:05:55Z</time>
      </trkpt>
      <trkpt lat="45.00018" lon="5.54479">
        <ele>1840.8</ele>
        <time>2017-12-03T12:06:00Z</time>
      </trkpt>
      <trkpt lat="45.00018" lon="5.54479">
        <ele>1841</ele>
        <time>2017-12-03T12:06:05Z</time>
      </trkpt>
      <trkpt lat="45.00018" lon="5.54479">
        <ele>1841</ele>
        <time>2017-12-03T12:06:10Z</time>
      </trkpt>
      <trkpt lat="45.00018" lon="5.54479">
        <ele>1841</ele>
        <time>2017-12-03T12:06:15Z</time>
      </trkpt>
      <trkpt lat="45.00018" lon="5.54479">
        <ele>1841.2</ele>
        <time>2017-12-03T12:06:20Z</time>
      </trkpt>
      <trkpt lat="45.00018" lon="5.54479">
        <ele>1841.2</ele>
        <time>2017-12-03T12:06:25Z</time>
      </trkpt>
      <trkpt lat="45.00018" lon="5.54479">
        <ele>1841.2</ele>
        <time>2017-12-03T12:06:30Z</time>
      </trkpt>
      <trkpt lat="45.00018" lon="5.54479">
        <ele>1841.2</ele>
        <time>2017-12-03T12:06:35Z</time>
      </trkpt>
      <trkpt lat="45.00018" lon="5.54479">
        <ele>1841.2</ele>
        <time>2017-12-03T12:06:40Z</time>
      </trkpt>
      <trkpt lat="45.00018" lon="5.54479">
        <ele>1841.2</ele>
        <time>2017-12-03T12:06:45Z</time>
      </trkpt>
      <trkpt lat="45.00018" lon="5.54479">
        <ele>1841.2</ele>
        <time>2017-12-03T12:06:50Z</time>
      </trkpt>
      <trkpt lat="45.00018" lon="5.54479">
        <ele>1841.2</ele>
        <time>2017-12-03T12:06:55Z</time>
      </trkpt>
      <trkpt lat="45.00018" lon="5.54479">
        <ele>1841.2</ele>
        <time>2017-12-03T12:07:00Z</time>
      </trkpt>
      <trkpt lat="45.00018" lon="5.54479">
        <ele>1841.2</ele>
        <time>2017-12-03T12:07:05Z</time>
      </trkpt>
      <trkpt lat="45.00018" lon="5.54479">
        <ele>1841.2</ele>
        <time>2017-12-03T12:07:10Z</time>
      </trkpt>
      <trkpt lat="45.00018" lon="5.54479">
        <ele>1841.2</ele>
        <time>2017-12-03T12:07:15Z</time>
      </trkpt>
      <trkpt lat="45.00018" lon="5.54479">
        <ele>1841.4</ele>
        <time>2017-12-03T12:07:20Z</time>
      </trkpt>
      <trkpt lat="45.00018" lon="5.54479">
        <ele>1841.4</ele>
        <time>2017-12-03T12:07:25Z</time>
      </trkpt>
      <trkpt lat="45.00018" lon="5.54479">
        <ele>1841.4</ele>
        <time>2017-12-03T12:07:30Z</time>
      </trkpt>
      <trkpt lat="45.00018" lon="5.54479">
        <ele>1841.4</ele>
        <time>2017-12-03T12:07:35Z</time>
      </trkpt>
      <trkpt lat="45.00018" lon="5.54479">
        <ele>1841.4</ele>
        <time>2017-12-03T12:07:40Z</time>
      </trkpt>
      <trkpt lat="45.00018" lon="5.54479">
        <ele>1841.4</ele>
        <time>2017-12-03T12:07:45Z</time>
      </trkpt>
      <trkpt lat="45.00019" lon="5.54479">
        <ele>1841.6</ele>
        <time>2017-12-03T12:07:50Z</time>
      </trkpt>
      <trkpt lat="45.00019" lon="5.54479">
        <ele>1841.6</ele>
        <time>2017-12-03T12:07:55Z</time>
      </trkpt>
      <trkpt lat="45.00019" lon="5.54479">
        <ele>1841.6</ele>
        <time>2017-12-03T12:08:00Z</time>
      </trkpt>
      <trkpt lat="45.00019" lon="5.54479">
        <ele>1841.6</ele>
        <time>2017-12-03T12:08:05Z</time>
      </trkpt>
      <trkpt lat="45.00019" lon="5.54479">
        <ele>1841.6</ele>
        <time>2017-12-03T12:08:10Z</time>
      </trkpt>
      <trkpt lat="45.00019" lon="5.54479">
        <ele>1841.6</ele>
        <time>2017-12-03T12:08:15Z</time>
      </trkpt>
      <trkpt lat="45.00019" lon="5.54485">
        <ele>1841.4</ele>
        <time>2017-12-03T12:08:20Z</time>
      </trkpt>
      <trkpt lat="45.0002" lon="5.54491">
        <ele>1844.6</ele>
        <time>2017-12-03T12:08:25Z</time>
      </trkpt>
      <trkpt lat="45.0002" lon="5.54497">
        <ele>1843.2</ele>
        <time>2017-12-03T12:08:30Z</time>
      </trkpt>
      <trkpt lat="45.0002" lon="5.54503">
        <ele>1846.6</ele>
        <time>2017-12-03T12:08:35Z</time>
      </trkpt>
      <trkpt lat="45.0002" lon="5.54509">
        <ele>1845.6</ele>
        <time>2017-12-03T12:08:40Z</time>
      </trkpt>
      <trkpt lat="45.00019" lon="5.54513">
        <ele>1849</ele>
        <time>2017-12-03T12:08:45Z</time>
      </trkpt>
      <trkpt lat="45.00018" lon="5.54517">
        <ele>1850.6</ele>
        <time>2017-12-03T12:08:50Z</time>
      </trkpt>
      <trkpt lat="45.00017" lon="5.54522">
        <ele>1848.6</ele>
        <time>2017-12-03T12:08:55Z</time>
      </trkpt>
      <trkpt lat="45.00016" lon="5.54527">
        <ele>1850.6</ele>
        <time>2017-12-03T12:09:00Z</time>
      </trkpt>
      <trkpt lat="45.00015" lon="5.54532">
        <ele>1851.2</ele>
        <time>2017-12-03T12:09:05Z</time>
      </trkpt>
      <trkpt lat="45.00014" lon="5.54539">
        <ele>1851.4</ele>
        <time>2017-12-03T12:09:10Z</time>
      </trkpt>
      <trkpt lat="45.00014" lon="5.54545">
        <ele>1850.4</ele>
        <time>2017-12-03T12:09:15Z</time>
      </trkpt>
      <trkpt lat="45.00015" lon="5.54551">
        <ele>1850.2</ele>
        <time>2017-12-03T12:09:20Z</time>
      </trkpt>
      <trkpt lat="45.00014" lon="5.54557">
        <ele>1851.2</ele>
        <time>2017-12-03T12:09:25Z</time>
      </trkpt>
      <trkpt lat="45.00014" lon="5.54562">
        <ele>1850</ele>
        <time>2017-12-03T12:09:30Z</time>
      </trkpt>
      <trkpt lat="45.00012" lon="5.54566">
        <ele>1856</ele>
        <time>2017-12-03T12:09:36Z</time>
      </trkpt>
      <trkpt lat="45.0001" lon="5.54569">
        <ele>1856.2</ele>
        <time>2017-12-03T12:09:41Z</time>
      </trkpt>
      <trkpt lat="45.00008" lon="5.54573">
        <ele>1856</ele>
        <time>2017-12-03T12:09:46Z</time>
      </trkpt>
      <trkpt lat="45.00003" lon="5.54577">
        <ele>1857.6</ele>
        <time>2017-12-03T12:09:51Z</time>
      </trkpt>
      <trkpt lat="45" lon="5.54582">
        <ele>1858.6</ele>
        <time>2017-12-03T12:09:56Z</time>
      </trkpt>
      <trkpt lat="44.99998" lon="5.54586">
        <ele>1858</ele>
        <time>2017-12-03T12:10:01Z</time>
      </trkpt>
      <trkpt lat="44.99997" lon="5.5459">
        <ele>1858.2</ele>
        <time>2017-12-03T12:10:06Z</time>
      </trkpt>
      <trkpt lat="44.99997" lon="5.54595">
        <ele>1857.6</ele>
        <time>2017-12-03T12:10:11Z</time>
      </trkpt>
      <trkpt lat="44.99996" lon="5.546">
        <ele>1860.6</ele>
        <time>2017-12-03T12:10:16Z</time>
      </trkpt>
      <trkpt lat="44.99997" lon="5.54605">
        <ele>1857.4</ele>
        <time>2017-12-03T12:10:21Z</time>
      </trkpt>
      <trkpt lat="44.99998" lon="5.54611">
        <ele>1859.2</ele>
        <time>2017-12-03T12:10:26Z</time>
      </trkpt>
      <trkpt lat="45" lon="5.54616">
        <ele>1860.6</ele>
        <time>2017-12-03T12:10:31Z</time>
      </trkpt>
      <trkpt lat="45.00001" lon="5.5462">
        <ele>1857.8</ele>
        <time>2017-12-03T12:10:36Z</time>
      </trkpt>
      <trkpt lat="45.00002" lon="5.54625">
        <ele>1859.8</ele>
        <time>2017-12-03T12:10:41Z</time>
      </trkpt>
      <trkpt lat="45.00003" lon="5.54628">
        <ele>1863.8</ele>
        <time>2017-12-03T12:10:46Z</time>
      </trkpt>
      <trkpt lat="45.00004" lon="5.54632">
        <ele>1862</ele>
        <time>2017-12-03T12:10:51Z</time>
      </trkpt>
      <trkpt lat="45.00006" lon="5.54635">
        <ele>1864.4</ele>
        <time>2017-12-03T12:10:56Z</time>
      </trkpt>
      <trkpt lat="45.00007" lon="5.54638">
        <ele>1863.8</ele>
        <time>2017-12-03T12:11:01Z</time>
      </trkpt>
      <trkpt lat="45.00008" lon="5.54642">
        <ele>1868.2</ele>
        <time>2017-12-03T12:11:06Z</time>
      </trkpt>
      <trkpt lat="45.00009" lon="5.54645">
        <ele>1865.2</ele>
        <time>2017-12-03T12:11:11Z</time>
      </trkpt>
      <trkpt lat="45.0001" lon="5.54649">
        <ele>1866.6</ele>
        <time>2017-12-03T12:11:16Z</time>
      </trkpt>
      <trkpt lat="45.00011" lon="5.54652">
        <ele>1866.8</ele>
        <time>2017-12-03T12:11:21Z</time>
      </trkpt>
      <trkpt lat="45.00012" lon="5.54655">
        <ele>1870.4</ele>
        <time>2017-12-03T12:11:26Z</time>
      </trkpt>
      <trkpt lat="45.0001" lon="5.54657">
        <ele>1867.8</ele>
        <time>2017-12-03T12:11:31Z</time>
      </trkpt>
      <trkpt lat="45.00008" lon="5.54659">
        <ele>1870.6</ele>
        <time>2017-12-03T12:11:36Z</time>
      </trkpt>
      <trkpt lat="45.00005" lon="5.54661">
        <ele>1872.2</ele>
        <time>2017-12-03T12:11:41Z</time>
      </trkpt>
      <trkpt lat="45.00003" lon="5.54662">
        <ele>1871.2</ele>
        <time>2017-12-03T12:11:46Z</time>
      </trkpt>
      <trkpt lat="45.00002" lon="5.54664">
        <ele>1871</ele>
        <time>2017-12-03T12:11:51Z</time>
      </trkpt>
      <trkpt lat="45.00003" lon="5.54667">
        <ele>1871.4</ele>
        <time>2017-12-03T12:11:56Z</time>
      </trkpt>
      <trkpt lat="45.00004" lon="5.5467">
        <ele>1873.4</ele>
        <time>2017-12-03T12:12:01Z</time>
      </trkpt>
      <trkpt lat="45.00005" lon="5.54673">
        <ele>1875.4</ele>
        <time>2017-12-03T12:12:06Z</time>
      </trkpt>
      <trkpt lat="45.00006" lon="5.54676">
        <ele>1876.6</ele>
        <time>2017-12-03T12:12:11Z</time>
      </trkpt>
      <trkpt lat="45.00008" lon="5.54678">
        <ele>1879.2</ele>
        <time>2017-12-03T12:12:16Z</time>
      </trkpt>
      <trkpt lat="45.0001" lon="5.54682">
        <ele>1876.8</ele>
        <time>2017-12-03T12:12:21Z</time>
      </trkpt>
      <trkpt lat="45.0001" lon="5.54683">
        <ele>1873.8</ele>
        <time>2017-12-03T12:12:26Z</time>
      </trkpt>
      <trkpt lat="45.00007" lon="5.54684">
        <ele>1876.4</ele>
        <time>2017-12-03T12:12:31Z</time>
      </trkpt>
      <trkpt lat="45.00005" lon="5.54685">
        <ele>1877.6</ele>
        <time>2017-12-03T12:12:36Z</time>
      </trkpt>
      <trkpt lat="45.00003" lon="5.54686">
        <ele>1877</ele>
        <time>2017-12-03T12:12:41Z</time>
      </trkpt>
      <trkpt lat="45.00005" lon="5.54689">
        <ele>1876.6</ele>
        <time>2017-12-03T12:12:46Z</time>
      </trkpt>
      <trkpt lat="45.00008" lon="5.54692">
        <ele>1876.6</ele>
        <time>2017-12-03T12:12:51Z</time>
      </trkpt>
      <trkpt lat="45.0001" lon="5.54695">
        <ele>1876</ele>
        <time>2017-12-03T12:12:56Z</time>
      </trkpt>
      <trkpt lat="45.0001" lon="5.54695">
        <ele>1876</ele>
        <time>2017-12-03T12:13:01Z</time>
      </trkpt>
      <trkpt lat="45.0001" lon="5.54695">
        <ele>1876.2</ele>
        <time>2017-12-03T12:13:06Z</time>
      </trkpt>
      <trkpt lat="45.0001" lon="5.54695">
        <ele>1876.4</ele>
        <time>2017-12-03T12:13:11Z</time>
      </trkpt>
      <trkpt lat="45.00011" lon="5.54696">
        <ele>1872.4</ele>
        <time>2017-12-03T12:13:16Z</time>
      </trkpt>
      <trkpt lat="45.00013" lon="5.54699">
        <ele>1874.8</ele>
        <time>2017-12-03T12:13:21Z</time>
      </trkpt>
      <trkpt lat="45.00016" lon="5.54701">
        <ele>1875.8</ele>
        <time>2017-12-03T12:13:26Z</time>
      </trkpt>
      <trkpt lat="45.00017" lon="5.54703">
        <ele>1877.8</ele>
        <time>2017-12-03T12:13:31Z</time>
      </trkpt>
      <trkpt lat="45.00019" lon="5.54705">
        <ele>1876.6</ele>
        <time>2017-12-03T12:13:36Z</time>
      </trkpt>
      <trkpt lat="45.0002" lon="5.54708">
        <ele>1879</ele>
        <time>2017-12-03T12:13:41Z</time>
      </trkpt>
      <trkpt lat="45.00021" lon="5.5471">
        <ele>1881.4</ele>
        <time>2017-12-03T12:13:46Z</time>
      </trkpt>
      <trkpt lat="45.00023" lon="5.54713">
        <ele>1879.8</ele>
        <time>2017-12-03T12:13:51Z</time>
      </trkpt>
      <trkpt lat="45.00025" lon="5.54716">
        <ele>1882.2</ele>
        <time>2017-12-03T12:13:56Z</time>
      </trkpt>
      <trkpt lat="45.00027" lon="5.54718">
        <ele>1883.6</ele>
        <time>2017-12-03T12:14:01Z</time>
      </trkpt>
      <trkpt lat="45.00028" lon="5.54721">
        <ele>1884.8</ele>
        <time>2017-12-03T12:14:06Z</time>
      </trkpt>
      <trkpt lat="45.00029" lon="5.54723">
        <ele>1886.6</ele>
        <time>2017-12-03T12:14:11Z</time>
      </trkpt>
      <trkpt lat="45.00031" lon="5.54726">
        <ele>1886.6</ele>
        <time>2017-12-03T12:14:16Z</time>
      </trkpt>
      <trkpt lat="45.00032" lon="5.54729">
        <ele>1889.2</ele>
        <time>2017-12-03T12:14:21Z</time>
      </trkpt>
      <trkpt lat="45.00035" lon="5.54731">
        <ele>1886.6</ele>
        <time>2017-12-03T12:14:27Z</time>
      </trkpt>
      <trkpt lat="45.00033" lon="5.54732">
        <ele>1887.2</ele>
        <time>2017-12-03T12:14:32Z</time>
      </trkpt>
      <trkpt lat="45.0003" lon="5.54733">
        <ele>1886.8</ele>
        <time>2017-12-03T12:14:37Z</time>
      </trkpt>
      <trkpt lat="45.00027" lon="5.54733">
        <ele>1891.6</ele>
        <time>2017-12-03T12:14:42Z</time>
      </trkpt>
      <trkpt lat="45.00025" lon="5.54734">
        <ele>1891.8</ele>
        <time>2017-12-03T12:14:47Z</time>
      </trkpt>
      <trkpt lat="45.00023" lon="5.54734">
        <ele>1892.4</ele>
        <time>2017-12-03T12:14:52Z</time>
      </trkpt>
      <trkpt lat="45.00021" lon="5.54734">
        <ele>1893.4</ele>
        <time>2017-12-03T12:14:57Z</time>
      </trkpt>
      <trkpt lat="45.00019" lon="5.54735">
        <ele>1894.2</ele>
        <time>2017-12-03T12:15:02Z</time>
      </trkpt>
      <trkpt lat="45.00017" lon="5.54736">
        <ele>1895.4</ele>
        <time>2017-12-03T12:15:07Z</time>
      </trkpt>
      <trkpt lat="45.00014" lon="5.54737">
        <ele>1898.4</ele>
        <time>2017-12-03T12:15:12Z</time>
      </trkpt>
      <trkpt lat="45.00014" lon="5.54737">
        <ele>1900.6</ele>
        <time>2017-12-03T12:15:17Z</time>
      </trkpt>
      <trkpt lat="45.00012" lon="5.54737">
        <ele>1897.6</ele>
        <time>2017-12-03T12:15:22Z</time>
      </trkpt>
      <trkpt lat="45.0001" lon="5.54739">
        <ele>1899.4</ele>
        <time>2017-12-03T12:15:27Z</time>
      </trkpt>
      <trkpt lat="45.00012" lon="5.54741">
        <ele>1901.2</ele>
        <time>2017-12-03T12:15:32Z</time>
      </trkpt>
      <trkpt lat="45.00013" lon="5.54743">
        <ele>1899.2</ele>
        <time>2017-12-03T12:15:37Z</time>
      </trkpt>
      <trkpt lat="45.00015" lon="5.54746">
        <ele>1900</ele>
        <time>2017-12-03T12:15:42Z</time>
      </trkpt>
      <trkpt lat="45.00017" lon="5.54749">
        <ele>1899.2</ele>
        <time>2017-12-03T12:15:47Z</time>
      </trkpt>
      <trkpt lat="45.00018" lon="5.54752">
        <ele>1900.2</ele>
        <time>2017-12-03T12:15:52Z</time>
      </trkpt>
      <trkpt lat="45.0002" lon="5.54754">
        <ele>1905.8</ele>
        <time>2017-12-03T12:15:57Z</time>
      </trkpt>
      <trkpt lat="45.00022" lon="5.54756">
        <ele>1900.8</ele>
        <time>2017-12-03T12:16:02Z</time>
      </trkpt>
      <trkpt lat="45.00024" lon="5.54758">
        <ele>1908.2</ele>
        <time>2017-12-03T12:16:07Z</time>
      </trkpt>
      <trkpt lat="45.00026" lon="5.54761">
        <ele>1908</ele>
        <time>2017-12-03T12:16:12Z</time>
      </trkpt>
      <trkpt lat="45.00028" lon="5.54763">
        <ele>1906.4</ele>
        <time>2017-12-03T12:16:17Z</time>
      </trkpt>
      <trkpt lat="45.0003" lon="5.54765">
        <ele>1909.6</ele>
        <time>2017-12-03T12:16:22Z</time>
      </trkpt>
      <trkpt lat="45.00032" lon="5.54768">
        <ele>1906.8</ele>
        <time>2017-12-03T12:16:27Z</time>
      </trkpt>
      <trkpt lat="45.00034" lon="5.5477">
        <ele>1909</ele>
        <time>2017-12-03T12:16:32Z</time>
      </trkpt>
      <trkpt lat="45.00035" lon="5.54771">
        <ele>1909.2</ele>
        <time>2017-12-03T12:16:37Z</time>
      </trkpt>
      <trkpt lat="45.00033" lon="5.54773">
        <ele>1909.8</ele>
        <time>2017-12-03T12:16:42Z</time>
      </trkpt>
      <trkpt lat="45.00031" lon="5.54775">
        <ele>1908.6</ele>
        <time>2017-12-03T12:16:47Z</time>
      </trkpt>
      <trkpt lat="45.00029" lon="5.54778">
        <ele>1909.8</ele>
        <time>2017-12-03T12:16:52Z</time>
      </trkpt>
      <trkpt lat="45.00027" lon="5.5478">
        <ele>1910.4</ele>
        <time>2017-12-03T12:16:57Z</time>
      </trkpt>
      <trkpt lat="45.00025" lon="5.54781">
        <ele>1908</ele>
        <time>2017-12-03T12:17:02Z</time>
      </trkpt>
      <trkpt lat="45.00024" lon="5.54782">
        <ele>1908.8</ele>
        <time>2017-12-03T12:17:07Z</time>
      </trkpt>
      <trkpt lat="45.00026" lon="5.54782">
        <ele>1908.8</ele>
        <time>2017-12-03T12:17:12Z</time>
      </trkpt>
      <trkpt lat="45.00029" lon="5.54784">
        <ele>1909.2</ele>
        <time>2017-12-03T12:17:17Z</time>
      </trkpt>
      <trkpt lat="45.00031" lon="5.54786">
        <ele>1912.8</ele>
        <time>2017-12-03T12:17:22Z</time>
      </trkpt>
      <trkpt lat="45.00033" lon="5.54787">
        <ele>1914</ele>
        <time>2017-12-03T12:17:27Z</time>
      </trkpt>
      <trkpt lat="45.00035" lon="5.54788">
        <ele>1911.4</ele>
        <time>2017-12-03T12:17:32Z</time>
      </trkpt>
      <trkpt lat="45.00038" lon="5.54789">
        <ele>1913.2</ele>
        <time>2017-12-03T12:17:37Z</time>
      </trkpt>
      <trkpt lat="45.0004" lon="5.5479">
        <ele>1913.6</ele>
        <time>2017-12-03T12:17:42Z</time>
      </trkpt>
      <trkpt lat="45.00042" lon="5.54792">
        <ele>1917.2</ele>
        <time>2017-12-03T12:17:47Z</time>
      </trkpt>
      <trkpt lat="45.00043" lon="5.54792">
        <ele>1917.2</ele>
        <time>2017-12-03T12:17:52Z</time>
      </trkpt>
      <trkpt lat="45.00045" lon="5.54794">
        <ele>1916.6</ele>
        <time>2017-12-03T12:17:57Z</time>
      </trkpt>
      <trkpt lat="45.00046" lon="5.54795">
        <ele>1918.2</ele>
        <time>2017-12-03T12:18:02Z</time>
      </trkpt>
      <trkpt lat="45.00048" lon="5.54796">
        <ele>1920.8</ele>
        <time>2017-12-03T12:18:07Z</time>
      </trkpt>
      <trkpt lat="45.0005" lon="5.54797">
        <ele>1921.8</ele>
        <time>2017-12-03T12:18:12Z</time>
      </trkpt>
      <trkpt lat="45.00052" lon="5.54798">
        <ele>1922.8</ele>
        <time>2017-12-03T12:18:17Z</time>
      </trkpt>
      <trkpt lat="45.00054" lon="5.54799">
        <ele>1919.8</ele>
        <time>2017-12-03T12:18:22Z</time>
      </trkpt>
      <trkpt lat="45.00056" lon="5.54799">
        <ele>1920.8</ele>
        <time>2017-12-03T12:18:27Z</time>
      </trkpt>
      <trkpt lat="45.00056" lon="5.548">
        <ele>1918</ele>
        <time>2017-12-03T12:18:32Z</time>
      </trkpt>
      <trkpt lat="45.00057" lon="5.54801">
        <ele>1917.8</ele>
        <time>2017-12-03T12:18:37Z</time>
      </trkpt>
      <trkpt lat="45.00058" lon="5.54801">
        <ele>1919.6</ele>
        <time>2017-12-03T12:18:42Z</time>
      </trkpt>
      <trkpt lat="45.00059" lon="5.54803">
        <ele>1920.6</ele>
        <time>2017-12-03T12:18:47Z</time>
      </trkpt>
      <trkpt lat="45.00059" lon="5.54803">
        <ele>1921.6</ele>
        <time>2017-12-03T12:18:52Z</time>
      </trkpt>
      <trkpt lat="45.0006" lon="5.54805">
        <ele>1923</ele>
        <time>2017-12-03T12:18:57Z</time>
      </trkpt>
      <trkpt lat="45.00061" lon="5.54806">
        <ele>1923.2</ele>
        <time>2017-12-03T12:19:02Z</time>
      </trkpt>
      <trkpt lat="45.00059" lon="5.54808">
        <ele>1926.2</ele>
        <time>2017-12-03T12:19:07Z</time>
      </trkpt>
      <trkpt lat="45.00057" lon="5.5481">
        <ele>1927.4</ele>
        <time>2017-12-03T12:19:12Z</time>
      </trkpt>
      <trkpt lat="45.00057" lon="5.54811">
        <ele>1929.4</ele>
        <time>2017-12-03T12:19:17Z</time>
      </trkpt>
      <trkpt lat="45.00059" lon="5.54812">
        <ele>1927.4</ele>
        <time>2017-12-03T12:19:22Z</time>
      </trkpt>
      <trkpt lat="45.0006" lon="5.54814">
        <ele>1928.2</ele>
        <time>2017-12-03T12:19:27Z</time>
      </trkpt>
      <trkpt lat="45.00062" lon="5.54816">
        <ele>1927.8</ele>
        <time>2017-12-03T12:19:32Z</time>
      </trkpt>
      <trkpt lat="45.00063" lon="5.54817">
        <ele>1930.6</ele>
        <time>2017-12-03T12:19:37Z</time>
      </trkpt>
      <trkpt lat="45.00065" lon="5.54818">
        <ele>1930.2</ele>
        <time>2017-12-03T12:19:42Z</time>
      </trkpt>
      <trkpt lat="45.00066" lon="5.54819">
        <ele>1931.8</ele>
        <time>2017-12-03T12:19:47Z</time>
      </trkpt>
      <trkpt lat="45.00069" lon="5.54821">
        <ele>1936.6</ele>
        <time>2017-12-03T12:19:52Z</time>
      </trkpt>
      <trkpt lat="45.00072" lon="5.54822">
        <ele>1933.6</ele>
        <time>2017-12-03T12:19:57Z</time>
      </trkpt>
      <trkpt lat="45.00073" lon="5.54824">
        <ele>1932.2</ele>
        <time>2017-12-03T12:20:02Z</time>
      </trkpt>
      <trkpt lat="45.00072" lon="5.54826">
        <ele>1935.2</ele>
        <time>2017-12-03T12:20:07Z</time>
      </trkpt>
      <trkpt lat="45.00071" lon="5.54829">
        <ele>1936.2</ele>
        <time>2017-12-03T12:20:12Z</time>
      </trkpt>
      <trkpt lat="45.0007" lon="5.5483">
        <ele>1935.4</ele>
        <time>2017-12-03T12:20:17Z</time>
      </trkpt>
      <trkpt lat="45.00071" lon="5.5483">
        <ele>1935</ele>
        <time>2017-12-03T12:20:22Z</time>
      </trkpt>
      <trkpt lat="45.00071" lon="5.5483">
        <ele>1935.4</ele>
        <time>2017-12-03T12:20:27Z</time>
      </trkpt>
      <trkpt lat="45.00073" lon="5.5483">
        <ele>1938.8</ele>
        <time>2017-12-03T12:20:32Z</time>
      </trkpt>
      <trkpt lat="45.00074" lon="5.54831">
        <ele>1938.6</ele>
        <time>2017-12-03T12:20:37Z</time>
      </trkpt>
      <trkpt lat="45.00077" lon="5.54832">
        <ele>1938.4</ele>
        <time>2017-12-03T12:20:42Z</time>
      </trkpt>
      <trkpt lat="45.00079" lon="5.54834">
        <ele>1940.6</ele>
        <time>2017-12-03T12:20:47Z</time>
      </trkpt>
      <trkpt lat="45.00081" lon="5.54834">
        <ele>1941.6</ele>
        <time>2017-12-03T12:20:52Z</time>
      </trkpt>
      <trkpt lat="45.00084" lon="5.54835">
        <ele>1938.8</ele>
        <time>2017-12-03T12:20:57Z</time>
      </trkpt>
      <trkpt lat="45.00085" lon="5.54835">
        <ele>1938.6</ele>
        <time>2017-12-03T12:21:02Z</time>
      </trkpt>
      <trkpt lat="45.00087" lon="5.54836">
        <ele>1939.2</ele>
        <time>2017-12-03T12:21:07Z</time>
      </trkpt>
      <trkpt lat="45.0009" lon="5.54836">
        <ele>1939</ele>
        <time>2017-12-03T12:21:12Z</time>
      </trkpt>
      <trkpt lat="45.00093" lon="5.54836">
        <ele>1941</ele>
        <time>2017-12-03T12:21:17Z</time>
      </trkpt>
      <trkpt lat="45.00095" lon="5.54838">
        <ele>1938.2</ele>
        <time>2017-12-03T12:21:22Z</time>
      </trkpt>
      <trkpt lat="45.00095" lon="5.54841">
        <ele>1941.8</ele>
        <time>2017-12-03T12:21:27Z</time>
      </trkpt>
      <trkpt lat="45.00095" lon="5.54844">
        <ele>1942.2</ele>
        <time>2017-12-03T12:21:32Z</time>
      </trkpt>
      <trkpt lat="45.00095" lon="5.54847">
        <ele>1940</ele>
        <time>2017-12-03T12:21:37Z</time>
      </trkpt>
      <trkpt lat="45.00097" lon="5.54848">
        <ele>1943.8</ele>
        <time>2017-12-03T12:21:42Z</time>
      </trkpt>
      <trkpt lat="45.001" lon="5.54847">
        <ele>1942.8</ele>
        <time>2017-12-03T12:21:47Z</time>
      </trkpt>
      <trkpt lat="45.00104" lon="5.54842">
        <ele>1941.8</ele>
        <time>2017-12-03T12:21:52Z</time>
      </trkpt>
      <trkpt lat="45.00105" lon="5.54839">
        <ele>1944.6</ele>
        <time>2017-12-03T12:21:57Z</time>
      </trkpt>
      <trkpt lat="45.00107" lon="5.54837">
        <ele>1945.4</ele>
        <time>2017-12-03T12:22:02Z</time>
      </trkpt>
      <trkpt lat="45.00109" lon="5.54834">
        <ele>1946.2</ele>
        <time>2017-12-03T12:22:07Z</time>
      </trkpt>
      <trkpt lat="45.0011" lon="5.54832">
        <ele>1945.8</ele>
        <time>2017-12-03T12:22:12Z</time>
      </trkpt>
      <trkpt lat="45.00112" lon="5.54831">
        <ele>1949.4</ele>
        <time>2017-12-03T12:22:17Z</time>
      </trkpt>
      <trkpt lat="45.00114" lon="5.54833">
        <ele>1950.4</ele>
        <time>2017-12-03T12:22:22Z</time>
      </trkpt>
      <trkpt lat="45.00115" lon="5.54835">
        <ele>1951.6</ele>
        <time>2017-12-03T12:22:27Z</time>
      </trkpt>
      <trkpt lat="45.00117" lon="5.54837">
        <ele>1950</ele>
        <time>2017-12-03T12:22:32Z</time>
      </trkpt>
      <trkpt lat="45.00118" lon="5.54839">
        <ele>1949.4</ele>
        <time>2017-12-03T12:22:37Z</time>
      </trkpt>
      <trkpt lat="45.0012" lon="5.5484">
        <ele>1950</ele>
        <time>2017-12-03T12:22:42Z</time>
      </trkpt>
      <trkpt lat="45.00122" lon="5.54841">
        <ele>1948.8</ele>
        <time>2017-12-03T12:22:47Z</time>
      </trkpt>
      <trkpt lat="45.00124" lon="5.54843">
        <ele>1954</ele>
        <time>2017-12-03T12:22:52Z</time>
      </trkpt>
      <trkpt lat="45.00126" lon="5.54845">
        <ele>1951.6</ele>
        <time>2017-12-03T12:22:57Z</time>
      </trkpt>
      <trkpt lat="45.00127" lon="5.54846">
        <ele>1950.8</ele>
        <time>2017-12-03T12:23:02Z</time>
      </trkpt>
      <trkpt lat="45.00128" lon="5.54843">
        <ele>1952</ele>
        <time>2017-12-03T12:23:07Z</time>
      </trkpt>
      <trkpt lat="45.00129" lon="5.54842">
        <ele>1954.4</ele>
        <time>2017-12-03T12:23:12Z</time>
      </trkpt>
      <trkpt lat="45.00129" lon="5.54842">
        <ele>1954.6</ele>
        <time>2017-12-03T12:23:17Z</time>
      </trkpt>
      <trkpt lat="45.00129" lon="5.54842">
        <ele>1954.6</ele>
        <time>2017-12-03T12:23:22Z</time>
      </trkpt>
      <trkpt lat="45.00129" lon="5.54842">
        <ele>1954.8</ele>
        <time>2017-12-03T12:23:27Z</time>
      </trkpt>
      <trkpt lat="45.0013" lon="5.54839">
        <ele>1955.6</ele>
        <time>2017-12-03T12:23:32Z</time>
      </trkpt>
      <trkpt lat="45.00131" lon="5.54836">
        <ele>1954.4</ele>
        <time>2017-12-03T12:23:37Z</time>
      </trkpt>
      <trkpt lat="45.00132" lon="5.54832">
        <ele>1960.8</ele>
        <time>2017-12-03T12:23:42Z</time>
      </trkpt>
      <trkpt lat="45.00134" lon="5.5483">
        <ele>1957.4</ele>
        <time>2017-12-03T12:23:47Z</time>
      </trkpt>
      <trkpt lat="45.00136" lon="5.54828">
        <ele>1956.4</ele>
        <time>2017-12-03T12:23:52Z</time>
      </trkpt>
      <trkpt lat="45.00138" lon="5.54828">
        <ele>1956.8</ele>
        <time>2017-12-03T12:23:57Z</time>
      </trkpt>
      <trkpt lat="45.00139" lon="5.54831">
        <ele>1956.4</ele>
        <time>2017-12-03T12:24:02Z</time>
      </trkpt>
      <trkpt lat="45.00141" lon="5.54834">
        <ele>1959.4</ele>
        <time>2017-12-03T12:24:07Z</time>
      </trkpt>
      <trkpt lat="45.00144" lon="5.54836">
        <ele>1959.2</ele>
        <time>2017-12-03T12:24:12Z</time>
      </trkpt>
      <trkpt lat="45.00145" lon="5.54838">
        <ele>1964.2</ele>
        <time>2017-12-03T12:24:17Z</time>
      </trkpt>
      <trkpt lat="45.00147" lon="5.54841">
        <ele>1968</ele>
        <time>2017-12-03T12:24:22Z</time>
      </trkpt>
      <trkpt lat="45.00148" lon="5.54842">
        <ele>1968</ele>
        <time>2017-12-03T12:24:27Z</time>
      </trkpt>
      <trkpt lat="45.0015" lon="5.54844">
        <ele>1968.8</ele>
        <time>2017-12-03T12:24:32Z</time>
      </trkpt>
      <trkpt lat="45.00152" lon="5.54846">
        <ele>1967.2</ele>
        <time>2017-12-03T12:24:37Z</time>
      </trkpt>
      <trkpt lat="45.00154" lon="5.54848">
        <ele>1968</ele>
        <time>2017-12-03T12:24:42Z</time>
      </trkpt>
      <trkpt lat="45.00157" lon="5.5485">
        <ele>1971.2</ele>
        <time>2017-12-03T12:24:47Z</time>
      </trkpt>
      <trkpt lat="45.0016" lon="5.54854">
        <ele>1961.8</ele>
        <time>2017-12-03T12:24:53Z</time>
      </trkpt>
      <trkpt lat="45.00164" lon="5.54857">
        <ele>1961</ele>
        <time>2017-12-03T12:24:58Z</time>
      </trkpt>
      <trkpt lat="45.00167" lon="5.54861">
        <ele>1961.2</ele>
        <time>2017-12-03T12:25:03Z</time>
      </trkpt>
      <trkpt lat="45.00171" lon="5.54865">
        <ele>1963</ele>
        <time>2017-12-03T12:25:08Z</time>
      </trkpt>
      <trkpt lat="45.00173" lon="5.5487">
        <ele>1963.4</ele>
        <time>2017-12-03T12:25:13Z</time>
      </trkpt>
      <trkpt lat="45.00177" lon="5.54873">
        <ele>1962.6</ele>
        <time>2017-12-03T12:25:18Z</time>
      </trkpt>
      <trkpt lat="45.00181" lon="5.54877">
        <ele>1961.2</ele>
        <time>2017-12-03T12:25:23Z</time>
      </trkpt>
      <trkpt lat="45.00184" lon="5.54878">
        <ele>1965.2</ele>
        <time>2017-12-03T12:25:28Z</time>
      </trkpt>
      <trkpt lat="45.00187" lon="5.54879">
        <ele>1966.2</ele>
        <time>2017-12-03T12:25:33Z</time>
      </trkpt>
      <trkpt lat="45.0019" lon="5.54881">
        <ele>1965.8</ele>
        <time>2017-12-03T12:25:38Z</time>
      </trkpt>
      <trkpt lat="45.00192" lon="5.54881">
        <ele>1965.6</ele>
        <time>2017-12-03T12:25:43Z</time>
      </trkpt>
      <trkpt lat="45.00195" lon="5.54882">
        <ele>1966.6</ele>
        <time>2017-12-03T12:25:48Z</time>
      </trkpt>
      <trkpt lat="45.00198" lon="5.54883">
        <ele>1969.2</ele>
        <time>2017-12-03T12:25:53Z</time>
      </trkpt>
      <trkpt lat="45.002" lon="5.54885">
        <ele>1969.8</ele>
        <time>2017-12-03T12:25:58Z</time>
      </trkpt>
      <trkpt lat="45.00203" lon="5.54887">
        <ele>1969</ele>
        <time>2017-12-03T12:26:03Z</time>
      </trkpt>
      <trkpt lat="45.00206" lon="5.54888">
        <ele>1971.4</ele>
        <time>2017-12-03T12:26:08Z</time>
      </trkpt>
      <trkpt lat="45.00209" lon="5.54889">
        <ele>1973</ele>
        <time>2017-12-03T12:26:13Z</time>
      </trkpt>
      <trkpt lat="45.00212" lon="5.5489">
        <ele>1969</ele>
        <time>2017-12-03T12:26:18Z</time>
      </trkpt>
      <trkpt lat="45.00215" lon="5.54891">
        <ele>1969.4</ele>
        <time>2017-12-03T12:26:23Z</time>
      </trkpt>
      <trkpt lat="45.00217" lon="5.54892">
        <ele>1969.6</ele>
        <time>2017-12-03T12:26:28Z</time>
      </trkpt>
      <trkpt lat="45.0022" lon="5.54894">
        <ele>1971.6</ele>
        <time>2017-12-03T12:26:33Z</time>
      </trkpt>
      <trkpt lat="45.00222" lon="5.54897">
        <ele>1972.8</ele>
        <time>2017-12-03T12:26:38Z</time>
      </trkpt>
      <trkpt lat="45.00225" lon="5.54898">
        <ele>1974.8</ele>
        <time>2017-12-03T12:26:43Z</time>
      </trkpt>
      <trkpt lat="45.00227" lon="5.549">
        <ele>1973.6</ele>
        <time>2017-12-03T12:26:48Z</time>
      </trkpt>
      <trkpt lat="45.00229" lon="5.54902">
        <ele>1973</ele>
        <time>2017-12-03T12:26:53Z</time>
      </trkpt>
      <trkpt lat="45.0023" lon="5.54905">
        <ele>1976.2</ele>
        <time>2017-12-03T12:26:58Z</time>
      </trkpt>
      <trkpt lat="45.00232" lon="5.54908">
        <ele>1976.6</ele>
        <time>2017-12-03T12:27:03Z</time>
      </trkpt>
      <trkpt lat="45.00233" lon="5.54911">
        <ele>1979.6</ele>
        <time>2017-12-03T12:27:08Z</time>
      </trkpt>
      <trkpt lat="45.00235" lon="5.54915">
        <ele>1977.4</ele>
        <time>2017-12-03T12:27:13Z</time>
      </trkpt>
      <trkpt lat="45.00237" lon="5.54919">
        <ele>1976.2</ele>
        <time>2017-12-03T12:27:18Z</time>
      </trkpt>
      <trkpt lat="45.00238" lon="5.54922">
        <ele>1977.4</ele>
        <time>2017-12-03T12:27:23Z</time>
      </trkpt>
      <trkpt lat="45.00239" lon="5.54925">
        <ele>1979</ele>
        <time>2017-12-03T12:27:28Z</time>
      </trkpt>
      <trkpt lat="45.00241" lon="5.54927">
        <ele>1980.4</ele>
        <time>2017-12-03T12:27:33Z</time>
      </trkpt>
      <trkpt lat="45.00244" lon="5.5493">
        <ele>1978.4</ele>
        <time>2017-12-03T12:27:38Z</time>
      </trkpt>
      <trkpt lat="45.00245" lon="5.54932">
        <ele>1980.8</ele>
        <time>2017-12-03T12:27:43Z</time>
      </trkpt>
      <trkpt lat="45.00247" lon="5.54935">
        <ele>1978.8</ele>
        <time>2017-12-03T12:27:48Z</time>
      </trkpt>
      <trkpt lat="45.00246" lon="5.54937">
        <ele>1977.8</ele>
        <time>2017-12-03T12:27:53Z</time>
      </trkpt>
      <trkpt lat="45.00247" lon="5.54939">
        <ele>1982.2</ele>
        <time>2017-12-03T12:27:58Z</time>
      </trkpt>
      <trkpt lat="45.00248" lon="5.54942">
        <ele>1984.4</ele>
        <time>2017-12-03T12:28:03Z</time>
      </trkpt>
      <trkpt lat="45.0025" lon="5.54945">
        <ele>1983.4</ele>
        <time>2017-12-03T12:28:08Z</time>
      </trkpt>
      <trkpt lat="45.00251" lon="5.54948">
        <ele>1983.2</ele>
        <time>2017-12-03T12:28:13Z</time>
      </trkpt>
      <trkpt lat="45.00251" lon="5.54948">
        <ele>1985.4</ele>
        <time>2017-12-03T12:28:18Z</time>
      </trkpt>
      <trkpt lat="45.00251" lon="5.54948">
        <ele>1985.4</ele>
        <time>2017-12-03T12:28:23Z</time>
      </trkpt>
      <trkpt lat="45.00251" lon="5.54948">
        <ele>1985.4</ele>
        <time>2017-12-03T12:28:28Z</time>
      </trkpt>
      <trkpt lat="45.00251" lon="5.54948">
        <ele>1985.4</ele>
        <time>2017-12-03T12:28:33Z</time>
      </trkpt>
      <trkpt lat="45.00251" lon="5.54948">
        <ele>1985.4</ele>
        <time>2017-12-03T12:28:38Z</time>
      </trkpt>
      <trkpt lat="45.00251" lon="5.54948">
        <ele>1985.4</ele>
        <time>2017-12-03T12:28:43Z</time>
      </trkpt>
      <trkpt lat="45.00251" lon="5.54948">
        <ele>1985.4</ele>
        <time>2017-12-03T12:28:48Z</time>
      </trkpt>
      <trkpt lat="45.00251" lon="5.54948">
        <ele>1985.4</ele>
        <time>2017-12-03T12:28:53Z</time>
      </trkpt>
      <trkpt lat="45.00251" lon="5.54948">
        <ele>1985.4</ele>
        <time>2017-12-03T12:28:58Z</time>
      </trkpt>
      <trkpt lat="45.00251" lon="5.54948">
        <ele>1985.4</ele>
        <time>2017-12-03T12:29:03Z</time>
      </trkpt>
      <trkpt lat="45.00251" lon="5.54948">
        <ele>1985.4</ele>
        <time>2017-12-03T12:29:08Z</time>
      </trkpt>
      <trkpt lat="45.00251" lon="5.54948">
        <ele>1985.4</ele>
        <time>2017-12-03T12:29:13Z</time>
      </trkpt>
      <trkpt lat="45.00251" lon="5.54948">
        <ele>1985.4</ele>
        <time>2017-12-03T12:29:18Z</time>
      </trkpt>
      <trkpt lat="45.00251" lon="5.54948">
        <ele>1985.4</ele>
        <time>2017-12-03T12:29:23Z</time>
      </trkpt>
      <trkpt lat="45.00251" lon="5.54948">
        <ele>1985.4</ele>
        <time>2017-12-03T12:29:28Z</time>
      </trkpt>
      <trkpt lat="45.00251" lon="5.54948">
        <ele>1985.4</ele>
        <time>2017-12-03T12:29:34Z</time>
      </trkpt>
      <trkpt lat="45.00256" lon="5.54948">
        <ele>1983.4</ele>
        <time>2017-12-03T12:29:39Z</time>
      </trkpt>
      <trkpt lat="45.00261" lon="5.54945">
        <ele>1983.8</ele>
        <time>2017-12-03T12:29:44Z</time>
      </trkpt>
      <trkpt lat="45.00267" lon="5.54941">
        <ele>1981.4</ele>
        <time>2017-12-03T12:29:49Z</time>
      </trkpt>
      <trkpt lat="45.00272" lon="5.54937">
        <ele>1981.2</ele>
        <time>2017-12-03T12:29:54Z</time>
      </trkpt>
      <trkpt lat="45.00276" lon="5.54931">
        <ele>1984.2</ele>
        <time>2017-12-03T12:29:59Z</time>
      </trkpt>
      <trkpt lat="45.00279" lon="5.54927">
        <ele>1985.2</ele>
        <time>2017-12-03T12:30:04Z</time>
      </trkpt>
      <trkpt lat="45.0028" lon="5.5492">
        <ele>1984</ele>
        <time>2017-12-03T12:30:09Z</time>
      </trkpt>
      <trkpt lat="45.0028" lon="5.54913">
        <ele>1981</ele>
        <time>2017-12-03T12:30:14Z</time>
      </trkpt>
      <trkpt lat="45.00279" lon="5.54906">
        <ele>1985</ele>
        <time>2017-12-03T12:30:19Z</time>
      </trkpt>
      <trkpt lat="45.00277" lon="5.54895">
        <ele>1985.2</ele>
        <time>2017-12-03T12:30:24Z</time>
      </trkpt>
      <trkpt lat="45.00277" lon="5.54883">
        <ele>1982</ele>
        <time>2017-12-03T12:30:29Z</time>
      </trkpt>
      <trkpt lat="45.00276" lon="5.54871">
        <ele>1981.6</ele>
        <time>2017-12-03T12:30:34Z</time>
      </trkpt>
      <trkpt lat="45.00277" lon="5.54866">
        <ele>1981</ele>
        <time>2017-12-03T12:30:39Z</time>
      </trkpt>
      <trkpt lat="45.00277" lon="5.54866">
        <ele>1984.4</ele>
        <time>2017-12-03T12:30:44Z</time>
      </trkpt>
      <trkpt lat="45.00277" lon="5.54866">
        <ele>1983.6</ele>
        <time>2017-12-03T12:30:49Z</time>
      </trkpt>
      <trkpt lat="45.00277" lon="5.54865">
        <ele>1978.8</ele>
        <time>2017-12-03T12:38:55Z</time>
      </trkpt>
      <trkpt lat="45.00276" lon="5.54862">
        <ele>1980.6</ele>
        <time>2017-12-03T12:39:00Z</time>
      </trkpt>
      <trkpt lat="45.00272" lon="5.54844">
        <ele>1977.6</ele>
        <time>2017-12-03T12:39:06Z</time>
      </trkpt>
      <trkpt lat="45.00267" lon="5.5482">
        <ele>1975.8</ele>
        <time>2017-12-03T12:39:11Z</time>
      </trkpt>
      <trkpt lat="45.00262" lon="5.54806">
        <ele>1976.2</ele>
        <time>2017-12-03T12:39:16Z</time>
      </trkpt>
      <trkpt lat="45.00259" lon="5.54799">
        <ele>1976.8</ele>
        <time>2017-12-03T12:39:21Z</time>
      </trkpt>
      <trkpt lat="45.00254" lon="5.54785">
        <ele>1975.8</ele>
        <time>2017-12-03T12:39:26Z</time>
      </trkpt>
      <trkpt lat="45.00245" lon="5.54765">
        <ele>1972.2</ele>
        <time>2017-12-03T12:39:31Z</time>
      </trkpt>
      <trkpt lat="45.00237" lon="5.54747">
        <ele>1974.2</ele>
        <time>2017-12-03T12:39:36Z</time>
      </trkpt>
      <trkpt lat="45.00235" lon="5.54734">
        <ele>1970</ele>
        <time>2017-12-03T12:39:41Z</time>
      </trkpt>
      <trkpt lat="45.00233" lon="5.5472">
        <ele>1972</ele>
        <time>2017-12-03T12:39:46Z</time>
      </trkpt>
      <trkpt lat="45.0023" lon="5.54707">
        <ele>1969</ele>
        <time>2017-12-03T12:39:51Z</time>
      </trkpt>
      <trkpt lat="45.00225" lon="5.54683">
        <ele>1964.4</ele>
        <time>2017-12-03T12:39:56Z</time>
      </trkpt>
      <trkpt lat="45.00225" lon="5.54663">
        <ele>1965.6</ele>
        <time>2017-12-03T12:40:01Z</time>
      </trkpt>
      <trkpt lat="45.00225" lon="5.54648">
        <ele>1966.8</ele>
        <time>2017-12-03T12:40:06Z</time>
      </trkpt>
      <trkpt lat="45.00224" lon="5.54632">
        <ele>1962</ele>
        <time>2017-12-03T12:40:11Z</time>
      </trkpt>
      <trkpt lat="45.00223" lon="5.54605">
        <ele>1958.4</ele>
        <time>2017-12-03T12:40:16Z</time>
      </trkpt>
      <trkpt lat="45.00224" lon="5.54591">
        <ele>1957.8</ele>
        <time>2017-12-03T12:40:21Z</time>
      </trkpt>
      <trkpt lat="45.00226" lon="5.54583">
        <ele>1956.6</ele>
        <time>2017-12-03T12:40:26Z</time>
      </trkpt>
      <trkpt lat="45.0023" lon="5.54569">
        <ele>1956.2</ele>
        <time>2017-12-03T12:40:31Z</time>
      </trkpt>
      <trkpt lat="45.00228" lon="5.5454">
        <ele>1952.8</ele>
        <time>2017-12-03T12:40:36Z</time>
      </trkpt>
      <trkpt lat="45.00231" lon="5.54515">
        <ele>1945.6</ele>
        <time>2017-12-03T12:40:41Z</time>
      </trkpt>
      <trkpt lat="45.00232" lon="5.54489">
        <ele>1941.4</ele>
        <time>2017-12-03T12:40:46Z</time>
      </trkpt>
      <trkpt lat="45.00245" lon="5.54483">
        <ele>1936.8</ele>
        <time>2017-12-03T12:40:51Z</time>
      </trkpt>
      <trkpt lat="45.00248" lon="5.54462">
        <ele>1930.4</ele>
        <time>2017-12-03T12:40:56Z</time>
      </trkpt>
      <trkpt lat="45.00262" lon="5.54449">
        <ele>1921.4</ele>
        <time>2017-12-03T12:41:01Z</time>
      </trkpt>
      <trkpt lat="45.00256" lon="5.54425">
        <ele>1916.2</ele>
        <time>2017-12-03T12:41:06Z</time>
      </trkpt>
      <trkpt lat="45.00267" lon="5.5441">
        <ele>1912.6</ele>
        <time>2017-12-03T12:41:11Z</time>
      </trkpt>
      <trkpt lat="45.00267" lon="5.54385">
        <ele>1906.4</ele>
        <time>2017-12-03T12:41:16Z</time>
      </trkpt>
      <trkpt lat="45.00285" lon="5.54381">
        <ele>1902.8</ele>
        <time>2017-12-03T12:41:21Z</time>
      </trkpt>
      <trkpt lat="45.00285" lon="5.54381">
        <ele>1903.4</ele>
        <time>2017-12-03T12:41:26Z</time>
      </trkpt>
      <trkpt lat="45.00286" lon="5.54382">
        <ele>1903.4</ele>
        <time>2017-12-03T12:41:31Z</time>
      </trkpt>
      <trkpt lat="45.00286" lon="5.54381">
        <ele>1903.4</ele>
        <time>2017-12-03T12:41:36Z</time>
      </trkpt>
      <trkpt lat="45.00287" lon="5.54382">
        <ele>1903.2</ele>
        <time>2017-12-03T12:41:41Z</time>
      </trkpt>
      <trkpt lat="45.00287" lon="5.54382">
        <ele>1903</ele>
        <time>2017-12-03T12:41:46Z</time>
      </trkpt>
      <trkpt lat="45.00288" lon="5.54382">
        <ele>1902.6</ele>
        <time>2017-12-03T12:41:51Z</time>
      </trkpt>
      <trkpt lat="45.00288" lon="5.54382">
        <ele>1902.4</ele>
        <time>2017-12-03T12:41:56Z</time>
      </trkpt>
      <trkpt lat="45.00288" lon="5.54382">
        <ele>1902.2</ele>
        <time>2017-12-03T12:42:01Z</time>
      </trkpt>
      <trkpt lat="45.00288" lon="5.54382">
        <ele>1902.2</ele>
        <time>2017-12-03T12:42:06Z</time>
      </trkpt>
      <trkpt lat="45.00288" lon="5.54382">
        <ele>1902.2</ele>
        <time>2017-12-03T12:42:11Z</time>
      </trkpt>
      <trkpt lat="45.00288" lon="5.54382">
        <ele>1902</ele>
        <time>2017-12-03T12:42:16Z</time>
      </trkpt>
      <trkpt lat="45.00288" lon="5.54383">
        <ele>1902</ele>
        <time>2017-12-03T12:42:21Z</time>
      </trkpt>
      <trkpt lat="45.00288" lon="5.54383">
        <ele>1902</ele>
        <time>2017-12-03T12:42:26Z</time>
      </trkpt>
      <trkpt lat="45.00288" lon="5.54383">
        <ele>1902</ele>
        <time>2017-12-03T12:42:31Z</time>
      </trkpt>
      <trkpt lat="45.00288" lon="5.54383">
        <ele>1902</ele>
        <time>2017-12-03T12:42:36Z</time>
      </trkpt>
      <trkpt lat="45.00288" lon="5.54383">
        <ele>1901.8</ele>
        <time>2017-12-03T12:42:41Z</time>
      </trkpt>
      <trkpt lat="45.00288" lon="5.54383">
        <ele>1901.8</ele>
        <time>2017-12-03T12:42:46Z</time>
      </trkpt>
      <trkpt lat="45.00288" lon="5.54383">
        <ele>1901.8</ele>
        <time>2017-12-03T12:42:51Z</time>
      </trkpt>
      <trkpt lat="45.00288" lon="5.54383">
        <ele>1901.8</ele>
        <time>2017-12-03T12:42:56Z</time>
      </trkpt>
      <trkpt lat="45.00288" lon="5.54383">
        <ele>1901.8</ele>
        <time>2017-12-03T12:43:01Z</time>
      </trkpt>
      <trkpt lat="45.00288" lon="5.54383">
        <ele>1901.8</ele>
        <time>2017-12-03T12:43:06Z</time>
      </trkpt>
      <trkpt lat="45.00288" lon="5.54383">
        <ele>1901.8</ele>
        <time>2017-12-03T12:43:11Z</time>
      </trkpt>
      <trkpt lat="45.00288" lon="5.54383">
        <ele>1901.8</ele>
        <time>2017-12-03T12:43:16Z</time>
      </trkpt>
      <trkpt lat="45.00288" lon="5.54383">
        <ele>1901.8</ele>
        <time>2017-12-03T12:43:21Z</time>
      </trkpt>
      <trkpt lat="45.00288" lon="5.54383">
        <ele>1901.8</ele>
        <time>2017-12-03T12:43:26Z</time>
      </trkpt>
      <trkpt lat="45.00288" lon="5.54383">
        <ele>1901.8</ele>
        <time>2017-12-03T12:43:31Z</time>
      </trkpt>
      <trkpt lat="45.00288" lon="5.54383">
        <ele>1901.8</ele>
        <time>2017-12-03T12:43:36Z</time>
      </trkpt>
      <trkpt lat="45.00288" lon="5.54383">
        <ele>1901.8</ele>
        <time>2017-12-03T12:43:41Z</time>
      </trkpt>
      <trkpt lat="45.00288" lon="5.54383">
        <ele>1901.8</ele>
        <time>2017-12-03T12:43:46Z</time>
      </trkpt>
      <trkpt lat="45.00288" lon="5.54383">
        <ele>1901.8</ele>
        <time>2017-12-03T12:43:51Z</time>
      </trkpt>
      <trkpt lat="45.00288" lon="5.54383">
        <ele>1901.8</ele>
        <time>2017-12-03T12:43:56Z</time>
      </trkpt>
      <trkpt lat="45.00288" lon="5.54383">
        <ele>1901.8</ele>
        <time>2017-12-03T12:44:02Z</time>
      </trkpt>
      <trkpt lat="45.00288" lon="5.54383">
        <ele>1901.8</ele>
        <time>2017-12-03T12:44:07Z</time>
      </trkpt>
      <trkpt lat="45.00288" lon="5.54383">
        <ele>1901.8</ele>
        <time>2017-12-03T12:44:12Z</time>
      </trkpt>
      <trkpt lat="45.00288" lon="5.54383">
        <ele>1901.8</ele>
        <time>2017-12-03T12:44:17Z</time>
      </trkpt>
      <trkpt lat="45.00288" lon="5.54383">
        <ele>1901.8</ele>
        <time>2017-12-03T12:44:22Z</time>
      </trkpt>
      <trkpt lat="45.00288" lon="5.54383">
        <ele>1901.8</ele>
        <time>2017-12-03T12:44:27Z</time>
      </trkpt>
      <trkpt lat="45.00288" lon="5.54383">
        <ele>1901.8</ele>
        <time>2017-12-03T12:44:32Z</time>
      </trkpt>
      <trkpt lat="45.00289" lon="5.54383">
        <ele>1901.4</ele>
        <time>2017-12-03T12:44:37Z</time>
      </trkpt>
      <trkpt lat="45.003" lon="5.5438">
        <ele>1902.2</ele>
        <time>2017-12-03T12:44:42Z</time>
      </trkpt>
      <trkpt lat="45.00309" lon="5.54363">
        <ele>1894.8</ele>
        <time>2017-12-03T12:44:47Z</time>
      </trkpt>
      <trkpt lat="45.00325" lon="5.54352">
        <ele>1888.6</ele>
        <time>2017-12-03T12:44:52Z</time>
      </trkpt>
      <trkpt lat="45.00337" lon="5.5433">
        <ele>1880.8</ele>
        <time>2017-12-03T12:44:57Z</time>
      </trkpt>
      <trkpt lat="45.00355" lon="5.54325">
        <ele>1873.2</ele>
        <time>2017-12-03T12:45:02Z</time>
      </trkpt>
      <trkpt lat="45.0036" lon="5.54299">
        <ele>1865.6</ele>
        <time>2017-12-03T12:45:07Z</time>
      </trkpt>
      <trkpt lat="45.00379" lon="5.54282">
        <ele>1860.6</ele>
        <time>2017-12-03T12:45:12Z</time>
      </trkpt>
      <trkpt lat="45.00385" lon="5.5426">
        <ele>1854</ele>
        <time>2017-12-03T12:45:17Z</time>
      </trkpt>
      <trkpt lat="45.00384" lon="5.54259">
        <ele>1853.4</ele>
        <time>2017-12-03T12:45:22Z</time>
      </trkpt>
      <trkpt lat="45.00384" lon="5.54259">
        <ele>1852.8</ele>
        <time>2017-12-03T12:45:27Z</time>
      </trkpt>
      <trkpt lat="45.00383" lon="5.54259">
        <ele>1852.4</ele>
        <time>2017-12-03T12:45:32Z</time>
      </trkpt>
      <trkpt lat="45.00383" lon="5.54259">
        <ele>1852</ele>
        <time>2017-12-03T12:45:37Z</time>
      </trkpt>
      <trkpt lat="45.00381" lon="5.54245">
        <ele>1849</ele>
        <time>2017-12-03T12:45:42Z</time>
      </trkpt>
      <trkpt lat="45.00379" lon="5.54231">
        <ele>1844</ele>
        <time>2017-12-03T12:45:47Z</time>
      </trkpt>
      <trkpt lat="45.00394" lon="5.54215">
        <ele>1839.8</ele>
        <time>2017-12-03T12:45:52Z</time>
      </trkpt>
      <trkpt lat="45.00411" lon="5.542">
        <ele>1832.8</ele>
        <time>2017-12-03T12:45:57Z</time>
      </trkpt>
      <trkpt lat="45.0043" lon="5.5418">
        <ele>1825.8</ele>
        <time>2017-12-03T12:46:02Z</time>
      </trkpt>
      <trkpt lat="45.00442" lon="5.54157">
        <ele>1819.8</ele>
        <time>2017-12-03T12:46:07Z</time>
      </trkpt>
      <trkpt lat="45.00458" lon="5.54142">
        <ele>1815.4</ele>
        <time>2017-12-03T12:46:12Z</time>
      </trkpt>
      <trkpt lat="45.00468" lon="5.5412">
        <ele>1807.8</ele>
        <time>2017-12-03T12:46:17Z</time>
      </trkpt>
      <trkpt lat="45.00483" lon="5.5411">
        <ele>1803.4</ele>
        <time>2017-12-03T12:46:22Z</time>
      </trkpt>
      <trkpt lat="45.00488" lon="5.54116">
        <ele>1802.8</ele>
        <time>2017-12-03T12:46:27Z</time>
      </trkpt>
      <trkpt lat="45.00488" lon="5.54116">
        <ele>1802</ele>
        <time>2017-12-03T12:46:32Z</time>
      </trkpt>
      <trkpt lat="45.00488" lon="5.54116">
        <ele>1801.6</ele>
        <time>2017-12-03T12:46:37Z</time>
      </trkpt>
      <trkpt lat="45.00488" lon="5.54116">
        <ele>1801</ele>
        <time>2017-12-03T12:46:42Z</time>
      </trkpt>
      <trkpt lat="45.00488" lon="5.54116">
        <ele>1800.6</ele>
        <time>2017-12-03T12:46:47Z</time>
      </trkpt>
      <trkpt lat="45.00488" lon="5.54116">
        <ele>1800.4</ele>
        <time>2017-12-03T12:46:52Z</time>
      </trkpt>
      <trkpt lat="45.00488" lon="5.54116">
        <ele>1800.2</ele>
        <time>2017-12-03T12:46:57Z</time>
      </trkpt>
      <trkpt lat="45.00488" lon="5.54117">
        <ele>1800.6</ele>
        <time>2017-12-03T12:47:02Z</time>
      </trkpt>
      <trkpt lat="45.00493" lon="5.54116">
        <ele>1799.6</ele>
        <time>2017-12-03T12:47:07Z</time>
      </trkpt>
      <trkpt lat="45.00501" lon="5.54105">
        <ele>1799.4</ele>
        <time>2017-12-03T12:47:12Z</time>
      </trkpt>
      <trkpt lat="45.00512" lon="5.54088">
        <ele>1795.6</ele>
        <time>2017-12-03T12:47:17Z</time>
      </trkpt>
      <trkpt lat="45.00534" lon="5.54094">
        <ele>1792.2</ele>
        <time>2017-12-03T12:47:22Z</time>
      </trkpt>
      <trkpt lat="45.00559" lon="5.54102">
        <ele>1783.4</ele>
        <time>2017-12-03T12:47:27Z</time>
      </trkpt>
      <trkpt lat="45.00585" lon="5.54103">
        <ele>1772.8</ele>
        <time>2017-12-03T12:47:32Z</time>
      </trkpt>
      <trkpt lat="45.00608" lon="5.54109">
        <ele>1769.6</ele>
        <time>2017-12-03T12:47:37Z</time>
      </trkpt>
      <trkpt lat="45.00627" lon="5.54122">
        <ele>1762.4</ele>
        <time>2017-12-03T12:47:42Z</time>
      </trkpt>
      <trkpt lat="45.00626" lon="5.54121">
        <ele>1762.6</ele>
        <time>2017-12-03T12:47:47Z</time>
      </trkpt>
      <trkpt lat="45.00626" lon="5.54121">
        <ele>1762.8</ele>
        <time>2017-12-03T12:47:52Z</time>
      </trkpt>
      <trkpt lat="45.00626" lon="5.54121">
        <ele>1763</ele>
        <time>2017-12-03T12:47:57Z</time>
      </trkpt>
      <trkpt lat="45.00626" lon="5.54121">
        <ele>1763</ele>
        <time>2017-12-03T12:48:02Z</time>
      </trkpt>
      <trkpt lat="45.00625" lon="5.54121">
        <ele>1763</ele>
        <time>2017-12-03T12:48:07Z</time>
      </trkpt>
      <trkpt lat="45.00625" lon="5.5412">
        <ele>1763.2</ele>
        <time>2017-12-03T12:48:12Z</time>
      </trkpt>
      <trkpt lat="45.00625" lon="5.5412">
        <ele>1763.2</ele>
        <time>2017-12-03T12:48:17Z</time>
      </trkpt>
      <trkpt lat="45.00625" lon="5.5412">
        <ele>1763.2</ele>
        <time>2017-12-03T12:48:22Z</time>
      </trkpt>
      <trkpt lat="45.00627" lon="5.54114">
        <ele>1758.6</ele>
        <time>2017-12-03T12:48:27Z</time>
      </trkpt>
      <trkpt lat="45.00631" lon="5.54092">
        <ele>1753.2</ele>
        <time>2017-12-03T12:48:32Z</time>
      </trkpt>
      <trkpt lat="45.00639" lon="5.54076">
        <ele>1748.4</ele>
        <time>2017-12-03T12:48:37Z</time>
      </trkpt>
      <trkpt lat="45.00634" lon="5.54052">
        <ele>1739.6</ele>
        <time>2017-12-03T12:48:42Z</time>
      </trkpt>
      <trkpt lat="45.00637" lon="5.54034">
        <ele>1733</ele>
        <time>2017-12-03T12:48:47Z</time>
      </trkpt>
      <trkpt lat="45.00637" lon="5.54034">
        <ele>1731.2</ele>
        <time>2017-12-03T12:48:52Z</time>
      </trkpt>
      <trkpt lat="45.00637" lon="5.54035">
        <ele>1731.8</ele>
        <time>2017-12-03T12:48:57Z</time>
      </trkpt>
      <trkpt lat="45.00638" lon="5.54032">
        <ele>1731.2</ele>
        <time>2017-12-03T12:49:02Z</time>
      </trkpt>
      <trkpt lat="45.00632" lon="5.54017">
        <ele>1726.2</ele>
        <time>2017-12-03T12:49:07Z</time>
      </trkpt>
      <trkpt lat="45.0063" lon="5.53992">
        <ele>1721.2</ele>
        <time>2017-12-03T12:49:12Z</time>
      </trkpt>
      <trkpt lat="45.00635" lon="5.53969">
        <ele>1714.4</ele>
        <time>2017-12-03T12:49:17Z</time>
      </trkpt>
      <trkpt lat="45.00641" lon="5.53952">
        <ele>1709.6</ele>
        <time>2017-12-03T12:49:22Z</time>
      </trkpt>
      <trkpt lat="45.00636" lon="5.53927">
        <ele>1701.8</ele>
        <time>2017-12-03T12:49:27Z</time>
      </trkpt>
      <trkpt lat="45.00649" lon="5.53922">
        <ele>1694.8</ele>
        <time>2017-12-03T12:49:32Z</time>
      </trkpt>
      <trkpt lat="45.00665" lon="5.53927">
        <ele>1690.4</ele>
        <time>2017-12-03T12:49:37Z</time>
      </trkpt>
      <trkpt lat="45.00684" lon="5.53935">
        <ele>1685.4</ele>
        <time>2017-12-03T12:49:42Z</time>
      </trkpt>
      <trkpt lat="45.00704" lon="5.53942">
        <ele>1676.2</ele>
        <time>2017-12-03T12:49:47Z</time>
      </trkpt>
      <trkpt lat="45.00719" lon="5.53946">
        <ele>1672</ele>
        <time>2017-12-03T12:49:52Z</time>
      </trkpt>
      <trkpt lat="45.00721" lon="5.53948">
        <ele>1668.6</ele>
        <time>2017-12-03T12:49:57Z</time>
      </trkpt>
      <trkpt lat="45.00725" lon="5.53951">
        <ele>1666.4</ele>
        <time>2017-12-03T12:50:02Z</time>
      </trkpt>
      <trkpt lat="45.00743" lon="5.53951">
        <ele>1661</ele>
        <time>2017-12-03T12:50:07Z</time>
      </trkpt>
      <trkpt lat="45.00757" lon="5.53936">
        <ele>1654.6</ele>
        <time>2017-12-03T12:50:12Z</time>
      </trkpt>
      <trkpt lat="45.00769" lon="5.53924">
        <ele>1645.4</ele>
        <time>2017-12-03T12:50:17Z</time>
      </trkpt>
      <trkpt lat="45.00784" lon="5.53914">
        <ele>1643.6</ele>
        <time>2017-12-03T12:50:22Z</time>
      </trkpt>
      <trkpt lat="45.00779" lon="5.53893">
        <ele>1633.8</ele>
        <time>2017-12-03T12:50:27Z</time>
      </trkpt>
      <trkpt lat="45.00786" lon="5.53893">
        <ele>1632.4</ele>
        <time>2017-12-03T12:50:32Z</time>
      </trkpt>
      <trkpt lat="45.00787" lon="5.53893">
        <ele>1632.6</ele>
        <time>2017-12-03T12:50:37Z</time>
      </trkpt>
      <trkpt lat="45.00789" lon="5.53893">
        <ele>1632.8</ele>
        <time>2017-12-03T12:50:42Z</time>
      </trkpt>
      <trkpt lat="45.00791" lon="5.53892">
        <ele>1632</ele>
        <time>2017-12-03T12:50:47Z</time>
      </trkpt>
      <trkpt lat="45.00806" lon="5.53892">
        <ele>1629.2</ele>
        <time>2017-12-03T12:50:52Z</time>
      </trkpt>
      <trkpt lat="45.00821" lon="5.5389">
        <ele>1623.4</ele>
        <time>2017-12-03T12:50:57Z</time>
      </trkpt>
      <trkpt lat="45.00826" lon="5.53862">
        <ele>1610.4</ele>
        <time>2017-12-03T12:51:02Z</time>
      </trkpt>
      <trkpt lat="45.00834" lon="5.53837">
        <ele>1607.2</ele>
        <time>2017-12-03T12:51:07Z</time>
      </trkpt>
      <trkpt lat="45.00847" lon="5.5382">
        <ele>1592.8</ele>
        <time>2017-12-03T12:51:12Z</time>
      </trkpt>
      <trkpt lat="45.00849" lon="5.53795">
        <ele>1582.6</ele>
        <time>2017-12-03T12:51:17Z</time>
      </trkpt>
      <trkpt lat="45.00856" lon="5.53781">
        <ele>1579.6</ele>
        <time>2017-12-03T12:51:22Z</time>
      </trkpt>
      <trkpt lat="45.00859" lon="5.53783">
        <ele>1578.4</ele>
        <time>2017-12-03T12:51:27Z</time>
      </trkpt>
      <trkpt lat="45.00859" lon="5.53784">
        <ele>1577.8</ele>
        <time>2017-12-03T12:51:32Z</time>
      </trkpt>
      <trkpt lat="45.00859" lon="5.53784">
        <ele>1577</ele>
        <time>2017-12-03T12:51:37Z</time>
      </trkpt>
      <trkpt lat="45.00859" lon="5.53785">
        <ele>1576.2</ele>
        <time>2017-12-03T12:51:42Z</time>
      </trkpt>
      <trkpt lat="45.00859" lon="5.53785">
        <ele>1575.6</ele>
        <time>2017-12-03T12:51:47Z</time>
      </trkpt>
      <trkpt lat="45.00859" lon="5.53785">
        <ele>1575</ele>
        <time>2017-12-03T12:51:52Z</time>
      </trkpt>
      <trkpt lat="45.00859" lon="5.53785">
        <ele>1574.6</ele>
        <time>2017-12-03T12:51:57Z</time>
      </trkpt>
      <trkpt lat="45.00859" lon="5.53786">
        <ele>1574.4</ele>
        <time>2017-12-03T12:52:02Z</time>
      </trkpt>
      <trkpt lat="45.0086" lon="5.53786">
        <ele>1574.2</ele>
        <time>2017-12-03T12:52:07Z</time>
      </trkpt>
      <trkpt lat="45.00865" lon="5.53784">
        <ele>1571.4</ele>
        <time>2017-12-03T12:52:12Z</time>
      </trkpt>
      <trkpt lat="45.00871" lon="5.53765">
        <ele>1562.6</ele>
        <time>2017-12-03T12:52:17Z</time>
      </trkpt>
      <trkpt lat="45.00881" lon="5.53755">
        <ele>1559.2</ele>
        <time>2017-12-03T12:52:22Z</time>
      </trkpt>
      <trkpt lat="45.00898" lon="5.53752">
        <ele>1557.8</ele>
        <time>2017-12-03T12:52:27Z</time>
      </trkpt>
      <trkpt lat="45.00897" lon="5.53727">
        <ele>1551.6</ele>
        <time>2017-12-03T12:52:32Z</time>
      </trkpt>
      <trkpt lat="45.00906" lon="5.53711">
        <ele>1541</ele>
        <time>2017-12-03T12:52:37Z</time>
      </trkpt>
      <trkpt lat="45.00918" lon="5.53697">
        <ele>1537.6</ele>
        <time>2017-12-03T12:52:42Z</time>
      </trkpt>
      <trkpt lat="45.00927" lon="5.53684">
        <ele>1531</ele>
        <time>2017-12-03T12:52:47Z</time>
      </trkpt>
      <trkpt lat="45.00933" lon="5.53675">
        <ele>1533</ele>
        <time>2017-12-03T12:52:52Z</time>
      </trkpt>
      <trkpt lat="45.00947" lon="5.53662">
        <ele>1525.6</ele>
        <time>2017-12-03T12:52:57Z</time>
      </trkpt>
      <trkpt lat="45.00946" lon="5.53642">
        <ele>1520.2</ele>
        <time>2017-12-03T12:53:02Z</time>
      </trkpt>
      <trkpt lat="45.0093" lon="5.53628">
        <ele>1511</ele>
        <time>2017-12-03T12:53:07Z</time>
      </trkpt>
      <trkpt lat="45.00945" lon="5.53621">
        <ele>1505</ele>
        <time>2017-12-03T12:53:12Z</time>
      </trkpt>
      <trkpt lat="45.00952" lon="5.53617">
        <ele>1504.2</ele>
        <time>2017-12-03T12:53:17Z</time>
      </trkpt>
      <trkpt lat="45.00953" lon="5.53616">
        <ele>1503.4</ele>
        <time>2017-12-03T12:53:22Z</time>
      </trkpt>
      <trkpt lat="45.00955" lon="5.53615">
        <ele>1502.2</ele>
        <time>2017-12-03T12:53:27Z</time>
      </trkpt>
      <trkpt lat="45.00952" lon="5.53602">
        <ele>1498</ele>
        <time>2017-12-03T12:53:32Z</time>
      </trkpt>
      <trkpt lat="45.00953" lon="5.53586">
        <ele>1488.6</ele>
        <time>2017-12-03T12:53:37Z</time>
      </trkpt>
      <trkpt lat="45.00947" lon="5.53562">
        <ele>1485.2</ele>
        <time>2017-12-03T12:53:42Z</time>
      </trkpt>
      <trkpt lat="45.00939" lon="5.5354">
        <ele>1476.2</ele>
        <time>2017-12-03T12:53:47Z</time>
      </trkpt>
      <trkpt lat="45.00955" lon="5.53518">
        <ele>1468.8</ele>
        <time>2017-12-03T12:53:52Z</time>
      </trkpt>
      <trkpt lat="45.00952" lon="5.53484">
        <ele>1462.8</ele>
        <time>2017-12-03T12:53:57Z</time>
      </trkpt>
      <trkpt lat="45.00937" lon="5.53464">
        <ele>1462</ele>
        <time>2017-12-03T12:54:02Z</time>
      </trkpt>
      <trkpt lat="45.00932" lon="5.53455">
        <ele>1457.2</ele>
        <time>2017-12-03T12:54:07Z</time>
      </trkpt>
      <trkpt lat="45.00932" lon="5.53454">
        <ele>1457.8</ele>
        <time>2017-12-03T12:54:12Z</time>
      </trkpt>
      <trkpt lat="45.00932" lon="5.53454">
        <ele>1458.4</ele>
        <time>2017-12-03T12:54:17Z</time>
      </trkpt>
      <trkpt lat="45.00931" lon="5.53455">
        <ele>1458.6</ele>
        <time>2017-12-03T12:54:22Z</time>
      </trkpt>
      <trkpt lat="45.00931" lon="5.53455">
        <ele>1458</ele>
        <time>2017-12-03T12:54:27Z</time>
      </trkpt>
      <trkpt lat="45.00931" lon="5.53455">
        <ele>1456.4</ele>
        <time>2017-12-03T12:54:32Z</time>
      </trkpt>
      <trkpt lat="45.00931" lon="5.53455">
        <ele>1455.8</ele>
        <time>2017-12-03T12:54:37Z</time>
      </trkpt>
      <trkpt lat="45.00931" lon="5.53455">
        <ele>1455.6</ele>
        <time>2017-12-03T12:54:42Z</time>
      </trkpt>
      <trkpt lat="45.00931" lon="5.53455">
        <ele>1455.4</ele>
        <time>2017-12-03T12:54:47Z</time>
      </trkpt>
      <trkpt lat="45.00931" lon="5.53456">
        <ele>1455.2</ele>
        <time>2017-12-03T12:54:52Z</time>
      </trkpt>
      <trkpt lat="45.00931" lon="5.53456">
        <ele>1455.2</ele>
        <time>2017-12-03T12:54:57Z</time>
      </trkpt>
      <trkpt lat="45.00931" lon="5.53456">
        <ele>1455</ele>
        <time>2017-12-03T12:55:02Z</time>
      </trkpt>
      <trkpt lat="45.00931" lon="5.53456">
        <ele>1455</ele>
        <time>2017-12-03T12:55:07Z</time>
      </trkpt>
      <trkpt lat="45.00931" lon="5.53456">
        <ele>1454.8</ele>
        <time>2017-12-03T12:55:12Z</time>
      </trkpt>
      <trkpt lat="45.00931" lon="5.53456">
        <ele>1454.8</ele>
        <time>2017-12-03T12:55:17Z</time>
      </trkpt>
      <trkpt lat="45.00931" lon="5.53456">
        <ele>1454.8</ele>
        <time>2017-12-03T12:55:22Z</time>
      </trkpt>
      <trkpt lat="45.00931" lon="5.53456">
        <ele>1454.8</ele>
        <time>2017-12-03T12:55:27Z</time>
      </trkpt>
      <trkpt lat="45.00931" lon="5.53456">
        <ele>1454.8</ele>
        <time>2017-12-03T12:55:32Z</time>
      </trkpt>
      <trkpt lat="45.00931" lon="5.53456">
        <ele>1454.8</ele>
        <time>2017-12-03T12:55:37Z</time>
      </trkpt>
      <trkpt lat="45.00931" lon="5.53456">
        <ele>1454.8</ele>
        <time>2017-12-03T12:55:42Z</time>
      </trkpt>
      <trkpt lat="45.00931" lon="5.53456">
        <ele>1454.8</ele>
        <time>2017-12-03T12:55:47Z</time>
      </trkpt>
      <trkpt lat="45.00931" lon="5.53456">
        <ele>1454.8</ele>
        <time>2017-12-03T12:55:52Z</time>
      </trkpt>
      <trkpt lat="45.00931" lon="5.53456">
        <ele>1454.8</ele>
        <time>2017-12-03T12:55:57Z</time>
      </trkpt>
      <trkpt lat="45.00931" lon="5.53456">
        <ele>1454.8</ele>
        <time>2017-12-03T12:56:02Z</time>
      </trkpt>
      <trkpt lat="45.00931" lon="5.53456">
        <ele>1454.8</ele>
        <time>2017-12-03T12:56:07Z</time>
      </trkpt>
      <trkpt lat="45.00932" lon="5.53456">
        <ele>1454.8</ele>
        <time>2017-12-03T12:56:12Z</time>
      </trkpt>
      <trkpt lat="45.00932" lon="5.53456">
        <ele>1454.6</ele>
        <time>2017-12-03T12:56:17Z</time>
      </trkpt>
      <trkpt lat="45.00932" lon="5.53456">
        <ele>1454.6</ele>
        <time>2017-12-03T12:56:22Z</time>
      </trkpt>
      <trkpt lat="45.00932" lon="5.53456">
        <ele>1454.6</ele>
        <time>2017-12-03T12:56:27Z</time>
      </trkpt>
      <trkpt lat="45.00932" lon="5.53456">
        <ele>1454.6</ele>
        <time>2017-12-03T12:56:32Z</time>
      </trkpt>
      <trkpt lat="45.00932" lon="5.53456">
        <ele>1454.6</ele>
        <time>2017-12-03T12:56:38Z</time>
      </trkpt>
      <trkpt lat="45.00934" lon="5.53451">
        <ele>1456.2</ele>
        <time>2017-12-03T12:56:44Z</time>
      </trkpt>
      <trkpt lat="45.00936" lon="5.53423">
        <ele>1449.4</ele>
        <time>2017-12-03T12:56:49Z</time>
      </trkpt>
      <trkpt lat="45.00958" lon="5.53411">
        <ele>1447</ele>
        <time>2017-12-03T12:56:54Z</time>
      </trkpt>
      <trkpt lat="45.00976" lon="5.53386">
        <ele>1440</ele>
        <time>2017-12-03T12:56:59Z</time>
      </trkpt>
      <trkpt lat="45.00999" lon="5.53359">
        <ele>1432.4</ele>
        <time>2017-12-03T12:57:04Z</time>
      </trkpt>
      <trkpt lat="45.01027" lon="5.53342">
        <ele>1428.6</ele>
        <time>2017-12-03T12:57:09Z</time>
      </trkpt>
      <trkpt lat="45.01052" lon="5.53323">
        <ele>1422.4</ele>
        <time>2017-12-03T12:57:14Z</time>
      </trkpt>
      <trkpt lat="45.01071" lon="5.5331">
        <ele>1418.6</ele>
        <time>2017-12-03T12:57:19Z</time>
      </trkpt>
      <trkpt lat="45.01087" lon="5.53301">
        <ele>1415.8</ele>
        <time>2017-12-03T12:57:24Z</time>
      </trkpt>
      <trkpt lat="45.01107" lon="5.53288">
        <ele>1415</ele>
        <time>2017-12-03T12:57:29Z</time>
      </trkpt>
      <trkpt lat="45.01121" lon="5.53286">
        <ele>1409.8</ele>
        <time>2017-12-03T12:57:34Z</time>
      </trkpt>
      <trkpt lat="45.0114" lon="5.53273">
        <ele>1402</ele>
        <time>2017-12-03T12:57:39Z</time>
      </trkpt>
      <trkpt lat="45.01163" lon="5.53271">
        <ele>1396.6</ele>
        <time>2017-12-03T12:57:44Z</time>
      </trkpt>
      <trkpt lat="45.01183" lon="5.53264">
        <ele>1388.4</ele>
        <time>2017-12-03T12:57:49Z</time>
      </trkpt>
      <trkpt lat="45.01202" lon="5.53261">
        <ele>1384</ele>
        <time>2017-12-03T12:57:54Z</time>
      </trkpt>
      <trkpt lat="45.01214" lon="5.5325">
        <ele>1384.2</ele>
        <time>2017-12-03T12:57:59Z</time>
      </trkpt>
      <trkpt lat="45.01231" lon="5.53246">
        <ele>1377.6</ele>
        <time>2017-12-03T12:58:04Z</time>
      </trkpt>
      <trkpt lat="45.01247" lon="5.53224">
        <ele>1370.8</ele>
        <time>2017-12-03T12:58:09Z</time>
      </trkpt>
      <trkpt lat="45.01268" lon="5.53208">
        <ele>1366.8</ele>
        <time>2017-12-03T12:58:14Z</time>
      </trkpt>
      <trkpt lat="45.01292" lon="5.53198">
        <ele>1361.6</ele>
        <time>2017-12-03T12:58:19Z</time>
      </trkpt>
      <trkpt lat="45.01316" lon="5.53194">
        <ele>1358.6</ele>
        <time>2017-12-03T12:58:24Z</time>
      </trkpt>
      <trkpt lat="45.01338" lon="5.53191">
        <ele>1353.2</ele>
        <time>2017-12-03T12:58:29Z</time>
      </trkpt>
      <trkpt lat="45.01364" lon="5.53187">
        <ele>1346.6</ele>
        <time>2017-12-03T12:58:34Z</time>
      </trkpt>
      <trkpt lat="45.0139" lon="5.5318">
        <ele>1342.2</ele>
        <time>2017-12-03T12:58:39Z</time>
      </trkpt>
      <trkpt lat="45.01415" lon="5.5317">
        <ele>1336.4</ele>
        <time>2017-12-03T12:58:44Z</time>
      </trkpt>
      <trkpt lat="45.01439" lon="5.53164">
        <ele>1334.2</ele>
        <time>2017-12-03T12:58:49Z</time>
      </trkpt>
      <trkpt lat="45.0146" lon="5.53153">
        <ele>1332.2</ele>
        <time>2017-12-03T12:58:54Z</time>
      </trkpt>
      <trkpt lat="45.01481" lon="5.53145">
        <ele>1325.4</ele>
        <time>2017-12-03T12:58:59Z</time>
      </trkpt>
      <trkpt lat="45.015" lon="5.53155">
        <ele>1323</ele>
        <time>2017-12-03T12:59:04Z</time>
      </trkpt>
      <trkpt lat="45.01516" lon="5.5314">
        <ele>1318</ele>
        <time>2017-12-03T12:59:09Z</time>
      </trkpt>
      <trkpt lat="45.01536" lon="5.53147">
        <ele>1309.6</ele>
        <time>2017-12-03T12:59:14Z</time>
      </trkpt>
      <trkpt lat="45.01545" lon="5.53154">
        <ele>1307.8</ele>
        <time>2017-12-03T12:59:19Z</time>
      </trkpt>
      <trkpt lat="45.01554" lon="5.53141">
        <ele>1304.8</ele>
        <time>2017-12-03T12:59:24Z</time>
      </trkpt>
      <trkpt lat="45.01559" lon="5.5311">
        <ele>1301.4</ele>
        <time>2017-12-03T12:59:29Z</time>
      </trkpt>
      <trkpt lat="45.0158" lon="5.53103">
        <ele>1296.2</ele>
        <time>2017-12-03T12:59:34Z</time>
      </trkpt>
      <trkpt lat="45.016" lon="5.53098">
        <ele>1290</ele>
        <time>2017-12-03T12:59:39Z</time>
      </trkpt>
      <trkpt lat="45.01618" lon="5.5308">
        <ele>1286.6</ele>
        <time>2017-12-03T12:59:44Z</time>
      </trkpt>
      <trkpt lat="45.01635" lon="5.53077">
        <ele>1281</ele>
        <time>2017-12-03T12:59:49Z</time>
      </trkpt>
      <trkpt lat="45.0165" lon="5.53055">
        <ele>1278.4</ele>
        <time>2017-12-03T12:59:54Z</time>
      </trkpt>
      <trkpt lat="45.01669" lon="5.53043">
        <ele>1275.8</ele>
        <time>2017-12-03T12:59:59Z</time>
      </trkpt>
      <trkpt lat="45.01691" lon="5.53029">
        <ele>1268</ele>
        <time>2017-12-03T13:00:04Z</time>
      </trkpt>
      <trkpt lat="45.01715" lon="5.53021">
        <ele>1265</ele>
        <time>2017-12-03T13:00:09Z</time>
      </trkpt>
      <trkpt lat="45.0174" lon="5.53016">
        <ele>1256.2</ele>
        <time>2017-12-03T13:00:14Z</time>
      </trkpt>
      <trkpt lat="45.01762" lon="5.53017">
        <ele>1254.6</ele>
        <time>2017-12-03T13:00:19Z</time>
      </trkpt>
      <trkpt lat="45.01777" lon="5.53004">
        <ele>1253.6</ele>
        <time>2017-12-03T13:00:24Z</time>
      </trkpt>
      <trkpt lat="45.01788" lon="5.52993">
        <ele>1251</ele>
        <time>2017-12-03T13:00:29Z</time>
      </trkpt>
      <trkpt lat="45.01792" lon="5.52988">
        <ele>1250.6</ele>
        <time>2017-12-03T13:00:34Z</time>
      </trkpt>
      <trkpt lat="45.01795" lon="5.52986">
        <ele>1248.8</ele>
        <time>2017-12-03T13:00:39Z</time>
      </trkpt>
      <trkpt lat="45.01795" lon="5.52984">
        <ele>1248.6</ele>
        <time>2017-12-03T13:00:44Z</time>
      </trkpt>
      <trkpt lat="45.01798" lon="5.52981">
        <ele>1244.6</ele>
        <time>2017-12-03T13:00:49Z</time>
      </trkpt>
      <trkpt lat="45.01799" lon="5.5298">
        <ele>1244.2</ele>
        <time>2017-12-03T13:00:54Z</time>
      </trkpt>
      <trkpt lat="45.018" lon="5.52978">
        <ele>1246</ele>
        <time>2017-12-03T13:00:59Z</time>
      </trkpt>
      <trkpt lat="45.01803" lon="5.52975">
        <ele>1243.8</ele>
        <time>2017-12-03T13:01:04Z</time>
      </trkpt>
      <trkpt lat="45.01806" lon="5.52972">
        <ele>1244</ele>
        <time>2017-12-03T13:01:09Z</time>
      </trkpt>
      <trkpt lat="45.01808" lon="5.5297">
        <ele>1246.6</ele>
        <time>2017-12-03T13:01:14Z</time>
      </trkpt>
      <trkpt lat="45.01809" lon="5.52969">
        <ele>1246.2</ele>
        <time>2017-12-03T13:01:19Z</time>
      </trkpt>
      <trkpt lat="45.01812" lon="5.52966">
        <ele>1246</ele>
        <time>2017-12-03T13:01:24Z</time>
      </trkpt>
      <trkpt lat="45.01812" lon="5.52966">
        <ele>1245.6</ele>
        <time>2017-12-03T13:01:30Z</time>
      </trkpt>
      <trkpt lat="45.01814" lon="5.52964">
        <ele>1243.6</ele>
        <time>2017-12-03T13:01:35Z</time>
      </trkpt>
      <trkpt lat="45.01816" lon="5.52961">
        <ele>1242.8</ele>
        <time>2017-12-03T13:01:40Z</time>
      </trkpt>
      <trkpt lat="45.01819" lon="5.52958">
        <ele>1246.2</ele>
        <time>2017-12-03T13:01:45Z</time>
      </trkpt>
      <trkpt lat="45.01821" lon="5.52957">
        <ele>1245.2</ele>
        <time>2017-12-03T13:01:50Z</time>
      </trkpt>
      <trkpt lat="45.01824" lon="5.52953">
        <ele>1243.6</ele>
        <time>2017-12-03T13:01:55Z</time>
      </trkpt>
      <trkpt lat="45.01828" lon="5.5295">
        <ele>1241</ele>
        <time>2017-12-03T13:02:00Z</time>
      </trkpt>
      <trkpt lat="45.01832" lon="5.52946">
        <ele>1243.8</ele>
        <time>2017-12-03T13:02:05Z</time>
      </trkpt>
      <trkpt lat="45.01834" lon="5.52944">
        <ele>1242.4</ele>
        <time>2017-12-03T13:02:10Z</time>
      </trkpt>
      <trkpt lat="45.01839" lon="5.52939">
        <ele>1244</ele>
        <time>2017-12-03T13:02:15Z</time>
      </trkpt>
      <trkpt lat="45.01845" lon="5.52933">
        <ele>1244</ele>
        <time>2017-12-03T13:02:20Z</time>
      </trkpt>
      <trkpt lat="45.0185" lon="5.52929">
        <ele>1240.6</ele>
        <time>2017-12-03T13:02:25Z</time>
      </trkpt>
      <trkpt lat="45.01858" lon="5.52928">
        <ele>1244.2</ele>
        <time>2017-12-03T13:02:30Z</time>
      </trkpt>
      <trkpt lat="45.01869" lon="5.5293">
        <ele>1244.4</ele>
        <time>2017-12-03T13:02:35Z</time>
      </trkpt>
      <trkpt lat="45.01881" lon="5.52935">
        <ele>1243.8</ele>
        <time>2017-12-03T13:02:40Z</time>
      </trkpt>
      <trkpt lat="45.01892" lon="5.52939">
        <ele>1243.6</ele>
        <time>2017-12-03T13:02:45Z</time>
      </trkpt>
      <trkpt lat="45.01902" lon="5.52943">
        <ele>1243</ele>
        <time>2017-12-03T13:02:50Z</time>
      </trkpt>
      <trkpt lat="45.01913" lon="5.52946">
        <ele>1240.6</ele>
        <time>2017-12-03T13:02:55Z</time>
      </trkpt>
      <trkpt lat="45.01921" lon="5.52947">
        <ele>1241.8</ele>
        <time>2017-12-03T13:03:00Z</time>
      </trkpt>
      <trkpt lat="45.0193" lon="5.52949">
        <ele>1241.8</ele>
        <time>2017-12-03T13:03:05Z</time>
      </trkpt>
      <trkpt lat="45.0194" lon="5.52948">
        <ele>1240.2</ele>
        <time>2017-12-03T13:03:10Z</time>
      </trkpt>
      <trkpt lat="45.0195" lon="5.52947">
        <ele>1240.2</ele>
        <time>2017-12-03T13:03:15Z</time>
      </trkpt>
      <trkpt lat="45.01961" lon="5.52947">
        <ele>1240.6</ele>
        <time>2017-12-03T13:03:20Z</time>
      </trkpt>
      <trkpt lat="45.01971" lon="5.52947">
        <ele>1237.4</ele>
        <time>2017-12-03T13:03:25Z</time>
      </trkpt>
      <trkpt lat="45.01982" lon="5.52946">
        <ele>1236.4</ele>
        <time>2017-12-03T13:03:30Z</time>
      </trkpt>
      <trkpt lat="45.01994" lon="5.52946">
        <ele>1238.4</ele>
        <time>2017-12-03T13:03:35Z</time>
      </trkpt>
      <trkpt lat="45.02007" lon="5.52943">
        <ele>1238.4</ele>
        <time>2017-12-03T13:03:40Z</time>
      </trkpt>
      <trkpt lat="45.02022" lon="5.52936">
        <ele>1235.6</ele>
        <time>2017-12-03T13:03:45Z</time>
      </trkpt>
      <trkpt lat="45.02035" lon="5.52924">
        <ele>1237</ele>
        <time>2017-12-03T13:03:50Z</time>
      </trkpt>
      <trkpt lat="45.02044" lon="5.5291">
        <ele>1236.4</ele>
        <time>2017-12-03T13:03:55Z</time>
      </trkpt>
      <trkpt lat="45.02043" lon="5.52894">
        <ele>1235.6</ele>
        <time>2017-12-03T13:04:00Z</time>
      </trkpt>
      <trkpt lat="45.02042" lon="5.52879">
        <ele>1235.4</ele>
        <time>2017-12-03T13:04:05Z</time>
      </trkpt>
      <trkpt lat="45.02042" lon="5.52869">
        <ele>1235.8</ele>
        <time>2017-12-03T13:04:10Z</time>
      </trkpt>
      <trkpt lat="45.0204" lon="5.52863">
        <ele>1234.6</ele>
        <time>2017-12-03T13:04:15Z</time>
      </trkpt>
      <trkpt lat="45.0204" lon="5.52857">
        <ele>1237</ele>
        <time>2017-12-03T13:04:20Z</time>
      </trkpt>
      <trkpt lat="45.02039" lon="5.52851">
        <ele>1236.6</ele>
        <time>2017-12-03T13:04:25Z</time>
      </trkpt>
      <trkpt lat="45.02039" lon="5.5284">
        <ele>1233.4</ele>
        <time>2017-12-03T13:04:30Z</time>
      </trkpt>
    </trkseg>
  </trk>
</gpx>